<?xml version='1.0' encoding='UTF-8'?><gpx version="1.1" creator="JPX - https://github.com/jenetics/jpx" xmlns="http://www.topografix.com/GPX/1/1"><trk><trkseg><trkpt lat="45.46701813097031" lon="9.160779044861023"><ele>130.0</ele><time>2026-04-19T06:56:19.997Z</time></trkpt><trkpt lat="45.46688488941771" lon="9.160772551558004"><ele>130.0</ele><time>2026-04-19T06:56:25.983Z</time></trkpt><trkpt lat="45.467009284991605" lon="9.159842646765243"><ele>130.0</ele><time>2026-04-19T06:56:37.991Z</time></trkpt><trkpt lat="45.46702901479668" lon="9.159529474262941"><ele>130.0</ele><time>2026-04-19T06:56:44.723Z</time></trkpt><trkpt lat="45.46703403706425" lon="9.159394805056218"><ele>130.0</ele><time>2026-04-19T06:56:51.24Z</time></trkpt><trkpt lat="45.46726339564218" lon="9.159459521769698"><ele>130.0</ele><time>2026-04-19T06:56:56.992Z</time></trkpt><trkpt lat="45.46717110237839" lon="9.15941640950201"><ele>130.0</ele><time>2026-04-19T06:57:07.4Z</time></trkpt><trkpt lat="45.46710026189743" lon="9.159419053900878"><ele>130.0</ele><time>2026-04-19T06:57:10.4Z</time></trkpt><trkpt lat="45.46700859413619" lon="9.159387766286121"><ele>130.0</ele><time>2026-04-19T06:57:12.4Z</time></trkpt><trkpt lat="45.46693962741674" lon="9.159318737651825"><ele>130.0</ele><time>2026-04-19T06:57:13.4Z</time></trkpt><trkpt lat="45.4668628820596" lon="9.159299119496204"><ele>130.0</ele><time>2026-04-19T06:57:15.3Z</time></trkpt><trkpt lat="45.46682100045542" lon="9.159161229081"><ele>130.0</ele><time>2026-04-19T06:57:17.202Z</time></trkpt><trkpt lat="45.46682100833262" lon="9.159046615044263"><ele>130.0</ele><time>2026-04-19T06:57:19.104Z</time></trkpt><trkpt lat="45.466794567752785" lon="9.15894196693785"><ele>130.0</ele><time>2026-04-19T06:57:21.006Z</time></trkpt><trkpt lat="45.466781994180145" lon="9.158813804185497"><ele>130.0</ele><time>2026-04-19T06:57:22.989Z</time></trkpt><trkpt lat="45.46678981322177" lon="9.158684611258412"><ele>130.0</ele><time>2026-04-19T06:57:24.99Z</time></trkpt><trkpt lat="45.46678262089884" lon="9.158529412749566"><ele>130.0</ele><time>2026-04-19T06:57:26.991Z</time></trkpt><trkpt lat="45.46677903705436" lon="9.15838487901091"><ele>129.75</ele><time>2026-04-19T06:57:28.992Z</time></trkpt><trkpt lat="45.46676445481085" lon="9.15824525154198"><ele>129.5</ele><time>2026-04-19T06:57:30.993Z</time></trkpt><trkpt lat="45.46675756562218" lon="9.158091651661138"><ele>129.25</ele><time>2026-04-19T06:57:32.994Z</time></trkpt><trkpt lat="45.46669484445927" lon="9.157825676089534"><ele>129.0</ele><time>2026-04-19T06:57:33.995Z</time></trkpt><trkpt lat="45.46670429971621" lon="9.157688628009218"><ele>129.0</ele><time>2026-04-19T06:57:35.995Z</time></trkpt><trkpt lat="45.46670946456772" lon="9.157539004578018"><ele>129.0</ele><time>2026-04-19T06:57:37.996Z</time></trkpt><trkpt lat="45.4667418259663" lon="9.157389553522375"><ele>129.0</ele><time>2026-04-19T06:57:39.997Z</time></trkpt><trkpt lat="45.46675196415908" lon="9.157242676464119"><ele>129.0</ele><time>2026-04-19T06:57:41.997Z</time></trkpt><trkpt lat="45.46675288304348" lon="9.157099116970722"><ele>129.0</ele><time>2026-04-19T06:57:43.998Z</time></trkpt><trkpt lat="45.46677394517635" lon="9.156932142627708"><ele>128.4</ele><time>2026-04-19T06:57:45.998Z</time></trkpt><trkpt lat="45.46677421219707" lon="9.15675818295269"><ele>127.80000000000001</ele><time>2026-04-19T06:57:47.998Z</time></trkpt><trkpt lat="45.46678811565206" lon="9.156604131498273"><ele>127.19999999999999</ele><time>2026-04-19T06:57:49.998Z</time></trkpt><trkpt lat="45.46680202912002" lon="9.156433191148032"><ele>126.6</ele><time>2026-04-19T06:57:51.999Z</time></trkpt><trkpt lat="45.46681225836485" lon="9.156343561396081"><ele>126.0</ele><time>2026-04-19T06:57:52.999Z</time></trkpt><trkpt lat="45.466831202557636" lon="9.156188893435157"><ele>126.0</ele><time>2026-04-19T06:57:54.999Z</time></trkpt><trkpt lat="45.466849906817785" lon="9.156033651898856"><ele>126.0</ele><time>2026-04-19T06:57:56.999Z</time></trkpt><trkpt lat="45.46686880772304" lon="9.15588569767235"><ele>126.0</ele><time>2026-04-19T06:57:58.999Z</time></trkpt><trkpt lat="45.46688728362115" lon="9.15575118955482"><ele>126.0</ele><time>2026-04-19T06:58:01Z</time></trkpt><trkpt lat="45.466911590099585" lon="9.155667633834177"><ele>126.0</ele><time>2026-04-19T06:58:03Z</time></trkpt><trkpt lat="45.466909159143334" lon="9.155552008015245"><ele>126.0</ele><time>2026-04-19T06:58:05Z</time></trkpt><trkpt lat="45.466928740291635" lon="9.15546540722266"><ele>126.0</ele><time>2026-04-19T06:58:08Z</time></trkpt><trkpt lat="45.466931809640556" lon="9.155346574387343"><ele>126.0</ele><time>2026-04-19T06:58:16Z</time></trkpt><trkpt lat="45.46693707910167" lon="9.155205052310219"><ele>126.0</ele><time>2026-04-19T06:58:18Z</time></trkpt><trkpt lat="45.466932946667164" lon="9.155069884404085"><ele>126.0</ele><time>2026-04-19T06:58:20Z</time></trkpt><trkpt lat="45.466929996475066" lon="9.154939481554418"><ele>126.0</ele><time>2026-04-19T06:58:22Z</time></trkpt><trkpt lat="45.46693908922498" lon="9.154821666200611"><ele>126.0</ele><time>2026-04-19T06:58:24Z</time></trkpt><trkpt lat="45.466953318227716" lon="9.154670027735218"><ele>126.0</ele><time>2026-04-19T06:58:26Z</time></trkpt><trkpt lat="45.46696576187027" lon="9.15452955669125"><ele>126.0</ele><time>2026-04-19T06:58:28Z</time></trkpt><trkpt lat="45.466980744662905" lon="9.15437816551348"><ele>126.0</ele><time>2026-04-19T06:58:30.001Z</time></trkpt><trkpt lat="45.466999382404744" lon="9.154228405734552"><ele>126.0</ele><time>2026-04-19T06:58:32.001Z</time></trkpt><trkpt lat="45.46699765741027" lon="9.154091734457795"><ele>126.5</ele><time>2026-04-19T06:58:34.001Z</time></trkpt><trkpt lat="45.46700606659055" lon="9.153963266644807"><ele>127.0</ele><time>2026-04-19T06:58:36.001Z</time></trkpt><trkpt lat="45.466990406789655" lon="9.153851170326385"><ele>127.5</ele><time>2026-04-19T06:58:38.001Z</time></trkpt><trkpt lat="45.4670038372102" lon="9.153714317877204"><ele>128.0</ele><time>2026-04-19T06:58:40.001Z</time></trkpt><trkpt lat="45.46701461494867" lon="9.153591638797693"><ele>128.5</ele><time>2026-04-19T06:58:42.001Z</time></trkpt><trkpt lat="45.46701723066251" lon="9.153476649076872"><ele>129.0</ele><time>2026-04-19T06:58:44.001Z</time></trkpt><trkpt lat="45.46703885643367" lon="9.153378083730795"><ele>129.0</ele><time>2026-04-19T06:58:46.001Z</time></trkpt><trkpt lat="45.467032208423056" lon="9.15326406131781"><ele>129.0</ele><time>2026-04-19T06:58:49.001Z</time></trkpt><trkpt lat="45.4670816525706" lon="9.153176401917502"><ele>129.0</ele><time>2026-04-19T06:58:53.001Z</time></trkpt><trkpt lat="45.467129223461924" lon="9.153065082055548"><ele>129.0</ele><time>2026-04-19T06:58:56.001Z</time></trkpt><trkpt lat="45.46717629503936" lon="9.15294573094877"><ele>129.0</ele><time>2026-04-19T06:58:58.001Z</time></trkpt><trkpt lat="45.46720966428083" lon="9.152843751350392"><ele>129.0</ele><time>2026-04-19T06:59:00.001Z</time></trkpt><trkpt lat="45.467294349018346" lon="9.152740210139099"><ele>129.0</ele><time>2026-04-19T06:59:03.001Z</time></trkpt><trkpt lat="45.467356510300384" lon="9.15267273055482"><ele>129.0</ele><time>2026-04-19T06:59:05.001Z</time></trkpt><trkpt lat="45.46743369279363" lon="9.15256213411169"><ele>129.0</ele><time>2026-04-19T06:59:07.001Z</time></trkpt><trkpt lat="45.4674873887501" lon="9.152491863758097"><ele>129.0</ele><time>2026-04-19T06:59:09.001Z</time></trkpt><trkpt lat="45.46753476604258" lon="9.152415767729428"><ele>129.0</ele><time>2026-04-19T06:59:11.001Z</time></trkpt><trkpt lat="45.46758987268609" lon="9.152344086708402"><ele>129.0</ele><time>2026-04-19T06:59:13.002Z</time></trkpt><trkpt lat="45.46763126608812" lon="9.152270131380146"><ele>129.0</ele><time>2026-04-19T06:59:15.002Z</time></trkpt><trkpt lat="45.467681772128024" lon="9.152203950100526"><ele>129.0</ele><time>2026-04-19T06:59:16.002Z</time></trkpt><trkpt lat="45.46775890005266" lon="9.152074617677696"><ele>129.0</ele><time>2026-04-19T06:59:18.001Z</time></trkpt><trkpt lat="45.46784759490273" lon="9.151955195985932"><ele>129.0</ele><time>2026-04-19T06:59:20.001Z</time></trkpt><trkpt lat="45.467926735514645" lon="9.151860727361129"><ele>129.0</ele><time>2026-04-19T06:59:22.001Z</time></trkpt><trkpt lat="45.46799871808647" lon="9.151744312652822"><ele>129.2</ele><time>2026-04-19T06:59:24.001Z</time></trkpt><trkpt lat="45.46806287331884" lon="9.151662700192947"><ele>129.4</ele><time>2026-04-19T06:59:26.001Z</time></trkpt><trkpt lat="45.46813780029145" lon="9.151557568423996"><ele>129.6</ele><time>2026-04-19T06:59:28.001Z</time></trkpt><trkpt lat="45.46820927442106" lon="9.151443988581121"><ele>129.8</ele><time>2026-04-19T06:59:30.001Z</time></trkpt><trkpt lat="45.46828495931184" lon="9.151364202969507"><ele>130.0</ele><time>2026-04-19T06:59:32.001Z</time></trkpt><trkpt lat="45.46836276821793" lon="9.151255252289243"><ele>130.0</ele><time>2026-04-19T06:59:34Z</time></trkpt><trkpt lat="45.46844807939448" lon="9.151163886146819"><ele>130.0</ele><time>2026-04-19T06:59:36Z</time></trkpt><trkpt lat="45.4684967323284" lon="9.15106529203449"><ele>130.0</ele><time>2026-04-19T06:59:38Z</time></trkpt><trkpt lat="45.468566200381844" lon="9.150996376356593"><ele>130.0</ele><time>2026-04-19T06:59:40Z</time></trkpt><trkpt lat="45.46864262680645" lon="9.150879311762898"><ele>130.0</ele><time>2026-04-19T06:59:42Z</time></trkpt><trkpt lat="45.4687148247276" lon="9.150737454978492"><ele>130.0</ele><time>2026-04-19T06:59:44Z</time></trkpt><trkpt lat="45.46878836282038" lon="9.150655019750877"><ele>130.0</ele><time>2026-04-19T06:59:46Z</time></trkpt><trkpt lat="45.46885240848493" lon="9.150536446010706"><ele>130.0</ele><time>2026-04-19T06:59:48Z</time></trkpt><trkpt lat="45.46892704432466" lon="9.150489212516447"><ele>130.0</ele><time>2026-04-19T06:59:50Z</time></trkpt><trkpt lat="45.468998990249275" lon="9.150410494302113"><ele>130.0</ele><time>2026-04-19T06:59:52Z</time></trkpt><trkpt lat="45.469064415409036" lon="9.150284858105172"><ele>130.0</ele><time>2026-04-19T06:59:54Z</time></trkpt><trkpt lat="45.4691529495139" lon="9.150182305166824"><ele>130.0</ele><time>2026-04-19T06:59:56Z</time></trkpt><trkpt lat="45.469226451235066" lon="9.150080614678666"><ele>130.0</ele><time>2026-04-19T06:59:58Z</time></trkpt><trkpt lat="45.46929942284969" lon="9.149973615641219"><ele>130.0</ele><time>2026-04-19T07:00:00Z</time></trkpt><trkpt lat="45.46938947238888" lon="9.149854140788868"><ele>130.0</ele><time>2026-04-19T07:00:02Z</time></trkpt><trkpt lat="45.46946113851149" lon="9.149747445782864"><ele>130.4</ele><time>2026-04-19T07:00:04Z</time></trkpt><trkpt lat="45.4695410241308" lon="9.149655534628604"><ele>130.8</ele><time>2026-04-19T07:00:06Z</time></trkpt><trkpt lat="45.46961170607844" lon="9.14957532680515"><ele>131.2</ele><time>2026-04-19T07:00:08Z</time></trkpt><trkpt lat="45.46967809742035" lon="9.149465348452946"><ele>131.6</ele><time>2026-04-19T07:00:12Z</time></trkpt><trkpt lat="45.469743455661636" lon="9.149359575046107"><ele>132.0</ele><time>2026-04-19T07:00:14Z</time></trkpt><trkpt lat="45.46979462057173" lon="9.149304906814711"><ele>132.0</ele><time>2026-04-19T07:00:15Z</time></trkpt><trkpt lat="45.46986250583459" lon="9.149220123610457"><ele>132.0</ele><time>2026-04-19T07:00:17Z</time></trkpt><trkpt lat="45.469938583152576" lon="9.149138375326705"><ele>132.0</ele><time>2026-04-19T07:00:19Z</time></trkpt><trkpt lat="45.47001754517108" lon="9.149042527255052"><ele>132.0</ele><time>2026-04-19T07:00:21Z</time></trkpt><trkpt lat="45.47009755611852" lon="9.148970185623241"><ele>132.0</ele><time>2026-04-19T07:00:23Z</time></trkpt><trkpt lat="45.470171801333564" lon="9.148897917550293"><ele>131.6</ele><time>2026-04-19T07:00:25Z</time></trkpt><trkpt lat="45.470217692842795" lon="9.148789120704727"><ele>131.2</ele><time>2026-04-19T07:00:27Z</time></trkpt><trkpt lat="45.470286244709854" lon="9.148740101539573"><ele>130.8</ele><time>2026-04-19T07:00:29Z</time></trkpt><trkpt lat="45.47035895064214" lon="9.148652794217966"><ele>130.4</ele><time>2026-04-19T07:00:31Z</time></trkpt><trkpt lat="45.47043376320604" lon="9.148505511752635"><ele>130.0</ele><time>2026-04-19T07:00:33Z</time></trkpt><trkpt lat="45.47050490982896" lon="9.148423572193058"><ele>130.0</ele><time>2026-04-19T07:00:35Z</time></trkpt><trkpt lat="45.47056027002883" lon="9.148379740927075"><ele>130.0</ele><time>2026-04-19T07:00:37Z</time></trkpt><trkpt lat="45.470605942723935" lon="9.14825828752098"><ele>130.0</ele><time>2026-04-19T07:00:39Z</time></trkpt><trkpt lat="45.470696745985386" lon="9.148190716538293"><ele>130.0</ele><time>2026-04-19T07:00:41Z</time></trkpt><trkpt lat="45.470767984413826" lon="9.148149481088394"><ele>130.0</ele><time>2026-04-19T07:00:43Z</time></trkpt><trkpt lat="45.470852469379935" lon="9.148011946745715"><ele>129.5</ele><time>2026-04-19T07:00:45Z</time></trkpt><trkpt lat="45.470934359825854" lon="9.147896130007902"><ele>129.0</ele><time>2026-04-19T07:00:47Z</time></trkpt><trkpt lat="45.471008918219226" lon="9.14782703539316"><ele>128.5</ele><time>2026-04-19T07:00:49Z</time></trkpt><trkpt lat="45.471082166737204" lon="9.14775815569193"><ele>128.0</ele><time>2026-04-19T07:00:51Z</time></trkpt><trkpt lat="45.471144780210565" lon="9.147677542490133"><ele>127.50000000000001</ele><time>2026-04-19T07:00:53Z</time></trkpt><trkpt lat="45.47119096676753" lon="9.147613463334112"><ele>127.0</ele><time>2026-04-19T07:00:54Z</time></trkpt><trkpt lat="45.47125501841995" lon="9.147543943293778"><ele>127.50000000000001</ele><time>2026-04-19T07:00:56Z</time></trkpt><trkpt lat="45.47131285069653" lon="9.147484546576898"><ele>128.0</ele><time>2026-04-19T07:00:58Z</time></trkpt><trkpt lat="45.4713546183648" lon="9.147408294395284"><ele>128.5</ele><time>2026-04-19T07:00:59Z</time></trkpt><trkpt lat="45.471409787179105" lon="9.14733478205057"><ele>129.0</ele><time>2026-04-19T07:01:01Z</time></trkpt><trkpt lat="45.47148690722074" lon="9.1472465228667"><ele>129.5</ele><time>2026-04-19T07:01:04Z</time></trkpt><trkpt lat="45.47157115284552" lon="9.147159718309323"><ele>130.0</ele><time>2026-04-19T07:01:06Z</time></trkpt><trkpt lat="45.47162045345607" lon="9.147060341020824"><ele>130.0</ele><time>2026-04-19T07:01:08Z</time></trkpt><trkpt lat="45.47169520826279" lon="9.146983691222985"><ele>130.0</ele><time>2026-04-19T07:01:10Z</time></trkpt><trkpt lat="45.47176879019929" lon="9.146854256102843"><ele>130.0</ele><time>2026-04-19T07:01:12Z</time></trkpt><trkpt lat="45.47183343565287" lon="9.146786014811747"><ele>130.0</ele><time>2026-04-19T07:01:14Z</time></trkpt><trkpt lat="45.471884381322646" lon="9.146721565129534"><ele>130.0</ele><time>2026-04-19T07:01:16Z</time></trkpt><trkpt lat="45.471954236430655" lon="9.146600207215265"><ele>129.66666666666669</ele><time>2026-04-19T07:01:18Z</time></trkpt><trkpt lat="45.472027066478375" lon="9.146495720072203"><ele>129.33333333333334</ele><time>2026-04-19T07:01:20.001Z</time></trkpt><trkpt lat="45.472096189648795" lon="9.14639386770383"><ele>129.0</ele><time>2026-04-19T07:01:22.001Z</time></trkpt><trkpt lat="45.47215088421324" lon="9.146309064074462"><ele>128.66666666666666</ele><time>2026-04-19T07:01:24.001Z</time></trkpt><trkpt lat="45.4722213882666" lon="9.146241536156253"><ele>128.33333333333331</ele><time>2026-04-19T07:01:26.001Z</time></trkpt><trkpt lat="45.47227626167534" lon="9.146168238059083"><ele>128.0</ele><time>2026-04-19T07:01:28.001Z</time></trkpt><trkpt lat="45.47233409137227" lon="9.146044231476877"><ele>127.99999999999999</ele><time>2026-04-19T07:01:30Z</time></trkpt><trkpt lat="45.472400567754605" lon="9.145968582303732"><ele>128.0</ele><time>2026-04-19T07:01:32Z</time></trkpt><trkpt lat="45.472467186024765" lon="9.145867463179256"><ele>128.0</ele><time>2026-04-19T07:01:34Z</time></trkpt><trkpt lat="45.47252208496017" lon="9.145785087120597"><ele>128.0</ele><time>2026-04-19T07:01:35Z</time></trkpt><trkpt lat="45.47260200802985" lon="9.145698624317431"><ele>127.99999999999999</ele><time>2026-04-19T07:01:37Z</time></trkpt><trkpt lat="45.47264415129474" lon="9.145625557995038"><ele>128.0</ele><time>2026-04-19T07:01:39Z</time></trkpt><trkpt lat="45.47271969282814" lon="9.145514393720171"><ele>128.20000000000002</ele><time>2026-04-19T07:01:41Z</time></trkpt><trkpt lat="45.47276865769347" lon="9.14545343134028"><ele>128.4</ele><time>2026-04-19T07:01:42Z</time></trkpt><trkpt lat="45.47283876409553" lon="9.145356608495653"><ele>128.60000000000002</ele><time>2026-04-19T07:01:44Z</time></trkpt><trkpt lat="45.47291559633233" lon="9.145231566732901"><ele>128.8</ele><time>2026-04-19T07:01:46Z</time></trkpt><trkpt lat="45.47296822049775" lon="9.145126283266427"><ele>129.0</ele><time>2026-04-19T07:01:48Z</time></trkpt><trkpt lat="45.473037234698076" lon="9.145053559436995"><ele>128.6</ele><time>2026-04-19T07:01:50Z</time></trkpt><trkpt lat="45.47309516803256" lon="9.144944316464603"><ele>128.2</ele><time>2026-04-19T07:01:52Z</time></trkpt><trkpt lat="45.47317133338416" lon="9.144833207191795"><ele>127.79999999999998</ele><time>2026-04-19T07:01:54Z</time></trkpt><trkpt lat="45.4732572509023" lon="9.144738703312749"><ele>127.39999999999999</ele><time>2026-04-19T07:01:56Z</time></trkpt><trkpt lat="45.473330228058956" lon="9.144645613849999"><ele>127.0</ele><time>2026-04-19T07:01:58Z</time></trkpt><trkpt lat="45.47339342347561" lon="9.144593630345824"><ele>126.83333333333334</ele><time>2026-04-19T07:02:01Z</time></trkpt><trkpt lat="45.47345468601706" lon="9.1444983220692"><ele>126.66666666666667</ele><time>2026-04-19T07:02:03Z</time></trkpt><trkpt lat="45.47354064593446" lon="9.144435131331106"><ele>126.5</ele><time>2026-04-19T07:02:06Z</time></trkpt><trkpt lat="45.4735951357237" lon="9.14434937888099"><ele>126.33333333333334</ele><time>2026-04-19T07:02:08Z</time></trkpt><trkpt lat="45.473686528749816" lon="9.144267929000462"><ele>126.16666666666667</ele><time>2026-04-19T07:02:10Z</time></trkpt><trkpt lat="45.47373242944679" lon="9.144205506448015"><ele>126.0</ele><time>2026-04-19T07:02:11Z</time></trkpt><trkpt lat="45.47382066618074" lon="9.144146243742888"><ele>126.0</ele><time>2026-04-19T07:02:13Z</time></trkpt><trkpt lat="45.473905024369294" lon="9.144123692567506"><ele>126.0</ele><time>2026-04-19T07:02:15Z</time></trkpt><trkpt lat="45.474007339593314" lon="9.144080653427872"><ele>126.0</ele><time>2026-04-19T07:02:17Z</time></trkpt><trkpt lat="45.47409993301838" lon="9.14403711022337"><ele>126.0</ele><time>2026-04-19T07:02:19Z</time></trkpt><trkpt lat="45.47419786138661" lon="9.143978553973975"><ele>126.0</ele><time>2026-04-19T07:02:21Z</time></trkpt><trkpt lat="45.47428893413215" lon="9.143942656002814"><ele>126.4</ele><time>2026-04-19T07:02:23Z</time></trkpt><trkpt lat="45.47436557197234" lon="9.143902398231937"><ele>126.8</ele><time>2026-04-19T07:02:25Z</time></trkpt><trkpt lat="45.4744645023105" lon="9.14386699925151"><ele>127.20000000000002</ele><time>2026-04-19T07:02:27Z</time></trkpt><trkpt lat="45.474629410063955" lon="9.143779809284322"><ele>127.60000000000001</ele><time>2026-04-19T07:02:31Z</time></trkpt><trkpt lat="45.47469971417774" lon="9.143736846876008"><ele>128.0</ele><time>2026-04-19T07:02:32Z</time></trkpt><trkpt lat="45.47481689024075" lon="9.143686547904373"><ele>128.0</ele><time>2026-04-19T07:02:34Z</time></trkpt><trkpt lat="45.47492868407105" lon="9.1436275718368"><ele>128.0</ele><time>2026-04-19T07:02:36Z</time></trkpt><trkpt lat="45.47504639810222" lon="9.143609112523572"><ele>128.0</ele><time>2026-04-19T07:02:38Z</time></trkpt><trkpt lat="45.475148958776025" lon="9.143604641504332"><ele>128.0</ele><time>2026-04-19T07:02:40Z</time></trkpt><trkpt lat="45.47526264010127" lon="9.14362291183448"><ele>128.0</ele><time>2026-04-19T07:02:42Z</time></trkpt><trkpt lat="45.47532648713869" lon="9.14359209130254"><ele>128.0</ele><time>2026-04-19T07:02:43Z</time></trkpt><trkpt lat="45.47543878636169" lon="9.14356487635864"><ele>128.0</ele><time>2026-04-19T07:02:45Z</time></trkpt><trkpt lat="45.475546171562456" lon="9.143524782624072"><ele>128.0</ele><time>2026-04-19T07:02:47Z</time></trkpt><trkpt lat="45.475643901841465" lon="9.143520687076986"><ele>128.0</ele><time>2026-04-19T07:02:49Z</time></trkpt><trkpt lat="45.47573796681891" lon="9.143549855621638"><ele>128.33333333333331</ele><time>2026-04-19T07:02:51Z</time></trkpt><trkpt lat="45.475833352628044" lon="9.143561077655416"><ele>128.66666666666666</ele><time>2026-04-19T07:02:53Z</time></trkpt><trkpt lat="45.47590747115935" lon="9.143584253237657"><ele>129.0</ele><time>2026-04-19T07:02:55Z</time></trkpt><trkpt lat="45.475964946375775" lon="9.143629996545114"><ele>129.33333333333334</ele><time>2026-04-19T07:02:57Z</time></trkpt><trkpt lat="45.47604254165776" lon="9.143632483746888"><ele>129.66666666666669</ele><time>2026-04-19T07:03:04Z</time></trkpt><trkpt lat="45.47603843224842" lon="9.143462959176537"><ele>130.0</ele><time>2026-04-19T07:03:07Z</time></trkpt><trkpt lat="45.47602024090661" lon="9.143299340894858"><ele>129.4</ele><time>2026-04-19T07:03:09Z</time></trkpt><trkpt lat="45.47596286493191" lon="9.143130784566685"><ele>128.8</ele><time>2026-04-19T07:03:11Z</time></trkpt><trkpt lat="45.47591518543403" lon="9.142975046398444"><ele>128.2</ele><time>2026-04-19T07:03:13Z</time></trkpt><trkpt lat="45.47586559299095" lon="9.14282255063252"><ele>127.6</ele><time>2026-04-19T07:03:15Z</time></trkpt><trkpt lat="45.475853888821796" lon="9.142726478641807"><ele>127.0</ele><time>2026-04-19T07:03:15.999Z</time></trkpt><trkpt lat="45.475847317125364" lon="9.142561529033044"><ele>127.0</ele><time>2026-04-19T07:03:17.999Z</time></trkpt><trkpt lat="45.475874879867845" lon="9.142415692856979"><ele>126.99999999999999</ele><time>2026-04-19T07:03:19.999Z</time></trkpt><trkpt lat="45.475895523230584" lon="9.142285511239962"><ele>126.99999999999999</ele><time>2026-04-19T07:03:21.999Z</time></trkpt><trkpt lat="45.47590503664525" lon="9.142141996160323"><ele>127.0</ele><time>2026-04-19T07:03:23.999Z</time></trkpt><trkpt lat="45.47591294103549" lon="9.142009779618865"><ele>127.0</ele><time>2026-04-19T07:03:26Z</time></trkpt><trkpt lat="45.47592147726985" lon="9.14186953146591"><ele>126.8</ele><time>2026-04-19T07:03:28Z</time></trkpt><trkpt lat="45.47593142079321" lon="9.141708852330565"><ele>126.6</ele><time>2026-04-19T07:03:30Z</time></trkpt><trkpt lat="45.47592649373718" lon="9.141615919740863"><ele>126.39999999999999</ele><time>2026-04-19T07:03:31Z</time></trkpt><trkpt lat="45.47593536030279" lon="9.141469495627708"><ele>126.19999999999999</ele><time>2026-04-19T07:03:33Z</time></trkpt><trkpt lat="45.47592415947127" lon="9.141371411934404"><ele>126.0</ele><time>2026-04-19T07:03:35Z</time></trkpt><trkpt lat="45.47589607054056" lon="9.141216459582958"><ele>126.0</ele><time>2026-04-19T07:03:37Z</time></trkpt><trkpt lat="45.4758935919083" lon="9.141095615176566"><ele>126.0</ele><time>2026-04-19T07:03:39Z</time></trkpt><trkpt lat="45.475916205411295" lon="9.140939852753634"><ele>126.0</ele><time>2026-04-19T07:03:43Z</time></trkpt><trkpt lat="45.47589460789869" lon="9.14072375709999"><ele>126.0</ele><time>2026-04-19T07:03:45Z</time></trkpt><trkpt lat="45.475897937028506" lon="9.140585814474674"><ele>126.0</ele><time>2026-04-19T07:03:46Z</time></trkpt><trkpt lat="45.47590348079857" lon="9.140408204533246"><ele>126.0</ele><time>2026-04-19T07:03:48Z</time></trkpt><trkpt lat="45.475938443103814" lon="9.140254202188746"><ele>126.0</ele><time>2026-04-19T07:03:50Z</time></trkpt><trkpt lat="45.47594067303044" lon="9.140075380695722"><ele>126.0</ele><time>2026-04-19T07:03:52Z</time></trkpt><trkpt lat="45.47594267522775" lon="9.139914821775537"><ele>126.0</ele><time>2026-04-19T07:03:54Z</time></trkpt><trkpt lat="45.47594373438136" lon="9.139786088931036"><ele>126.0</ele><time>2026-04-19T07:03:56Z</time></trkpt><trkpt lat="45.475944543727365" lon="9.139680959417454"><ele>126.0</ele><time>2026-04-19T07:03:57Z</time></trkpt><trkpt lat="45.47594509898867" lon="9.13955031671961"><ele>126.0</ele><time>2026-04-19T07:03:59Z</time></trkpt><trkpt lat="45.4759454220766" lon="9.139453030626"><ele>126.0</ele><time>2026-04-19T07:04:01Z</time></trkpt><trkpt lat="45.475945791567966" lon="9.13934245192742"><ele>126.0</ele><time>2026-04-19T07:04:02Z</time></trkpt><trkpt lat="45.4759463367083" lon="9.139181070301216"><ele>126.0</ele><time>2026-04-19T07:04:04Z</time></trkpt><trkpt lat="45.475946733189346" lon="9.139063699394894"><ele>126.0</ele><time>2026-04-19T07:04:06Z</time></trkpt><trkpt lat="45.475947195999574" lon="9.13892669089536"><ele>125.8</ele><time>2026-04-19T07:04:08Z</time></trkpt><trkpt lat="45.47594775963868" lon="9.138759832777748"><ele>125.6</ele><time>2026-04-19T07:04:10Z</time></trkpt><trkpt lat="45.47594828020282" lon="9.138605727031369"><ele>125.4</ele><time>2026-04-19T07:04:12Z</time></trkpt><trkpt lat="45.47594887098216" lon="9.138450099415909"><ele>125.2</ele><time>2026-04-19T07:04:14Z</time></trkpt><trkpt lat="45.4759496786842" lon="9.138286412843538"><ele>125.0</ele><time>2026-04-19T07:04:16Z</time></trkpt><trkpt lat="45.47595152570637" lon="9.138138650320425"><ele>125.0</ele><time>2026-04-19T07:04:18Z</time></trkpt><trkpt lat="45.475954407670606" lon="9.137984347306489"><ele>125.0</ele><time>2026-04-19T07:04:20Z</time></trkpt><trkpt lat="45.475955225312376" lon="9.137831830057818"><ele>125.0</ele><time>2026-04-19T07:04:22Z</time></trkpt><trkpt lat="45.475957155466695" lon="9.137674022106205"><ele>125.0</ele><time>2026-04-19T07:04:24Z</time></trkpt><trkpt lat="45.47595828659791" lon="9.137581540750242"><ele>125.0</ele><time>2026-04-19T07:04:25Z</time></trkpt><trkpt lat="45.47595944283496" lon="9.137487007144438"><ele>125.0</ele><time>2026-04-19T07:04:26Z</time></trkpt><trkpt lat="45.47596055964902" lon="9.137395697084857"><ele>125.0</ele><time>2026-04-19T07:04:27Z</time></trkpt><trkpt lat="45.47596246765397" lon="9.137239699304269"><ele>125.0</ele><time>2026-04-19T07:04:29Z</time></trkpt><trkpt lat="45.47596464976033" lon="9.137061987599667"><ele>125.0</ele><time>2026-04-19T07:04:31Z</time></trkpt><trkpt lat="45.4759658368854" lon="9.136965680627249"><ele>125.0</ele><time>2026-04-19T07:04:32Z</time></trkpt><trkpt lat="45.47596794466638" lon="9.136794684647775"><ele>125.0</ele><time>2026-04-19T07:04:34Z</time></trkpt><trkpt lat="45.47596992539726" lon="9.136633995931344"><ele>125.0</ele><time>2026-04-19T07:04:36Z</time></trkpt><trkpt lat="45.4759716937582" lon="9.136490534254555"><ele>125.0</ele><time>2026-04-19T07:04:38Z</time></trkpt><trkpt lat="45.4759729095177" lon="9.136391905749173"><ele>125.0</ele><time>2026-04-19T07:04:39Z</time></trkpt><trkpt lat="45.47597514292336" lon="9.13622525461438"><ele>125.0</ele><time>2026-04-19T07:04:41Z</time></trkpt><trkpt lat="45.47597741615104" lon="9.136066367586066"><ele>125.25</ele><time>2026-04-19T07:04:43Z</time></trkpt><trkpt lat="45.47597979746063" lon="9.135900940697748"><ele>125.5</ele><time>2026-04-19T07:04:45Z</time></trkpt><trkpt lat="45.475982395107174" lon="9.135729866939627"><ele>125.75</ele><time>2026-04-19T07:04:47Z</time></trkpt><trkpt lat="45.47598490141689" lon="9.13556480862218"><ele>126.0</ele><time>2026-04-19T07:04:49Z</time></trkpt><trkpt lat="45.475986617191275" lon="9.13542090563876"><ele>126.19999999999999</ele><time>2026-04-19T07:04:50.999Z</time></trkpt><trkpt lat="45.4759885377084" lon="9.135254004185667"><ele>126.39999999999999</ele><time>2026-04-19T07:04:52.999Z</time></trkpt><trkpt lat="45.475990321567714" lon="9.135098979512398"><ele>126.6</ele><time>2026-04-19T07:04:54.999Z</time></trkpt><trkpt lat="45.475992349732465" lon="9.134922723607557"><ele>126.8</ele><time>2026-04-19T07:04:57.999Z</time></trkpt><trkpt lat="45.47599384365181" lon="9.134792895166326"><ele>127.0</ele><time>2026-04-19T07:04:59.999Z</time></trkpt><trkpt lat="45.4759948891993" lon="9.13469020875988"><ele>127.6</ele><time>2026-04-19T07:05:00.999Z</time></trkpt><trkpt lat="45.475996052552134" lon="9.134548157377175"><ele>128.2</ele><time>2026-04-19T07:05:02.999Z</time></trkpt><trkpt lat="45.47599709538781" lon="9.134440883650706"><ele>128.8</ele><time>2026-04-19T07:05:03.999Z</time></trkpt><trkpt lat="45.47599810289977" lon="9.13434935232407"><ele>129.4</ele><time>2026-04-19T07:05:04.999Z</time></trkpt><trkpt lat="45.47600002064927" lon="9.13417512745093"><ele>130.0</ele><time>2026-04-19T07:05:06.999Z</time></trkpt><trkpt lat="45.476001809423785" lon="9.134012620593682"><ele>130.0</ele><time>2026-04-19T07:05:08.999Z</time></trkpt><trkpt lat="45.47600276940369" lon="9.133921479554465"><ele>130.0</ele><time>2026-04-19T07:05:09.999Z</time></trkpt><trkpt lat="45.47600483216602" lon="9.133762904799084"><ele>130.0</ele><time>2026-04-19T07:05:11.999Z</time></trkpt><trkpt lat="45.47600708426741" lon="9.133589774073856"><ele>130.0</ele><time>2026-04-19T07:05:13.999Z</time></trkpt><trkpt lat="45.47600933146432" lon="9.133421556966068"><ele>130.0</ele><time>2026-04-19T07:05:15.999Z</time></trkpt><trkpt lat="45.47601171818114" lon="9.133253921345919"><ele>129.5</ele><time>2026-04-19T07:05:17.999Z</time></trkpt><trkpt lat="45.47612193963702" lon="9.133097815004986"><ele>129.0</ele><time>2026-04-19T07:05:19.999Z</time></trkpt><trkpt lat="45.47612938940329" lon="9.132933621199822"><ele>128.5</ele><time>2026-04-19T07:05:21.999Z</time></trkpt><trkpt lat="45.476131895411996" lon="9.132765880886806"><ele>128.0</ele><time>2026-04-19T07:05:23.999Z</time></trkpt><trkpt lat="45.47612426499437" lon="9.132607424273626"><ele>128.0</ele><time>2026-04-19T07:05:25.999Z</time></trkpt><trkpt lat="45.476117096814775" lon="9.132452566001037"><ele>128.0</ele><time>2026-04-19T07:05:27.999Z</time></trkpt><trkpt lat="45.476110911103625" lon="9.132285974736016"><ele>128.0</ele><time>2026-04-19T07:05:29.999Z</time></trkpt><trkpt lat="45.4761179936264" lon="9.132127525999314"><ele>128.0</ele><time>2026-04-19T07:05:32Z</time></trkpt><trkpt lat="45.47612540472063" lon="9.131984737111948"><ele>128.0</ele><time>2026-04-19T07:05:34Z</time></trkpt><trkpt lat="45.476129451605544" lon="9.131824358329395"><ele>127.80000000000001</ele><time>2026-04-19T07:05:36Z</time></trkpt><trkpt lat="45.47613102195625" lon="9.131685816817976"><ele>127.60000000000001</ele><time>2026-04-19T07:05:38Z</time></trkpt><trkpt lat="45.47613219022196" lon="9.131547191198006"><ele>127.39999999999999</ele><time>2026-04-19T07:05:40Z</time></trkpt><trkpt lat="45.47613524747743" lon="9.131400069804469"><ele>127.19999999999999</ele><time>2026-04-19T07:05:42Z</time></trkpt><trkpt lat="45.47613057835435" lon="9.131259131608735"><ele>127.0</ele><time>2026-04-19T07:05:44Z</time></trkpt><trkpt lat="45.476115937056946" lon="9.131102629203706"><ele>127.19999999999999</ele><time>2026-04-19T07:05:46Z</time></trkpt><trkpt lat="45.476107244182444" lon="9.130942526249711"><ele>127.39999999999999</ele><time>2026-04-19T07:05:48Z</time></trkpt><trkpt lat="45.47609605306883" lon="9.13080672879304"><ele>127.60000000000001</ele><time>2026-04-19T07:05:50Z</time></trkpt><trkpt lat="45.476080551977944" lon="9.130640738017"><ele>127.80000000000001</ele><time>2026-04-19T07:05:52Z</time></trkpt><trkpt lat="45.47607714820079" lon="9.130542257405192"><ele>128.0</ele><time>2026-04-19T07:05:53Z</time></trkpt><trkpt lat="45.47607153112036" lon="9.130387959657956"><ele>128.0</ele><time>2026-04-19T07:05:55Z</time></trkpt><trkpt lat="45.47606542133554" lon="9.130298373918558"><ele>128.0</ele><time>2026-04-19T07:05:56Z</time></trkpt><trkpt lat="45.47604941028901" lon="9.130186929354043"><ele>128.0</ele><time>2026-04-19T07:05:57Z</time></trkpt><trkpt lat="45.476048826581724" lon="9.130092950749818"><ele>128.0</ele><time>2026-04-19T07:05:58Z</time></trkpt><trkpt lat="45.476049045419465" lon="9.12991376085473"><ele>128.0</ele><time>2026-04-19T07:06:00Z</time></trkpt><trkpt lat="45.47605263247018" lon="9.129742924895114"><ele>127.60000000000001</ele><time>2026-04-19T07:06:02Z</time></trkpt><trkpt lat="45.47604551903604" lon="9.129644960857041"><ele>127.20000000000002</ele><time>2026-04-19T07:06:03Z</time></trkpt><trkpt lat="45.47604800763028" lon="9.129547520495906"><ele>126.8</ele><time>2026-04-19T07:06:04Z</time></trkpt><trkpt lat="45.47605018810887" lon="9.129390462367507"><ele>126.4</ele><time>2026-04-19T07:06:06Z</time></trkpt><trkpt lat="45.47605363964836" lon="9.129236951714093"><ele>126.0</ele><time>2026-04-19T07:06:08Z</time></trkpt><trkpt lat="45.47610140784028" lon="9.12911529604573"><ele>126.0</ele><time>2026-04-19T07:06:10Z</time></trkpt><trkpt lat="45.476214642541336" lon="9.12910532269679"><ele>126.0</ele><time>2026-04-19T07:06:12Z</time></trkpt><trkpt lat="45.476329918765465" lon="9.129139184014981"><ele>126.0</ele><time>2026-04-19T07:06:14Z</time></trkpt><trkpt lat="45.47639625662164" lon="9.129154618622536"><ele>126.0</ele><time>2026-04-19T07:06:15Z</time></trkpt><trkpt lat="45.476464810796884" lon="9.129168078597509"><ele>126.0</ele><time>2026-04-19T07:06:16Z</time></trkpt><trkpt lat="45.476585822030096" lon="9.129184890815795"><ele>125.8</ele><time>2026-04-19T07:06:18Z</time></trkpt><trkpt lat="45.476699280928365" lon="9.1292062741101"><ele>125.6</ele><time>2026-04-19T07:06:20Z</time></trkpt><trkpt lat="45.476813129806395" lon="9.12921327282932"><ele>125.4</ele><time>2026-04-19T07:06:22Z</time></trkpt><trkpt lat="45.476918481324546" lon="9.129224862958063"><ele>125.2</ele><time>2026-04-19T07:06:24Z</time></trkpt><trkpt lat="45.4770244747955" lon="9.129252119663198"><ele>125.0</ele><time>2026-04-19T07:06:26Z</time></trkpt><trkpt lat="45.47712766127012" lon="9.129305934892802"><ele>124.8</ele><time>2026-04-19T07:06:27.999Z</time></trkpt><trkpt lat="45.47723208633769" lon="9.129362709900308"><ele>124.6</ele><time>2026-04-19T07:06:29.999Z</time></trkpt><trkpt lat="45.477332366546456" lon="9.129425525285297"><ele>124.4</ele><time>2026-04-19T07:06:31.999Z</time></trkpt><trkpt lat="45.47744146855088" lon="9.129491152212324"><ele>124.2</ele><time>2026-04-19T07:06:33.999Z</time></trkpt><trkpt lat="45.47754111066149" lon="9.129548060866087"><ele>124.0</ele><time>2026-04-19T07:06:35.999Z</time></trkpt><trkpt lat="45.47764144020059" lon="9.129611180568524"><ele>124.0</ele><time>2026-04-19T07:06:37.999Z</time></trkpt><trkpt lat="45.4777455564229" lon="9.12966371074773"><ele>124.0</ele><time>2026-04-19T07:06:39.999Z</time></trkpt><trkpt lat="45.477837323466126" lon="9.129721066340684"><ele>124.0</ele><time>2026-04-19T07:06:41.999Z</time></trkpt><trkpt lat="45.47793061258014" lon="9.129780716285342"><ele>124.0</ele><time>2026-04-19T07:06:43.999Z</time></trkpt><trkpt lat="45.47803315806164" lon="9.129838551214648"><ele>124.0</ele><time>2026-04-19T07:06:45.999Z</time></trkpt><trkpt lat="45.47812643112828" lon="9.129889695962"><ele>124.80000000000001</ele><time>2026-04-19T07:06:47.999Z</time></trkpt><trkpt lat="45.47822905029915" lon="9.12993711276269"><ele>125.60000000000001</ele><time>2026-04-19T07:06:49.999Z</time></trkpt><trkpt lat="45.47832553355217" lon="9.12997382904873"><ele>126.4</ele><time>2026-04-19T07:06:51.999Z</time></trkpt><trkpt lat="45.47841560541858" lon="9.130025319609997"><ele>127.2</ele><time>2026-04-19T07:06:53.999Z</time></trkpt><trkpt lat="45.47851923801607" lon="9.130074408729039"><ele>128.0</ele><time>2026-04-19T07:06:55.999Z</time></trkpt><trkpt lat="45.478614715929595" lon="9.130115430978575"><ele>128.0</ele><time>2026-04-19T07:06:57.999Z</time></trkpt><trkpt lat="45.47869554876098" lon="9.130159552644017"><ele>128.0</ele><time>2026-04-19T07:06:59.999Z</time></trkpt><trkpt lat="45.47877360679848" lon="9.130216769726593"><ele>128.0</ele><time>2026-04-19T07:07:01.999Z</time></trkpt><trkpt lat="45.47885306793929" lon="9.130238787109251"><ele>128.0</ele><time>2026-04-19T07:07:03.999Z</time></trkpt><trkpt lat="45.47894096926552" lon="9.130192052789806"><ele>128.0</ele><time>2026-04-19T07:07:05.999Z</time></trkpt><trkpt lat="45.47904180513364" lon="9.130103622445683"><ele>128.0</ele><time>2026-04-19T07:07:07.999Z</time></trkpt><trkpt lat="45.47913277463644" lon="9.130050873139147"><ele>128.0</ele><time>2026-04-19T07:07:09.999Z</time></trkpt><trkpt lat="45.47923196781128" lon="9.130000012303025"><ele>128.0</ele><time>2026-04-19T07:07:11.999Z</time></trkpt><trkpt lat="45.479332109875806" lon="9.129953375098905"><ele>128.0</ele><time>2026-04-19T07:07:13.999Z</time></trkpt><trkpt lat="45.47942510620929" lon="9.129884351168375"><ele>128.0</ele><time>2026-04-19T07:07:15.999Z</time></trkpt><trkpt lat="45.4794926052169" lon="9.129812307048732"><ele>128.0</ele><time>2026-04-19T07:07:17.999Z</time></trkpt><trkpt lat="45.47954355260735" lon="9.129706175471474"><ele>128.0</ele><time>2026-04-19T07:07:19.999Z</time></trkpt><trkpt lat="45.47958746699144" lon="9.129571536970568"><ele>128.0</ele><time>2026-04-19T07:07:21.999Z</time></trkpt><trkpt lat="45.47962459967863" lon="9.129437864377048"><ele>128.0</ele><time>2026-04-19T07:07:23.999Z</time></trkpt><trkpt lat="45.479670102284" lon="9.129285774163744"><ele>128.0</ele><time>2026-04-19T07:07:25.999Z</time></trkpt><trkpt lat="45.47970794566962" lon="9.129141996688494"><ele>128.0</ele><time>2026-04-19T07:07:27.999Z</time></trkpt><trkpt lat="45.479743358233996" lon="9.129004990326138"><ele>128.0</ele><time>2026-04-19T07:07:29.999Z</time></trkpt><trkpt lat="45.47978733522347" lon="9.128867915650053"><ele>128.0</ele><time>2026-04-19T07:07:31.999Z</time></trkpt><trkpt lat="45.47982968073589" lon="9.128713690250546"><ele>128.0</ele><time>2026-04-19T07:07:33.999Z</time></trkpt><trkpt lat="45.479867609629416" lon="9.12857905554004"><ele>128.0</ele><time>2026-04-19T07:07:35.999Z</time></trkpt><trkpt lat="45.47990163856817" lon="9.128433951767883"><ele>128.0</ele><time>2026-04-19T07:07:38Z</time></trkpt><trkpt lat="45.479937472388976" lon="9.128289505918481"><ele>128.0</ele><time>2026-04-19T07:07:40Z</time></trkpt><trkpt lat="45.47997932303777" lon="9.128154814345656"><ele>128.0</ele><time>2026-04-19T07:07:42Z</time></trkpt><trkpt lat="45.48001407069261" lon="9.12801046228933"><ele>128.0</ele><time>2026-04-19T07:07:44Z</time></trkpt><trkpt lat="45.48004440093026" lon="9.12788369554285"><ele>128.0</ele><time>2026-04-19T07:07:46Z</time></trkpt><trkpt lat="45.48009059202571" lon="9.127746190826455"><ele>127.99999999999999</ele><time>2026-04-19T07:07:48Z</time></trkpt><trkpt lat="45.48012809699743" lon="9.127626101309637"><ele>128.0</ele><time>2026-04-19T07:07:50Z</time></trkpt><trkpt lat="45.48015872491718" lon="9.127519899204541"><ele>128.0</ele><time>2026-04-19T07:07:52Z</time></trkpt><trkpt lat="45.48016579447915" lon="9.127415847621423"><ele>128.0</ele><time>2026-04-19T07:07:54Z</time></trkpt><trkpt lat="45.48014005773757" lon="9.12730134915177"><ele>127.99999999999999</ele><time>2026-04-19T07:07:57Z</time></trkpt><trkpt lat="45.48013670058861" lon="9.127200442275877"><ele>128.0</ele><time>2026-04-19T07:08:01Z</time></trkpt><trkpt lat="45.480128960765676" lon="9.127073499555312"><ele>128.20000000000002</ele><time>2026-04-19T07:08:04Z</time></trkpt><trkpt lat="45.48011922425475" lon="9.126957784609408"><ele>128.4</ele><time>2026-04-19T07:08:06Z</time></trkpt><trkpt lat="45.480102595286496" lon="9.126816772847695"><ele>128.60000000000002</ele><time>2026-04-19T07:08:08Z</time></trkpt><trkpt lat="45.48007281537027" lon="9.12668193912395"><ele>128.8</ele><time>2026-04-19T07:08:10Z</time></trkpt><trkpt lat="45.48003419553735" lon="9.126541532433084"><ele>129.0</ele><time>2026-04-19T07:08:12Z</time></trkpt><trkpt lat="45.48000575344147" lon="9.126403261779384"><ele>129.0</ele><time>2026-04-19T07:08:14Z</time></trkpt><trkpt lat="45.4799780370375" lon="9.126269304202575"><ele>129.0</ele><time>2026-04-19T07:08:16Z</time></trkpt><trkpt lat="45.47993378937743" lon="9.126133505065356"><ele>129.0</ele><time>2026-04-19T07:08:18Z</time></trkpt><trkpt lat="45.479877937413114" lon="9.126006644910218"><ele>129.0</ele><time>2026-04-19T07:08:20Z</time></trkpt><trkpt lat="45.47983004106735" lon="9.125889651504034"><ele>129.0</ele><time>2026-04-19T07:08:22Z</time></trkpt><trkpt lat="45.479785956157464" lon="9.12575803543827"><ele>128.8</ele><time>2026-04-19T07:08:24Z</time></trkpt><trkpt lat="45.47975127918974" lon="9.125628802106432"><ele>128.60000000000002</ele><time>2026-04-19T07:08:25.999Z</time></trkpt><trkpt lat="45.479709115444805" lon="9.125492961957335"><ele>128.4</ele><time>2026-04-19T07:08:27.999Z</time></trkpt><trkpt lat="45.47967544908701" lon="9.125359643973736"><ele>128.20000000000002</ele><time>2026-04-19T07:08:29.999Z</time></trkpt><trkpt lat="45.4796548702901" lon="9.125220224903263"><ele>128.0</ele><time>2026-04-19T07:08:31.999Z</time></trkpt><trkpt lat="45.47965184562217" lon="9.12506867375322"><ele>128.0</ele><time>2026-04-19T07:08:33.999Z</time></trkpt><trkpt lat="45.47968064188712" lon="9.12491969811595"><ele>128.0</ele><time>2026-04-19T07:08:35.999Z</time></trkpt><trkpt lat="45.47970558830435" lon="9.124775618187899"><ele>128.0</ele><time>2026-04-19T07:08:37.999Z</time></trkpt><trkpt lat="45.479713375298985" lon="9.12463463904425"><ele>128.0</ele><time>2026-04-19T07:08:39.999Z</time></trkpt><trkpt lat="45.47971574289158" lon="9.124481403898837"><ele>128.0</ele><time>2026-04-19T07:08:41.999Z</time></trkpt><trkpt lat="45.479709962855274" lon="9.124325674569056"><ele>128.8</ele><time>2026-04-19T07:08:43.999Z</time></trkpt><trkpt lat="45.47971550822431" lon="9.124178025899557"><ele>129.60000000000002</ele><time>2026-04-19T07:08:45.999Z</time></trkpt><trkpt lat="45.47971109153689" lon="9.124031022807289"><ele>130.39999999999998</ele><time>2026-04-19T07:08:47.999Z</time></trkpt><trkpt lat="45.47971112666076" lon="9.123903292699685"><ele>131.2</ele><time>2026-04-19T07:08:49.999Z</time></trkpt><trkpt lat="45.479704476226" lon="9.123785366745919"><ele>132.0</ele><time>2026-04-19T07:08:51.999Z</time></trkpt><trkpt lat="45.47970499970652" lon="9.123671030139638"><ele>132.2</ele><time>2026-04-19T07:08:53.999Z</time></trkpt><trkpt lat="45.4797102398221" lon="9.123552257124592"><ele>132.39999999999998</ele><time>2026-04-19T07:08:55.999Z</time></trkpt><trkpt lat="45.47970574304981" lon="9.123409399796287"><ele>132.60000000000002</ele><time>2026-04-19T07:08:57.999Z</time></trkpt><trkpt lat="45.47968769715803" lon="9.123298195605889"><ele>132.8</ele><time>2026-04-19T07:08:59.999Z</time></trkpt><trkpt lat="45.479646037101915" lon="9.12318803375047"><ele>133.0</ele><time>2026-04-19T07:09:01.999Z</time></trkpt><trkpt lat="45.47957814954697" lon="9.123066583085475"><ele>133.4</ele><time>2026-04-19T07:09:03.999Z</time></trkpt><trkpt lat="45.47951844412749" lon="9.122931877578768"><ele>133.8</ele><time>2026-04-19T07:09:05.999Z</time></trkpt><trkpt lat="45.479473106857014" lon="9.122821975843665"><ele>134.2</ele><time>2026-04-19T07:09:07.999Z</time></trkpt><trkpt lat="45.479432913255074" lon="9.12269085584988"><ele>134.6</ele><time>2026-04-19T07:09:09.999Z</time></trkpt><trkpt lat="45.47940570887041" lon="9.122568201581673"><ele>135.0</ele><time>2026-04-19T07:09:11.999Z</time></trkpt><trkpt lat="45.47937509791241" lon="9.122441626056961"><ele>133.6</ele><time>2026-04-19T07:09:13.999Z</time></trkpt><trkpt lat="45.479303822588385" lon="9.122309285695131"><ele>132.2</ele><time>2026-04-19T07:09:15.999Z</time></trkpt><trkpt lat="45.47925365950662" lon="9.12217215054561"><ele>130.8</ele><time>2026-04-19T07:09:17.999Z</time></trkpt><trkpt lat="45.47918670358751" lon="9.122052818270117"><ele>129.4</ele><time>2026-04-19T07:09:19.999Z</time></trkpt><trkpt lat="45.479115576486116" lon="9.121950633417153"><ele>128.0</ele><time>2026-04-19T07:09:21.999Z</time></trkpt><trkpt lat="45.47902839271412" lon="9.121845528065954"><ele>127.99999999999999</ele><time>2026-04-19T07:09:23.999Z</time></trkpt><trkpt lat="45.47897430718995" lon="9.121774391753297"><ele>128.0</ele><time>2026-04-19T07:09:25.999Z</time></trkpt><trkpt lat="45.478918592881186" lon="9.121666463466621"><ele>128.0</ele><time>2026-04-19T07:09:28.999Z</time></trkpt><trkpt lat="45.478864781024626" lon="9.121576185060636"><ele>128.0</ele><time>2026-04-19T07:09:30.999Z</time></trkpt><trkpt lat="45.47881305944497" lon="9.12150853631683"><ele>127.99999999999999</ele><time>2026-04-19T07:09:32.999Z</time></trkpt><trkpt lat="45.478746902344554" lon="9.121436813304728"><ele>128.0</ele><time>2026-04-19T07:09:35.999Z</time></trkpt><trkpt lat="45.478677424964644" lon="9.121343352384372"><ele>127.66666666666666</ele><time>2026-04-19T07:09:38.999Z</time></trkpt><trkpt lat="45.47861766010496" lon="9.121281392528068"><ele>127.33333333333333</ele><time>2026-04-19T07:09:40.999Z</time></trkpt><trkpt lat="45.47852403047331" lon="9.121261842354382"><ele>127.0</ele><time>2026-04-19T07:09:43Z</time></trkpt><trkpt lat="45.4784513700518" lon="9.121243864091259"><ele>126.66666666666666</ele><time>2026-04-19T07:09:45Z</time></trkpt><trkpt lat="45.47835457209401" lon="9.121207653843479"><ele>126.33333333333333</ele><time>2026-04-19T07:09:47Z</time></trkpt><trkpt lat="45.478276671256474" lon="9.121197259241859"><ele>126.0</ele><time>2026-04-19T07:09:49Z</time></trkpt><trkpt lat="45.478173531157154" lon="9.121167269426385"><ele>126.0</ele><time>2026-04-19T07:09:51Z</time></trkpt><trkpt lat="45.478089124150976" lon="9.12115574633475"><ele>126.0</ele><time>2026-04-19T07:09:53Z</time></trkpt><trkpt lat="45.47798507803973" lon="9.121129375249645"><ele>126.0</ele><time>2026-04-19T07:09:55Z</time></trkpt><trkpt lat="45.47788477444896" lon="9.12110570205867"><ele>126.0</ele><time>2026-04-19T07:09:57Z</time></trkpt><trkpt lat="45.47778719640748" lon="9.121090529229594"><ele>126.0</ele><time>2026-04-19T07:09:59Z</time></trkpt><trkpt lat="45.47769024489911" lon="9.121078606056102"><ele>125.4</ele><time>2026-04-19T07:10:01Z</time></trkpt><trkpt lat="45.47760708237499" lon="9.121062063333678"><ele>124.8</ele><time>2026-04-19T07:10:03Z</time></trkpt><trkpt lat="45.47750572484483" lon="9.121059104013703"><ele>124.20000000000002</ele><time>2026-04-19T07:10:05Z</time></trkpt><trkpt lat="45.477423206892986" lon="9.121051703208513"><ele>123.60000000000001</ele><time>2026-04-19T07:10:07Z</time></trkpt><trkpt lat="45.477324463348005" lon="9.121026262569236"><ele>123.0</ele><time>2026-04-19T07:10:09Z</time></trkpt><trkpt lat="45.47723127989207" lon="9.121025498082323"><ele>123.0</ele><time>2026-04-19T07:10:11Z</time></trkpt><trkpt lat="45.477141011763145" lon="9.121013157222094"><ele>123.00000000000001</ele><time>2026-04-19T07:10:13Z</time></trkpt><trkpt lat="45.47704523478313" lon="9.120991977719083"><ele>123.00000000000001</ele><time>2026-04-19T07:10:15Z</time></trkpt><trkpt lat="45.47695427594867" lon="9.120974459112634"><ele>123.0</ele><time>2026-04-19T07:10:17Z</time></trkpt><trkpt lat="45.47686194760501" lon="9.120955393133888"><ele>123.0</ele><time>2026-04-19T07:10:19Z</time></trkpt><trkpt lat="45.47677459797036" lon="9.1209516226139"><ele>122.80000000000001</ele><time>2026-04-19T07:10:21Z</time></trkpt><trkpt lat="45.4766841263659" lon="9.120920896378982"><ele>122.60000000000001</ele><time>2026-04-19T07:10:22.999Z</time></trkpt><trkpt lat="45.4766254601534" lon="9.120833518345016"><ele>122.39999999999999</ele><time>2026-04-19T07:10:24.999Z</time></trkpt><trkpt lat="45.47661015361604" lon="9.12071158972832"><ele>122.19999999999999</ele><time>2026-04-19T07:10:26.999Z</time></trkpt><trkpt lat="45.47658071134164" lon="9.120563226818865"><ele>122.0</ele><time>2026-04-19T07:10:28.999Z</time></trkpt><trkpt lat="45.4765486109488" lon="9.12041708042228"><ele>123.0</ele><time>2026-04-19T07:10:30.999Z</time></trkpt><trkpt lat="45.47651955120668" lon="9.12027419162681"><ele>123.99999999999999</ele><time>2026-04-19T07:10:32.999Z</time></trkpt><trkpt lat="45.476495790333566" lon="9.12013113727686"><ele>124.99999999999999</ele><time>2026-04-19T07:10:34.999Z</time></trkpt><trkpt lat="45.47647928896758" lon="9.119989486843888"><ele>126.0</ele><time>2026-04-19T07:10:36.999Z</time></trkpt><trkpt lat="45.47646258671925" lon="9.119843131969091"><ele>127.0</ele><time>2026-04-19T07:10:38.999Z</time></trkpt><trkpt lat="45.47644757529855" lon="9.119681804619168"><ele>127.0</ele><time>2026-04-19T07:10:40.999Z</time></trkpt><trkpt lat="45.476426800097144" lon="9.119527090519428"><ele>126.99999999999999</ele><time>2026-04-19T07:10:42.999Z</time></trkpt><trkpt lat="45.47640928421553" lon="9.11936942427295"><ele>126.99999999999999</ele><time>2026-04-19T07:10:44.999Z</time></trkpt><trkpt lat="45.476346954338126" lon="9.119269028557234"><ele>127.0</ele><time>2026-04-19T07:10:46.999Z</time></trkpt><trkpt lat="45.4762848341331" lon="9.119176869279654"><ele>127.0</ele><time>2026-04-19T07:10:48.999Z</time></trkpt><trkpt lat="45.476283973124254" lon="9.119010607425183"><ele>126.8</ele><time>2026-04-19T07:10:50.999Z</time></trkpt><trkpt lat="45.47629470219537" lon="9.118919574875381"><ele>126.6</ele><time>2026-04-19T07:10:51.999Z</time></trkpt><trkpt lat="45.47630885103008" lon="9.118760644091623"><ele>126.39999999999999</ele><time>2026-04-19T07:10:53.999Z</time></trkpt><trkpt lat="45.47631167406203" lon="9.118595166841494"><ele>126.19999999999999</ele><time>2026-04-19T07:10:55.999Z</time></trkpt><trkpt lat="45.47631784060122" lon="9.118436112202614"><ele>126.0</ele><time>2026-04-19T07:10:57.999Z</time></trkpt><trkpt lat="45.47631396638475" lon="9.11827887254432"><ele>126.0</ele><time>2026-04-19T07:10:59.999Z</time></trkpt><trkpt lat="45.47631331705961" lon="9.118098862871607"><ele>126.0</ele><time>2026-04-19T07:11:01.999Z</time></trkpt><trkpt lat="45.47631593045703" lon="9.117998802654586"><ele>126.0</ele><time>2026-04-19T07:11:02.999Z</time></trkpt><trkpt lat="45.476314143832084" lon="9.117891730029596"><ele>126.0</ele><time>2026-04-19T07:11:03.999Z</time></trkpt><trkpt lat="45.4763189013588" lon="9.117793313328864"><ele>126.0</ele><time>2026-04-19T07:11:04.999Z</time></trkpt><trkpt lat="45.47632498156171" lon="9.117703447123843"><ele>126.0</ele><time>2026-04-19T07:11:05.999Z</time></trkpt><trkpt lat="45.47632817739586" lon="9.117613335224368"><ele>126.0</ele><time>2026-04-19T07:11:06.999Z</time></trkpt><trkpt lat="45.47632332721736" lon="9.117435351117916"><ele>126.0</ele><time>2026-04-19T07:11:08.999Z</time></trkpt><trkpt lat="45.47631789977042" lon="9.1173299876022"><ele>126.0</ele><time>2026-04-19T07:11:09.999Z</time></trkpt><trkpt lat="45.476311062729124" lon="9.117227329434824"><ele>126.0</ele><time>2026-04-19T07:11:10.999Z</time></trkpt><trkpt lat="45.476305532744234" lon="9.117137728633201"><ele>126.0</ele><time>2026-04-19T07:11:11.999Z</time></trkpt><trkpt lat="45.476306816026096" lon="9.11696351303993"><ele>126.75</ele><time>2026-04-19T07:11:13.999Z</time></trkpt><trkpt lat="45.47630495016631" lon="9.11680301437652"><ele>127.5</ele><time>2026-04-19T07:11:15.999Z</time></trkpt><trkpt lat="45.47629025072124" lon="9.116631327720594"><ele>128.25</ele><time>2026-04-19T07:11:17.999Z</time></trkpt><trkpt lat="45.476293739109884" lon="9.116485795896335"><ele>129.0</ele><time>2026-04-19T07:11:19.999Z</time></trkpt><trkpt lat="45.476297261440784" lon="9.116308801858187"><ele>129.2</ele><time>2026-04-19T07:11:21.999Z</time></trkpt><trkpt lat="45.47630164904126" lon="9.116141212343909"><ele>129.4</ele><time>2026-04-19T07:11:23.999Z</time></trkpt><trkpt lat="45.47630533068707" lon="9.116012826231552"><ele>129.6</ele><time>2026-04-19T07:11:25.999Z</time></trkpt><trkpt lat="45.47629762620071" lon="9.11589378163628"><ele>129.8</ele><time>2026-04-19T07:11:27.999Z</time></trkpt><trkpt lat="45.476317234136026" lon="9.115741985055571"><ele>130.0</ele><time>2026-04-19T07:11:29.999Z</time></trkpt><trkpt lat="45.476313167803376" lon="9.115585356883486"><ele>129.25</ele><time>2026-04-19T07:11:31.999Z</time></trkpt><trkpt lat="45.476317685999206" lon="9.115422233500492"><ele>128.5</ele><time>2026-04-19T07:11:33.999Z</time></trkpt><trkpt lat="45.47631438358753" lon="9.115257123992631"><ele>127.75</ele><time>2026-04-19T07:11:35.999Z</time></trkpt><trkpt lat="45.47633486262164" lon="9.115085662961052"><ele>127.0</ele><time>2026-04-19T07:11:37.999Z</time></trkpt><trkpt lat="45.476340996734876" lon="9.114917403211473"><ele>126.39999999999999</ele><time>2026-04-19T07:11:39.999Z</time></trkpt><trkpt lat="45.47634579711217" lon="9.114750192208254"><ele>125.79999999999998</ele><time>2026-04-19T07:11:41.999Z</time></trkpt><trkpt lat="45.47635575115338" lon="9.114584630943526"><ele>125.2</ele><time>2026-04-19T07:11:43.999Z</time></trkpt><trkpt lat="45.476353522002185" lon="9.11442934347473"><ele>124.6</ele><time>2026-04-19T07:11:45.999Z</time></trkpt><trkpt lat="45.47636255063163" lon="9.114280782608944"><ele>124.0</ele><time>2026-04-19T07:11:47.999Z</time></trkpt><trkpt lat="45.47636183903033" lon="9.114138500962982"><ele>124.50000000000001</ele><time>2026-04-19T07:11:50Z</time></trkpt><trkpt lat="45.476360605639556" lon="9.114027852174992"><ele>125.0</ele><time>2026-04-19T07:11:52Z</time></trkpt><trkpt lat="45.47636452290007" lon="9.113902327814394"><ele>125.5</ele><time>2026-04-19T07:11:54Z</time></trkpt><trkpt lat="45.47636478888591" lon="9.113786721053142"><ele>126.0</ele><time>2026-04-19T07:11:56Z</time></trkpt><trkpt lat="45.476357163403996" lon="9.113649731266142"><ele>126.50000000000001</ele><time>2026-04-19T07:11:58Z</time></trkpt><trkpt lat="45.47634707820065" lon="9.113504697489008"><ele>127.0</ele><time>2026-04-19T07:12:00Z</time></trkpt><trkpt lat="45.47633535786041" lon="9.113376128662653"><ele>126.19999999999999</ele><time>2026-04-19T07:12:02Z</time></trkpt><trkpt lat="45.47632308176584" lon="9.113228488077366"><ele>125.39999999999999</ele><time>2026-04-19T07:12:04Z</time></trkpt><trkpt lat="45.4763416110265" lon="9.113090443957672"><ele>124.60000000000001</ele><time>2026-04-19T07:12:06Z</time></trkpt><trkpt lat="45.47635816679522" lon="9.112927381462827"><ele>123.80000000000001</ele><time>2026-04-19T07:12:08Z</time></trkpt><trkpt lat="45.47637289323081" lon="9.112753304636056"><ele>123.0</ele><time>2026-04-19T07:12:10Z</time></trkpt><trkpt lat="45.476403256539484" lon="9.112587839389809"><ele>123.0</ele><time>2026-04-19T07:12:12Z</time></trkpt><trkpt lat="45.47642427796465" lon="9.112427996998488"><ele>123.00000000000001</ele><time>2026-04-19T07:12:14Z</time></trkpt><trkpt lat="45.47644360886727" lon="9.112258378655937"><ele>123.00000000000001</ele><time>2026-04-19T07:12:16Z</time></trkpt><trkpt lat="45.47645682935718" lon="9.11216899919435"><ele>123.0</ele><time>2026-04-19T07:12:17Z</time></trkpt><trkpt lat="45.47647996905557" lon="9.112016548835726"><ele>123.0</ele><time>2026-04-19T07:12:18.999Z</time></trkpt><trkpt lat="45.47650346937426" lon="9.11185221667906"><ele>123.0</ele><time>2026-04-19T07:12:20.999Z</time></trkpt><trkpt lat="45.476512848550364" lon="9.111701426643938"><ele>123.0</ele><time>2026-04-19T07:12:22.999Z</time></trkpt><trkpt lat="45.47652411727541" lon="9.111556834817044"><ele>123.0</ele><time>2026-04-19T07:12:24.999Z</time></trkpt><trkpt lat="45.47655904424835" lon="9.111383489635038"><ele>123.0</ele><time>2026-04-19T07:12:26.999Z</time></trkpt><trkpt lat="45.47659782035906" lon="9.111218225986654"><ele>123.80000000000001</ele><time>2026-04-19T07:12:28.999Z</time></trkpt><trkpt lat="45.476638358785905" lon="9.111069067820969"><ele>124.60000000000001</ele><time>2026-04-19T07:12:30.999Z</time></trkpt><trkpt lat="45.476682117917754" lon="9.110919944411178"><ele>125.39999999999999</ele><time>2026-04-19T07:12:32.999Z</time></trkpt><trkpt lat="45.47672707258877" lon="9.110783683797901"><ele>126.19999999999999</ele><time>2026-04-19T07:12:34.999Z</time></trkpt><trkpt lat="45.476773847273755" lon="9.110652286921296"><ele>127.0</ele><time>2026-04-19T07:12:36.999Z</time></trkpt><trkpt lat="45.47681244215072" lon="9.110495712451181"><ele>127.39999999999999</ele><time>2026-04-19T07:12:38.999Z</time></trkpt><trkpt lat="45.476849244315744" lon="9.110355034891672"><ele>127.79999999999998</ele><time>2026-04-19T07:12:40.999Z</time></trkpt><trkpt lat="45.47689361533186" lon="9.110215057309729"><ele>128.2</ele><time>2026-04-19T07:12:42.999Z</time></trkpt><trkpt lat="45.476937314004935" lon="9.110062084874025"><ele>128.6</ele><time>2026-04-19T07:12:44.999Z</time></trkpt><trkpt lat="45.47698806277937" lon="9.109940036642845"><ele>129.0</ele><time>2026-04-19T07:12:46.999Z</time></trkpt><trkpt lat="45.477026033191144" lon="9.10979502802607"><ele>129.0</ele><time>2026-04-19T07:12:48.999Z</time></trkpt><trkpt lat="45.47707594161546" lon="9.109654214993366"><ele>129.0</ele><time>2026-04-19T07:12:50.999Z</time></trkpt><trkpt lat="45.477121601930264" lon="9.109523041992247"><ele>129.0</ele><time>2026-04-19T07:12:52.999Z</time></trkpt><trkpt lat="45.477160152847404" lon="9.109382001859158"><ele>129.0</ele><time>2026-04-19T07:12:54.999Z</time></trkpt><trkpt lat="45.47719174360789" lon="9.1092471554277"><ele>129.0</ele><time>2026-04-19T07:12:56.999Z</time></trkpt><trkpt lat="45.47723359027197" lon="9.109145621521428"><ele>129.16666666666666</ele><time>2026-04-19T07:12:58.999Z</time></trkpt><trkpt lat="45.47728686708341" lon="9.109025152891224"><ele>129.33333333333334</ele><time>2026-04-19T07:13:00.999Z</time></trkpt><trkpt lat="45.477326692683825" lon="9.108887553400853"><ele>129.5</ele><time>2026-04-19T07:13:02.999Z</time></trkpt><trkpt lat="45.47736033946622" lon="9.108763513005506"><ele>129.66666666666669</ele><time>2026-04-19T07:13:04.999Z</time></trkpt><trkpt lat="45.477399674814265" lon="9.10867887770437"><ele>129.83333333333334</ele><time>2026-04-19T07:13:06.999Z</time></trkpt><trkpt lat="45.47744476220254" lon="9.108594921697094"><ele>130.0</ele><time>2026-04-19T07:13:09.999Z</time></trkpt><trkpt lat="45.477605618782015" lon="9.108595381874201"><ele>130.0</ele><time>2026-04-19T07:13:17.999Z</time></trkpt><trkpt lat="45.47769861151944" lon="9.108616034790208"><ele>130.0</ele><time>2026-04-19T07:13:19.999Z</time></trkpt><trkpt lat="45.477778256624966" lon="9.108640711043726"><ele>130.0</ele><time>2026-04-19T07:13:21.999Z</time></trkpt><trkpt lat="45.47785624302226" lon="9.108640953351955"><ele>130.0</ele><time>2026-04-19T07:13:23.999Z</time></trkpt><trkpt lat="45.47794863219194" lon="9.108631493439866"><ele>130.0</ele><time>2026-04-19T07:13:25.999Z</time></trkpt><trkpt lat="45.478026615601095" lon="9.108616952643072"><ele>130.0</ele><time>2026-04-19T07:13:27.999Z</time></trkpt><trkpt lat="45.47813179153327" lon="9.10858169565996"><ele>129.83333333333334</ele><time>2026-04-19T07:13:30.999Z</time></trkpt><trkpt lat="45.478207049232545" lon="9.10854958728341"><ele>129.66666666666669</ele><time>2026-04-19T07:13:32.999Z</time></trkpt><trkpt lat="45.47828248586017" lon="9.108505901591537"><ele>129.5</ele><time>2026-04-19T07:13:34.999Z</time></trkpt><trkpt lat="45.47835463824946" lon="9.108470581289462"><ele>129.33333333333334</ele><time>2026-04-19T07:13:36.999Z</time></trkpt><trkpt lat="45.47840024267566" lon="9.108333202143923"><ele>129.16666666666666</ele><time>2026-04-19T07:13:39.999Z</time></trkpt><trkpt lat="45.478387193770466" lon="9.10822791753325"><ele>129.0</ele><time>2026-04-19T07:13:41.999Z</time></trkpt><trkpt lat="45.478393307437095" lon="9.108110315561614"><ele>129.0</ele><time>2026-04-19T07:13:43.999Z</time></trkpt><trkpt lat="45.47838887764144" lon="9.10799816494018"><ele>129.0</ele><time>2026-04-19T07:13:46.999Z</time></trkpt><trkpt lat="45.478371123300875" lon="9.107895766449229"><ele>129.0</ele><time>2026-04-19T07:13:48.999Z</time></trkpt><trkpt lat="45.47836064464743" lon="9.107787515711207"><ele>129.0</ele><time>2026-04-19T07:13:50.999Z</time></trkpt><trkpt lat="45.47839945452181" lon="9.107659821145731"><ele>129.0</ele><time>2026-04-19T07:13:56Z</time></trkpt><trkpt lat="45.4784504241474" lon="9.107605183760764"><ele>129.0</ele><time>2026-04-19T07:13:57Z</time></trkpt><trkpt lat="45.47852690121233" lon="9.107537059992374"><ele>129.0</ele><time>2026-04-19T07:13:59Z</time></trkpt><trkpt lat="45.478608470751716" lon="9.107481967789859"><ele>129.0</ele><time>2026-04-19T07:14:01Z</time></trkpt><trkpt lat="45.478669354259" lon="9.107432006303231"><ele>129.0</ele><time>2026-04-19T07:14:03Z</time></trkpt><trkpt lat="45.47875480218952" lon="9.107371371183625"><ele>129.0</ele><time>2026-04-19T07:14:05Z</time></trkpt><trkpt lat="45.47884519933257" lon="9.107311832708064"><ele>129.0</ele><time>2026-04-19T07:14:08Z</time></trkpt><trkpt lat="45.47894883457078" lon="9.107239076398164"><ele>128.8</ele><time>2026-04-19T07:14:10Z</time></trkpt><trkpt lat="45.47904531192949" lon="9.107165819503038"><ele>128.60000000000002</ele><time>2026-04-19T07:14:12Z</time></trkpt><trkpt lat="45.479121902037264" lon="9.1070955531363"><ele>128.4</ele><time>2026-04-19T07:14:14Z</time></trkpt><trkpt lat="45.47919575632888" lon="9.107018516220856"><ele>128.20000000000002</ele><time>2026-04-19T07:14:16Z</time></trkpt><trkpt lat="45.479290677081416" lon="9.106939033785634"><ele>128.0</ele><time>2026-04-19T07:14:17.999Z</time></trkpt><trkpt lat="45.47938079735459" lon="9.106878244985836"><ele>127.99999999999999</ele><time>2026-04-19T07:14:19.999Z</time></trkpt><trkpt lat="45.47948207538513" lon="9.10681410389842"><ele>128.0</ele><time>2026-04-19T07:14:21.999Z</time></trkpt><trkpt lat="45.47955573195115" lon="9.106771989972817"><ele>128.0</ele><time>2026-04-19T07:14:22.999Z</time></trkpt><trkpt lat="45.47962025873424" lon="9.106726627467326"><ele>128.0</ele><time>2026-04-19T07:14:23.999Z</time></trkpt><trkpt lat="45.47967897551548" lon="9.106684595151677"><ele>127.99999999999999</ele><time>2026-04-19T07:14:24.999Z</time></trkpt><trkpt lat="45.4797789279951" lon="9.10661695189841"><ele>128.0</ele><time>2026-04-19T07:14:26.999Z</time></trkpt><trkpt lat="45.479888479353065" lon="9.106534210536894"><ele>128.20000000000002</ele><time>2026-04-19T07:14:28.999Z</time></trkpt><trkpt lat="45.47995218773319" lon="9.106485179249056"><ele>128.4</ele><time>2026-04-19T07:14:29.999Z</time></trkpt><trkpt lat="45.48001286735662" lon="9.106435818897378"><ele>128.60000000000002</ele><time>2026-04-19T07:14:30.999Z</time></trkpt><trkpt lat="45.48012478589934" lon="9.106377644369855"><ele>128.8</ele><time>2026-04-19T07:14:32.999Z</time></trkpt><trkpt lat="45.48021996907972" lon="9.106299618644409"><ele>129.0</ele><time>2026-04-19T07:14:34.999Z</time></trkpt><trkpt lat="45.480312913247836" lon="9.106219220006166"><ele>129.0</ele><time>2026-04-19T07:14:36.999Z</time></trkpt><trkpt lat="45.480422963396265" lon="9.106160290074898"><ele>129.0</ele><time>2026-04-19T07:14:38.999Z</time></trkpt><trkpt lat="45.48053141485856" lon="9.106098811592094"><ele>129.0</ele><time>2026-04-19T07:14:40.999Z</time></trkpt><trkpt lat="45.480594598413674" lon="9.106069787112036"><ele>129.0</ele><time>2026-04-19T07:14:41.999Z</time></trkpt><trkpt lat="45.48069352072456" lon="9.106010333419798"><ele>129.0</ele><time>2026-04-19T07:14:43.999Z</time></trkpt><trkpt lat="45.48079581341008" lon="9.105974833036548"><ele>129.0</ele><time>2026-04-19T07:14:45.999Z</time></trkpt><trkpt lat="45.48089551329805" lon="9.105933165808674"><ele>129.0</ele><time>2026-04-19T07:14:47.999Z</time></trkpt><trkpt lat="45.48099851725385" lon="9.10589632747971"><ele>129.0</ele><time>2026-04-19T07:14:49.999Z</time></trkpt><trkpt lat="45.48110044617201" lon="9.105868326452153"><ele>129.0</ele><time>2026-04-19T07:14:51.999Z</time></trkpt><trkpt lat="45.48118894155236" lon="9.10581915536188"><ele>129.0</ele><time>2026-04-19T07:14:53.999Z</time></trkpt><trkpt lat="45.48124986409581" lon="9.105796179130657"><ele>128.75</ele><time>2026-04-19T07:14:54.999Z</time></trkpt><trkpt lat="45.481362760014186" lon="9.105759560076795"><ele>128.5</ele><time>2026-04-19T07:14:56.999Z</time></trkpt><trkpt lat="45.48147378134603" lon="9.105732352539839"><ele>128.25</ele><time>2026-04-19T07:14:58.999Z</time></trkpt><trkpt lat="45.48158700352037" lon="9.105702690445822"><ele>128.0</ele><time>2026-04-19T07:15:00.999Z</time></trkpt><trkpt lat="45.48169172243611" lon="9.10566870818518"><ele>128.0</ele><time>2026-04-19T07:15:02.999Z</time></trkpt><trkpt lat="45.481796524938865" lon="9.1056456102354"><ele>128.0</ele><time>2026-04-19T07:15:04.999Z</time></trkpt><trkpt lat="45.48190222318533" lon="9.105592533214423"><ele>128.0</ele><time>2026-04-19T07:15:06.999Z</time></trkpt><trkpt lat="45.482015398462984" lon="9.105557011510221"><ele>128.0</ele><time>2026-04-19T07:15:08.999Z</time></trkpt><trkpt lat="45.4821078341148" lon="9.105518775920608"><ele>128.0</ele><time>2026-04-19T07:15:10.999Z</time></trkpt><trkpt lat="45.482215210318635" lon="9.105483391853802"><ele>128.4</ele><time>2026-04-19T07:15:12.999Z</time></trkpt><trkpt lat="45.48231584609555" lon="9.10545166184658"><ele>128.8</ele><time>2026-04-19T07:15:14.999Z</time></trkpt><trkpt lat="45.48241747452305" lon="9.105426880612855"><ele>129.2</ele><time>2026-04-19T07:15:16.999Z</time></trkpt><trkpt lat="45.48251321579522" lon="9.105387173356744"><ele>129.6</ele><time>2026-04-19T07:15:18.999Z</time></trkpt><trkpt lat="45.48260356051514" lon="9.105364832412462"><ele>130.0</ele><time>2026-04-19T07:15:20.999Z</time></trkpt><trkpt lat="45.48269477980933" lon="9.105322751900346"><ele>130.0</ele><time>2026-04-19T07:15:22.999Z</time></trkpt><trkpt lat="45.48278984052924" lon="9.105275079673927"><ele>130.0</ele><time>2026-04-19T07:15:24.999Z</time></trkpt><trkpt lat="45.48287942654518" lon="9.105213463263892"><ele>130.0</ele><time>2026-04-19T07:15:26.999Z</time></trkpt><trkpt lat="45.48297610567564" lon="9.105151037356201"><ele>130.0</ele><time>2026-04-19T07:15:28.999Z</time></trkpt><trkpt lat="45.483076539973226" lon="9.10508032422578"><ele>130.0</ele><time>2026-04-19T07:15:30.999Z</time></trkpt><trkpt lat="45.483170675049834" lon="9.105010298569052"><ele>130.0</ele><time>2026-04-19T07:15:32.999Z</time></trkpt><trkpt lat="45.4832642533183" lon="9.104962020005322"><ele>130.0</ele><time>2026-04-19T07:15:34.999Z</time></trkpt><trkpt lat="45.48336014704102" lon="9.10488413310789"><ele>130.0</ele><time>2026-04-19T07:15:36.999Z</time></trkpt><trkpt lat="45.48345208058999" lon="9.104810925676212"><ele>130.0</ele><time>2026-04-19T07:15:38.999Z</time></trkpt><trkpt lat="45.48353406771709" lon="9.104736813737262"><ele>130.0</ele><time>2026-04-19T07:15:40.999Z</time></trkpt><trkpt lat="45.4836278222317" lon="9.104684275400727"><ele>130.0</ele><time>2026-04-19T07:15:42.999Z</time></trkpt><trkpt lat="45.48371447517795" lon="9.104613051258818"><ele>130.0</ele><time>2026-04-19T07:15:44.999Z</time></trkpt><trkpt lat="45.48380475113621" lon="9.104535536277304"><ele>130.0</ele><time>2026-04-19T07:15:46.999Z</time></trkpt><trkpt lat="45.4838953501065" lon="9.104465334192922"><ele>130.0</ele><time>2026-04-19T07:15:48.999Z</time></trkpt><trkpt lat="45.48397809962459" lon="9.104403396449447"><ele>130.0</ele><time>2026-04-19T07:15:50.999Z</time></trkpt><trkpt lat="45.48405211194952" lon="9.104340156383088"><ele>130.0</ele><time>2026-04-19T07:15:52.999Z</time></trkpt><trkpt lat="45.484131240565844" lon="9.104250113057628"><ele>130.0</ele><time>2026-04-19T07:15:54.999Z</time></trkpt><trkpt lat="45.48417283222477" lon="9.104140969784831"><ele>130.0</ele><time>2026-04-19T07:15:56.999Z</time></trkpt><trkpt lat="45.48418154575872" lon="9.10404187059966"><ele>130.0</ele><time>2026-04-19T07:15:59.999Z</time></trkpt><trkpt lat="45.48413009737502" lon="9.103964552438416"><ele>130.0</ele><time>2026-04-19T07:16:03Z</time></trkpt><trkpt lat="45.484103022387295" lon="9.103832121685667"><ele>130.0</ele><time>2026-04-19T07:16:05Z</time></trkpt><trkpt lat="45.484083026612524" lon="9.103701805653285"><ele>130.0</ele><time>2026-04-19T07:16:07Z</time></trkpt><trkpt lat="45.484056261427696" lon="9.103582592350115"><ele>130.0</ele><time>2026-04-19T07:16:09Z</time></trkpt><trkpt lat="45.484024045847804" lon="9.103451096916578"><ele>130.0</ele><time>2026-04-19T07:16:11Z</time></trkpt><trkpt lat="45.483998095838345" lon="9.1033184010637"><ele>130.0</ele><time>2026-04-19T07:16:13Z</time></trkpt><trkpt lat="45.48397478240114" lon="9.103203590631065"><ele>130.0</ele><time>2026-04-19T07:16:15Z</time></trkpt><trkpt lat="45.48394084567395" lon="9.103100021911017"><ele>130.0</ele><time>2026-04-19T07:16:17Z</time></trkpt><trkpt lat="45.48391223118836" lon="9.102970343718644"><ele>129.8</ele><time>2026-04-19T07:16:18.999Z</time></trkpt><trkpt lat="45.483882553758505" lon="9.102858776789635"><ele>129.6</ele><time>2026-04-19T07:16:20.999Z</time></trkpt><trkpt lat="45.48384509173246" lon="9.102701176508681"><ele>129.4</ele><time>2026-04-19T07:16:22.999Z</time></trkpt><trkpt lat="45.483801368880826" lon="9.102555498218662"><ele>129.2</ele><time>2026-04-19T07:16:24.999Z</time></trkpt><trkpt lat="45.483733848910745" lon="9.102432902521231"><ele>129.0</ele><time>2026-04-19T07:16:26.999Z</time></trkpt><trkpt lat="45.483653647940514" lon="9.102320691922516"><ele>129.6</ele><time>2026-04-19T07:16:28.999Z</time></trkpt><trkpt lat="45.48357226386507" lon="9.102227734888816"><ele>130.2</ele><time>2026-04-19T07:16:30.999Z</time></trkpt><trkpt lat="45.48351395996617" lon="9.102095447009477"><ele>130.79999999999998</ele><time>2026-04-19T07:16:32.999Z</time></trkpt><trkpt lat="45.48347078735441" lon="9.101964556560157"><ele>131.4</ele><time>2026-04-19T07:16:34.999Z</time></trkpt><trkpt lat="45.48342912641511" lon="9.10186028218694"><ele>132.0</ele><time>2026-04-19T07:16:36.999Z</time></trkpt><trkpt lat="45.48339465492793" lon="9.1017215929295"><ele>132.0</ele><time>2026-04-19T07:16:38.999Z</time></trkpt><trkpt lat="45.483364950740665" lon="9.101589186833227"><ele>132.0</ele><time>2026-04-19T07:16:40.999Z</time></trkpt><trkpt lat="45.48333848569623" lon="9.101461539047047"><ele>132.0</ele><time>2026-04-19T07:16:42.999Z</time></trkpt><trkpt lat="45.4833170534289" lon="9.101311685400951"><ele>132.0</ele><time>2026-04-19T07:16:44.999Z</time></trkpt><trkpt lat="45.483293896419596" lon="9.101175333614428"><ele>132.0</ele><time>2026-04-19T07:16:46.999Z</time></trkpt><trkpt lat="45.48327519535825" lon="9.10106731361232"><ele>132.2</ele><time>2026-04-19T07:16:48.999Z</time></trkpt><trkpt lat="45.4832503443101" lon="9.100913222002658"><ele>132.39999999999998</ele><time>2026-04-19T07:16:50.999Z</time></trkpt><trkpt lat="45.48323209178665" lon="9.100787070011814"><ele>132.60000000000002</ele><time>2026-04-19T07:16:52.999Z</time></trkpt><trkpt lat="45.48321653157409" lon="9.100654363281352"><ele>132.8</ele><time>2026-04-19T07:16:54.999Z</time></trkpt><trkpt lat="45.483184065852946" lon="9.100523278569995"><ele>133.0</ele><time>2026-04-19T07:16:56.999Z</time></trkpt><trkpt lat="45.48313436863927" lon="9.100397445018904"><ele>132.6</ele><time>2026-04-19T07:16:58.999Z</time></trkpt><trkpt lat="45.48310803706547" lon="9.10028242982122"><ele>132.20000000000002</ele><time>2026-04-19T07:17:00.999Z</time></trkpt><trkpt lat="45.48307625000246" lon="9.100147913905541"><ele>131.8</ele><time>2026-04-19T07:17:02.999Z</time></trkpt><trkpt lat="45.48304545309491" lon="9.10003460128456"><ele>131.4</ele><time>2026-04-19T07:17:04.999Z</time></trkpt><trkpt lat="45.483011718451515" lon="9.099880527598941"><ele>131.0</ele><time>2026-04-19T07:17:06.999Z</time></trkpt><trkpt lat="45.48297159656217" lon="9.099725904551633"><ele>131.0</ele><time>2026-04-19T07:17:08.999Z</time></trkpt><trkpt lat="45.48293932042724" lon="9.09958227618892"><ele>131.0</ele><time>2026-04-19T07:17:10.999Z</time></trkpt><trkpt lat="45.482909855817006" lon="9.099427059441984"><ele>131.0</ele><time>2026-04-19T07:17:12.999Z</time></trkpt><trkpt lat="45.48288373227857" lon="9.09928546381028"><ele>131.0</ele><time>2026-04-19T07:17:14.999Z</time></trkpt><trkpt lat="45.482853553670495" lon="9.09915100650975"><ele>131.0</ele><time>2026-04-19T07:17:16.999Z</time></trkpt><trkpt lat="45.48282618977771" lon="9.09901358458847"><ele>131.0</ele><time>2026-04-19T07:17:18.999Z</time></trkpt><trkpt lat="45.48280087737386" lon="9.098887788548838"><ele>131.0</ele><time>2026-04-19T07:17:20.999Z</time></trkpt><trkpt lat="45.4827900071968" lon="9.098771670360563"><ele>131.0</ele><time>2026-04-19T07:17:22.999Z</time></trkpt><trkpt lat="45.482825614126966" lon="9.098673886281144"><ele>131.0</ele><time>2026-04-19T07:17:24.999Z</time></trkpt><trkpt lat="45.48288597879331" lon="9.09860340446094"><ele>131.0</ele><time>2026-04-19T07:17:26.999Z</time></trkpt><trkpt lat="45.48296602604864" lon="9.098562613815465"><ele>131.0</ele><time>2026-04-19T07:17:28.999Z</time></trkpt><trkpt lat="45.48304176145386" lon="9.098523123933093"><ele>131.14285714285714</ele><time>2026-04-19T07:17:30.999Z</time></trkpt><trkpt lat="45.48310885359788" lon="9.098482294901121"><ele>131.2857142857143</ele><time>2026-04-19T07:17:32.999Z</time></trkpt><trkpt lat="45.48316798042377" lon="9.098442198749341"><ele>131.42857142857144</ele><time>2026-04-19T07:17:34.999Z</time></trkpt><trkpt lat="45.48322985447338" lon="9.09839361858804"><ele>131.57142857142858</ele><time>2026-04-19T07:17:36.999Z</time></trkpt><trkpt lat="45.48329302287075" lon="9.09835056791063"><ele>131.71428571428572</ele><time>2026-04-19T07:17:38.999Z</time></trkpt><trkpt lat="45.48334816210851" lon="9.098298155899524"><ele>131.85714285714286</ele><time>2026-04-19T07:17:40.999Z</time></trkpt><trkpt lat="45.48342597612468" lon="9.09825177975632"><ele>132.0</ele><time>2026-04-19T07:17:42.999Z</time></trkpt><trkpt lat="45.48352527021836" lon="9.098194177004329"><ele>132.4</ele><time>2026-04-19T07:17:44.999Z</time></trkpt><trkpt lat="45.48361288372095" lon="9.098160505736278"><ele>132.79999999999998</ele><time>2026-04-19T07:17:46.999Z</time></trkpt><trkpt lat="45.48369851639994" lon="9.098104548178563"><ele>133.2</ele><time>2026-04-19T07:17:48.999Z</time></trkpt><trkpt lat="45.48379047054256" lon="9.098048318390667"><ele>133.6</ele><time>2026-04-19T07:17:50.999Z</time></trkpt><trkpt lat="45.483868923382545" lon="9.098035959461848"><ele>134.0</ele><time>2026-04-19T07:17:52.999Z</time></trkpt><trkpt lat="45.483954416821994" lon="9.097972192986004"><ele>134.0</ele><time>2026-04-19T07:17:54.999Z</time></trkpt><trkpt lat="45.484033772192895" lon="9.097943751676379"><ele>134.0</ele><time>2026-04-19T07:17:56.999Z</time></trkpt><trkpt lat="45.484105766263816" lon="9.097901028982001"><ele>134.0</ele><time>2026-04-19T07:17:58.999Z</time></trkpt><trkpt lat="45.48417105707736" lon="9.097879584226122"><ele>134.0</ele><time>2026-04-19T07:18:00.999Z</time></trkpt><trkpt lat="45.48424483063248" lon="9.097833264330362"><ele>134.0</ele><time>2026-04-19T07:18:03.999Z</time></trkpt><trkpt lat="45.484332548782014" lon="9.097804211827444"><ele>134.0</ele><time>2026-04-19T07:18:06.999Z</time></trkpt><trkpt lat="45.48441305769906" lon="9.097741630010054"><ele>134.0</ele><time>2026-04-19T07:18:08.999Z</time></trkpt><trkpt lat="45.4845134799762" lon="9.097717289090777"><ele>134.0</ele><time>2026-04-19T07:18:10.999Z</time></trkpt><trkpt lat="45.48457319815825" lon="9.097667516141376"><ele>134.0</ele><time>2026-04-19T07:18:12.999Z</time></trkpt><trkpt lat="45.484646529861706" lon="9.097607764839477"><ele>134.0</ele><time>2026-04-19T07:18:14.999Z</time></trkpt><trkpt lat="45.48472727040886" lon="9.097562547168545"><ele>134.0</ele><time>2026-04-19T07:18:16.999Z</time></trkpt><trkpt lat="45.484806204483" lon="9.097523727440967"><ele>134.0</ele><time>2026-04-19T07:18:18.999Z</time></trkpt><trkpt lat="45.48489689816489" lon="9.097474022124354"><ele>134.0</ele><time>2026-04-19T07:18:20.999Z</time></trkpt><trkpt lat="45.48498248330234" lon="9.097426742507835"><ele>134.0</ele><time>2026-04-19T07:18:22.999Z</time></trkpt><trkpt lat="45.48505895209597" lon="9.097380842741844"><ele>134.0</ele><time>2026-04-19T07:18:24.999Z</time></trkpt><trkpt lat="45.48513076935566" lon="9.097351672693273"><ele>134.0</ele><time>2026-04-19T07:18:26.999Z</time></trkpt><trkpt lat="45.48521324470483" lon="9.097303856503194"><ele>134.0</ele><time>2026-04-19T07:18:28.999Z</time></trkpt><trkpt lat="45.485297647761705" lon="9.097253936943947"><ele>134.0</ele><time>2026-04-19T07:18:30.999Z</time></trkpt><trkpt lat="45.485386649213986" lon="9.097206792459636"><ele>133.4</ele><time>2026-04-19T07:18:32.999Z</time></trkpt><trkpt lat="45.48547106008184" lon="9.09716207963361"><ele>132.8</ele><time>2026-04-19T07:18:34.999Z</time></trkpt><trkpt lat="45.48555307433512" lon="9.09711765174321"><ele>132.2</ele><time>2026-04-19T07:18:36.999Z</time></trkpt><trkpt lat="45.485640114042454" lon="9.097071673440464"><ele>131.6</ele><time>2026-04-19T07:18:38.999Z</time></trkpt><trkpt lat="45.48572936360823" lon="9.097025359206627"><ele>131.0</ele><time>2026-04-19T07:18:40.999Z</time></trkpt><trkpt lat="45.48581192270885" lon="9.096983102079568"><ele>131.0</ele><time>2026-04-19T07:18:42.999Z</time></trkpt><trkpt lat="45.485906291648774" lon="9.096946620975816"><ele>131.0</ele><time>2026-04-19T07:18:44.999Z</time></trkpt><trkpt lat="45.48600961121632" lon="9.096905403568469"><ele>131.0</ele><time>2026-04-19T07:18:46.999Z</time></trkpt><trkpt lat="45.48610606186015" lon="9.096870372818632"><ele>131.0</ele><time>2026-04-19T07:18:48.999Z</time></trkpt><trkpt lat="45.486183641702574" lon="9.09683359356368"><ele>131.0</ele><time>2026-04-19T07:18:50.999Z</time></trkpt><trkpt lat="45.48626378029755" lon="9.096784918854937"><ele>130.66666666666666</ele><time>2026-04-19T07:18:52.999Z</time></trkpt><trkpt lat="45.486342925279835" lon="9.096763698212571"><ele>130.33333333333331</ele><time>2026-04-19T07:18:54.999Z</time></trkpt><trkpt lat="45.48642721628572" lon="9.096727011211792"><ele>130.0</ele><time>2026-04-19T07:18:56.999Z</time></trkpt><trkpt lat="45.48650994446937" lon="9.09669596971348"><ele>129.66666666666666</ele><time>2026-04-19T07:18:58.999Z</time></trkpt><trkpt lat="45.486577049106565" lon="9.096672342829192"><ele>129.33333333333334</ele><time>2026-04-19T07:19:00.999Z</time></trkpt><trkpt lat="45.48663970675581" lon="9.09665127884321"><ele>129.0</ele><time>2026-04-19T07:19:02.999Z</time></trkpt><trkpt lat="45.486723858973285" lon="9.096608140298207"><ele>129.0</ele><time>2026-04-19T07:19:05.999Z</time></trkpt><trkpt lat="45.48678612008747" lon="9.096549714256092"><ele>129.0</ele><time>2026-04-19T07:19:08.999Z</time></trkpt><trkpt lat="45.486789204440576" lon="9.096432736623536"><ele>129.0</ele><time>2026-04-19T07:19:11.999Z</time></trkpt><trkpt lat="45.486775344543275" lon="9.096331102462571"><ele>129.0</ele><time>2026-04-19T07:19:13.999Z</time></trkpt><trkpt lat="45.48674817690378" lon="9.096194237653448"><ele>129.0</ele><time>2026-04-19T07:19:16.999Z</time></trkpt><trkpt lat="45.4867226895471" lon="9.096063225245574"><ele>129.0</ele><time>2026-04-19T07:19:18.999Z</time></trkpt><trkpt lat="45.486711385116614" lon="9.095927138465724"><ele>129.0</ele><time>2026-04-19T07:19:20.999Z</time></trkpt><trkpt lat="45.486692919402444" lon="9.095793049040653"><ele>129.0</ele><time>2026-04-19T07:19:22.999Z</time></trkpt><trkpt lat="45.48667670785659" lon="9.095668588895451"><ele>129.0</ele><time>2026-04-19T07:19:24.999Z</time></trkpt><trkpt lat="45.48666535153682" lon="9.0955386119487"><ele>129.0</ele><time>2026-04-19T07:19:26.999Z</time></trkpt><trkpt lat="45.486652405302756" lon="9.095418819756679"><ele>129.0</ele><time>2026-04-19T07:19:28.999Z</time></trkpt><trkpt lat="45.48664409864674" lon="9.095318734731206"><ele>129.0</ele><time>2026-04-19T07:19:30.999Z</time></trkpt><trkpt lat="45.48661907747464" lon="9.095225924617132"><ele>128.99999999999997</ele><time>2026-04-19T07:19:32.999Z</time></trkpt><trkpt lat="45.48659927028852" lon="9.095134486165376"><ele>129.0</ele><time>2026-04-19T07:19:34.999Z</time></trkpt><trkpt lat="45.48658056946584" lon="9.09502899531449"><ele>129.0</ele><time>2026-04-19T07:19:36.999Z</time></trkpt><trkpt lat="45.48657415666097" lon="9.094933052388795"><ele>129.0</ele><time>2026-04-19T07:19:38.999Z</time></trkpt><trkpt lat="45.486552857372054" lon="9.094848091491759"><ele>129.0</ele><time>2026-04-19T07:19:40.999Z</time></trkpt><trkpt lat="45.4865172941029" lon="9.09474030888453"><ele>128.99999999999997</ele><time>2026-04-19T07:19:43.999Z</time></trkpt><trkpt lat="45.486555482100826" lon="9.094653912541569"><ele>129.0</ele><time>2026-04-19T07:19:48.999Z</time></trkpt><trkpt lat="45.486618700698195" lon="9.094605434235218"><ele>129.0</ele><time>2026-04-19T07:19:50.999Z</time></trkpt><trkpt lat="45.48670016522087" lon="9.09457770204984"><ele>129.0</ele><time>2026-04-19T07:19:53.999Z</time></trkpt><trkpt lat="45.48676052244636" lon="9.09451742597042"><ele>129.0</ele><time>2026-04-19T07:19:55.999Z</time></trkpt><trkpt lat="45.48682770082372" lon="9.094442696036804"><ele>129.0</ele><time>2026-04-19T07:19:57.999Z</time></trkpt><trkpt lat="45.48688613014373" lon="9.094397510495249"><ele>129.0</ele><time>2026-04-19T07:19:59.999Z</time></trkpt><trkpt lat="45.48697304980622" lon="9.094323093082574"><ele>129.0</ele><time>2026-04-19T07:20:01.999Z</time></trkpt><trkpt lat="45.48705985870859" lon="9.094265000711278"><ele>129.0</ele><time>2026-04-19T07:20:03.999Z</time></trkpt><trkpt lat="45.487141940306536" lon="9.094179599993451"><ele>129.0</ele><time>2026-04-19T07:20:05.999Z</time></trkpt><trkpt lat="45.48724765183658" lon="9.094098805293072"><ele>129.0</ele><time>2026-04-19T07:20:07.999Z</time></trkpt><trkpt lat="45.48734797819694" lon="9.094014418436034"><ele>129.0</ele><time>2026-04-19T07:20:09.999Z</time></trkpt><trkpt lat="45.48743030160911" lon="9.093938861355351"><ele>129.0</ele><time>2026-04-19T07:20:11.999Z</time></trkpt><trkpt lat="45.48751252766575" lon="9.093858624271952"><ele>129.2</ele><time>2026-04-19T07:20:13.999Z</time></trkpt><trkpt lat="45.48757926682141" lon="9.0937838753465"><ele>129.4</ele><time>2026-04-19T07:20:16Z</time></trkpt><trkpt lat="45.48767534408694" lon="9.093711555030943"><ele>129.6</ele><time>2026-04-19T07:20:18Z</time></trkpt><trkpt lat="45.48776613372562" lon="9.093635038648529"><ele>129.8</ele><time>2026-04-19T07:20:20Z</time></trkpt><trkpt lat="45.48785246875671" lon="9.093543714094316"><ele>130.0</ele><time>2026-04-19T07:20:22Z</time></trkpt><trkpt lat="45.487939489965854" lon="9.093457093613292"><ele>130.0</ele><time>2026-04-19T07:20:24Z</time></trkpt><trkpt lat="45.48803913348182" lon="9.093370333711144"><ele>130.0</ele><time>2026-04-19T07:20:26Z</time></trkpt><trkpt lat="45.488121145708654" lon="9.093291097484421"><ele>130.0</ele><time>2026-04-19T07:20:28Z</time></trkpt><trkpt lat="45.48820309087366" lon="9.093197800931026"><ele>130.0</ele><time>2026-04-19T07:20:30Z</time></trkpt><trkpt lat="45.488284319862494" lon="9.093097066872483"><ele>130.0</ele><time>2026-04-19T07:20:32Z</time></trkpt><trkpt lat="45.488337019210434" lon="9.093019573149371"><ele>130.0</ele><time>2026-04-19T07:20:34Z</time></trkpt><trkpt lat="45.48842255728189" lon="9.09291908691661"><ele>130.0</ele><time>2026-04-19T07:20:35.999Z</time></trkpt><trkpt lat="45.48849843547995" lon="9.092829466644627"><ele>130.0</ele><time>2026-04-19T07:20:37.999Z</time></trkpt><trkpt lat="45.48856957043049" lon="9.092733019879892"><ele>130.0</ele><time>2026-04-19T07:20:39.999Z</time></trkpt><trkpt lat="45.488644470811664" lon="9.092640230536455"><ele>130.0</ele><time>2026-04-19T07:20:41.999Z</time></trkpt><trkpt lat="45.48871154981329" lon="9.092555344905184"><ele>130.2</ele><time>2026-04-19T07:20:43.999Z</time></trkpt><trkpt lat="45.488785436759876" lon="9.092448149527263"><ele>130.4</ele><time>2026-04-19T07:20:45.999Z</time></trkpt><trkpt lat="45.48886433346504" lon="9.092342708832037"><ele>130.6</ele><time>2026-04-19T07:20:47.999Z</time></trkpt><trkpt lat="45.48893979462465" lon="9.092233146753404"><ele>130.8</ele><time>2026-04-19T07:20:49.999Z</time></trkpt><trkpt lat="45.48899532248083" lon="9.09213433653717"><ele>131.0</ele><time>2026-04-19T07:20:51.999Z</time></trkpt><trkpt lat="45.48906510531776" lon="9.092037069331424"><ele>131.0</ele><time>2026-04-19T07:20:53.999Z</time></trkpt><trkpt lat="45.48912286981433" lon="9.091957605755736"><ele>131.0</ele><time>2026-04-19T07:20:55.999Z</time></trkpt><trkpt lat="45.489180878349515" lon="9.091870571835972"><ele>131.0</ele><time>2026-04-19T07:20:57.999Z</time></trkpt><trkpt lat="45.48923758480811" lon="9.091784928554219"><ele>131.0</ele><time>2026-04-19T07:20:59.999Z</time></trkpt><trkpt lat="45.48930461395632" lon="9.091699242542944"><ele>131.0</ele><time>2026-04-19T07:21:01.999Z</time></trkpt><trkpt lat="45.489357853144696" lon="9.091614716051836"><ele>131.0</ele><time>2026-04-19T07:21:03.999Z</time></trkpt><trkpt lat="45.489420298983184" lon="9.091520741702235"><ele>131.0</ele><time>2026-04-19T07:21:05.999Z</time></trkpt><trkpt lat="45.48947356726481" lon="9.091423217462962"><ele>131.0</ele><time>2026-04-19T07:21:07.999Z</time></trkpt><trkpt lat="45.48954817085935" lon="9.091322824451082"><ele>131.0</ele><time>2026-04-19T07:21:09.999Z</time></trkpt><trkpt lat="45.48961250913846" lon="9.091228125261374"><ele>131.0</ele><time>2026-04-19T07:21:11.999Z</time></trkpt><trkpt lat="45.48967848609965" lon="9.09113782792179"><ele>131.0</ele><time>2026-04-19T07:21:13.999Z</time></trkpt><trkpt lat="45.48974427473745" lon="9.091047460210959"><ele>131.0</ele><time>2026-04-19T07:21:15.999Z</time></trkpt><trkpt lat="45.48980919254538" lon="9.09095837628318"><ele>131.0</ele><time>2026-04-19T07:21:17.999Z</time></trkpt><trkpt lat="45.48985953391305" lon="9.090861894154916"><ele>131.0</ele><time>2026-04-19T07:21:19.999Z</time></trkpt><trkpt lat="45.489911369861225" lon="9.090768238446529"><ele>131.0</ele><time>2026-04-19T07:21:21.999Z</time></trkpt><trkpt lat="45.48997722730095" lon="9.090672293420823"><ele>131.0</ele><time>2026-04-19T07:21:23.999Z</time></trkpt><trkpt lat="45.49003793448042" lon="9.090568998566004"><ele>131.0</ele><time>2026-04-19T07:21:25.999Z</time></trkpt><trkpt lat="45.49009261029778" lon="9.090470277236033"><ele>131.2</ele><time>2026-04-19T07:21:27.999Z</time></trkpt><trkpt lat="45.49015219584527" lon="9.090373772537879"><ele>131.39999999999998</ele><time>2026-04-19T07:21:29.999Z</time></trkpt><trkpt lat="45.49021906311783" lon="9.090286720369516"><ele>131.6</ele><time>2026-04-19T07:21:31.999Z</time></trkpt><trkpt lat="45.49029114021473" lon="9.090186396177547"><ele>131.79999999999998</ele><time>2026-04-19T07:21:33.999Z</time></trkpt><trkpt lat="45.490361451138504" lon="9.090095228214548"><ele>132.0</ele><time>2026-04-19T07:21:35.999Z</time></trkpt><trkpt lat="45.490425529401186" lon="9.090013315606186"><ele>132.0</ele><time>2026-04-19T07:21:37.999Z</time></trkpt><trkpt lat="45.49047579037124" lon="9.089923672107767"><ele>132.0</ele><time>2026-04-19T07:21:39.999Z</time></trkpt><trkpt lat="45.49053858336383" lon="9.089839292065111"><ele>132.0</ele><time>2026-04-19T07:21:41.999Z</time></trkpt><trkpt lat="45.49059146996829" lon="9.089756551847547"><ele>132.0</ele><time>2026-04-19T07:21:43.999Z</time></trkpt><trkpt lat="45.49065601176259" lon="9.089649518322805"><ele>132.0</ele><time>2026-04-19T07:21:45.999Z</time></trkpt><trkpt lat="45.49072730973972" lon="9.089547415333577"><ele>132.0</ele><time>2026-04-19T07:21:47.999Z</time></trkpt><trkpt lat="45.49079120615315" lon="9.089455484754057"><ele>132.0</ele><time>2026-04-19T07:21:49.999Z</time></trkpt><trkpt lat="45.49084906590758" lon="9.08935639688715"><ele>132.0</ele><time>2026-04-19T07:21:51.999Z</time></trkpt><trkpt lat="45.490912635265346" lon="9.08926291682534"><ele>132.0</ele><time>2026-04-19T07:21:53.999Z</time></trkpt><trkpt lat="45.49097521119515" lon="9.089163172109789"><ele>132.0</ele><time>2026-04-19T07:21:55.999Z</time></trkpt><trkpt lat="45.49102873976709" lon="9.089076925470748"><ele>132.0</ele><time>2026-04-19T07:21:57.999Z</time></trkpt><trkpt lat="45.49108721657998" lon="9.088975509022722"><ele>132.0</ele><time>2026-04-19T07:21:59.999Z</time></trkpt><trkpt lat="45.491135044662485" lon="9.08889304561696"><ele>131.83333333333334</ele><time>2026-04-19T07:22:01.999Z</time></trkpt><trkpt lat="45.491188264592054" lon="9.088827751689678"><ele>131.66666666666666</ele><time>2026-04-19T07:22:03.999Z</time></trkpt><trkpt lat="45.491245536588885" lon="9.088725941366512"><ele>131.5</ele><time>2026-04-19T07:22:06.999Z</time></trkpt><trkpt lat="45.49130190042489" lon="9.088623759331776"><ele>131.33333333333331</ele><time>2026-04-19T07:22:08.999Z</time></trkpt><trkpt lat="45.4913663787203" lon="9.088544456679866"><ele>131.16666666666666</ele><time>2026-04-19T07:22:10.999Z</time></trkpt><trkpt lat="45.49140717797481" lon="9.08847018471007"><ele>131.0</ele><time>2026-04-19T07:22:12.999Z</time></trkpt><trkpt lat="45.49146209865125" lon="9.088368700063528"><ele>130.6</ele><time>2026-04-19T07:22:14.999Z</time></trkpt><trkpt lat="45.49153067973553" lon="9.088283750163447"><ele>130.2</ele><time>2026-04-19T07:22:16.999Z</time></trkpt><trkpt lat="45.49160318564254" lon="9.088177939880696"><ele>129.8</ele><time>2026-04-19T07:22:19Z</time></trkpt><trkpt lat="45.49166880598646" lon="9.088076205310688"><ele>129.4</ele><time>2026-04-19T07:22:21Z</time></trkpt><trkpt lat="45.49173215522661" lon="9.087978110444176"><ele>129.0</ele><time>2026-04-19T07:22:23Z</time></trkpt><trkpt lat="45.49179265240002" lon="9.087890056490139"><ele>129.0</ele><time>2026-04-19T07:22:25Z</time></trkpt><trkpt lat="45.491857995531504" lon="9.08780770047961"><ele>129.0</ele><time>2026-04-19T07:22:27Z</time></trkpt><trkpt lat="45.49192527407754" lon="9.087696896204093"><ele>129.0</ele><time>2026-04-19T07:22:29Z</time></trkpt><trkpt lat="45.49198832022094" lon="9.087606160686967"><ele>129.0</ele><time>2026-04-19T07:22:31Z</time></trkpt><trkpt lat="45.492045594288975" lon="9.08752078870686"><ele>129.0</ele><time>2026-04-19T07:22:33Z</time></trkpt><trkpt lat="45.492109140202516" lon="9.087416516929862"><ele>129.16666666666666</ele><time>2026-04-19T07:22:35Z</time></trkpt><trkpt lat="45.49216967383016" lon="9.08732988591704"><ele>129.33333333333334</ele><time>2026-04-19T07:22:36.999Z</time></trkpt><trkpt lat="45.49221061506846" lon="9.087247692779087"><ele>129.5</ele><time>2026-04-19T07:22:38.999Z</time></trkpt><trkpt lat="45.49226542644229" lon="9.087179398848823"><ele>129.66666666666669</ele><time>2026-04-19T07:22:40.999Z</time></trkpt><trkpt lat="45.49231127192425" lon="9.087097787957317"><ele>129.83333333333334</ele><time>2026-04-19T07:22:42.999Z</time></trkpt><trkpt lat="45.49239062950136" lon="9.08700607561696"><ele>130.0</ele><time>2026-04-19T07:22:45.999Z</time></trkpt><trkpt lat="45.49243771412632" lon="9.086932104580274"><ele>130.0</ele><time>2026-04-19T07:22:47.999Z</time></trkpt><trkpt lat="45.492513644336206" lon="9.086834642979609"><ele>130.0</ele><time>2026-04-19T07:22:49.999Z</time></trkpt><trkpt lat="45.49256482247025" lon="9.086735702961473"><ele>130.0</ele><time>2026-04-19T07:22:51.999Z</time></trkpt><trkpt lat="45.49262644040217" lon="9.086618427973937"><ele>130.0</ele><time>2026-04-19T07:22:54.999Z</time></trkpt><trkpt lat="45.49269580531127" lon="9.086530353666413"><ele>130.0</ele><time>2026-04-19T07:22:56.999Z</time></trkpt><trkpt lat="45.4927466589197" lon="9.086470937527247"><ele>130.4</ele><time>2026-04-19T07:22:57.999Z</time></trkpt><trkpt lat="45.49280801711117" lon="9.086364985325881"><ele>130.8</ele><time>2026-04-19T07:22:59.999Z</time></trkpt><trkpt lat="45.49285577076072" lon="9.086276946487239"><ele>131.2</ele><time>2026-04-19T07:23:01.999Z</time></trkpt><trkpt lat="45.4929091601727" lon="9.086192263832057"><ele>131.6</ele><time>2026-04-19T07:23:03.999Z</time></trkpt><trkpt lat="45.49299120666055" lon="9.086080550053985"><ele>132.0</ele><time>2026-04-19T07:23:06.999Z</time></trkpt><trkpt lat="45.49306082602577" lon="9.085974722434342"><ele>132.0</ele><time>2026-04-19T07:23:08.999Z</time></trkpt><trkpt lat="45.49312487888694" lon="9.08586811220398"><ele>132.0</ele><time>2026-04-19T07:23:10.999Z</time></trkpt><trkpt lat="45.49319939491661" lon="9.085782846012032"><ele>132.0</ele><time>2026-04-19T07:23:12.999Z</time></trkpt><trkpt lat="45.49326358257976" lon="9.08568658491143"><ele>132.0</ele><time>2026-04-19T07:23:15.999Z</time></trkpt><trkpt lat="45.49331128613609" lon="9.085568568933503"><ele>132.0</ele><time>2026-04-19T07:23:17.999Z</time></trkpt><trkpt lat="45.49337078762902" lon="9.08549707043848"><ele>132.0</ele><time>2026-04-19T07:23:19.999Z</time></trkpt><trkpt lat="45.49340326646493" lon="9.085409942526073"><ele>132.0</ele><time>2026-04-19T07:23:21.999Z</time></trkpt><trkpt lat="45.493457474472365" lon="9.085336694421544"><ele>132.0</ele><time>2026-04-19T07:23:23.999Z</time></trkpt><trkpt lat="45.4935269473997" lon="9.085234491282995"><ele>132.0</ele><time>2026-04-19T07:23:25.999Z</time></trkpt><trkpt lat="45.49359730834781" lon="9.085137832981284"><ele>132.0</ele><time>2026-04-19T07:23:27.999Z</time></trkpt><trkpt lat="45.49364543096299" lon="9.085040057289804"><ele>132.0</ele><time>2026-04-19T07:23:29.999Z</time></trkpt><trkpt lat="45.493727262535316" lon="9.08494603939539"><ele>132.6</ele><time>2026-04-19T07:23:31.999Z</time></trkpt><trkpt lat="45.493782789108" lon="9.084848428736985"><ele>133.2</ele><time>2026-04-19T07:23:33.999Z</time></trkpt><trkpt lat="45.49385906292042" lon="9.084765080829543"><ele>133.8</ele><time>2026-04-19T07:23:35.999Z</time></trkpt><trkpt lat="45.493936757078146" lon="9.084660943290398"><ele>134.4</ele><time>2026-04-19T07:23:37.999Z</time></trkpt><trkpt lat="45.49399150734326" lon="9.084568425108111"><ele>135.0</ele><time>2026-04-19T07:23:39.999Z</time></trkpt><trkpt lat="45.49405518733287" lon="9.0844617293973"><ele>135.0</ele><time>2026-04-19T07:23:41.999Z</time></trkpt><trkpt lat="45.494118953427716" lon="9.084346000279668"><ele>135.0</ele><time>2026-04-19T07:23:43.999Z</time></trkpt><trkpt lat="45.494185222814764" lon="9.084251846980525"><ele>135.0</ele><time>2026-04-19T07:23:45.999Z</time></trkpt><trkpt lat="45.49423243174621" lon="9.08419174901957"><ele>135.0</ele><time>2026-04-19T07:23:46.999Z</time></trkpt><trkpt lat="45.49430394438476" lon="9.084095137775618"><ele>135.0</ele><time>2026-04-19T07:23:48.999Z</time></trkpt><trkpt lat="45.49437234321411" lon="9.083987169195925"><ele>134.8</ele><time>2026-04-19T07:23:50.999Z</time></trkpt><trkpt lat="45.49444360104504" lon="9.083884374104437"><ele>134.6</ele><time>2026-04-19T07:23:52.999Z</time></trkpt><trkpt lat="45.49450429742196" lon="9.083785172545042"><ele>134.4</ele><time>2026-04-19T07:23:54.999Z</time></trkpt><trkpt lat="45.49456288141931" lon="9.083689234817635"><ele>134.2</ele><time>2026-04-19T07:23:56.999Z</time></trkpt><trkpt lat="45.49462247086017" lon="9.083592186957496"><ele>134.0</ele><time>2026-04-19T07:23:58.999Z</time></trkpt><trkpt lat="45.49468440754297" lon="9.083500498980726"><ele>134.4</ele><time>2026-04-19T07:24:00.999Z</time></trkpt><trkpt lat="45.49474235307658" lon="9.083404021503805"><ele>134.8</ele><time>2026-04-19T07:24:02.999Z</time></trkpt><trkpt lat="45.49481179284209" lon="9.083319722942939"><ele>135.2</ele><time>2026-04-19T07:24:04.999Z</time></trkpt><trkpt lat="45.49487668146488" lon="9.08322656309726"><ele>135.6</ele><time>2026-04-19T07:24:06.999Z</time></trkpt><trkpt lat="45.49494454942223" lon="9.083120800807173"><ele>136.0</ele><time>2026-04-19T07:24:08.999Z</time></trkpt><trkpt lat="45.4949998200919" lon="9.083028991280077"><ele>136.2</ele><time>2026-04-19T07:24:10.999Z</time></trkpt><trkpt lat="45.495064742290396" lon="9.082925439394403"><ele>136.39999999999998</ele><time>2026-04-19T07:24:12.999Z</time></trkpt><trkpt lat="45.49512329417507" lon="9.082826309531022"><ele>136.6</ele><time>2026-04-19T07:24:14.999Z</time></trkpt><trkpt lat="45.495183920274826" lon="9.082726050349779"><ele>136.79999999999998</ele><time>2026-04-19T07:24:16.999Z</time></trkpt><trkpt lat="45.49524145053761" lon="9.08262639484745"><ele>137.0</ele><time>2026-04-19T07:24:18.999Z</time></trkpt><trkpt lat="45.49531014712995" lon="9.082538553783687"><ele>137.0</ele><time>2026-04-19T07:24:20.999Z</time></trkpt><trkpt lat="45.495367286012765" lon="9.08244188385681"><ele>137.0</ele><time>2026-04-19T07:24:22.999Z</time></trkpt><trkpt lat="45.495422760549665" lon="9.082348628835941"><ele>137.0</ele><time>2026-04-19T07:24:24.999Z</time></trkpt><trkpt lat="45.495470079408456" lon="9.08228488364859"><ele>137.0</ele><time>2026-04-19T07:24:26.999Z</time></trkpt><trkpt lat="45.49552946897409" lon="9.082195415611166"><ele>137.0</ele><time>2026-04-19T07:24:29.999Z</time></trkpt><trkpt lat="45.49558216772463" lon="9.082090696496788"><ele>137.0</ele><time>2026-04-19T07:24:31.999Z</time></trkpt><trkpt lat="45.49564561462565" lon="9.08199006876949"><ele>136.79999999999998</ele><time>2026-04-19T07:24:33.999Z</time></trkpt><trkpt lat="45.495700568799016" lon="9.081884517207628"><ele>136.6</ele><time>2026-04-19T07:24:35.999Z</time></trkpt><trkpt lat="45.49575023987004" lon="9.081780360047558"><ele>136.39999999999998</ele><time>2026-04-19T07:24:37.999Z</time></trkpt><trkpt lat="45.4958142789772" lon="9.081665676339114"><ele>136.2</ele><time>2026-04-19T07:24:39.999Z</time></trkpt><trkpt lat="45.495866758745535" lon="9.08154817823064"><ele>136.0</ele><time>2026-04-19T07:24:41.999Z</time></trkpt><trkpt lat="45.495912911926084" lon="9.081433044973455"><ele>135.6</ele><time>2026-04-19T07:24:43.999Z</time></trkpt><trkpt lat="45.49598098626146" lon="9.081315718804499"><ele>135.2</ele><time>2026-04-19T07:24:45.999Z</time></trkpt><trkpt lat="45.49602629925517" lon="9.081212828727804"><ele>134.8</ele><time>2026-04-19T07:24:47.999Z</time></trkpt><trkpt lat="45.496068197396134" lon="9.081102640168362"><ele>134.4</ele><time>2026-04-19T07:24:49.999Z</time></trkpt><trkpt lat="45.49612133766042" lon="9.080972452166714"><ele>134.0</ele><time>2026-04-19T07:24:51.999Z</time></trkpt><trkpt lat="45.496165009579585" lon="9.080851121764384"><ele>134.5</ele><time>2026-04-19T07:24:53.999Z</time></trkpt><trkpt lat="45.49622340857978" lon="9.080735204667015"><ele>135.0</ele><time>2026-04-19T07:24:55.999Z</time></trkpt><trkpt lat="45.49626543419107" lon="9.080627044525299"><ele>135.5</ele><time>2026-04-19T07:24:57.999Z</time></trkpt><trkpt lat="45.49630483315612" lon="9.080524070011156"><ele>136.0</ele><time>2026-04-19T07:24:59.999Z</time></trkpt><trkpt lat="45.49634655340081" lon="9.080438578216853"><ele>136.5</ele><time>2026-04-19T07:25:01.999Z</time></trkpt><trkpt lat="45.49638084877536" lon="9.08034399958004"><ele>137.0</ele><time>2026-04-19T07:25:03.999Z</time></trkpt><trkpt lat="45.4964103864719" lon="9.080247642537266"><ele>137.0</ele><time>2026-04-19T07:25:05.999Z</time></trkpt><trkpt lat="45.496442885243894" lon="9.080140242426623"><ele>137.0</ele><time>2026-04-19T07:25:07.999Z</time></trkpt><trkpt lat="45.49647424626789" lon="9.080035928330972"><ele>137.0</ele><time>2026-04-19T07:25:09.999Z</time></trkpt><trkpt lat="45.496511708809734" lon="9.079939579598596"><ele>137.0</ele><time>2026-04-19T07:25:11.999Z</time></trkpt><trkpt lat="45.49654059222826" lon="9.079825424526893"><ele>137.0</ele><time>2026-04-19T07:25:13.999Z</time></trkpt><trkpt lat="45.496574326624675" lon="9.079718991332603"><ele>137.0</ele><time>2026-04-19T07:25:15.999Z</time></trkpt><trkpt lat="45.49660394271176" lon="9.079603898457652"><ele>137.16666666666666</ele><time>2026-04-19T07:25:17.999Z</time></trkpt><trkpt lat="45.49662585560608" lon="9.079494978794662"><ele>137.33333333333331</ele><time>2026-04-19T07:25:19.999Z</time></trkpt><trkpt lat="45.49664754851753" lon="9.079387819768188"><ele>137.5</ele><time>2026-04-19T07:25:21.999Z</time></trkpt><trkpt lat="45.49666201647508" lon="9.079279104611544"><ele>137.66666666666666</ele><time>2026-04-19T07:25:23.999Z</time></trkpt><trkpt lat="45.496687090882226" lon="9.0791681641434"><ele>137.83333333333334</ele><time>2026-04-19T07:25:25.999Z</time></trkpt><trkpt lat="45.49669542637991" lon="9.079065326494511"><ele>138.0</ele><time>2026-04-19T07:25:27.999Z</time></trkpt><trkpt lat="45.4967224161066" lon="9.078936486691815"><ele>138.0</ele><time>2026-04-19T07:25:29.999Z</time></trkpt><trkpt lat="45.4967386836505" lon="9.078828153283698"><ele>138.0</ele><time>2026-04-19T07:25:31.999Z</time></trkpt><trkpt lat="45.496760043816586" lon="9.078720288341461"><ele>138.0</ele><time>2026-04-19T07:25:33.999Z</time></trkpt><trkpt lat="45.49678662012581" lon="9.078607571562365"><ele>138.0</ele><time>2026-04-19T07:25:35.999Z</time></trkpt><trkpt lat="45.496796329438965" lon="9.078510991163203"><ele>138.0</ele><time>2026-04-19T07:25:37.999Z</time></trkpt><trkpt lat="45.49681079880981" lon="9.078420845931158"><ele>138.0</ele><time>2026-04-19T07:25:39.999Z</time></trkpt><trkpt lat="45.496809724420864" lon="9.078321960691524"><ele>138.0</ele><time>2026-04-19T07:25:42.999Z</time></trkpt><trkpt lat="45.496829293723096" lon="9.078170465237504"><ele>138.33333333333334</ele><time>2026-04-19T07:25:45.999Z</time></trkpt><trkpt lat="45.49684017155017" lon="9.078055524338312"><ele>138.66666666666666</ele><time>2026-04-19T07:25:47.999Z</time></trkpt><trkpt lat="45.49684533578141" lon="9.077950551351542"><ele>139.0</ele><time>2026-04-19T07:25:49.999Z</time></trkpt><trkpt lat="45.496846299763746" lon="9.077826257162682"><ele>139.33333333333331</ele><time>2026-04-19T07:25:52.999Z</time></trkpt><trkpt lat="45.496856440992644" lon="9.077728681375278"><ele>139.66666666666666</ele><time>2026-04-19T07:25:54.999Z</time></trkpt><trkpt lat="45.4968469473406" lon="9.077602703779654"><ele>140.0</ele><time>2026-04-19T07:25:56.999Z</time></trkpt><trkpt lat="45.49684596505314" lon="9.077507717534184"><ele>139.33333333333331</ele><time>2026-04-19T07:25:58.999Z</time></trkpt><trkpt lat="45.49685800748674" lon="9.077408437576105"><ele>138.66666666666666</ele><time>2026-04-19T07:26:00.999Z</time></trkpt><trkpt lat="45.49686162307742" lon="9.077284132155574"><ele>138.0</ele><time>2026-04-19T07:26:02.999Z</time></trkpt><trkpt lat="45.49684920761499" lon="9.077169136472838"><ele>137.33333333333334</ele><time>2026-04-19T07:26:04.999Z</time></trkpt><trkpt lat="45.496832581861305" lon="9.077052986648475"><ele>136.66666666666669</ele><time>2026-04-19T07:26:06.999Z</time></trkpt><trkpt lat="45.496844442666955" lon="9.07690175804704"><ele>136.0</ele><time>2026-04-19T07:26:08.999Z</time></trkpt><trkpt lat="45.496831376064364" lon="9.07677007257384"><ele>136.0</ele><time>2026-04-19T07:26:10.999Z</time></trkpt><trkpt lat="45.49683020742033" lon="9.076619159562906"><ele>136.0</ele><time>2026-04-19T07:26:12.999Z</time></trkpt><trkpt lat="45.4968239605519" lon="9.0764720311879"><ele>136.0</ele><time>2026-04-19T07:26:14.999Z</time></trkpt><trkpt lat="45.49680378465292" lon="9.076382031795854"><ele>136.0</ele><time>2026-04-19T07:26:16.999Z</time></trkpt><trkpt lat="45.49678338923805" lon="9.076248941811862"><ele>136.0</ele><time>2026-04-19T07:26:18.999Z</time></trkpt><trkpt lat="45.49679828934003" lon="9.07608682667676"><ele>136.0</ele><time>2026-04-19T07:26:20.999Z</time></trkpt><trkpt lat="45.49679756310204" lon="9.075943720589253"><ele>136.0</ele><time>2026-04-19T07:26:22.999Z</time></trkpt><trkpt lat="45.49680328260672" lon="9.075802734282952"><ele>136.0</ele><time>2026-04-19T07:26:24.999Z</time></trkpt><trkpt lat="45.496810708880936" lon="9.075672178929228"><ele>136.0</ele><time>2026-04-19T07:26:26.999Z</time></trkpt><trkpt lat="45.49681281243823" lon="9.075547697822277"><ele>136.0</ele><time>2026-04-19T07:26:28.999Z</time></trkpt><trkpt lat="45.49681364268937" lon="9.075425065810249"><ele>136.33333333333334</ele><time>2026-04-19T07:26:30.999Z</time></trkpt><trkpt lat="45.49682676268419" lon="9.07530046654093"><ele>136.66666666666669</ele><time>2026-04-19T07:26:33.999Z</time></trkpt><trkpt lat="45.49683511480094" lon="9.07519240841802"><ele>137.0</ele><time>2026-04-19T07:26:36.999Z</time></trkpt><trkpt lat="45.49677296027543" lon="9.075162340724114"><ele>137.33333333333334</ele><time>2026-04-19T07:26:40.999Z</time></trkpt><trkpt lat="45.49670784411769" lon="9.075215246754679"><ele>137.66666666666666</ele><time>2026-04-19T07:26:43Z</time></trkpt><trkpt lat="45.496627318561835" lon="9.07526288990169"><ele>138.0</ele><time>2026-04-19T07:26:46Z</time></trkpt><trkpt lat="45.49656161687085" lon="9.07528766822025"><ele>138.0</ele><time>2026-04-19T07:26:48Z</time></trkpt><trkpt lat="45.49649362219276" lon="9.075322113352591"><ele>138.0</ele><time>2026-04-19T07:26:49.999Z</time></trkpt><trkpt lat="45.49642837174542" lon="9.075355574733921"><ele>138.0</ele><time>2026-04-19T07:26:51.999Z</time></trkpt><trkpt lat="45.496349888783406" lon="9.075419642659247"><ele>138.0</ele><time>2026-04-19T07:26:54.999Z</time></trkpt><trkpt lat="45.496281765357935" lon="9.075445514751578"><ele>138.0</ele><time>2026-04-19T07:26:57.999Z</time></trkpt><trkpt lat="45.49620130996697" lon="9.075457545816198"><ele>138.0</ele><time>2026-04-19T07:27:01.999Z</time></trkpt><trkpt lat="45.49614444384968" lon="9.07551936675395"><ele>138.0</ele><time>2026-04-19T07:27:06.999Z</time></trkpt><trkpt lat="45.496228899128944" lon="9.07547407937294"><ele>138.0</ele><time>2026-04-19T07:27:09.999Z</time></trkpt><trkpt lat="45.49629757324676" lon="9.075415474607167"><ele>138.0</ele><time>2026-04-19T07:27:12.999Z</time></trkpt><trkpt lat="45.49638303652414" lon="9.075349166259029"><ele>138.0</ele><time>2026-04-19T07:27:15.999Z</time></trkpt><trkpt lat="45.49644678788462" lon="9.07531647477522"><ele>138.0</ele><time>2026-04-19T07:27:17.999Z</time></trkpt><trkpt lat="45.496510342035315" lon="9.075306754611669"><ele>138.0</ele><time>2026-04-19T07:27:19.999Z</time></trkpt><trkpt lat="45.49656678183175" lon="9.075265107413916"><ele>138.0</ele><time>2026-04-19T07:27:21.999Z</time></trkpt><trkpt lat="45.49662869817736" lon="9.075239833362817"><ele>138.0</ele><time>2026-04-19T07:27:23.999Z</time></trkpt><trkpt lat="45.49671356315482" lon="9.075193209505377"><ele>138.0</ele><time>2026-04-19T07:27:26.999Z</time></trkpt><trkpt lat="45.4967948623676" lon="9.07516316891715"><ele>138.0</ele><time>2026-04-19T07:27:29.999Z</time></trkpt><trkpt lat="45.496865906236124" lon="9.075119824266007"><ele>138.0</ele><time>2026-04-19T07:27:32.999Z</time></trkpt><trkpt lat="45.49694762659992" lon="9.075061107256731"><ele>138.0</ele><time>2026-04-19T07:27:35.999Z</time></trkpt><trkpt lat="45.497018721546226" lon="9.074986887235514"><ele>138.0</ele><time>2026-04-19T07:27:38.999Z</time></trkpt><trkpt lat="45.49709343491095" lon="9.074927240440463"><ele>138.0</ele><time>2026-04-19T07:27:42.999Z</time></trkpt><trkpt lat="45.497160738585045" lon="9.074967481165931"><ele>138.0</ele><time>2026-04-19T07:27:46.999Z</time></trkpt><trkpt lat="45.497199549539644" lon="9.07505413994747"><ele>138.0</ele><time>2026-04-19T07:27:48.999Z</time></trkpt><trkpt lat="45.497202079548956" lon="9.075145697341137"><ele>138.0</ele><time>2026-04-19T07:27:50.999Z</time></trkpt><trkpt lat="45.49721654766997" lon="9.07524262642427"><ele>138.0</ele><time>2026-04-19T07:27:53.999Z</time></trkpt><trkpt lat="45.49724008759661" lon="9.07535981388288"><ele>138.0</ele><time>2026-04-19T07:27:56.999Z</time></trkpt><trkpt lat="45.49728038356534" lon="9.075441900283838"><ele>138.0</ele><time>2026-04-19T07:27:59.999Z</time></trkpt><trkpt lat="45.49725938588185" lon="9.075329246092583"><ele>138.0</ele><time>2026-04-19T07:28:08.999Z</time></trkpt><trkpt lat="45.497250922565634" lon="9.075206363438209"><ele>138.0</ele><time>2026-04-19T07:28:11.999Z</time></trkpt><trkpt lat="45.497227266729375" lon="9.07511367832734"><ele>138.0</ele><time>2026-04-19T07:28:14.999Z</time></trkpt><trkpt lat="45.49720087917448" lon="9.075010924163218"><ele>138.0</ele><time>2026-04-19T07:28:17.999Z</time></trkpt><trkpt lat="45.497135106016806" lon="9.07496825282983"><ele>138.0</ele><time>2026-04-19T07:28:20.999Z</time></trkpt><trkpt lat="45.49705909954142" lon="9.075004001212529"><ele>138.0</ele><time>2026-04-19T07:28:23.999Z</time></trkpt><trkpt lat="45.497020712345645" lon="9.075090780829163"><ele>138.0</ele><time>2026-04-19T07:28:27.999Z</time></trkpt><trkpt lat="45.4969479800185" lon="9.075132220480818"><ele>138.0</ele><time>2026-04-19T07:28:30.999Z</time></trkpt><trkpt lat="45.496888190151225" lon="9.07508443974589"><ele>138.0</ele><time>2026-04-19T07:28:34.999Z</time></trkpt><trkpt lat="45.49685086001883" lon="9.075002846137538"><ele>138.0</ele><time>2026-04-19T07:28:37Z</time></trkpt><trkpt lat="45.49682613856187" lon="9.074894832751811"><ele>138.0</ele><time>2026-04-19T07:28:40Z</time></trkpt><trkpt lat="45.49680498026011" lon="9.074801899115533"><ele>138.0</ele><time>2026-04-19T07:28:43Z</time></trkpt><trkpt lat="45.49677480149624" lon="9.074722142672794"><ele>138.0</ele><time>2026-04-19T07:28:57Z</time></trkpt><trkpt lat="45.496832930849436" lon="9.074674353509286"><ele>138.0</ele><time>2026-04-19T07:29:06Z</time></trkpt><trkpt lat="45.49682938673733" lon="9.074578343697814"><ele>138.0</ele><time>2026-04-19T07:29:19.999Z</time></trkpt><trkpt lat="45.49678478487609" lon="9.07450329666186"><ele>138.0</ele><time>2026-04-19T07:29:22.999Z</time></trkpt><trkpt lat="45.49673936818324" lon="9.074422181598159"><ele>138.0</ele><time>2026-04-19T07:29:25.999Z</time></trkpt><trkpt lat="45.496762421682256" lon="9.074335513935877"><ele>138.0</ele><time>2026-04-19T07:29:32.999Z</time></trkpt><trkpt lat="45.496742642780795" lon="9.074202079913121"><ele>138.0</ele><time>2026-04-19T07:29:35.999Z</time></trkpt><trkpt lat="45.496728607089864" lon="9.074091088070983"><ele>138.0</ele><time>2026-04-19T07:29:37.999Z</time></trkpt><trkpt lat="45.49672427774405" lon="9.073962227819893"><ele>138.0</ele><time>2026-04-19T07:29:39.999Z</time></trkpt><trkpt lat="45.49672129471626" lon="9.073819856032069"><ele>138.0</ele><time>2026-04-19T07:29:41.999Z</time></trkpt><trkpt lat="45.4967146418729" lon="9.073677321840327"><ele>138.0</ele><time>2026-04-19T07:29:43.999Z</time></trkpt><trkpt lat="45.49670145754231" lon="9.073547464892364"><ele>138.0</ele><time>2026-04-19T07:29:45.999Z</time></trkpt><trkpt lat="45.49669787968038" lon="9.073413675679607"><ele>138.0</ele><time>2026-04-19T07:29:47.999Z</time></trkpt><trkpt lat="45.49667883337073" lon="9.073288302816882"><ele>138.0</ele><time>2026-04-19T07:29:49.999Z</time></trkpt><trkpt lat="45.496664411753784" lon="9.073180577650538"><ele>138.0</ele><time>2026-04-19T07:29:51.999Z</time></trkpt><trkpt lat="45.496655880328476" lon="9.07307465718205"><ele>138.0</ele><time>2026-04-19T07:29:54.999Z</time></trkpt><trkpt lat="45.496651563152184" lon="9.072927354537208"><ele>138.0</ele><time>2026-04-19T07:29:57.999Z</time></trkpt><trkpt lat="45.49664940831202" lon="9.07277080123255"><ele>138.0</ele><time>2026-04-19T07:29:59.999Z</time></trkpt><trkpt lat="45.49664555243378" lon="9.072617227841725"><ele>138.0</ele><time>2026-04-19T07:30:01.999Z</time></trkpt><trkpt lat="45.49664235145457" lon="9.072495578278847"><ele>138.0</ele><time>2026-04-19T07:30:03.999Z</time></trkpt><trkpt lat="45.496633045907345" lon="9.072356999132053"><ele>138.0</ele><time>2026-04-19T07:30:05.999Z</time></trkpt><trkpt lat="45.496625651831934" lon="9.072240418012122"><ele>138.0</ele><time>2026-04-19T07:30:07.999Z</time></trkpt><trkpt lat="45.49661104408124" lon="9.0721289476837"><ele>138.0</ele><time>2026-04-19T07:30:09.999Z</time></trkpt><trkpt lat="45.49660013181388" lon="9.072018325269584"><ele>138.0</ele><time>2026-04-19T07:30:11.999Z</time></trkpt><trkpt lat="45.49658641355131" lon="9.071921031526266"><ele>138.0</ele><time>2026-04-19T07:30:13.999Z</time></trkpt><trkpt lat="45.49657489928625" lon="9.07178328133338"><ele>138.0</ele><time>2026-04-19T07:30:17.999Z</time></trkpt><trkpt lat="45.496582949768836" lon="9.071653788803673"><ele>138.0</ele><time>2026-04-19T07:30:19.999Z</time></trkpt><trkpt lat="45.496572206911814" lon="9.071538585923289"><ele>138.0</ele><time>2026-04-19T07:30:21.999Z</time></trkpt><trkpt lat="45.4965603744001" lon="9.071407217122912"><ele>137.83333333333334</ele><time>2026-04-19T07:30:23.999Z</time></trkpt><trkpt lat="45.49655619248143" lon="9.071292092338386"><ele>137.66666666666666</ele><time>2026-04-19T07:30:25.999Z</time></trkpt><trkpt lat="45.496544093154526" lon="9.071174040444813"><ele>137.5</ele><time>2026-04-19T07:30:27.999Z</time></trkpt><trkpt lat="45.49653789310127" lon="9.071043937401106"><ele>137.33333333333331</ele><time>2026-04-19T07:30:29.999Z</time></trkpt><trkpt lat="45.49653043217677" lon="9.070923202156886"><ele>137.16666666666666</ele><time>2026-04-19T07:30:31.999Z</time></trkpt><trkpt lat="45.49652392727815" lon="9.070793771474516"><ele>137.0</ele><time>2026-04-19T07:30:33.999Z</time></trkpt><trkpt lat="45.496516759890895" lon="9.070681693731823"><ele>137.0</ele><time>2026-04-19T07:30:35.999Z</time></trkpt><trkpt lat="45.49651276596059" lon="9.070568572358207"><ele>137.0</ele><time>2026-04-19T07:30:37.999Z</time></trkpt><trkpt lat="45.496504430215175" lon="9.070454734934422"><ele>137.0</ele><time>2026-04-19T07:30:39.999Z</time></trkpt><trkpt lat="45.49649811471793" lon="9.070322777100408"><ele>137.0</ele><time>2026-04-19T07:30:42Z</time></trkpt><trkpt lat="45.49649456046803" lon="9.070207282483414"><ele>137.0</ele><time>2026-04-19T07:30:44Z</time></trkpt><trkpt lat="45.49648557951021" lon="9.070083806089013"><ele>137.0</ele><time>2026-04-19T07:30:46Z</time></trkpt><trkpt lat="45.49648046019878" lon="9.069969266517019"><ele>136.83333333333331</ele><time>2026-04-19T07:30:48Z</time></trkpt><trkpt lat="45.496468874299914" lon="9.069857407202292"><ele>136.66666666666666</ele><time>2026-04-19T07:30:50Z</time></trkpt><trkpt lat="45.49645335941238" lon="9.069734716625678"><ele>136.5</ele><time>2026-04-19T07:30:52Z</time></trkpt><trkpt lat="45.496447905169894" lon="9.06961960654106"><ele>136.33333333333334</ele><time>2026-04-19T07:30:54Z</time></trkpt><trkpt lat="45.49644417482089" lon="9.06950877595268"><ele>136.16666666666669</ele><time>2026-04-19T07:30:56Z</time></trkpt><trkpt lat="45.496431670525354" lon="9.069390936260362"><ele>136.0</ele><time>2026-04-19T07:30:58Z</time></trkpt><trkpt lat="45.49642565276757" lon="9.069262040191942"><ele>136.0</ele><time>2026-04-19T07:31:00Z</time></trkpt><trkpt lat="45.49642810348134" lon="9.069139825824443"><ele>136.0</ele><time>2026-04-19T07:31:02Z</time></trkpt><trkpt lat="45.496417755768995" lon="9.069029891304051"><ele>136.0</ele><time>2026-04-19T07:31:04Z</time></trkpt><trkpt lat="45.49640926962004" lon="9.06890706712237"><ele>136.0</ele><time>2026-04-19T07:31:06Z</time></trkpt><trkpt lat="45.49640535058371" lon="9.06878932080823"><ele>136.0</ele><time>2026-04-19T07:31:08Z</time></trkpt><trkpt lat="45.496396084558555" lon="9.06866867355287"><ele>136.0</ele><time>2026-04-19T07:31:10Z</time></trkpt><trkpt lat="45.496389971536445" lon="9.068553365195344"><ele>136.0</ele><time>2026-04-19T07:31:12Z</time></trkpt><trkpt lat="45.496379828288546" lon="9.068446546179963"><ele>136.0</ele><time>2026-04-19T07:31:14Z</time></trkpt><trkpt lat="45.4963794988362" lon="9.068344568783836"><ele>136.0</ele><time>2026-04-19T07:31:16Z</time></trkpt><trkpt lat="45.4963693138647" lon="9.068212150142832"><ele>136.0</ele><time>2026-04-19T07:31:18Z</time></trkpt><trkpt lat="45.496372918606795" lon="9.06811763138739"><ele>136.0</ele><time>2026-04-19T07:31:20Z</time></trkpt><trkpt lat="45.49637721574943" lon="9.068009134412781"><ele>136.0</ele><time>2026-04-19T07:31:23Z</time></trkpt><trkpt lat="45.496384728552506" lon="9.067901214072938"><ele>136.0</ele><time>2026-04-19T07:31:26Z</time></trkpt><trkpt lat="45.49638937210111" lon="9.067794395943915"><ele>136.0</ele><time>2026-04-19T07:31:29.999Z</time></trkpt><trkpt lat="45.49637436114366" lon="9.067887283820056"><ele>136.0</ele><time>2026-04-19T07:31:40.999Z</time></trkpt><trkpt lat="45.4963864348975" lon="9.067979893084416"><ele>136.0</ele><time>2026-04-19T07:31:42.999Z</time></trkpt><trkpt lat="45.49637125581072" lon="9.068069428385932"><ele>136.0</ele><time>2026-04-19T07:31:45.999Z</time></trkpt><trkpt lat="45.496368278836364" lon="9.068182210627874"><ele>136.0</ele><time>2026-04-19T07:31:48.999Z</time></trkpt><trkpt lat="45.49636993294974" lon="9.068337778700686"><ele>136.16666666666669</ele><time>2026-04-19T07:31:53.999Z</time></trkpt><trkpt lat="45.49636943118796" lon="9.068430386940776"><ele>136.33333333333334</ele><time>2026-04-19T07:31:55.999Z</time></trkpt><trkpt lat="45.49637990808212" lon="9.068558786900242"><ele>136.5</ele><time>2026-04-19T07:31:58.999Z</time></trkpt><trkpt lat="45.49637320668383" lon="9.068654536959974"><ele>136.66666666666666</ele><time>2026-04-19T07:32:00.999Z</time></trkpt><trkpt lat="45.49637982948476" lon="9.068791779715689"><ele>136.83333333333331</ele><time>2026-04-19T07:32:03.999Z</time></trkpt><trkpt lat="45.496384787084295" lon="9.0688974723867"><ele>137.0</ele><time>2026-04-19T07:32:05.999Z</time></trkpt><trkpt lat="45.49639287472341" lon="9.069001829845929"><ele>136.85714285714286</ele><time>2026-04-19T07:32:07.999Z</time></trkpt><trkpt lat="45.49640466147929" lon="9.069120310949803"><ele>136.71428571428572</ele><time>2026-04-19T07:32:09.999Z</time></trkpt><trkpt lat="45.496412194312185" lon="9.069226605331993"><ele>136.57142857142856</ele><time>2026-04-19T07:32:11.999Z</time></trkpt><trkpt lat="45.49642491870066" lon="9.069323947768185"><ele>136.42857142857144</ele><time>2026-04-19T07:32:13.999Z</time></trkpt><trkpt lat="45.49642685644893" lon="9.069419771151482"><ele>136.28571428571428</ele><time>2026-04-19T07:32:15.999Z</time></trkpt><trkpt lat="45.49643819582285" lon="9.069521906922674"><ele>136.14285714285714</ele><time>2026-04-19T07:32:17.999Z</time></trkpt><trkpt lat="45.49644880026231" lon="9.06962065698058"><ele>136.0</ele><time>2026-04-19T07:32:19.999Z</time></trkpt><trkpt lat="45.49645492706719" lon="9.069731770275677"><ele>136.0</ele><time>2026-04-19T07:32:21.999Z</time></trkpt><trkpt lat="45.49646067015984" lon="9.06985712729794"><ele>136.0</ele><time>2026-04-19T07:32:23.999Z</time></trkpt><trkpt lat="45.49646816248401" lon="9.069982865191305"><ele>136.0</ele><time>2026-04-19T07:32:26.999Z</time></trkpt><trkpt lat="45.49647032055664" lon="9.070125362607431"><ele>136.0</ele><time>2026-04-19T07:32:29.999Z</time></trkpt><trkpt lat="45.49647728512882" lon="9.070255533642637"><ele>136.0</ele><time>2026-04-19T07:32:31.999Z</time></trkpt><trkpt lat="45.49649051225974" lon="9.07038846154078"><ele>136.16666666666669</ele><time>2026-04-19T07:32:33.999Z</time></trkpt><trkpt lat="45.496490754928885" lon="9.07050226746369"><ele>136.33333333333334</ele><time>2026-04-19T07:32:35.999Z</time></trkpt><trkpt lat="45.496491635997344" lon="9.070626805529082"><ele>136.5</ele><time>2026-04-19T07:32:37.999Z</time></trkpt><trkpt lat="45.49650370077453" lon="9.070763720475863"><ele>136.66666666666666</ele><time>2026-04-19T07:32:40.999Z</time></trkpt><trkpt lat="45.496512019428806" lon="9.070884610125018"><ele>136.83333333333331</ele><time>2026-04-19T07:32:42.999Z</time></trkpt><trkpt lat="45.49652094648273" lon="9.071004269216207"><ele>137.0</ele><time>2026-04-19T07:32:44.999Z</time></trkpt><trkpt lat="45.49653437047169" lon="9.071113943955472"><ele>137.0</ele><time>2026-04-19T07:32:46.999Z</time></trkpt><trkpt lat="45.49655040179626" lon="9.071205814946124"><ele>137.0</ele><time>2026-04-19T07:32:49Z</time></trkpt><trkpt lat="45.49654762684373" lon="9.071343138195544"><ele>137.0</ele><time>2026-04-19T07:32:52Z</time></trkpt><trkpt lat="45.4965506153793" lon="9.07144005930477"><ele>137.0</ele><time>2026-04-19T07:32:54Z</time></trkpt><trkpt lat="45.49656445475823" lon="9.071529535095475"><ele>137.0</ele><time>2026-04-19T07:32:56Z</time></trkpt><trkpt lat="45.49661863779684" lon="9.071635706831312"><ele>137.0</ele><time>2026-04-19T07:32:59Z</time></trkpt><trkpt lat="45.496716438455444" lon="9.071639187818333"><ele>137.0</ele><time>2026-04-19T07:33:02Z</time></trkpt><trkpt lat="45.49678722790674" lon="9.071626774134245"><ele>137.0</ele><time>2026-04-19T07:33:04Z</time></trkpt><trkpt lat="45.496872236940476" lon="9.071598696377869"><ele>137.0</ele><time>2026-04-19T07:33:06Z</time></trkpt><trkpt lat="45.49694751334226" lon="9.07153898180609"><ele>137.0</ele><time>2026-04-19T07:33:08Z</time></trkpt><trkpt lat="45.49702616400023" lon="9.07146389019027"><ele>137.0</ele><time>2026-04-19T07:33:10Z</time></trkpt><trkpt lat="45.49712645004445" lon="9.071382604787608"><ele>137.6</ele><time>2026-04-19T07:33:12Z</time></trkpt><trkpt lat="45.49718180762069" lon="9.071339261787374"><ele>138.2</ele><time>2026-04-19T07:33:13Z</time></trkpt><trkpt lat="45.49729227230074" lon="9.071262189875041"><ele>138.8</ele><time>2026-04-19T07:33:15Z</time></trkpt><trkpt lat="45.497378959929755" lon="9.07117130568111"><ele>139.4</ele><time>2026-04-19T07:33:17Z</time></trkpt><trkpt lat="45.497431786642956" lon="9.071119710976898"><ele>140.0</ele><time>2026-04-19T07:33:18Z</time></trkpt><trkpt lat="45.49755243569948" lon="9.07102564573777"><ele>140.0</ele><time>2026-04-19T07:33:20Z</time></trkpt><trkpt lat="45.49761241725478" lon="9.070955200684491"><ele>140.0</ele><time>2026-04-19T07:33:21Z</time></trkpt><trkpt lat="45.497677220775415" lon="9.070909898931088"><ele>140.0</ele><time>2026-04-19T07:33:22Z</time></trkpt><trkpt lat="45.49774659147422" lon="9.070865843181634"><ele>140.0</ele><time>2026-04-19T07:33:23Z</time></trkpt><trkpt lat="45.49781462227942" lon="9.070810354156878"><ele>140.0</ele><time>2026-04-19T07:33:24Z</time></trkpt><trkpt lat="45.49787927353319" lon="9.070757995075448"><ele>140.0</ele><time>2026-04-19T07:33:25Z</time></trkpt><trkpt lat="45.49794391900813" lon="9.070703336788913"><ele>140.2</ele><time>2026-04-19T07:33:26Z</time></trkpt><trkpt lat="45.49801674263165" lon="9.070634811632765"><ele>140.4</ele><time>2026-04-19T07:33:27Z</time></trkpt><trkpt lat="45.49811225525417" lon="9.070592977968706"><ele>140.6</ele><time>2026-04-19T07:33:29Z</time></trkpt><trkpt lat="45.498182869728225" lon="9.07055781821987"><ele>140.8</ele><time>2026-04-19T07:33:30Z</time></trkpt><trkpt lat="45.49829877957214" lon="9.070505072317456"><ele>141.0</ele><time>2026-04-19T07:33:32Z</time></trkpt><trkpt lat="45.49841258278472" lon="9.070437469152289"><ele>141.0</ele><time>2026-04-19T07:33:34Z</time></trkpt><trkpt lat="45.49851719908617" lon="9.070369640540076"><ele>141.0</ele><time>2026-04-19T07:33:36Z</time></trkpt><trkpt lat="45.49861110377241" lon="9.070299520924182"><ele>141.0</ele><time>2026-04-19T07:33:37.999Z</time></trkpt><trkpt lat="45.49871955081948" lon="9.070239414203106"><ele>141.0</ele><time>2026-04-19T07:33:39.999Z</time></trkpt><trkpt lat="45.498830776563345" lon="9.070179762700404"><ele>140.4</ele><time>2026-04-19T07:33:41.999Z</time></trkpt><trkpt lat="45.49892858041615" lon="9.070096601670809"><ele>139.8</ele><time>2026-04-19T07:33:43.999Z</time></trkpt><trkpt lat="45.49901850256121" lon="9.070030405587117"><ele>139.20000000000002</ele><time>2026-04-19T07:33:45.999Z</time></trkpt><trkpt lat="45.499110666710294" lon="9.070005257494833"><ele>138.6</ele><time>2026-04-19T07:33:47.999Z</time></trkpt><trkpt lat="45.499191227758125" lon="9.0700503797819"><ele>138.0</ele><time>2026-04-19T07:33:49.999Z</time></trkpt><trkpt lat="45.49924627435637" lon="9.07016651348839"><ele>138.0</ele><time>2026-04-19T07:33:51.999Z</time></trkpt><trkpt lat="45.49929462732913" lon="9.070315585919626"><ele>138.0</ele><time>2026-04-19T07:33:53.999Z</time></trkpt><trkpt lat="45.49935056386021" lon="9.070473224386461"><ele>138.0</ele><time>2026-04-19T07:33:55.999Z</time></trkpt><trkpt lat="45.49940721437894" lon="9.07062863176134"><ele>138.0</ele><time>2026-04-19T07:33:57.999Z</time></trkpt><trkpt lat="45.49946450872478" lon="9.070788648851218"><ele>139.4</ele><time>2026-04-19T07:33:59.999Z</time></trkpt><trkpt lat="45.49951440726471" lon="9.070936134655307"><ele>140.8</ele><time>2026-04-19T07:34:01.999Z</time></trkpt><trkpt lat="45.49956551763459" lon="9.071081967352846"><ele>142.2</ele><time>2026-04-19T07:34:03.999Z</time></trkpt><trkpt lat="45.49959642964665" lon="9.071168002423201"><ele>143.6</ele><time>2026-04-19T07:34:04.999Z</time></trkpt><trkpt lat="45.499644491686524" lon="9.07131502158843"><ele>145.0</ele><time>2026-04-19T07:34:06.999Z</time></trkpt><trkpt lat="45.499691720136376" lon="9.071455311995354"><ele>145.0</ele><time>2026-04-19T07:34:08.999Z</time></trkpt><trkpt lat="45.49973188522296" lon="9.071568544438653"><ele>145.0</ele><time>2026-04-19T07:34:10.999Z</time></trkpt><trkpt lat="45.499795272544446" lon="9.071625059417517"><ele>145.0</ele><time>2026-04-19T07:34:12.999Z</time></trkpt><trkpt lat="45.49993793439373" lon="9.07156129447605"><ele>145.0</ele><time>2026-04-19T07:34:15.999Z</time></trkpt><trkpt lat="45.499990015793585" lon="9.071507452161471"><ele>145.0</ele><time>2026-04-19T07:34:16.999Z</time></trkpt><trkpt lat="45.500090167921975" lon="9.071420209745611"><ele>145.0</ele><time>2026-04-19T07:34:18.999Z</time></trkpt><trkpt lat="45.500195347045306" lon="9.071349546361006"><ele>145.0</ele><time>2026-04-19T07:34:20.999Z</time></trkpt><trkpt lat="45.50029562367373" lon="9.07125390271538"><ele>145.0</ele><time>2026-04-19T07:34:22.999Z</time></trkpt><trkpt lat="45.50038828421826" lon="9.071166521850298"><ele>145.0</ele><time>2026-04-19T07:34:24.999Z</time></trkpt><trkpt lat="45.500473781345526" lon="9.07108771608753"><ele>144.5</ele><time>2026-04-19T07:34:26.999Z</time></trkpt><trkpt lat="45.50056922047765" lon="9.071021453782981"><ele>144.0</ele><time>2026-04-19T07:34:28.999Z</time></trkpt><trkpt lat="45.500632333729314" lon="9.070973776486984"><ele>143.5</ele><time>2026-04-19T07:34:29.999Z</time></trkpt><trkpt lat="45.50071469752811" lon="9.070883684525642"><ele>143.0</ele><time>2026-04-19T07:34:31.999Z</time></trkpt><trkpt lat="45.50078493044136" lon="9.070814145749946"><ele>142.5</ele><time>2026-04-19T07:34:33.999Z</time></trkpt><trkpt lat="45.50085020138118" lon="9.070777396008625"><ele>142.0</ele><time>2026-04-19T07:34:35.999Z</time></trkpt><trkpt lat="45.5008916033056" lon="9.070655234786011"><ele>142.0</ele><time>2026-04-19T07:34:38.999Z</time></trkpt><trkpt lat="45.500869909430556" lon="9.070510002668637"><ele>142.0</ele><time>2026-04-19T07:34:40.999Z</time></trkpt><trkpt lat="45.50083510336017" lon="9.070365845423595"><ele>142.0</ele><time>2026-04-19T07:34:42.999Z</time></trkpt><trkpt lat="45.50080657761792" lon="9.070204983950589"><ele>142.0</ele><time>2026-04-19T07:34:44.999Z</time></trkpt><trkpt lat="45.50079077109456" lon="9.070044671180852"><ele>142.0</ele><time>2026-04-19T07:34:46.999Z</time></trkpt><trkpt lat="45.50079657240088" lon="9.069876943551426"><ele>141.83333333333334</ele><time>2026-04-19T07:34:48.999Z</time></trkpt><trkpt lat="45.50080756668218" lon="9.069784131669483"><ele>141.66666666666669</ele><time>2026-04-19T07:34:49.999Z</time></trkpt><trkpt lat="45.50084267160521" lon="9.069614707613361"><ele>141.5</ele><time>2026-04-19T07:34:51.999Z</time></trkpt><trkpt lat="45.50087108917619" lon="9.06951777136231"><ele>141.33333333333334</ele><time>2026-04-19T07:34:52.999Z</time></trkpt><trkpt lat="45.50090123790251" lon="9.069418251480524"><ele>141.16666666666666</ele><time>2026-04-19T07:34:53.999Z</time></trkpt><trkpt lat="45.50094159500964" lon="9.069340608665827"><ele>141.0</ele><time>2026-04-19T07:34:54.999Z</time></trkpt><trkpt lat="45.500990782106015" lon="9.069264401441831"><ele>141.0</ele><time>2026-04-19T07:34:55.999Z</time></trkpt><trkpt lat="45.50104190979293" lon="9.069204421553602"><ele>141.0</ele><time>2026-04-19T07:34:56.999Z</time></trkpt><trkpt lat="45.501131115237" lon="9.069078362449806"><ele>141.0</ele><time>2026-04-19T07:34:58.999Z</time></trkpt><trkpt lat="45.501179279228175" lon="9.069006667797389"><ele>141.0</ele><time>2026-04-19T07:34:59.999Z</time></trkpt><trkpt lat="45.5012302054633" lon="9.068937099055965"><ele>141.0</ele><time>2026-04-19T07:35:00.999Z</time></trkpt><trkpt lat="45.501277771717895" lon="9.068857017125843"><ele>141.0</ele><time>2026-04-19T07:35:01.999Z</time></trkpt><trkpt lat="45.50138018902122" lon="9.068733889273226"><ele>141.16666666666666</ele><time>2026-04-19T07:35:03.999Z</time></trkpt><trkpt lat="45.50143477166278" lon="9.068657662376168"><ele>141.33333333333334</ele><time>2026-04-19T07:35:04.999Z</time></trkpt><trkpt lat="45.50148205703159" lon="9.06858922143097"><ele>141.5</ele><time>2026-04-19T07:35:05.999Z</time></trkpt><trkpt lat="45.50153267187634" lon="9.068510190775749"><ele>141.66666666666669</ele><time>2026-04-19T07:35:06.999Z</time></trkpt><trkpt lat="45.501586570040615" lon="9.068457227038609"><ele>141.83333333333334</ele><time>2026-04-19T07:35:07.999Z</time></trkpt><trkpt lat="45.50165952103044" lon="9.068333804269763"><ele>142.0</ele><time>2026-04-19T07:35:09.999Z</time></trkpt><trkpt lat="45.50170855950108" lon="9.068258008612172"><ele>141.83333333333334</ele><time>2026-04-19T07:35:10.999Z</time></trkpt><trkpt lat="45.50176289155009" lon="9.068179082212138"><ele>141.66666666666669</ele><time>2026-04-19T07:35:11.999Z</time></trkpt><trkpt lat="45.50181236287736" lon="9.068122912195554"><ele>141.5</ele><time>2026-04-19T07:35:12.999Z</time></trkpt><trkpt lat="45.50186391502121" lon="9.06805500550678"><ele>141.33333333333334</ele><time>2026-04-19T07:35:13.999Z</time></trkpt><trkpt lat="45.50191007270401" lon="9.067988691996197"><ele>141.16666666666666</ele><time>2026-04-19T07:35:14.999Z</time></trkpt><trkpt lat="45.50200799592994" lon="9.067864523427787"><ele>141.0</ele><time>2026-04-19T07:35:16.999Z</time></trkpt><trkpt lat="45.50209342661158" lon="9.067738904837599"><ele>141.0</ele><time>2026-04-19T07:35:18.999Z</time></trkpt><trkpt lat="45.50217245326984" lon="9.06763440213331"><ele>141.0</ele><time>2026-04-19T07:35:20.999Z</time></trkpt><trkpt lat="45.502259862279764" lon="9.06752954418027"><ele>141.0</ele><time>2026-04-19T07:35:22.999Z</time></trkpt><trkpt lat="45.50233925883846" lon="9.067384387484603"><ele>141.0</ele><time>2026-04-19T07:35:24.999Z</time></trkpt><trkpt lat="45.50239214832632" lon="9.06724911379543"><ele>141.0</ele><time>2026-04-19T07:35:26.999Z</time></trkpt><trkpt lat="45.50243664994976" lon="9.067100641353463"><ele>141.0</ele><time>2026-04-19T07:35:28.999Z</time></trkpt><trkpt lat="45.50246646322788" lon="9.066946311015785"><ele>141.0</ele><time>2026-04-19T07:35:30.999Z</time></trkpt><trkpt lat="45.502471918573455" lon="9.066779767547095"><ele>141.0</ele><time>2026-04-19T07:35:32.999Z</time></trkpt><trkpt lat="45.5024531823824" lon="9.066602700314263"><ele>141.0</ele><time>2026-04-19T07:35:34.999Z</time></trkpt><trkpt lat="45.502443009676675" lon="9.06651062146613"><ele>141.0</ele><time>2026-04-19T07:35:35.999Z</time></trkpt><trkpt lat="45.50240919110083" lon="9.06635271857217"><ele>141.0</ele><time>2026-04-19T07:35:37.999Z</time></trkpt><trkpt lat="45.50236965830761" lon="9.066187092864917"><ele>141.0</ele><time>2026-04-19T07:35:39.999Z</time></trkpt><trkpt lat="45.50233261075672" lon="9.066032062176598"><ele>141.0</ele><time>2026-04-19T07:35:41.999Z</time></trkpt><trkpt lat="45.50230083632392" lon="9.065846534918908"><ele>141.5</ele><time>2026-04-19T07:35:43.999Z</time></trkpt><trkpt lat="45.50228810733757" lon="9.065753361941837"><ele>142.0</ele><time>2026-04-19T07:35:44.999Z</time></trkpt><trkpt lat="45.502287060803184" lon="9.065659779335515"><ele>142.5</ele><time>2026-04-19T07:35:45.999Z</time></trkpt><trkpt lat="45.50229792223647" lon="9.065466053197673"><ele>143.0</ele><time>2026-04-19T07:35:47.999Z</time></trkpt><trkpt lat="45.5023150412791" lon="9.065362226875903"><ele>143.5</ele><time>2026-04-19T07:35:48.999Z</time></trkpt><trkpt lat="45.50233375319092" lon="9.065270220719988"><ele>144.0</ele><time>2026-04-19T07:35:49.999Z</time></trkpt><trkpt lat="45.502389112412395" lon="9.065156519912968"><ele>144.0</ele><time>2026-04-19T07:35:51.999Z</time></trkpt><trkpt lat="45.50243621216554" lon="9.06504664494028"><ele>144.0</ele><time>2026-04-19T07:35:53.999Z</time></trkpt><trkpt lat="45.50250981343406" lon="9.064940276008814"><ele>144.0</ele><time>2026-04-19T07:35:55.999Z</time></trkpt><trkpt lat="45.50261316536804" lon="9.064840152432659"><ele>144.0</ele><time>2026-04-19T07:35:57.999Z</time></trkpt><trkpt lat="45.50267470452406" lon="9.064794783658327"><ele>144.0</ele><time>2026-04-19T07:35:58.999Z</time></trkpt><trkpt lat="45.50275361954065" lon="9.064750456861397"><ele>143.66666666666666</ele><time>2026-04-19T07:35:59.999Z</time></trkpt><trkpt lat="45.502836946168706" lon="9.064720350017918"><ele>143.33333333333334</ele><time>2026-04-19T07:36:00.999Z</time></trkpt><trkpt lat="45.5029053016175" lon="9.064693051603365"><ele>143.0</ele><time>2026-04-19T07:36:01.999Z</time></trkpt><trkpt lat="45.50297640092317" lon="9.064664617597902"><ele>142.66666666666669</ele><time>2026-04-19T07:36:02.999Z</time></trkpt><trkpt lat="45.50305617695319" lon="9.064634699207406"><ele>142.33333333333334</ele><time>2026-04-19T07:36:03.999Z</time></trkpt><trkpt lat="45.503134169303415" lon="9.06460616013429"><ele>142.0</ele><time>2026-04-19T07:36:04.999Z</time></trkpt><trkpt lat="45.50323662106728" lon="9.064605177023966"><ele>142.0</ele><time>2026-04-19T07:36:05.999Z</time></trkpt><trkpt lat="45.503334953374036" lon="9.064620987723742"><ele>142.0</ele><time>2026-04-19T07:36:06.999Z</time></trkpt><trkpt lat="45.50342739931864" lon="9.064619872779723"><ele>142.0</ele><time>2026-04-19T07:36:07.998Z</time></trkpt><trkpt lat="45.50351159988589" lon="9.064640194613482"><ele>142.0</ele><time>2026-04-19T07:36:08.998Z</time></trkpt><trkpt lat="45.50361067696436" lon="9.064647493530623"><ele>142.0</ele><time>2026-04-19T07:36:09.998Z</time></trkpt><trkpt lat="45.503700044011104" lon="9.064654113308544"><ele>141.6</ele><time>2026-04-19T07:36:10.998Z</time></trkpt><trkpt lat="45.50380327515982" lon="9.064661760059732"><ele>141.2</ele><time>2026-04-19T07:36:11.998Z</time></trkpt><trkpt lat="45.50390718104097" lon="9.064669456798217"><ele>140.8</ele><time>2026-04-19T07:36:12.998Z</time></trkpt><trkpt lat="45.50400394896846" lon="9.064676195818617"><ele>140.4</ele><time>2026-04-19T07:36:13.998Z</time></trkpt><trkpt lat="45.504101384350285" lon="9.064682900342783"><ele>140.0</ele><time>2026-04-19T07:36:14.998Z</time></trkpt><trkpt lat="45.50418391822524" lon="9.064688493202148"><ele>140.0</ele><time>2026-04-19T07:36:15.998Z</time></trkpt><trkpt lat="45.50427157060182" lon="9.064695174690865"><ele>140.0</ele><time>2026-04-19T07:36:16.998Z</time></trkpt><trkpt lat="45.50435543122416" lon="9.064702176644207"><ele>140.0</ele><time>2026-04-19T07:36:17.998Z</time></trkpt><trkpt lat="45.504436422890514" lon="9.064708939059562"><ele>140.0</ele><time>2026-04-19T07:36:18.998Z</time></trkpt><trkpt lat="45.50451990325594" lon="9.064714589425705"><ele>140.0</ele><time>2026-04-19T07:36:19.998Z</time></trkpt><trkpt lat="45.50459911848814" lon="9.06471547055625"><ele>140.0</ele><time>2026-04-19T07:36:20.998Z</time></trkpt><trkpt lat="45.50467526994867" lon="9.06471101942256"><ele>139.66666666666666</ele><time>2026-04-19T07:36:21.998Z</time></trkpt><trkpt lat="45.50475932924337" lon="9.064693368004507"><ele>139.33333333333331</ele><time>2026-04-19T07:36:22.998Z</time></trkpt><trkpt lat="45.504837943910395" lon="9.064659923286259"><ele>139.0</ele><time>2026-04-19T07:36:23.998Z</time></trkpt><trkpt lat="45.504902263812674" lon="9.064593574746292"><ele>138.66666666666666</ele><time>2026-04-19T07:36:24.998Z</time></trkpt><trkpt lat="45.50497224907905" lon="9.064546918170953"><ele>138.33333333333334</ele><time>2026-04-19T07:36:25.998Z</time></trkpt><trkpt lat="45.505039786407785" lon="9.06451981703799"><ele>138.0</ele><time>2026-04-19T07:36:26.998Z</time></trkpt><trkpt lat="45.505094921724286" lon="9.064472860833492"><ele>138.0</ele><time>2026-04-19T07:36:27.998Z</time></trkpt><trkpt lat="45.505151318154354" lon="9.064406117384593"><ele>138.0</ele><time>2026-04-19T07:36:28.998Z</time></trkpt><trkpt lat="45.505214660013394" lon="9.064356191004787"><ele>138.0</ele><time>2026-04-19T07:36:29.998Z</time></trkpt><trkpt lat="45.505323823768734" lon="9.064261408543166"><ele>138.0</ele><time>2026-04-19T07:36:31.998Z</time></trkpt><trkpt lat="45.5053813159614" lon="9.064211495615483"><ele>138.0</ele><time>2026-04-19T07:36:32.998Z</time></trkpt><trkpt lat="45.50543796870547" lon="9.06416201570107"><ele>138.0</ele><time>2026-04-19T07:36:33.998Z</time></trkpt><trkpt lat="45.505495954091806" lon="9.06410669827604"><ele>138.57142857142858</ele><time>2026-04-19T07:36:34.998Z</time></trkpt><trkpt lat="45.505551448479096" lon="9.064057825144843"><ele>139.14285714285717</ele><time>2026-04-19T07:36:35.998Z</time></trkpt><trkpt lat="45.505604719248836" lon="9.064001991353276"><ele>139.71428571428572</ele><time>2026-04-19T07:36:36.998Z</time></trkpt><trkpt lat="45.505665899130115" lon="9.063950935970336"><ele>140.28571428571428</ele><time>2026-04-19T07:36:37.998Z</time></trkpt><trkpt lat="45.50573071066344" lon="9.06390005710066"><ele>140.85714285714283</ele><time>2026-04-19T07:36:38.998Z</time></trkpt><trkpt lat="45.50578853676749" lon="9.063851700926111"><ele>141.42857142857142</ele><time>2026-04-19T07:36:39.998Z</time></trkpt><trkpt lat="45.50584254612209" lon="9.063805343271056"><ele>142.0</ele><time>2026-04-19T07:36:40.998Z</time></trkpt><trkpt lat="45.505898175100796" lon="9.063756267283562"><ele>142.0</ele><time>2026-04-19T07:36:41.998Z</time></trkpt><trkpt lat="45.50595560225713" lon="9.063707463319178"><ele>142.0</ele><time>2026-04-19T07:36:42.998Z</time></trkpt><trkpt lat="45.50601612526421" lon="9.063651418253531"><ele>142.0</ele><time>2026-04-19T07:36:43.998Z</time></trkpt><trkpt lat="45.50607307541043" lon="9.063587382967148"><ele>142.0</ele><time>2026-04-19T07:36:44.998Z</time></trkpt><trkpt lat="45.506143337051725" lon="9.063551541972354"><ele>142.0</ele><time>2026-04-19T07:36:45.998Z</time></trkpt><trkpt lat="45.50620818015068" lon="9.063495564823025"><ele>142.0</ele><time>2026-04-19T07:36:46.998Z</time></trkpt><trkpt lat="45.50626851246932" lon="9.063444886746911"><ele>142.0</ele><time>2026-04-19T07:36:47.998Z</time></trkpt><trkpt lat="45.50633364599533" lon="9.063390216263219"><ele>142.16666666666669</ele><time>2026-04-19T07:36:48.998Z</time></trkpt><trkpt lat="45.50638494025789" lon="9.063322786487982"><ele>142.33333333333334</ele><time>2026-04-19T07:36:49.998Z</time></trkpt><trkpt lat="45.50644221878534" lon="9.063272510287357"><ele>142.5</ele><time>2026-04-19T07:36:50.998Z</time></trkpt><trkpt lat="45.506546706292966" lon="9.06320183412868"><ele>142.66666666666666</ele><time>2026-04-19T07:36:52.998Z</time></trkpt><trkpt lat="45.5066009509282" lon="9.06315248846001"><ele>142.83333333333331</ele><time>2026-04-19T07:36:53.998Z</time></trkpt><trkpt lat="45.506702737962485" lon="9.0630583204726"><ele>143.0</ele><time>2026-04-19T07:36:55.998Z</time></trkpt><trkpt lat="45.506798809346904" lon="9.062969442172546"><ele>143.0</ele><time>2026-04-19T07:36:57.998Z</time></trkpt><trkpt lat="45.50685230519681" lon="9.062919947094455"><ele>143.0</ele><time>2026-04-19T07:36:58.998Z</time></trkpt><trkpt lat="45.50690754173674" lon="9.062868841101112"><ele>143.0</ele><time>2026-04-19T07:36:59.998Z</time></trkpt><trkpt lat="45.50701059544053" lon="9.062770525015504"><ele>143.0</ele><time>2026-04-19T07:37:01.998Z</time></trkpt><trkpt lat="45.507070818590115" lon="9.062714292215441"><ele>143.0</ele><time>2026-04-19T07:37:02.998Z</time></trkpt><trkpt lat="45.507133333658565" lon="9.062655936017107"><ele>143.0</ele><time>2026-04-19T07:37:03.998Z</time></trkpt><trkpt lat="45.50718855454276" lon="9.062605585552612"><ele>143.0</ele><time>2026-04-19T07:37:04.998Z</time></trkpt><trkpt lat="45.507243364952465" lon="9.06255553315708"><ele>143.0</ele><time>2026-04-19T07:37:05.998Z</time></trkpt><trkpt lat="45.50730053606265" lon="9.062504796876398"><ele>143.0</ele><time>2026-04-19T07:37:06.998Z</time></trkpt><trkpt lat="45.50735522387862" lon="9.062456357192762"><ele>143.0</ele><time>2026-04-19T07:37:07.998Z</time></trkpt><trkpt lat="45.50745838103518" lon="9.06236498574557"><ele>143.0</ele><time>2026-04-19T07:37:09.998Z</time></trkpt><trkpt lat="45.507556967568014" lon="9.062260477803363"><ele>143.0</ele><time>2026-04-19T07:37:11.998Z</time></trkpt><trkpt lat="45.507658272632014" lon="9.062154110993992"><ele>142.75</ele><time>2026-04-19T07:37:13.998Z</time></trkpt><trkpt lat="45.507762579034456" lon="9.062069952435822"><ele>142.5</ele><time>2026-04-19T07:37:15.998Z</time></trkpt><trkpt lat="45.50785723519325" lon="9.06198466412265"><ele>142.25</ele><time>2026-04-19T07:37:17.998Z</time></trkpt><trkpt lat="45.50796255180075" lon="9.061897367570277"><ele>142.0</ele><time>2026-04-19T07:37:19.998Z</time></trkpt><trkpt lat="45.50806308875354" lon="9.061818050136019"><ele>142.0</ele><time>2026-04-19T07:37:21.998Z</time></trkpt><trkpt lat="45.50816547768389" lon="9.061720469990355"><ele>142.0</ele><time>2026-04-19T07:37:23.998Z</time></trkpt><trkpt lat="45.50826271514365" lon="9.061635160141098"><ele>142.0</ele><time>2026-04-19T07:37:25.998Z</time></trkpt><trkpt lat="45.50834714758071" lon="9.061532708944567"><ele>142.0</ele><time>2026-04-19T07:37:27.998Z</time></trkpt><trkpt lat="45.50844326247855" lon="9.061422624565141"><ele>142.0</ele><time>2026-04-19T07:37:29.998Z</time></trkpt><trkpt lat="45.50853514766342" lon="9.06130037437939"><ele>142.0</ele><time>2026-04-19T07:37:31.998Z</time></trkpt><trkpt lat="45.508620075847155" lon="9.061202571683621"><ele>142.0</ele><time>2026-04-19T07:37:33.998Z</time></trkpt><trkpt lat="45.50870041692898" lon="9.061076259944679"><ele>142.0</ele><time>2026-04-19T07:37:35.998Z</time></trkpt><trkpt lat="45.508778291061915" lon="9.060968229492527"><ele>142.25</ele><time>2026-04-19T07:37:37.998Z</time></trkpt><trkpt lat="45.50886009508857" lon="9.060856902914225"><ele>142.5</ele><time>2026-04-19T07:37:39.998Z</time></trkpt><trkpt lat="45.50893297673992" lon="9.06072864984524"><ele>142.75</ele><time>2026-04-19T07:37:41.998Z</time></trkpt><trkpt lat="45.50901103160137" lon="9.06060048009515"><ele>143.0</ele><time>2026-04-19T07:37:43.998Z</time></trkpt><trkpt lat="45.50908112688182" lon="9.060472640705303"><ele>143.0</ele><time>2026-04-19T07:37:45.998Z</time></trkpt><trkpt lat="45.50914577788678" lon="9.060342792539803"><ele>143.0</ele><time>2026-04-19T07:37:47.998Z</time></trkpt><trkpt lat="45.509208348586206" lon="9.060223642583603"><ele>143.0</ele><time>2026-04-19T07:37:49.998Z</time></trkpt><trkpt lat="45.509268168872694" lon="9.060109093142426"><ele>143.0</ele><time>2026-04-19T07:37:51.998Z</time></trkpt><trkpt lat="45.50932425565482" lon="9.059980045236943"><ele>143.0</ele><time>2026-04-19T07:37:53.998Z</time></trkpt><trkpt lat="45.50938748787159" lon="9.05984617671884"><ele>143.25</ele><time>2026-04-19T07:37:55.998Z</time></trkpt><trkpt lat="45.50945693854773" lon="9.059718536926484"><ele>143.5</ele><time>2026-04-19T07:37:57.998Z</time></trkpt><trkpt lat="45.509521009529315" lon="9.059587625248781"><ele>143.75</ele><time>2026-04-19T07:37:59.998Z</time></trkpt><trkpt lat="45.509587374438354" lon="9.059453398892174"><ele>144.0</ele><time>2026-04-19T07:38:01.998Z</time></trkpt><trkpt lat="45.50965546326789" lon="9.059325985347035"><ele>144.0</ele><time>2026-04-19T07:38:03.998Z</time></trkpt><trkpt lat="45.50972614910741" lon="9.059207329948647"><ele>144.0</ele><time>2026-04-19T07:38:05.998Z</time></trkpt><trkpt lat="45.50980335205063" lon="9.05909327177584"><ele>144.0</ele><time>2026-04-19T07:38:07.998Z</time></trkpt><trkpt lat="45.50988009542761" lon="9.058971887032904"><ele>144.0</ele><time>2026-04-19T07:38:09.998Z</time></trkpt><trkpt lat="45.509947920447914" lon="9.058861456666435"><ele>144.0</ele><time>2026-04-19T07:38:11.998Z</time></trkpt><trkpt lat="45.510022169866915" lon="9.058755063817031"><ele>144.0</ele><time>2026-04-19T07:38:13.998Z</time></trkpt><trkpt lat="45.51010341743098" lon="9.058665180643262"><ele>144.0</ele><time>2026-04-19T07:38:15.998Z</time></trkpt><trkpt lat="45.510182664050205" lon="9.058566761948294"><ele>144.0</ele><time>2026-04-19T07:38:17.998Z</time></trkpt><trkpt lat="45.51026257445553" lon="9.058474703769297"><ele>144.0</ele><time>2026-04-19T07:38:19.998Z</time></trkpt><trkpt lat="45.510334963094174" lon="9.0584005527378"><ele>144.0</ele><time>2026-04-19T07:38:21.998Z</time></trkpt><trkpt lat="45.51041627600517" lon="9.05831154598749"><ele>144.0</ele><time>2026-04-19T07:38:23.998Z</time></trkpt><trkpt lat="45.51050039438627" lon="9.058225608514267"><ele>144.0</ele><time>2026-04-19T07:38:25.998Z</time></trkpt><trkpt lat="45.51058217699451" lon="9.058148981551595"><ele>144.0</ele><time>2026-04-19T07:38:27.998Z</time></trkpt><trkpt lat="45.51065924084496" lon="9.058084709574473"><ele>144.0</ele><time>2026-04-19T07:38:29.998Z</time></trkpt><trkpt lat="45.51074346690484" lon="9.05801745380137"><ele>144.0</ele><time>2026-04-19T07:38:31.998Z</time></trkpt><trkpt lat="45.510825492960144" lon="9.057937146995524"><ele>144.0</ele><time>2026-04-19T07:38:33.998Z</time></trkpt><trkpt lat="45.51091068157919" lon="9.057861012344159"><ele>144.0</ele><time>2026-04-19T07:38:35.998Z</time></trkpt><trkpt lat="45.51101388315272" lon="9.057787890469255"><ele>144.0</ele><time>2026-04-19T07:38:37.998Z</time></trkpt><trkpt lat="45.51110741974795" lon="9.057721315821615"><ele>144.0</ele><time>2026-04-19T07:38:39.997Z</time></trkpt><trkpt lat="45.5111941372733" lon="9.057666001671725"><ele>144.0</ele><time>2026-04-19T07:38:41.997Z</time></trkpt><trkpt lat="45.51128531970232" lon="9.057605992653771"><ele>144.0</ele><time>2026-04-19T07:38:43.997Z</time></trkpt><trkpt lat="45.5113781848132" lon="9.057543080083816"><ele>144.0</ele><time>2026-04-19T07:38:45.997Z</time></trkpt><trkpt lat="45.51146347949591" lon="9.057486614895033"><ele>144.0</ele><time>2026-04-19T07:38:47.997Z</time></trkpt><trkpt lat="45.51155206778679" lon="9.057429566681899"><ele>144.0</ele><time>2026-04-19T07:38:49.997Z</time></trkpt><trkpt lat="45.511642103713186" lon="9.057376142685001"><ele>144.0</ele><time>2026-04-19T07:38:51.997Z</time></trkpt><trkpt lat="45.5117226773738" lon="9.05731727708928"><ele>144.0</ele><time>2026-04-19T07:38:53.997Z</time></trkpt><trkpt lat="45.51180205924713" lon="9.057262760045681"><ele>144.0</ele><time>2026-04-19T07:38:55.997Z</time></trkpt><trkpt lat="45.51189024524438" lon="9.057202632010647"><ele>144.0</ele><time>2026-04-19T07:38:57.997Z</time></trkpt><trkpt lat="45.51197785030243" lon="9.057151447627763"><ele>144.0</ele><time>2026-04-19T07:38:59.997Z</time></trkpt><trkpt lat="45.51205543596413" lon="9.057085766037726"><ele>144.0</ele><time>2026-04-19T07:39:01.997Z</time></trkpt><trkpt lat="45.51213308465689" lon="9.057029262553016"><ele>144.4</ele><time>2026-04-19T07:39:03.997Z</time></trkpt><trkpt lat="45.51222708407559" lon="9.056971336643336"><ele>144.8</ele><time>2026-04-19T07:39:05.997Z</time></trkpt><trkpt lat="45.5123225238119" lon="9.056904834668044"><ele>145.2</ele><time>2026-04-19T07:39:07.997Z</time></trkpt><trkpt lat="45.51242757851915" lon="9.056851483756988"><ele>145.6</ele><time>2026-04-19T07:39:09.997Z</time></trkpt><trkpt lat="45.512539613117895" lon="9.056777939060519"><ele>146.0</ele><time>2026-04-19T07:39:11.997Z</time></trkpt><trkpt lat="45.51264819214582" lon="9.056710019552321"><ele>146.0</ele><time>2026-04-19T07:39:13.997Z</time></trkpt><trkpt lat="45.512761224249886" lon="9.056634632267896"><ele>146.0</ele><time>2026-04-19T07:39:15.997Z</time></trkpt><trkpt lat="45.51281860901798" lon="9.056593819642785"><ele>146.0</ele><time>2026-04-19T07:39:16.997Z</time></trkpt><trkpt lat="45.51293649335924" lon="9.056518624503003"><ele>146.0</ele><time>2026-04-19T07:39:18.997Z</time></trkpt><trkpt lat="45.512997781602635" lon="9.056481256522009"><ele>146.0</ele><time>2026-04-19T07:39:19.997Z</time></trkpt><trkpt lat="45.51306054111332" lon="9.056436396130065"><ele>146.14285714285714</ele><time>2026-04-19T07:39:20.997Z</time></trkpt><trkpt lat="45.513126908791016" lon="9.056389679155654"><ele>146.28571428571428</ele><time>2026-04-19T07:39:21.997Z</time></trkpt><trkpt lat="45.51319375134231" lon="9.05635145272342"><ele>146.42857142857144</ele><time>2026-04-19T07:39:22.997Z</time></trkpt><trkpt lat="45.51326249270441" lon="9.056305341803094"><ele>146.57142857142856</ele><time>2026-04-19T07:39:23.997Z</time></trkpt><trkpt lat="45.5133286178586" lon="9.056264391236093"><ele>146.71428571428572</ele><time>2026-04-19T07:39:24.997Z</time></trkpt><trkpt lat="45.51339729722962" lon="9.056219346947996"><ele>146.85714285714286</ele><time>2026-04-19T07:39:25.997Z</time></trkpt><trkpt lat="45.51346317256133" lon="9.056176679323015"><ele>147.0</ele><time>2026-04-19T07:39:26.997Z</time></trkpt><trkpt lat="45.51352893312326" lon="9.056132719126815"><ele>147.0</ele><time>2026-04-19T07:39:27.997Z</time></trkpt><trkpt lat="45.51359211775874" lon="9.056082258129921"><ele>147.0</ele><time>2026-04-19T07:39:28.997Z</time></trkpt><trkpt lat="45.51365737671583" lon="9.056043093813237"><ele>147.0</ele><time>2026-04-19T07:39:29.997Z</time></trkpt><trkpt lat="45.51372115323931" lon="9.056002304773061"><ele>147.0</ele><time>2026-04-19T07:39:30.997Z</time></trkpt><trkpt lat="45.51383596274773" lon="9.055928139090081"><ele>147.0</ele><time>2026-04-19T07:39:32.997Z</time></trkpt><trkpt lat="45.51393908644901" lon="9.055854389139062"><ele>147.2</ele><time>2026-04-19T07:39:34.997Z</time></trkpt><trkpt lat="45.51404389940491" lon="9.055787851879312"><ele>147.39999999999998</ele><time>2026-04-19T07:39:36.997Z</time></trkpt><trkpt lat="45.51414943741821" lon="9.055718809707237"><ele>147.60000000000002</ele><time>2026-04-19T07:39:38.997Z</time></trkpt><trkpt lat="45.51425219107691" lon="9.055643992485663"><ele>147.8</ele><time>2026-04-19T07:39:40.997Z</time></trkpt><trkpt lat="45.51432264279954" lon="9.055642027967409"><ele>148.0</ele><time>2026-04-19T07:39:41.997Z</time></trkpt><trkpt lat="45.51442320358042" lon="9.05556566983485"><ele>148.25</ele><time>2026-04-19T07:39:43.997Z</time></trkpt><trkpt lat="45.514524923934275" lon="9.055488382729393"><ele>148.5</ele><time>2026-04-19T07:39:45.997Z</time></trkpt><trkpt lat="45.51462553431134" lon="9.05541357608266"><ele>148.75</ele><time>2026-04-19T07:39:47.997Z</time></trkpt><trkpt lat="45.51472533906547" lon="9.055339226365138"><ele>149.0</ele><time>2026-04-19T07:39:49.997Z</time></trkpt><trkpt lat="45.514820950017636" lon="9.05526665094442"><ele>149.4</ele><time>2026-04-19T07:39:51.997Z</time></trkpt><trkpt lat="45.51488786120242" lon="9.055261799287889"><ele>149.8</ele><time>2026-04-19T07:39:52.997Z</time></trkpt><trkpt lat="45.514978496436264" lon="9.055177844281745"><ele>150.2</ele><time>2026-04-19T07:39:54.997Z</time></trkpt><trkpt lat="45.515079027754496" lon="9.055099003331476"><ele>150.6</ele><time>2026-04-19T07:39:56.997Z</time></trkpt><trkpt lat="45.51517445008134" lon="9.055066326759489"><ele>151.0</ele><time>2026-04-19T07:39:58.997Z</time></trkpt><trkpt lat="45.515253491692334" lon="9.055005356196101"><ele>150.5</ele><time>2026-04-19T07:40:00.997Z</time></trkpt><trkpt lat="45.51533342701677" lon="9.054938366311976"><ele>150.0</ele><time>2026-04-19T07:40:02.997Z</time></trkpt><trkpt lat="45.51542388146143" lon="9.054855900626102"><ele>149.5</ele><time>2026-04-19T07:40:04.997Z</time></trkpt><trkpt lat="45.515484527661705" lon="9.054827719764226"><ele>149.0</ele><time>2026-04-19T07:40:05.997Z</time></trkpt><trkpt lat="45.51555576263125" lon="9.054802028058301"><ele>148.5</ele><time>2026-04-19T07:40:06.997Z</time></trkpt><trkpt lat="45.51561623953699" lon="9.054756585256088"><ele>148.0</ele><time>2026-04-19T07:40:07.997Z</time></trkpt><trkpt lat="45.51567952083819" lon="9.054710837383514"><ele>147.66666666666669</ele><time>2026-04-19T07:40:08.997Z</time></trkpt><trkpt lat="45.51577250237569" lon="9.054635708221094"><ele>147.33333333333334</ele><time>2026-04-19T07:40:10.997Z</time></trkpt><trkpt lat="45.515841392855556" lon="9.054583508598327"><ele>147.0</ele><time>2026-04-19T07:40:12.997Z</time></trkpt><trkpt lat="45.51591432074525" lon="9.054544990063302"><ele>146.66666666666666</ele><time>2026-04-19T07:40:14.997Z</time></trkpt><trkpt lat="45.51598876211151" lon="9.054498562217757"><ele>146.33333333333331</ele><time>2026-04-19T07:40:16.997Z</time></trkpt><trkpt lat="45.51606753245971" lon="9.054440769158056"><ele>146.0</ele><time>2026-04-19T07:40:18.997Z</time></trkpt><trkpt lat="45.51616793079262" lon="9.05436511422248"><ele>146.4</ele><time>2026-04-19T07:40:20.997Z</time></trkpt><trkpt lat="45.51627013431731" lon="9.05428704488695"><ele>146.8</ele><time>2026-04-19T07:40:22.997Z</time></trkpt><trkpt lat="45.51637200491303" lon="9.05421492539174"><ele>147.20000000000002</ele><time>2026-04-19T07:40:24.997Z</time></trkpt><trkpt lat="45.51645564429074" lon="9.054151530303812"><ele>147.6</ele><time>2026-04-19T07:40:26.997Z</time></trkpt><trkpt lat="45.51649855549734" lon="9.054085281268234"><ele>148.0</ele><time>2026-04-19T07:40:28.997Z</time></trkpt><trkpt lat="45.51643583663652" lon="9.05411974032522"><ele>148.33333333333334</ele><time>2026-04-19T07:40:33.997Z</time></trkpt><trkpt lat="45.51626611637588" lon="9.053881949340836"><ele>148.66666666666666</ele><time>2026-04-19T07:40:36.997Z</time></trkpt><trkpt lat="45.51615664107553" lon="9.053815166295104"><ele>149.0</ele><time>2026-04-19T07:40:38.997Z</time></trkpt><trkpt lat="45.516055396795004" lon="9.05376366985655"><ele>148.2</ele><time>2026-04-19T07:40:40.997Z</time></trkpt><trkpt lat="45.5159609282306" lon="9.053704841925615"><ele>147.4</ele><time>2026-04-19T07:40:42.997Z</time></trkpt><trkpt lat="45.51586190309544" lon="9.053654212297474"><ele>146.6</ele><time>2026-04-19T07:40:44.997Z</time></trkpt><trkpt lat="45.51576888462759" lon="9.053605374065626"><ele>145.8</ele><time>2026-04-19T07:40:46.997Z</time></trkpt><trkpt lat="45.51566962867007" lon="9.053544404204402"><ele>145.0</ele><time>2026-04-19T07:40:48.997Z</time></trkpt><trkpt lat="45.51557760990222" lon="9.0534946606754"><ele>145.0</ele><time>2026-04-19T07:40:50.997Z</time></trkpt><trkpt lat="45.5154893363955" lon="9.053439654292907"><ele>145.0</ele><time>2026-04-19T07:40:52.997Z</time></trkpt><trkpt lat="45.51538746258123" lon="9.053381512957365"><ele>145.0</ele><time>2026-04-19T07:40:54.997Z</time></trkpt><trkpt lat="45.515278646881804" lon="9.053320916528346"><ele>145.0</ele><time>2026-04-19T07:40:56.997Z</time></trkpt><trkpt lat="45.515172083304826" lon="9.053256515161081"><ele>145.0</ele><time>2026-04-19T07:40:58.997Z</time></trkpt><trkpt lat="45.515060197010165" lon="9.053200312029858"><ele>145.75</ele><time>2026-04-19T07:41:00.997Z</time></trkpt><trkpt lat="45.51494948286616" lon="9.053138730262223"><ele>146.5</ele><time>2026-04-19T07:41:02.997Z</time></trkpt><trkpt lat="45.514839116430736" lon="9.053079775998667"><ele>147.25</ele><time>2026-04-19T07:41:04.997Z</time></trkpt><trkpt lat="45.514717998185354" lon="9.053025775270083"><ele>148.0</ele><time>2026-04-19T07:41:06.997Z</time></trkpt><trkpt lat="45.514602927355966" lon="9.052964519948048"><ele>148.20000000000002</ele><time>2026-04-19T07:41:08.996Z</time></trkpt><trkpt lat="45.51454080621823" lon="9.052931506193229"><ele>148.4</ele><time>2026-04-19T07:41:09.996Z</time></trkpt><trkpt lat="45.51443553297391" lon="9.052873632758269"><ele>148.60000000000002</ele><time>2026-04-19T07:41:11.996Z</time></trkpt><trkpt lat="45.51434109871253" lon="9.052818715097198"><ele>148.8</ele><time>2026-04-19T07:41:13.996Z</time></trkpt><trkpt lat="45.514257013547194" lon="9.05278362975331"><ele>149.0</ele><time>2026-04-19T07:41:15.996Z</time></trkpt><trkpt lat="45.51416641685684" lon="9.05273115772444"><ele>149.0</ele><time>2026-04-19T07:41:17.996Z</time></trkpt><trkpt lat="45.51410599621355" lon="9.052705342561032"><ele>149.0</ele><time>2026-04-19T07:41:18.996Z</time></trkpt><trkpt lat="45.513992474475785" lon="9.052651825974186"><ele>149.0</ele><time>2026-04-19T07:41:20.996Z</time></trkpt><trkpt lat="45.5138878211716" lon="9.05258363660431"><ele>149.0</ele><time>2026-04-19T07:41:22.996Z</time></trkpt><trkpt lat="45.51377822233849" lon="9.052510593480253"><ele>149.0</ele><time>2026-04-19T07:41:24.996Z</time></trkpt><trkpt lat="45.5136801327961" lon="9.05243875551565"><ele>148.66666666666666</ele><time>2026-04-19T07:41:26.996Z</time></trkpt><trkpt lat="45.513591896859374" lon="9.052356230408755"><ele>148.33333333333331</ele><time>2026-04-19T07:41:28.996Z</time></trkpt><trkpt lat="45.51351573051371" lon="9.052315545458702"><ele>148.0</ele><time>2026-04-19T07:41:30.996Z</time></trkpt><trkpt lat="45.51345647750478" lon="9.052369303125838"><ele>147.66666666666666</ele><time>2026-04-19T07:41:33.996Z</time></trkpt><trkpt lat="45.51338732152036" lon="9.052358950651247"><ele>147.33333333333334</ele><time>2026-04-19T07:41:36.996Z</time></trkpt><trkpt lat="45.51330489611148" lon="9.052320233929589"><ele>147.0</ele><time>2026-04-19T07:41:38.996Z</time></trkpt><trkpt lat="45.51323138480252" lon="9.052275451732488"><ele>147.0</ele><time>2026-04-19T07:41:39.996Z</time></trkpt><trkpt lat="45.513182555893216" lon="9.052215533379023"><ele>147.0</ele><time>2026-04-19T07:41:40.996Z</time></trkpt><trkpt lat="45.513115448576926" lon="9.052179884146256"><ele>147.0</ele><time>2026-04-19T07:41:41.996Z</time></trkpt><trkpt lat="45.51305289251154" lon="9.052152632366226"><ele>147.0</ele><time>2026-04-19T07:41:42.996Z</time></trkpt><trkpt lat="45.5129341320931" lon="9.052103342135965"><ele>147.0</ele><time>2026-04-19T07:41:44.996Z</time></trkpt><trkpt lat="45.51282334723566" lon="9.052032672557337"><ele>147.0</ele><time>2026-04-19T07:41:46.996Z</time></trkpt><trkpt lat="45.51270559343797" lon="9.051961752663324"><ele>146.79999999999998</ele><time>2026-04-19T07:41:48.996Z</time></trkpt><trkpt lat="45.51260087397189" lon="9.051887118164046"><ele>146.6</ele><time>2026-04-19T07:41:50.996Z</time></trkpt><trkpt lat="45.51248229169141" lon="9.051813931056142"><ele>146.39999999999998</ele><time>2026-04-19T07:41:52.996Z</time></trkpt><trkpt lat="45.51242389522054" lon="9.051777976128296"><ele>146.2</ele><time>2026-04-19T07:41:53.996Z</time></trkpt><trkpt lat="45.51231725405234" lon="9.051703259904794"><ele>146.0</ele><time>2026-04-19T07:41:55.996Z</time></trkpt><trkpt lat="45.512204456534114" lon="9.05163601435709"><ele>145.75</ele><time>2026-04-19T07:41:57.996Z</time></trkpt><trkpt lat="45.51208504108362" lon="9.051588581144584"><ele>145.5</ele><time>2026-04-19T07:41:59.996Z</time></trkpt><trkpt lat="45.511971805849306" lon="9.051520236730873"><ele>145.25</ele><time>2026-04-19T07:42:01.996Z</time></trkpt><trkpt lat="45.5119941379746" lon="9.051297242681025"><ele>145.0</ele><time>2026-04-19T07:42:02.996Z</time></trkpt><trkpt lat="45.51193981994804" lon="9.051218056630058"><ele>145.0</ele><time>2026-04-19T07:42:04.996Z</time></trkpt><trkpt lat="45.5119072656658" lon="9.05113396422256"><ele>145.0</ele><time>2026-04-19T07:42:06.996Z</time></trkpt><trkpt lat="45.511895145028376" lon="9.051031673214823"><ele>145.0</ele><time>2026-04-19T07:42:08.996Z</time></trkpt><trkpt lat="45.51190564163642" lon="9.050897407313983"><ele>145.0</ele><time>2026-04-19T07:42:10.996Z</time></trkpt><trkpt lat="45.51191731390233" lon="9.050801355039214"><ele>145.0</ele><time>2026-04-19T07:42:11.996Z</time></trkpt><trkpt lat="45.51192951542425" lon="9.05071022778118"><ele>145.0</ele><time>2026-04-19T07:42:12.996Z</time></trkpt><trkpt lat="45.51196170065054" lon="9.050544462278202"><ele>145.0</ele><time>2026-04-19T07:42:14.996Z</time></trkpt><trkpt lat="45.512001535070524" lon="9.050418633574916"><ele>145.0</ele><time>2026-04-19T07:42:16.996Z</time></trkpt><trkpt lat="45.512039172242055" lon="9.050311916569274"><ele>145.0</ele><time>2026-04-19T07:42:18.996Z</time></trkpt><trkpt lat="45.511926506946445" lon="9.050049578749945"><ele>145.0</ele><time>2026-04-19T07:42:19.996Z</time></trkpt><trkpt lat="45.511884860334646" lon="9.049943059113085"><ele>145.0</ele><time>2026-04-19T07:42:21.996Z</time></trkpt><trkpt lat="45.51185474925913" lon="9.049829695453774"><ele>145.0</ele><time>2026-04-19T07:42:23.996Z</time></trkpt><trkpt lat="45.511830546333506" lon="9.049729385742337"><ele>145.0</ele><time>2026-04-19T07:42:25.996Z</time></trkpt><trkpt lat="45.511801685996545" lon="9.04961805655635"><ele>145.0</ele><time>2026-04-19T07:42:27.996Z</time></trkpt><trkpt lat="45.51174813074067" lon="9.049467088310962"><ele>145.0</ele><time>2026-04-19T07:42:29.996Z</time></trkpt><trkpt lat="45.511699804422285" lon="9.049359282132565"><ele>145.0</ele><time>2026-04-19T07:42:31.996Z</time></trkpt><trkpt lat="45.51165185382491" lon="9.049257408875278"><ele>145.0</ele><time>2026-04-19T07:42:33.996Z</time></trkpt><trkpt lat="45.51160735141209" lon="9.049160731600914"><ele>145.0</ele><time>2026-04-19T07:42:35.996Z</time></trkpt><trkpt lat="45.51155515731692" lon="9.049039877614785"><ele>145.0</ele><time>2026-04-19T07:42:37.996Z</time></trkpt><trkpt lat="45.511512661560786" lon="9.048922051402291"><ele>145.0</ele><time>2026-04-19T07:42:39.996Z</time></trkpt><trkpt lat="45.51148654188296" lon="9.048817634970938"><ele>145.0</ele><time>2026-04-19T07:42:41.996Z</time></trkpt><trkpt lat="45.51145463686663" lon="9.04872548521323"><ele>145.16666666666669</ele><time>2026-04-19T07:42:43.996Z</time></trkpt><trkpt lat="45.51143473653725" lon="9.048616717049297"><ele>145.33333333333334</ele><time>2026-04-19T07:42:45.996Z</time></trkpt><trkpt lat="45.51139508895696" lon="9.04852191676164"><ele>145.5</ele><time>2026-04-19T07:42:47.996Z</time></trkpt><trkpt lat="45.51133363156039" lon="9.04843165916895"><ele>145.66666666666666</ele><time>2026-04-19T07:42:49.996Z</time></trkpt><trkpt lat="45.51125436255827" lon="9.04837282003833"><ele>145.83333333333331</ele><time>2026-04-19T07:42:51.996Z</time></trkpt><trkpt lat="45.51117160847146" lon="9.048355821595521"><ele>146.0</ele><time>2026-04-19T07:42:53.996Z</time></trkpt><trkpt lat="45.51110441484826" lon="9.048388679644383"><ele>146.0</ele><time>2026-04-19T07:42:55.996Z</time></trkpt><trkpt lat="45.51102407544726" lon="9.048388827538648"><ele>146.0</ele><time>2026-04-19T07:42:58.996Z</time></trkpt><trkpt lat="45.51095501106487" lon="9.048426838795299"><ele>146.0</ele><time>2026-04-19T07:43:01.996Z</time></trkpt><trkpt lat="45.51089036059718" lon="9.048441319008194"><ele>146.0</ele><time>2026-04-19T07:43:04.996Z</time></trkpt><trkpt lat="45.51082011511718" lon="9.04843983337362"><ele>146.0</ele><time>2026-04-19T07:43:07.996Z</time></trkpt><trkpt lat="45.51075944981875" lon="9.048473272436972"><ele>146.0</ele><time>2026-04-19T07:43:09.996Z</time></trkpt><trkpt lat="45.51066831948449" lon="9.0484907590481"><ele>146.0</ele><time>2026-04-19T07:43:11.996Z</time></trkpt><trkpt lat="45.51055755518813" lon="9.04850557459845"><ele>146.0</ele><time>2026-04-19T07:43:13.996Z</time></trkpt><trkpt lat="45.5104447282704" lon="9.048550768748518"><ele>146.0</ele><time>2026-04-19T07:43:15.996Z</time></trkpt><trkpt lat="45.51038341079946" lon="9.048583565576074"><ele>146.0</ele><time>2026-04-19T07:43:16.996Z</time></trkpt><trkpt lat="45.51030545419035" lon="9.04863244688233"><ele>146.0</ele><time>2026-04-19T07:43:17.996Z</time></trkpt><trkpt lat="45.5102324586706" lon="9.048692354222995"><ele>146.0</ele><time>2026-04-19T07:43:18.996Z</time></trkpt><trkpt lat="45.51015871310696" lon="9.048763813591941"><ele>146.0</ele><time>2026-04-19T07:43:19.996Z</time></trkpt><trkpt lat="45.5100686658008" lon="9.048874662864973"><ele>146.16666666666666</ele><time>2026-04-19T07:43:20.996Z</time></trkpt><trkpt lat="45.50999327091419" lon="9.048953616452984"><ele>146.33333333333331</ele><time>2026-04-19T07:43:21.996Z</time></trkpt><trkpt lat="45.50992167078793" lon="9.049039919780313"><ele>146.5</ele><time>2026-04-19T07:43:22.996Z</time></trkpt><trkpt lat="45.509839498021336" lon="9.049091415485087"><ele>146.66666666666666</ele><time>2026-04-19T07:43:23.996Z</time></trkpt><trkpt lat="45.509758011124795" lon="9.049173959222681"><ele>146.83333333333334</ele><time>2026-04-19T07:43:25.996Z</time></trkpt><trkpt lat="45.50969311739294" lon="9.049211370481082"><ele>147.0</ele><time>2026-04-19T07:43:26.996Z</time></trkpt><trkpt lat="45.50958469556791" lon="9.049290516955107"><ele>146.6</ele><time>2026-04-19T07:43:28.996Z</time></trkpt><trkpt lat="45.50948838952581" lon="9.049365363690336"><ele>146.2</ele><time>2026-04-19T07:43:30.996Z</time></trkpt><trkpt lat="45.50938379384876" lon="9.049418240865515"><ele>145.8</ele><time>2026-04-19T07:43:32.996Z</time></trkpt><trkpt lat="45.50929598106506" lon="9.049511174117075"><ele>145.4</ele><time>2026-04-19T07:43:34.996Z</time></trkpt><trkpt lat="45.50921341163255" lon="9.04958789908711"><ele>145.0</ele><time>2026-04-19T07:43:36.996Z</time></trkpt><trkpt lat="45.50913232552394" lon="9.049670490923123"><ele>145.0</ele><time>2026-04-19T07:43:38.996Z</time></trkpt><trkpt lat="45.509055537328635" lon="9.049731260007654"><ele>145.0</ele><time>2026-04-19T07:43:40.995Z</time></trkpt><trkpt lat="45.50899530766109" lon="9.049783895200445"><ele>145.0</ele><time>2026-04-19T07:43:41.995Z</time></trkpt><trkpt lat="45.50889108293051" lon="9.04987359336194"><ele>145.0</ele><time>2026-04-19T07:43:43.995Z</time></trkpt><trkpt lat="45.50880521325967" lon="9.049951840708333"><ele>145.0</ele><time>2026-04-19T07:43:45.995Z</time></trkpt><trkpt lat="45.50866444773415" lon="9.049988272904574"><ele>144.83333333333334</ele><time>2026-04-19T07:43:47.995Z</time></trkpt><trkpt lat="45.508598580109314" lon="9.049969230429209"><ele>144.66666666666669</ele><time>2026-04-19T07:43:48.995Z</time></trkpt><trkpt lat="45.50848721593504" lon="9.04992748165333"><ele>144.5</ele><time>2026-04-19T07:43:50.995Z</time></trkpt><trkpt lat="45.50837785964291" lon="9.049876493095756"><ele>144.33333333333334</ele><time>2026-04-19T07:43:52.995Z</time></trkpt><trkpt lat="45.508316595721325" lon="9.04984639886329"><ele>144.16666666666666</ele><time>2026-04-19T07:43:53.995Z</time></trkpt><trkpt lat="45.5082562227542" lon="9.04981600219624"><ele>144.0</ele><time>2026-04-19T07:43:54.995Z</time></trkpt><trkpt lat="45.508141906691925" lon="9.049758446692485"><ele>144.0</ele><time>2026-04-19T07:43:56.995Z</time></trkpt><trkpt lat="45.50801376385659" lon="9.04969348121891"><ele>144.0</ele><time>2026-04-19T07:43:58.995Z</time></trkpt><trkpt lat="45.50795429935424" lon="9.049661947220397"><ele>144.0</ele><time>2026-04-19T07:43:59.995Z</time></trkpt><trkpt lat="45.5078848597439" lon="9.049647575237874"><ele>144.0</ele><time>2026-04-19T07:44:00.995Z</time></trkpt><trkpt lat="45.507818766113736" lon="9.04961109032934"><ele>144.0</ele><time>2026-04-19T07:44:01.995Z</time></trkpt><trkpt lat="45.50775836228783" lon="9.04957499536621"><ele>144.0</ele><time>2026-04-19T07:44:02.995Z</time></trkpt><trkpt lat="45.50769819875609" lon="9.049539016049076"><ele>144.0</ele><time>2026-04-19T07:44:03.995Z</time></trkpt><trkpt lat="45.5076324490397" lon="9.04950030877159"><ele>144.0</ele><time>2026-04-19T07:44:04.995Z</time></trkpt><trkpt lat="45.50751071988657" lon="9.049428556350424"><ele>144.0</ele><time>2026-04-19T07:44:06.995Z</time></trkpt><trkpt lat="45.50744791359881" lon="9.049389307755977"><ele>144.0</ele><time>2026-04-19T07:44:07.995Z</time></trkpt><trkpt lat="45.50738662911726" lon="9.049352884664179"><ele>144.0</ele><time>2026-04-19T07:44:08.995Z</time></trkpt><trkpt lat="45.50731845715227" lon="9.04931637340689"><ele>144.0</ele><time>2026-04-19T07:44:09.995Z</time></trkpt><trkpt lat="45.50726190320503" lon="9.049276459315568"><ele>144.0</ele><time>2026-04-19T07:44:10.995Z</time></trkpt><trkpt lat="45.507200238449556" lon="9.049238828503626"><ele>144.0</ele><time>2026-04-19T07:44:11.995Z</time></trkpt><trkpt lat="45.50714405655299" lon="9.049195646069458"><ele>144.0</ele><time>2026-04-19T07:44:12.995Z</time></trkpt><trkpt lat="45.50708428484436" lon="9.049146691210746"><ele>144.0</ele><time>2026-04-19T07:44:13.995Z</time></trkpt><trkpt lat="45.50702741195909" lon="9.049099581617456"><ele>144.0</ele><time>2026-04-19T07:44:14.995Z</time></trkpt><trkpt lat="45.5069713151099" lon="9.049054358790237"><ele>144.0</ele><time>2026-04-19T07:44:15.995Z</time></trkpt><trkpt lat="45.50685548728911" lon="9.048967317715045"><ele>144.00000000000003</ele><time>2026-04-19T07:44:17.995Z</time></trkpt><trkpt lat="45.50680096204381" lon="9.048918448076563"><ele>144.0</ele><time>2026-04-19T07:44:18.995Z</time></trkpt><trkpt lat="45.50675702004699" lon="9.04885152694591"><ele>144.0</ele><time>2026-04-19T07:44:19.995Z</time></trkpt><trkpt lat="45.50670263847812" lon="9.048800506853075"><ele>144.0</ele><time>2026-04-19T07:44:20.995Z</time></trkpt><trkpt lat="45.50664740996671" lon="9.048748692028045"><ele>144.0</ele><time>2026-04-19T07:44:21.995Z</time></trkpt><trkpt lat="45.50659469904891" lon="9.048699293754998"><ele>144.00000000000003</ele><time>2026-04-19T07:44:22.995Z</time></trkpt><trkpt lat="45.5064950698778" lon="9.048612282566097"><ele>144.0</ele><time>2026-04-19T07:44:24.995Z</time></trkpt><trkpt lat="45.506390225194394" lon="9.048532459323292"><ele>144.0</ele><time>2026-04-19T07:44:26.995Z</time></trkpt><trkpt lat="45.50629108701305" lon="9.048425480328076"><ele>144.0</ele><time>2026-04-19T07:44:28.995Z</time></trkpt><trkpt lat="45.50620019450118" lon="9.048302917108298"><ele>144.0</ele><time>2026-04-19T07:44:30.995Z</time></trkpt><trkpt lat="45.50614822471244" lon="9.048245027386168"><ele>144.0</ele><time>2026-04-19T07:44:31.995Z</time></trkpt><trkpt lat="45.506039102307234" lon="9.048148219548443"><ele>144.0</ele><time>2026-04-19T07:44:33.995Z</time></trkpt><trkpt lat="45.50598837897148" lon="9.048087663507612"><ele>143.6</ele><time>2026-04-19T07:44:34.995Z</time></trkpt><trkpt lat="45.50593947522311" lon="9.048028038261357"><ele>143.2</ele><time>2026-04-19T07:44:35.995Z</time></trkpt><trkpt lat="45.5058563850515" lon="9.047901479025436"><ele>142.79999999999998</ele><time>2026-04-19T07:44:37.995Z</time></trkpt><trkpt lat="45.50575937333348" lon="9.047782371956815"><ele>142.4</ele><time>2026-04-19T07:44:39.995Z</time></trkpt><trkpt lat="45.50566170918895" lon="9.04765747299829"><ele>142.0</ele><time>2026-04-19T07:44:41.995Z</time></trkpt><trkpt lat="45.505616538252504" lon="9.047594686118252"><ele>142.0</ele><time>2026-04-19T07:44:42.995Z</time></trkpt><trkpt lat="45.505567303444984" lon="9.047525144360234"><ele>142.0</ele><time>2026-04-19T07:44:43.995Z</time></trkpt><trkpt lat="45.50552197553533" lon="9.04745760315603"><ele>142.0</ele><time>2026-04-19T07:44:44.995Z</time></trkpt><trkpt lat="45.50547722743041" lon="9.04739008089853"><ele>142.0</ele><time>2026-04-19T07:44:45.995Z</time></trkpt><trkpt lat="45.50543420142751" lon="9.047323413749886"><ele>142.0</ele><time>2026-04-19T07:44:46.995Z</time></trkpt><trkpt lat="45.505379579565655" lon="9.0472676954461"><ele>142.0</ele><time>2026-04-19T07:44:47.995Z</time></trkpt><trkpt lat="45.505336264724754" lon="9.047197605591128"><ele>142.0</ele><time>2026-04-19T07:44:48.995Z</time></trkpt><trkpt lat="45.50529208341656" lon="9.047126127801146"><ele>142.0</ele><time>2026-04-19T07:44:49.995Z</time></trkpt><trkpt lat="45.50524925804145" lon="9.04705524508099"><ele>142.0</ele><time>2026-04-19T07:44:50.995Z</time></trkpt><trkpt lat="45.50520672509276" lon="9.046983373015191"><ele>142.0</ele><time>2026-04-19T07:44:51.995Z</time></trkpt><trkpt lat="45.505163582955895" lon="9.046911008057672"><ele>142.0</ele><time>2026-04-19T07:44:52.995Z</time></trkpt><trkpt lat="45.505123239395736" lon="9.04683828676642"><ele>142.0</ele><time>2026-04-19T07:44:53.995Z</time></trkpt><trkpt lat="45.50508430570981" lon="9.046761522052746"><ele>142.0</ele><time>2026-04-19T07:44:54.995Z</time></trkpt><trkpt lat="45.50504405396478" lon="9.046688810510874"><ele>142.0</ele><time>2026-04-19T07:44:55.995Z</time></trkpt><trkpt lat="45.50500344278383" lon="9.046619369110557"><ele>142.0</ele><time>2026-04-19T07:44:56.995Z</time></trkpt><trkpt lat="45.50497523620147" lon="9.046528618560055"><ele>142.0</ele><time>2026-04-19T07:44:57.995Z</time></trkpt><trkpt lat="45.504887046816584" lon="9.046394483884907"><ele>142.0</ele><time>2026-04-19T07:44:59.995Z</time></trkpt><trkpt lat="45.504814038224815" lon="9.046246326658961"><ele>142.0</ele><time>2026-04-19T07:45:01.995Z</time></trkpt><trkpt lat="45.504755825931866" lon="9.046088564651392"><ele>142.0</ele><time>2026-04-19T07:45:03.995Z</time></trkpt><trkpt lat="45.5047194712608" lon="9.046013356335102"><ele>142.0</ele><time>2026-04-19T07:45:04.995Z</time></trkpt><trkpt lat="45.504671465961955" lon="9.045946820246964"><ele>142.0</ele><time>2026-04-19T07:45:05.995Z</time></trkpt><trkpt lat="45.504636152408295" lon="9.045868265735042"><ele>142.0</ele><time>2026-04-19T07:45:06.995Z</time></trkpt><trkpt lat="45.504615858149684" lon="9.04577957866191"><ele>142.0</ele><time>2026-04-19T07:45:07.995Z</time></trkpt><trkpt lat="45.50457951649621" lon="9.045704102660306"><ele>142.0</ele><time>2026-04-19T07:45:08.995Z</time></trkpt><trkpt lat="45.504543240423615" lon="9.045629620594955"><ele>142.0</ele><time>2026-04-19T07:45:09.995Z</time></trkpt><trkpt lat="45.504505601418344" lon="9.04555234086513"><ele>141.85714285714286</ele><time>2026-04-19T07:45:10.995Z</time></trkpt><trkpt lat="45.50445543364371" lon="9.045492523214469"><ele>141.7142857142857</ele><time>2026-04-19T07:45:11.995Z</time></trkpt><trkpt lat="45.50441634921829" lon="9.045415421445606"><ele>141.57142857142856</ele><time>2026-04-19T07:45:12.995Z</time></trkpt><trkpt lat="45.50438057004279" lon="9.045337944248606"><ele>141.42857142857142</ele><time>2026-04-19T07:45:13.995Z</time></trkpt><trkpt lat="45.50434363453944" lon="9.0452615341098"><ele>141.28571428571428</ele><time>2026-04-19T07:45:14.995Z</time></trkpt><trkpt lat="45.50430411500521" lon="9.0451830698256"><ele>141.14285714285714</ele><time>2026-04-19T07:45:15.995Z</time></trkpt><trkpt lat="45.504265622630264" lon="9.045100942736948"><ele>141.0</ele><time>2026-04-19T07:45:16.995Z</time></trkpt><trkpt lat="45.50422638676651" lon="9.045023486081838"><ele>141.2</ele><time>2026-04-19T07:45:17.995Z</time></trkpt><trkpt lat="45.50418808970253" lon="9.04494936415704"><ele>141.39999999999998</ele><time>2026-04-19T07:45:18.995Z</time></trkpt><trkpt lat="45.50411379318696" lon="9.04480591800627"><ele>141.6</ele><time>2026-04-19T07:45:20.995Z</time></trkpt><trkpt lat="45.50405365163861" lon="9.04464865380021"><ele>141.79999999999998</ele><time>2026-04-19T07:45:22.995Z</time></trkpt><trkpt lat="45.50401647826797" lon="9.044573352466653"><ele>142.0</ele><time>2026-04-19T07:45:23.995Z</time></trkpt><trkpt lat="45.5039449682783" lon="9.044428496022807"><ele>142.0</ele><time>2026-04-19T07:45:25.995Z</time></trkpt><trkpt lat="45.503897350879036" lon="9.0443684036749"><ele>142.0</ele><time>2026-04-19T07:45:26.995Z</time></trkpt><trkpt lat="45.50382606054167" lon="9.044223743828502"><ele>142.0</ele><time>2026-04-19T07:45:28.995Z</time></trkpt><trkpt lat="45.50376052634052" lon="9.044080105322923"><ele>142.0</ele><time>2026-04-19T07:45:30.995Z</time></trkpt><trkpt lat="45.503697014919865" lon="9.043931158610336"><ele>142.0</ele><time>2026-04-19T07:45:32.995Z</time></trkpt><trkpt lat="45.50362745816959" lon="9.043791381510653"><ele>142.0</ele><time>2026-04-19T07:45:34.995Z</time></trkpt><trkpt lat="45.503560470709836" lon="9.043655297139933"><ele>142.0</ele><time>2026-04-19T07:45:36.995Z</time></trkpt><trkpt lat="45.503491524813256" lon="9.043513759792345"><ele>142.0</ele><time>2026-04-19T07:45:38.995Z</time></trkpt><trkpt lat="45.503423720460006" lon="9.043373072204115"><ele>142.0</ele><time>2026-04-19T07:45:40.995Z</time></trkpt><trkpt lat="45.50335683311312" lon="9.043234287355514"><ele>142.0</ele><time>2026-04-19T07:45:42.995Z</time></trkpt><trkpt lat="45.50331810017283" lon="9.043153919978934"><ele>142.0</ele><time>2026-04-19T07:45:43.995Z</time></trkpt><trkpt lat="45.50327920846747" lon="9.043073223348957"><ele>142.0</ele><time>2026-04-19T07:45:44.995Z</time></trkpt><trkpt lat="45.50324167513845" lon="9.042996703566143"><ele>142.0</ele><time>2026-04-19T07:45:45.995Z</time></trkpt><trkpt lat="45.503203536940404" lon="9.042920659770887"><ele>142.0</ele><time>2026-04-19T07:45:46.995Z</time></trkpt><trkpt lat="45.50316555676997" lon="9.042844931244677"><ele>142.0</ele><time>2026-04-19T07:45:47.995Z</time></trkpt><trkpt lat="45.503111944464855" lon="9.042772740064573"><ele>142.0</ele><time>2026-04-19T07:45:48.995Z</time></trkpt><trkpt lat="45.50307301647555" lon="9.0426951923664"><ele>142.0</ele><time>2026-04-19T07:45:49.995Z</time></trkpt><trkpt lat="45.50303458330227" lon="9.04262010917653"><ele>142.0</ele><time>2026-04-19T07:45:50.995Z</time></trkpt><trkpt lat="45.502974886884935" lon="9.042461151880293"><ele>142.0</ele><time>2026-04-19T07:45:52.995Z</time></trkpt><trkpt lat="45.50293524665177" lon="9.04237947507467"><ele>142.0</ele><time>2026-04-19T07:45:53.995Z</time></trkpt><trkpt lat="45.50288757698198" lon="9.042319482375477"><ele>142.0</ele><time>2026-04-19T07:45:54.995Z</time></trkpt><trkpt lat="45.502849990237394" lon="9.0422375778977"><ele>142.0</ele><time>2026-04-19T07:45:55.995Z</time></trkpt><trkpt lat="45.502813837155465" lon="9.042161683912067"><ele>142.16666666666669</ele><time>2026-04-19T07:45:56.995Z</time></trkpt><trkpt lat="45.50274078157994" lon="9.042019258104226"><ele>142.33333333333334</ele><time>2026-04-19T07:45:58.995Z</time></trkpt><trkpt lat="45.5027075583296" lon="9.04194218717872"><ele>142.5</ele><time>2026-04-19T07:45:59.995Z</time></trkpt><trkpt lat="45.50263958947358" lon="9.041797926783953"><ele>142.66666666666666</ele><time>2026-04-19T07:46:01.995Z</time></trkpt><trkpt lat="45.50260459979191" lon="9.041723008331351"><ele>142.83333333333331</ele><time>2026-04-19T07:46:02.995Z</time></trkpt><trkpt lat="45.502565074591466" lon="9.041647397788521"><ele>143.0</ele><time>2026-04-19T07:46:03.995Z</time></trkpt><trkpt lat="45.50252384949184" lon="9.041568363272493"><ele>142.7142857142857</ele><time>2026-04-19T07:46:04.995Z</time></trkpt><trkpt lat="45.50248528218777" lon="9.04149202165127"><ele>142.42857142857142</ele><time>2026-04-19T07:46:05.995Z</time></trkpt><trkpt lat="45.502443489076256" lon="9.04141558403388"><ele>142.14285714285714</ele><time>2026-04-19T07:46:06.995Z</time></trkpt><trkpt lat="45.50241360461659" lon="9.041317130099785"><ele>141.85714285714283</ele><time>2026-04-19T07:46:07.995Z</time></trkpt><trkpt lat="45.50236354812593" lon="9.041251669116155"><ele>141.57142857142856</ele><time>2026-04-19T07:46:08.995Z</time></trkpt><trkpt lat="45.50232609440146" lon="9.041177878705364"><ele>141.28571428571428</ele><time>2026-04-19T07:46:09.995Z</time></trkpt><trkpt lat="45.50228544366646" lon="9.041103384289764"><ele>141.0</ele><time>2026-04-19T07:46:10.994Z</time></trkpt><trkpt lat="45.50226042783253" lon="9.041014495713187"><ele>141.0</ele><time>2026-04-19T07:46:11.994Z</time></trkpt><trkpt lat="45.50218815641323" lon="9.040869589833445"><ele>141.0</ele><time>2026-04-19T07:46:13.994Z</time></trkpt><trkpt lat="45.50214558805712" lon="9.040784238583733"><ele>141.0</ele><time>2026-04-19T07:46:14.994Z</time></trkpt><trkpt lat="45.502106898213015" lon="9.040706167383195"><ele>141.0</ele><time>2026-04-19T07:46:15.994Z</time></trkpt><trkpt lat="45.502066785266116" lon="9.04062456148474"><ele>141.0</ele><time>2026-04-19T07:46:16.994Z</time></trkpt><trkpt lat="45.501997505262956" lon="9.040483618135607"><ele>140.85714285714286</ele><time>2026-04-19T07:46:18.994Z</time></trkpt><trkpt lat="45.501949073164745" lon="9.040418253456194"><ele>140.71428571428572</ele><time>2026-04-19T07:46:19.994Z</time></trkpt><trkpt lat="45.501911545267866" lon="9.040337191070462"><ele>140.57142857142856</ele><time>2026-04-19T07:46:20.994Z</time></trkpt><trkpt lat="45.50187105963714" lon="9.040255956286494"><ele>140.42857142857144</ele><time>2026-04-19T07:46:21.994Z</time></trkpt><trkpt lat="45.50183255256025" lon="9.04017515233049"><ele>140.28571428571428</ele><time>2026-04-19T07:46:22.994Z</time></trkpt><trkpt lat="45.50179021079126" lon="9.040085841974884"><ele>140.14285714285714</ele><time>2026-04-19T07:46:23.994Z</time></trkpt><trkpt lat="45.50174861977752" lon="9.04000129648241"><ele>140.0</ele><time>2026-04-19T07:46:24.994Z</time></trkpt><trkpt lat="45.50170964213598" lon="9.039918462240633"><ele>140.28571428571428</ele><time>2026-04-19T07:46:25.994Z</time></trkpt><trkpt lat="45.50166910977805" lon="9.039832238211046"><ele>140.57142857142856</ele><time>2026-04-19T07:46:26.994Z</time></trkpt><trkpt lat="45.50163167112377" lon="9.039748043982826"><ele>140.85714285714286</ele><time>2026-04-19T07:46:27.994Z</time></trkpt><trkpt lat="45.50159390418896" lon="9.039666982385961"><ele>141.14285714285714</ele><time>2026-04-19T07:46:28.994Z</time></trkpt><trkpt lat="45.501552845625326" lon="9.039577519161412"><ele>141.42857142857142</ele><time>2026-04-19T07:46:29.994Z</time></trkpt><trkpt lat="45.50151390241734" lon="9.039495523620634"><ele>141.71428571428572</ele><time>2026-04-19T07:46:30.994Z</time></trkpt><trkpt lat="45.501472645819426" lon="9.039411733801154"><ele>142.0</ele><time>2026-04-19T07:46:31.994Z</time></trkpt><trkpt lat="45.50143165950194" lon="9.039329693846637"><ele>142.0</ele><time>2026-04-19T07:46:32.994Z</time></trkpt><trkpt lat="45.50139402840203" lon="9.039243942256192"><ele>142.0</ele><time>2026-04-19T07:46:33.994Z</time></trkpt><trkpt lat="45.501355890616" lon="9.039160649609407"><ele>142.0</ele><time>2026-04-19T07:46:34.994Z</time></trkpt><trkpt lat="45.50131925527607" lon="9.039083514827107"><ele>142.0</ele><time>2026-04-19T07:46:35.994Z</time></trkpt><trkpt lat="45.50128012276258" lon="9.039005570664502"><ele>142.0</ele><time>2026-04-19T07:46:36.994Z</time></trkpt><trkpt lat="45.50124015815248" lon="9.038927498349768"><ele>142.0</ele><time>2026-04-19T07:46:37.994Z</time></trkpt><trkpt lat="45.50121703594421" lon="9.038838355298825"><ele>142.0</ele><time>2026-04-19T07:46:38.994Z</time></trkpt><trkpt lat="45.50117826881643" lon="9.038757750605592"><ele>142.4</ele><time>2026-04-19T07:46:39.994Z</time></trkpt><trkpt lat="45.501095361721845" lon="9.038622800230215"><ele>142.79999999999998</ele><time>2026-04-19T07:46:41.994Z</time></trkpt><trkpt lat="45.50102312935144" lon="9.038482169716538"><ele>143.2</ele><time>2026-04-19T07:46:43.994Z</time></trkpt><trkpt lat="45.50097966742374" lon="9.038417036572586"><ele>143.6</ele><time>2026-04-19T07:46:45.994Z</time></trkpt><trkpt lat="45.50090395128092" lon="9.03831929628819"><ele>144.0</ele><time>2026-04-19T07:46:47.994Z</time></trkpt><trkpt lat="45.5008372112796" lon="9.03822411133985"><ele>144.0</ele><time>2026-04-19T07:46:49.994Z</time></trkpt><trkpt lat="45.500784788256034" lon="9.038137833453122"><ele>144.0</ele><time>2026-04-19T07:46:51.994Z</time></trkpt><trkpt lat="45.50073569787013" lon="9.03805341069115"><ele>144.0</ele><time>2026-04-19T07:46:53.994Z</time></trkpt><trkpt lat="45.50071365866957" lon="9.037945567484973"><ele>144.0</ele><time>2026-04-19T07:46:55.994Z</time></trkpt><trkpt lat="45.50072823002404" lon="9.037811943299989"><ele>144.0</ele><time>2026-04-19T07:46:57.994Z</time></trkpt><trkpt lat="45.50077410092731" lon="9.037669437702055"><ele>144.0</ele><time>2026-04-19T07:46:59.994Z</time></trkpt><trkpt lat="45.50085063102863" lon="9.037603263873802"><ele>144.0</ele><time>2026-04-19T07:47:01.994Z</time></trkpt><trkpt lat="45.50092056497145" lon="9.037521487763724"><ele>144.0</ele><time>2026-04-19T07:47:03.994Z</time></trkpt><trkpt lat="45.500997609936206" lon="9.037452735088715"><ele>144.0</ele><time>2026-04-19T07:47:05.994Z</time></trkpt><trkpt lat="45.50108934632447" lon="9.03737761856459"><ele>144.0</ele><time>2026-04-19T07:47:07.994Z</time></trkpt><trkpt lat="45.501198259510886" lon="9.037312838980696"><ele>144.0</ele><time>2026-04-19T07:47:09.994Z</time></trkpt><trkpt lat="45.50130150062796" lon="9.037239168457985"><ele>144.6</ele><time>2026-04-19T07:47:11.994Z</time></trkpt><trkpt lat="45.50139598279451" lon="9.037171748116156"><ele>145.2</ele><time>2026-04-19T07:47:13.994Z</time></trkpt><trkpt lat="45.50147332453108" lon="9.037097723306982"><ele>145.79999999999998</ele><time>2026-04-19T07:47:15.994Z</time></trkpt><trkpt lat="45.501562895985366" lon="9.037030061147153"><ele>146.4</ele><time>2026-04-19T07:47:17.994Z</time></trkpt><trkpt lat="45.50165199908855" lon="9.036989099637136"><ele>147.0</ele><time>2026-04-19T07:47:19.994Z</time></trkpt><trkpt lat="45.50157788522963" lon="9.036634522108008"><ele>147.0</ele><time>2026-04-19T07:47:25.994Z</time></trkpt><trkpt lat="45.501495969680924" lon="9.03660568579172"><ele>147.0</ele><time>2026-04-19T07:47:27.994Z</time></trkpt><trkpt lat="45.50142389950699" lon="9.036664598685789"><ele>147.0</ele><time>2026-04-19T07:47:29.994Z</time></trkpt><trkpt lat="45.501339756995286" lon="9.036723917675348"><ele>147.0</ele><time>2026-04-19T07:47:31.994Z</time></trkpt><trkpt lat="45.50124710249331" lon="9.036787963264251"><ele>147.0</ele><time>2026-04-19T07:47:33.994Z</time></trkpt><trkpt lat="45.50115219006602" lon="9.036873337033109"><ele>146.5</ele><time>2026-04-19T07:47:35.994Z</time></trkpt><trkpt lat="45.50105773892517" lon="9.036951350996823"><ele>146.0</ele><time>2026-04-19T07:47:37.994Z</time></trkpt><trkpt lat="45.500950395883095" lon="9.037016411167516"><ele>145.5</ele><time>2026-04-19T07:47:39.994Z</time></trkpt><trkpt lat="45.50084544453555" lon="9.037075029806985"><ele>145.0</ele><time>2026-04-19T07:47:41.994Z</time></trkpt><trkpt lat="45.500735754118246" lon="9.037152208151872"><ele>145.0</ele><time>2026-04-19T07:47:43.994Z</time></trkpt><trkpt lat="45.50063810071845" lon="9.037216622055135"><ele>145.0</ele><time>2026-04-19T07:47:45.994Z</time></trkpt><trkpt lat="45.500537399856334" lon="9.03728681281712"><ele>145.0</ele><time>2026-04-19T07:47:47.994Z</time></trkpt><trkpt lat="45.5004402879977" lon="9.037348204979025"><ele>145.0</ele><time>2026-04-19T07:47:49.994Z</time></trkpt><trkpt lat="45.5003402509727" lon="9.037409571834944"><ele>145.0</ele><time>2026-04-19T07:47:51.994Z</time></trkpt><trkpt lat="45.500230373882644" lon="9.037472624070908"><ele>144.5</ele><time>2026-04-19T07:47:53.994Z</time></trkpt><trkpt lat="45.50017147912228" lon="9.037508340461704"><ele>144.0</ele><time>2026-04-19T07:47:54.994Z</time></trkpt><trkpt lat="45.5000569755894" lon="9.037581984404028"><ele>143.5</ele><time>2026-04-19T07:47:56.994Z</time></trkpt><trkpt lat="45.49995771581966" lon="9.037346824625633"><ele>143.0</ele><time>2026-04-19T07:47:57.994Z</time></trkpt><trkpt lat="45.49984856573913" lon="9.037373241695008"><ele>142.6</ele><time>2026-04-19T07:47:59.994Z</time></trkpt><trkpt lat="45.499744992630056" lon="9.037389946950997"><ele>142.20000000000002</ele><time>2026-04-19T07:48:01.994Z</time></trkpt><trkpt lat="45.49966328191" lon="9.037392589175651"><ele>141.8</ele><time>2026-04-19T07:48:03.994Z</time></trkpt><trkpt lat="45.499563289119976" lon="9.037392110086525"><ele>141.4</ele><time>2026-04-19T07:48:05.994Z</time></trkpt><trkpt lat="45.49949794806944" lon="9.037390356412711"><ele>141.0</ele><time>2026-04-19T07:48:06.994Z</time></trkpt><trkpt lat="45.499394904127236" lon="9.037378818409602"><ele>141.0</ele><time>2026-04-19T07:48:08.994Z</time></trkpt><trkpt lat="45.499328914649524" lon="9.037372122544474"><ele>141.0</ele><time>2026-04-19T07:48:09.994Z</time></trkpt><trkpt lat="45.499215421492764" lon="9.0373618481593"><ele>141.0</ele><time>2026-04-19T07:48:11.994Z</time></trkpt><trkpt lat="45.499115190551606" lon="9.03735339051662"><ele>141.0</ele><time>2026-04-19T07:48:13.994Z</time></trkpt><trkpt lat="45.49901002810936" lon="9.037344516899964"><ele>141.0</ele><time>2026-04-19T07:48:15.994Z</time></trkpt><trkpt lat="45.49890719071819" lon="9.037335839503783"><ele>142.0</ele><time>2026-04-19T07:48:17.994Z</time></trkpt><trkpt lat="45.498534145788824" lon="9.037823921928645"><ele>142.0</ele><time>2026-04-19T07:48:25.994Z</time></trkpt><trkpt lat="45.498482792018606" lon="9.037919468229532"><ele>142.0</ele><time>2026-04-19T07:48:27.994Z</time></trkpt><trkpt lat="45.49844639743951" lon="9.038026038030967"><ele>142.0</ele><time>2026-04-19T07:48:29.994Z</time></trkpt><trkpt lat="45.498417179131174" lon="9.038120318920663"><ele>142.0</ele><time>2026-04-19T07:48:31.994Z</time></trkpt><trkpt lat="45.498412777211804" lon="9.03820991482981"><ele>142.0</ele><time>2026-04-19T07:48:34.994Z</time></trkpt><trkpt lat="45.49847723116603" lon="9.03820548494092"><ele>142.0</ele><time>2026-04-19T07:48:37.994Z</time></trkpt><trkpt lat="45.4985623268574" lon="9.038258311884427"><ele>142.0</ele><time>2026-04-19T07:48:39.994Z</time></trkpt><trkpt lat="45.498665202027134" lon="9.038290036970904"><ele>142.0</ele><time>2026-04-19T07:48:41.993Z</time></trkpt><trkpt lat="45.49876801636558" lon="9.038302744039349"><ele>142.0</ele><time>2026-04-19T07:48:43.993Z</time></trkpt><trkpt lat="45.498868662766114" lon="9.038295976202729"><ele>142.0</ele><time>2026-04-19T07:48:45.993Z</time></trkpt><trkpt lat="45.49896700760904" lon="9.038310827710703"><ele>142.0</ele><time>2026-04-19T07:48:47.993Z</time></trkpt><trkpt lat="45.499074917818994" lon="9.038313472259585"><ele>142.2</ele><time>2026-04-19T07:48:49.993Z</time></trkpt><trkpt lat="45.49918085091133" lon="9.038302356980743"><ele>142.39999999999998</ele><time>2026-04-19T07:48:51.993Z</time></trkpt><trkpt lat="45.49929470057837" lon="9.038302099511107"><ele>142.60000000000002</ele><time>2026-04-19T07:48:53.993Z</time></trkpt><trkpt lat="45.49939844373509" lon="9.03828558631767"><ele>142.8</ele><time>2026-04-19T07:48:55.993Z</time></trkpt><trkpt lat="45.4994995328881" lon="9.038275507959568"><ele>143.0</ele><time>2026-04-19T07:48:57.993Z</time></trkpt><trkpt lat="45.49960510559532" lon="9.038270833883603"><ele>143.0</ele><time>2026-04-19T07:48:59.993Z</time></trkpt><trkpt lat="45.49970738056164" lon="9.038265970348725"><ele>143.0</ele><time>2026-04-19T07:49:01.993Z</time></trkpt><trkpt lat="45.49979496391405" lon="9.038266086552328"><ele>143.0</ele><time>2026-04-19T07:49:03.993Z</time></trkpt><trkpt lat="45.49987878805617" lon="9.038239345417685"><ele>143.0</ele><time>2026-04-19T07:49:05.993Z</time></trkpt><trkpt lat="45.49996969677877" lon="9.038209176492309"><ele>143.0</ele><time>2026-04-19T07:49:07.993Z</time></trkpt><trkpt lat="45.50007625714141" lon="9.038216717923985"><ele>143.0</ele><time>2026-04-19T07:49:09.993Z</time></trkpt><trkpt lat="45.500182840277674" lon="9.038240272658163"><ele>143.0</ele><time>2026-04-19T07:49:11.993Z</time></trkpt><trkpt lat="45.50028518885872" lon="9.038285949043788"><ele>143.0</ele><time>2026-04-19T07:49:13.993Z</time></trkpt><trkpt lat="45.500388061663095" lon="9.038351782506302"><ele>143.0</ele><time>2026-04-19T07:49:15.993Z</time></trkpt><trkpt lat="45.500482677122314" lon="9.038442044410251"><ele>143.0</ele><time>2026-04-19T07:49:17.993Z</time></trkpt><trkpt lat="45.500569230116824" lon="9.038532943713527"><ele>143.5</ele><time>2026-04-19T07:49:19.993Z</time></trkpt><trkpt lat="45.50066884764909" lon="9.038630322984716"><ele>144.0</ele><time>2026-04-19T07:49:21.993Z</time></trkpt><trkpt lat="45.50075656341418" lon="9.038739748734766"><ele>144.5</ele><time>2026-04-19T07:49:23.993Z</time></trkpt><trkpt lat="45.50083775926239" lon="9.038867626766713"><ele>145.0</ele><time>2026-04-19T07:49:25.993Z</time></trkpt><trkpt lat="45.5009089163681" lon="9.038995681769798"><ele>144.25</ele><time>2026-04-19T07:49:27.993Z</time></trkpt><trkpt lat="45.50098655026976" lon="9.039137638577616"><ele>143.5</ele><time>2026-04-19T07:49:29.993Z</time></trkpt><trkpt lat="45.50105121264018" lon="9.03927344802022"><ele>142.75</ele><time>2026-04-19T07:49:31.993Z</time></trkpt><trkpt lat="45.501118118590256" lon="9.039411229594315"><ele>142.0</ele><time>2026-04-19T07:49:33.993Z</time></trkpt><trkpt lat="45.50118772932417" lon="9.039551971135449"><ele>142.0</ele><time>2026-04-19T07:49:35.993Z</time></trkpt><trkpt lat="45.50122784038121" lon="9.039632517198097"><ele>142.0</ele><time>2026-04-19T07:49:36.993Z</time></trkpt><trkpt lat="45.50129431938274" lon="9.03976952597444"><ele>142.0</ele><time>2026-04-19T07:49:38.993Z</time></trkpt><trkpt lat="45.501369554932516" lon="9.039901054007453"><ele>142.0</ele><time>2026-04-19T07:49:40.993Z</time></trkpt><trkpt lat="45.50145069460277" lon="9.04003666833645"><ele>142.0</ele><time>2026-04-19T07:49:42.993Z</time></trkpt><trkpt lat="45.501517057646794" lon="9.0401728073781"><ele>141.6</ele><time>2026-04-19T07:49:44.993Z</time></trkpt><trkpt lat="45.501579707843895" lon="9.04030926873494"><ele>141.2</ele><time>2026-04-19T07:49:46.993Z</time></trkpt><trkpt lat="45.501615300581506" lon="9.040383355114248"><ele>140.8</ele><time>2026-04-19T07:49:47.993Z</time></trkpt><trkpt lat="45.50168415867714" lon="9.0405354869141"><ele>140.4</ele><time>2026-04-19T07:49:49.993Z</time></trkpt><trkpt lat="45.501747256071766" lon="9.040648693613573"><ele>140.0</ele><time>2026-04-19T07:49:51.993Z</time></trkpt><trkpt lat="45.50178305936805" lon="9.040723923799383"><ele>140.2</ele><time>2026-04-19T07:49:52.993Z</time></trkpt><trkpt lat="45.50183576190983" lon="9.040842749515457"><ele>140.4</ele><time>2026-04-19T07:49:54.993Z</time></trkpt><trkpt lat="45.50189212740939" lon="9.040974973045168"><ele>140.6</ele><time>2026-04-19T07:49:56.993Z</time></trkpt><trkpt lat="45.50196369904089" lon="9.041107412552428"><ele>140.8</ele><time>2026-04-19T07:49:58.993Z</time></trkpt><trkpt lat="45.50203259468668" lon="9.041229087112876"><ele>141.0</ele><time>2026-04-19T07:50:00.993Z</time></trkpt><trkpt lat="45.50210662862485" lon="9.041370128051943"><ele>141.0</ele><time>2026-04-19T07:50:02.993Z</time></trkpt><trkpt lat="45.50216805352267" lon="9.041492170009901"><ele>141.0</ele><time>2026-04-19T07:50:04.993Z</time></trkpt><trkpt lat="45.50223842389822" lon="9.041628869947937"><ele>141.0</ele><time>2026-04-19T07:50:06.993Z</time></trkpt><trkpt lat="45.50230674273625" lon="9.041772109318334"><ele>141.0</ele><time>2026-04-19T07:50:08.993Z</time></trkpt><trkpt lat="45.5023586239327" lon="9.041904012448231"><ele>141.4</ele><time>2026-04-19T07:50:10.993Z</time></trkpt><trkpt lat="45.502413789825404" lon="9.04202196456842"><ele>141.8</ele><time>2026-04-19T07:50:12.993Z</time></trkpt><trkpt lat="45.502471184706685" lon="9.04214482298543"><ele>142.20000000000002</ele><time>2026-04-19T07:50:14.993Z</time></trkpt><trkpt lat="45.50252425859868" lon="9.042253815288888"><ele>142.6</ele><time>2026-04-19T07:50:16.993Z</time></trkpt><trkpt lat="45.502594736277764" lon="9.042392053899107"><ele>143.0</ele><time>2026-04-19T07:50:18.993Z</time></trkpt><trkpt lat="45.50266243385172" lon="9.042521520694748"><ele>143.0</ele><time>2026-04-19T07:50:20.993Z</time></trkpt><trkpt lat="45.5027301438597" lon="9.042661243702439"><ele>143.0</ele><time>2026-04-19T07:50:22.993Z</time></trkpt><trkpt lat="45.50279376346009" lon="9.042793211198468"><ele>143.0</ele><time>2026-04-19T07:50:24.993Z</time></trkpt><trkpt lat="45.50286212332391" lon="9.04290685151354"><ele>143.0</ele><time>2026-04-19T07:50:26.993Z</time></trkpt><trkpt lat="45.50292063549802" lon="9.043033565128125"><ele>143.0</ele><time>2026-04-19T07:50:28.993Z</time></trkpt><trkpt lat="45.502965412500494" lon="9.043159615089735"><ele>142.8</ele><time>2026-04-19T07:50:30.993Z</time></trkpt><trkpt lat="45.50303073149659" lon="9.043292955929278"><ele>142.60000000000002</ele><time>2026-04-19T07:50:32.993Z</time></trkpt><trkpt lat="45.50308892727753" lon="9.04340399926547"><ele>142.39999999999998</ele><time>2026-04-19T07:50:34.993Z</time></trkpt><trkpt lat="45.50315569077542" lon="9.043534187031508"><ele>142.2</ele><time>2026-04-19T07:50:36.993Z</time></trkpt><trkpt lat="45.503228176786756" lon="9.043666973147884"><ele>142.0</ele><time>2026-04-19T07:50:38.993Z</time></trkpt><trkpt lat="45.50328672859467" lon="9.043786432484406"><ele>142.0</ele><time>2026-04-19T07:50:40.993Z</time></trkpt><trkpt lat="45.50334594329364" lon="9.043912153214597"><ele>142.0</ele><time>2026-04-19T07:50:42.993Z</time></trkpt><trkpt lat="45.50340082504168" lon="9.044026405824443"><ele>142.0</ele><time>2026-04-19T07:50:44.993Z</time></trkpt><trkpt lat="45.50345989121207" lon="9.0441410134618"><ele>142.0</ele><time>2026-04-19T07:50:46.993Z</time></trkpt><trkpt lat="45.50352063647332" lon="9.044273413767165"><ele>142.0</ele><time>2026-04-19T07:50:48.993Z</time></trkpt><trkpt lat="45.50358310098664" lon="9.044393812665877"><ele>142.0</ele><time>2026-04-19T07:50:50.993Z</time></trkpt><trkpt lat="45.5036414502402" lon="9.044503483572964"><ele>142.0</ele><time>2026-04-19T07:50:52.993Z</time></trkpt><trkpt lat="45.50370850167797" lon="9.044614783920998"><ele>142.0</ele><time>2026-04-19T07:50:54.993Z</time></trkpt><trkpt lat="45.50377011716563" lon="9.044731082449331"><ele>142.0</ele><time>2026-04-19T07:50:56.993Z</time></trkpt><trkpt lat="45.50383499766808" lon="9.044859929291928"><ele>142.0</ele><time>2026-04-19T07:50:58.993Z</time></trkpt><trkpt lat="45.50388609935639" lon="9.044981313298996"><ele>141.79999999999998</ele><time>2026-04-19T07:51:00.993Z</time></trkpt><trkpt lat="45.50394840096459" lon="9.045098200941087"><ele>141.6</ele><time>2026-04-19T07:51:02.993Z</time></trkpt><trkpt lat="45.50399966347506" lon="9.045216705750372"><ele>141.39999999999998</ele><time>2026-04-19T07:51:04.993Z</time></trkpt><trkpt lat="45.50405813872518" lon="9.045331323944371"><ele>141.2</ele><time>2026-04-19T07:51:06.993Z</time></trkpt><trkpt lat="45.5040972442773" lon="9.045421386315315"><ele>141.0</ele><time>2026-04-19T07:51:08.993Z</time></trkpt><trkpt lat="45.50415066982269" lon="9.04552792047469"><ele>141.0</ele><time>2026-04-19T07:51:10.993Z</time></trkpt><trkpt lat="45.5042085655931" lon="9.045624657139829"><ele>141.0</ele><time>2026-04-19T07:51:12.992Z</time></trkpt><trkpt lat="45.50425785605142" lon="9.045692889109462"><ele>141.0</ele><time>2026-04-19T07:51:14.992Z</time></trkpt><trkpt lat="45.50431524353357" lon="9.04580564047286"><ele>141.0</ele><time>2026-04-19T07:51:16.992Z</time></trkpt><trkpt lat="45.50435708972506" lon="9.045904053526199"><ele>141.0</ele><time>2026-04-19T07:51:18.992Z</time></trkpt><trkpt lat="45.50440733145409" lon="9.046019184378157"><ele>141.0</ele><time>2026-04-19T07:51:20.992Z</time></trkpt><trkpt lat="45.50446161434462" lon="9.04612819677173"><ele>141.0</ele><time>2026-04-19T07:51:22.992Z</time></trkpt><trkpt lat="45.504526140740495" lon="9.046247112059929"><ele>141.0</ele><time>2026-04-19T07:51:24.992Z</time></trkpt><trkpt lat="45.50459218246121" lon="9.046391725926302"><ele>141.0</ele><time>2026-04-19T07:51:26.992Z</time></trkpt><trkpt lat="45.50465354574378" lon="9.04652664114066"><ele>141.0</ele><time>2026-04-19T07:51:28.992Z</time></trkpt><trkpt lat="45.50469326524137" lon="9.046600339022586"><ele>141.0</ele><time>2026-04-19T07:51:29.992Z</time></trkpt><trkpt lat="45.504764176996744" lon="9.046735084597673"><ele>141.0</ele><time>2026-04-19T07:51:31.992Z</time></trkpt><trkpt lat="45.504826261652035" lon="9.046860202943485"><ele>141.0</ele><time>2026-04-19T07:51:33.992Z</time></trkpt><trkpt lat="45.50489131445886" lon="9.046971807678057"><ele>141.0</ele><time>2026-04-19T07:51:35.992Z</time></trkpt><trkpt lat="45.504968170072324" lon="9.04711633200346"><ele>141.0</ele><time>2026-04-19T07:51:37.992Z</time></trkpt><trkpt lat="45.50503545430971" lon="9.047243076975056"><ele>141.0</ele><time>2026-04-19T07:51:39.992Z</time></trkpt><trkpt lat="45.50510707904112" lon="9.047362867365495"><ele>141.0</ele><time>2026-04-19T07:51:41.992Z</time></trkpt><trkpt lat="45.505144756153555" lon="9.04743871815169"><ele>141.0</ele><time>2026-04-19T07:51:42.992Z</time></trkpt><trkpt lat="45.5052319379126" lon="9.047566980286781"><ele>141.0</ele><time>2026-04-19T07:51:44.992Z</time></trkpt><trkpt lat="45.505300735182104" lon="9.047631939368614"><ele>141.0</ele><time>2026-04-19T07:51:46.992Z</time></trkpt><trkpt lat="45.50536579455838" lon="9.047692842538941"><ele>141.0</ele><time>2026-04-19T07:51:48.992Z</time></trkpt><trkpt lat="45.50544361610984" lon="9.047852700305793"><ele>141.2</ele><time>2026-04-19T07:51:50.992Z</time></trkpt><trkpt lat="45.505482922317654" lon="9.047923285013969"><ele>141.39999999999998</ele><time>2026-04-19T07:51:51.992Z</time></trkpt><trkpt lat="45.50556609617427" lon="9.048006386658498"><ele>141.6</ele><time>2026-04-19T07:51:53.992Z</time></trkpt><trkpt lat="45.50563719728351" lon="9.048107675098928"><ele>141.79999999999998</ele><time>2026-04-19T07:51:55.992Z</time></trkpt><trkpt lat="45.505716150292415" lon="9.048216101530771"><ele>142.0</ele><time>2026-04-19T07:51:57.992Z</time></trkpt><trkpt lat="45.50580106342335" lon="9.048289515303885"><ele>142.4</ele><time>2026-04-19T07:51:59.992Z</time></trkpt><trkpt lat="45.5058861845834" lon="9.048401478485289"><ele>142.79999999999998</ele><time>2026-04-19T07:52:01.992Z</time></trkpt><trkpt lat="45.505963003830736" lon="9.048498264584442"><ele>143.2</ele><time>2026-04-19T07:52:03.992Z</time></trkpt><trkpt lat="45.50603525434519" lon="9.048587393528624"><ele>143.6</ele><time>2026-04-19T07:52:05.992Z</time></trkpt><trkpt lat="45.50608475855306" lon="9.048646136597311"><ele>144.0</ele><time>2026-04-19T07:52:06.992Z</time></trkpt><trkpt lat="45.50616783134733" lon="9.048756791204605"><ele>144.0</ele><time>2026-04-19T07:52:08.992Z</time></trkpt><trkpt lat="45.50624582084171" lon="9.048844062345639"><ele>144.0</ele><time>2026-04-19T07:52:10.992Z</time></trkpt><trkpt lat="45.506341380941514" lon="9.04893561778053"><ele>144.0</ele><time>2026-04-19T07:52:12.992Z</time></trkpt><trkpt lat="45.506437701229885" lon="9.049016323231502"><ele>144.0</ele><time>2026-04-19T07:52:14.992Z</time></trkpt><trkpt lat="45.50653405822935" lon="9.04908318196932"><ele>144.0</ele><time>2026-04-19T07:52:16.992Z</time></trkpt><trkpt lat="45.506638692628464" lon="9.049170718858939"><ele>144.0</ele><time>2026-04-19T07:52:18.992Z</time></trkpt><trkpt lat="45.50672642464111" lon="9.049247409204684"><ele>144.0</ele><time>2026-04-19T07:52:20.992Z</time></trkpt><trkpt lat="45.50683286137864" lon="9.049308825494814"><ele>144.0</ele><time>2026-04-19T07:52:22.992Z</time></trkpt><trkpt lat="45.506919482382905" lon="9.049374089345044"><ele>144.0</ele><time>2026-04-19T07:52:24.992Z</time></trkpt><trkpt lat="45.50702191170804" lon="9.049461525415028"><ele>144.0</ele><time>2026-04-19T07:52:26.992Z</time></trkpt><trkpt lat="45.50711258368746" lon="9.049522406170437"><ele>144.0</ele><time>2026-04-19T07:52:28.992Z</time></trkpt><trkpt lat="45.507206173019476" lon="9.049587357569676"><ele>144.0</ele><time>2026-04-19T07:52:30.992Z</time></trkpt><trkpt lat="45.507309731023575" lon="9.049651449774894"><ele>144.0</ele><time>2026-04-19T07:52:32.992Z</time></trkpt><trkpt lat="45.5074096644829" lon="9.049722821414896"><ele>144.0</ele><time>2026-04-19T07:52:34.992Z</time></trkpt><trkpt lat="45.507507915284954" lon="9.04979366110997"><ele>144.0</ele><time>2026-04-19T07:52:36.992Z</time></trkpt><trkpt lat="45.507596307257494" lon="9.049827846453194"><ele>144.0</ele><time>2026-04-19T07:52:38.992Z</time></trkpt><trkpt lat="45.50769080368251" lon="9.049866862946047"><ele>144.0</ele><time>2026-04-19T07:52:40.992Z</time></trkpt><trkpt lat="45.50777067810288" lon="9.049907165609474"><ele>144.0</ele><time>2026-04-19T07:52:42.992Z</time></trkpt><trkpt lat="45.507841459870676" lon="9.049954872584431"><ele>144.0</ele><time>2026-04-19T07:52:44.992Z</time></trkpt><trkpt lat="45.507902580610974" lon="9.04999179742672"><ele>144.0</ele><time>2026-04-19T07:52:46.992Z</time></trkpt><trkpt lat="45.507977561480786" lon="9.050037054080567"><ele>144.0</ele><time>2026-04-19T07:52:49.992Z</time></trkpt><trkpt lat="45.50806629271207" lon="9.050095830088246"><ele>144.0</ele><time>2026-04-19T07:52:52.992Z</time></trkpt><trkpt lat="45.508126995298376" lon="9.050139901747215"><ele>144.0</ele><time>2026-04-19T07:52:54.992Z</time></trkpt><trkpt lat="45.5082016193731" lon="9.050160690625566"><ele>144.0</ele><time>2026-04-19T07:52:56.992Z</time></trkpt><trkpt lat="45.50827133631036" lon="9.050180178759287"><ele>144.0</ele><time>2026-04-19T07:52:58.992Z</time></trkpt><trkpt lat="45.50832969091269" lon="9.050217727400346"><ele>144.0</ele><time>2026-04-19T07:53:00.999Z</time></trkpt><trkpt lat="45.50841031898147" lon="9.050274631548065"><ele>144.0</ele><time>2026-04-19T07:53:03.999Z</time></trkpt><trkpt lat="45.508495365459254" lon="9.050323816002514"><ele>144.0</ele><time>2026-04-19T07:53:05.999Z</time></trkpt><trkpt lat="45.50860302475869" lon="9.050377241446386"><ele>144.0</ele><time>2026-04-19T07:53:07.999Z</time></trkpt><trkpt lat="45.50870093340066" lon="9.050416722104092"><ele>144.0</ele><time>2026-04-19T07:53:09.999Z</time></trkpt><trkpt lat="45.50879617718094" lon="9.05046847740177"><ele>144.0</ele><time>2026-04-19T07:53:11.999Z</time></trkpt><trkpt lat="45.50889891995608" lon="9.050531334849437"><ele>144.0</ele><time>2026-04-19T07:53:13.999Z</time></trkpt><trkpt lat="45.50899836355052" lon="9.050582243335093"><ele>144.2</ele><time>2026-04-19T07:53:15.999Z</time></trkpt><trkpt lat="45.509094689576806" lon="9.050624970118644"><ele>144.4</ele><time>2026-04-19T07:53:17.999Z</time></trkpt><trkpt lat="45.50920070884003" lon="9.050683696908562"><ele>144.6</ele><time>2026-04-19T07:53:19.999Z</time></trkpt><trkpt lat="45.509301410036606" lon="9.050735669562364"><ele>144.8</ele><time>2026-04-19T07:53:21.999Z</time></trkpt><trkpt lat="45.509398935017316" lon="9.050767205235996"><ele>145.0</ele><time>2026-04-19T07:53:23.999Z</time></trkpt><trkpt lat="45.509497502404805" lon="9.05081175989209"><ele>145.2</ele><time>2026-04-19T07:53:25.999Z</time></trkpt><trkpt lat="45.50958734072967" lon="9.050847892342775"><ele>145.4</ele><time>2026-04-19T07:53:27.999Z</time></trkpt><trkpt lat="45.5096756662585" lon="9.050901643211303"><ele>145.6</ele><time>2026-04-19T07:53:29.999Z</time></trkpt><trkpt lat="45.50977678710109" lon="9.050955301970935"><ele>145.8</ele><time>2026-04-19T07:53:31.999Z</time></trkpt><trkpt lat="45.50987175295822" lon="9.051010268368602"><ele>146.0</ele><time>2026-04-19T07:53:33.999Z</time></trkpt><trkpt lat="45.509953971473884" lon="9.051066099091495"><ele>146.0</ele><time>2026-04-19T07:53:35.999Z</time></trkpt><trkpt lat="45.510035840776844" lon="9.051103097333813"><ele>146.0</ele><time>2026-04-19T07:53:37.999Z</time></trkpt><trkpt lat="45.510103634461714" lon="9.051145938114932"><ele>146.0</ele><time>2026-04-19T07:53:39.999Z</time></trkpt><trkpt lat="45.51017911999976" lon="9.051184738021556"><ele>146.0</ele><time>2026-04-19T07:53:41.999Z</time></trkpt><trkpt lat="45.51025127327615" lon="9.05121966704128"><ele>146.0</ele><time>2026-04-19T07:53:43.999Z</time></trkpt><trkpt lat="45.51033671436973" lon="9.051270392994772"><ele>146.0</ele><time>2026-04-19T07:53:45.999Z</time></trkpt><trkpt lat="45.51042264940552" lon="9.05132308473463"><ele>145.83333333333331</ele><time>2026-04-19T07:53:48Z</time></trkpt><trkpt lat="45.51049193880494" lon="9.05132755768146"><ele>145.66666666666666</ele><time>2026-04-19T07:53:50Z</time></trkpt><trkpt lat="45.510564339943734" lon="9.05135423537228"><ele>145.5</ele><time>2026-04-19T07:53:52Z</time></trkpt><trkpt lat="45.51064197459573" lon="9.051399586996967"><ele>145.33333333333334</ele><time>2026-04-19T07:53:53.999Z</time></trkpt><trkpt lat="45.510722341394334" lon="9.051450780523846"><ele>145.16666666666669</ele><time>2026-04-19T07:53:55.999Z</time></trkpt><trkpt lat="45.51078653850186" lon="9.051497559602364"><ele>145.0</ele><time>2026-04-19T07:53:57.999Z</time></trkpt><trkpt lat="45.510867827434694" lon="9.051545647430066"><ele>145.0</ele><time>2026-04-19T07:54:01Z</time></trkpt><trkpt lat="45.51094257857264" lon="9.051571788821757"><ele>145.0</ele><time>2026-04-19T07:54:06Z</time></trkpt><trkpt lat="45.51087738533518" lon="9.051571359519926"><ele>145.0</ele><time>2026-04-19T07:54:37Z</time></trkpt><trkpt lat="45.51079700197356" lon="9.051502845574436"><ele>145.0</ele><time>2026-04-19T07:54:40Z</time></trkpt><trkpt lat="45.51070665201144" lon="9.051461184661942"><ele>145.0</ele><time>2026-04-19T07:54:41.999Z</time></trkpt><trkpt lat="45.51063316032694" lon="9.051406233684713"><ele>145.0</ele><time>2026-04-19T07:54:43.999Z</time></trkpt><trkpt lat="45.51054280814073" lon="9.05136839014423"><ele>145.0</ele><time>2026-04-19T07:54:45.999Z</time></trkpt><trkpt lat="45.51046158010316" lon="9.051346876640645"><ele>145.0</ele><time>2026-04-19T07:54:47.999Z</time></trkpt><trkpt lat="45.51038700436811" lon="9.051327869090706"><ele>145.0</ele><time>2026-04-19T07:54:49.999Z</time></trkpt><trkpt lat="45.51031133191909" lon="9.051285856469843"><ele>145.0</ele><time>2026-04-19T07:54:51.999Z</time></trkpt><trkpt lat="45.510250593454685" lon="9.051261388151309"><ele>145.0</ele><time>2026-04-19T07:54:53.999Z</time></trkpt><trkpt lat="45.51017085759942" lon="9.051222055903414"><ele>145.0</ele><time>2026-04-19T07:54:56.999Z</time></trkpt><trkpt lat="45.5101115062728" lon="9.051188269413858"><ele>145.16666666666669</ele><time>2026-04-19T07:54:58.999Z</time></trkpt><trkpt lat="45.51016302827635" lon="9.051291296695165"><ele>145.33333333333334</ele><time>2026-04-19T07:55:03.999Z</time></trkpt><trkpt lat="45.510231983048655" lon="9.051347424500252"><ele>145.5</ele><time>2026-04-19T07:55:05.999Z</time></trkpt><trkpt lat="45.510299007360736" lon="9.051418166768402"><ele>145.66666666666666</ele><time>2026-04-19T07:55:07.999Z</time></trkpt><trkpt lat="45.51035971777837" lon="9.051457986588604"><ele>145.83333333333331</ele><time>2026-04-19T07:55:09.999Z</time></trkpt><trkpt lat="45.510395508256764" lon="9.051537140032567"><ele>146.0</ele><time>2026-04-19T07:55:12.999Z</time></trkpt><trkpt lat="45.51038380751152" lon="9.051656532300122"><ele>146.0</ele><time>2026-04-19T07:55:15.999Z</time></trkpt><trkpt lat="45.51038550095258" lon="9.051757437824431"><ele>146.0</ele><time>2026-04-19T07:55:17.999Z</time></trkpt><trkpt lat="45.51039558473115" lon="9.051849579926902"><ele>146.0</ele><time>2026-04-19T07:55:19.999Z</time></trkpt><trkpt lat="45.51039786424189" lon="9.05198549127627"><ele>146.0</ele><time>2026-04-19T07:55:22.999Z</time></trkpt><trkpt lat="45.51041241911235" lon="9.052115222499491"><ele>146.0</ele><time>2026-04-19T07:55:24.999Z</time></trkpt><trkpt lat="45.51042995127535" lon="9.052250055369374"><ele>146.0</ele><time>2026-04-19T07:55:26.999Z</time></trkpt><trkpt lat="45.51043855975092" lon="9.052378238750071"><ele>145.4</ele><time>2026-04-19T07:55:30.999Z</time></trkpt><trkpt lat="45.51047375814392" lon="9.052479830497536"><ele>144.8</ele><time>2026-04-19T07:55:33.999Z</time></trkpt><trkpt lat="45.510496645992156" lon="9.052568817699928"><ele>144.20000000000002</ele><time>2026-04-19T07:55:35.999Z</time></trkpt><trkpt lat="45.51052589094828" lon="9.052711128505742"><ele>143.6</ele><time>2026-04-19T07:55:37.999Z</time></trkpt><trkpt lat="45.51055923938205" lon="9.05285134189009"><ele>143.0</ele><time>2026-04-19T07:55:39.999Z</time></trkpt><trkpt lat="45.51058680039057" lon="9.052994606470321"><ele>142.99999999999997</ele><time>2026-04-19T07:55:41.999Z</time></trkpt><trkpt lat="45.510601216995354" lon="9.053087254770439"><ele>143.0</ele><time>2026-04-19T07:55:43.999Z</time></trkpt><trkpt lat="45.51059420332876" lon="9.053193628691618"><ele>143.0</ele><time>2026-04-19T07:55:46.999Z</time></trkpt><trkpt lat="45.510575912219934" lon="9.053295903732591"><ele>143.0</ele><time>2026-04-19T07:55:50.999Z</time></trkpt><trkpt lat="45.510515470983464" lon="9.053383450845635"><ele>143.0</ele><time>2026-04-19T07:55:53.999Z</time></trkpt><trkpt lat="45.51045131014561" lon="9.053422861701534"><ele>142.99999999999997</ele><time>2026-04-19T07:55:55.999Z</time></trkpt><trkpt lat="45.51038161598821" lon="9.0534615394169"><ele>143.0</ele><time>2026-04-19T07:55:57.999Z</time></trkpt><trkpt lat="45.51031056633176" lon="9.053492867417413"><ele>143.0</ele><time>2026-04-19T07:56:00Z</time></trkpt><trkpt lat="45.51024399674563" lon="9.053531394857147"><ele>143.0</ele><time>2026-04-19T07:56:01.999Z</time></trkpt><trkpt lat="45.51017720896234" lon="9.05355823902401"><ele>143.0</ele><time>2026-04-19T07:56:04Z</time></trkpt><trkpt lat="45.51009398620404" lon="9.053591927209425"><ele>143.0</ele><time>2026-04-19T07:56:05.999Z</time></trkpt><trkpt lat="45.51002940272659" lon="9.053641925729611"><ele>143.0</ele><time>2026-04-19T07:56:07.999Z</time></trkpt><trkpt lat="45.50993212057934" lon="9.053673691182514"><ele>143.0</ele><time>2026-04-19T07:56:09.999Z</time></trkpt><trkpt lat="45.50985120057302" lon="9.053722622448054"><ele>143.0</ele><time>2026-04-19T07:56:11.999Z</time></trkpt><trkpt lat="45.50975607837776" lon="9.053771995102121"><ele>143.0</ele><time>2026-04-19T07:56:13.999Z</time></trkpt><trkpt lat="45.50966060089123" lon="9.053826936906942"><ele>143.0</ele><time>2026-04-19T07:56:16.999Z</time></trkpt><trkpt lat="45.50955029651099" lon="9.053875593855475"><ele>143.0</ele><time>2026-04-19T07:56:19.999Z</time></trkpt><trkpt lat="45.509474624006" lon="9.05391429044196"><ele>143.0</ele><time>2026-04-19T07:56:21.999Z</time></trkpt><trkpt lat="45.50940866138254" lon="9.053949918379244"><ele>142.8</ele><time>2026-04-19T07:56:23.999Z</time></trkpt><trkpt lat="45.50933906736649" lon="9.053989131357593"><ele>142.60000000000002</ele><time>2026-04-19T07:56:25.999Z</time></trkpt><trkpt lat="45.50924685942199" lon="9.054008144785746"><ele>142.39999999999998</ele><time>2026-04-19T07:56:27.999Z</time></trkpt><trkpt lat="45.509142924927126" lon="9.054057460645307"><ele>142.2</ele><time>2026-04-19T07:56:29.999Z</time></trkpt><trkpt lat="45.50904246301177" lon="9.054129438480164"><ele>142.0</ele><time>2026-04-19T07:56:31.999Z</time></trkpt><trkpt lat="45.508949684743044" lon="9.05415849187543"><ele>141.83333333333334</ele><time>2026-04-19T07:56:33.999Z</time></trkpt><trkpt lat="45.508862374943" lon="9.054183705799883"><ele>141.66666666666669</ele><time>2026-04-19T07:56:35.999Z</time></trkpt><trkpt lat="45.508763351575254" lon="9.05422508098997"><ele>141.5</ele><time>2026-04-19T07:56:37.999Z</time></trkpt><trkpt lat="45.508681862521485" lon="9.054248352589408"><ele>141.33333333333334</ele><time>2026-04-19T07:56:39.999Z</time></trkpt><trkpt lat="45.50858661831685" lon="9.05426668010437"><ele>141.16666666666666</ele><time>2026-04-19T07:56:41.999Z</time></trkpt><trkpt lat="45.50852131874681" lon="9.054283703763138"><ele>141.0</ele><time>2026-04-19T07:56:44.999Z</time></trkpt><trkpt lat="45.508453622855534" lon="9.05428135510016"><ele>141.6</ele><time>2026-04-19T07:56:46.999Z</time></trkpt><trkpt lat="45.50835528909313" lon="9.05429497286737"><ele>142.2</ele><time>2026-04-19T07:56:48.999Z</time></trkpt><trkpt lat="45.5082644931128" lon="9.054368226356019"><ele>142.8</ele><time>2026-04-19T07:56:50.999Z</time></trkpt><trkpt lat="45.50816862953675" lon="9.054461558907509"><ele>143.4</ele><time>2026-04-19T07:56:52.999Z</time></trkpt><trkpt lat="45.50811038259053" lon="9.054500088925934"><ele>144.0</ele><time>2026-04-19T07:56:53.999Z</time></trkpt><trkpt lat="45.50801561905317" lon="9.054555251183396"><ele>144.0</ele><time>2026-04-19T07:56:55.999Z</time></trkpt><trkpt lat="45.50793448123889" lon="9.054593880584324"><ele>144.0</ele><time>2026-04-19T07:56:57.999Z</time></trkpt><trkpt lat="45.507824538040005" lon="9.054629432386998"><ele>144.0</ele><time>2026-04-19T07:56:59.999Z</time></trkpt><trkpt lat="45.5077309436482" lon="9.054681958342567"><ele>144.0</ele><time>2026-04-19T07:57:01.999Z</time></trkpt><trkpt lat="45.507638699193954" lon="9.054697118927724"><ele>144.0</ele><time>2026-04-19T07:57:03.999Z</time></trkpt><trkpt lat="45.50757618568736" lon="9.054718040583731"><ele>144.0</ele><time>2026-04-19T07:57:05.999Z</time></trkpt><trkpt lat="45.50751642691639" lon="9.054780989789275"><ele>144.0</ele><time>2026-04-19T07:57:07.999Z</time></trkpt><trkpt lat="45.50744041936452" lon="9.054866101790305"><ele>144.0</ele><time>2026-04-19T07:57:10.999Z</time></trkpt><trkpt lat="45.50736144254481" lon="9.054898136506182"><ele>144.0</ele><time>2026-04-19T07:57:12.999Z</time></trkpt><trkpt lat="45.50725077273107" lon="9.054962164482864"><ele>144.0</ele><time>2026-04-19T07:57:14.999Z</time></trkpt><trkpt lat="45.50718987497811" lon="9.055015466815151"><ele>144.0</ele><time>2026-04-19T07:57:15.999Z</time></trkpt><trkpt lat="45.50711157647583" lon="9.055067283943261"><ele>144.0</ele><time>2026-04-19T07:57:16.999Z</time></trkpt><trkpt lat="45.50701462245148" lon="9.055130693413489"><ele>144.0</ele><time>2026-04-19T07:57:18.999Z</time></trkpt><trkpt lat="45.5069217854689" lon="9.055154556325787"><ele>144.0</ele><time>2026-04-19T07:57:20.999Z</time></trkpt><trkpt lat="45.506821290058454" lon="9.055264982289247"><ele>144.0</ele><time>2026-04-19T07:57:23.999Z</time></trkpt><trkpt lat="45.50669044752334" lon="9.055389227945541"><ele>144.00000000000003</ele><time>2026-04-19T07:57:25.998Z</time></trkpt><trkpt lat="45.506634583754135" lon="9.055452730795851"><ele>144.0</ele><time>2026-04-19T07:57:26.998Z</time></trkpt><trkpt lat="45.50658416910171" lon="9.055513541647528"><ele>144.0</ele><time>2026-04-19T07:57:27.998Z</time></trkpt><trkpt lat="45.50654147320342" lon="9.055580294882054"><ele>144.0</ele><time>2026-04-19T07:57:28.998Z</time></trkpt><trkpt lat="45.50649264320465" lon="9.055638428671813"><ele>144.0</ele><time>2026-04-19T07:57:29.998Z</time></trkpt><trkpt lat="45.50643668553475" lon="9.055687097548896"><ele>144.00000000000003</ele><time>2026-04-19T07:57:30.998Z</time></trkpt><trkpt lat="45.50636599803467" lon="9.055799512953604"><ele>144.0</ele><time>2026-04-19T07:57:32.998Z</time></trkpt><trkpt lat="45.50631061495549" lon="9.055866238811777"><ele>144.0</ele><time>2026-04-19T07:57:33.998Z</time></trkpt><trkpt lat="45.506245111220764" lon="9.055973019018783"><ele>144.0</ele><time>2026-04-19T07:57:35.998Z</time></trkpt><trkpt lat="45.5061628809869" lon="9.05610491061008"><ele>144.0</ele><time>2026-04-19T07:57:37.998Z</time></trkpt><trkpt lat="45.506089929450056" lon="9.056232159085118"><ele>144.0</ele><time>2026-04-19T07:57:39.998Z</time></trkpt><trkpt lat="45.506060680919326" lon="9.056313849162208"><ele>144.0</ele><time>2026-04-19T07:57:40.998Z</time></trkpt><trkpt lat="45.50599221448332" lon="9.056377970698371"><ele>144.0</ele><time>2026-04-19T07:57:42.998Z</time></trkpt><trkpt lat="45.50592016285542" lon="9.05644434190683"><ele>144.0</ele><time>2026-04-19T07:57:44.998Z</time></trkpt><trkpt lat="45.505823755021815" lon="9.056519424314342"><ele>144.0</ele><time>2026-04-19T07:57:46.998Z</time></trkpt><trkpt lat="45.50572678792406" lon="9.056599109204114"><ele>144.0</ele><time>2026-04-19T07:57:48.998Z</time></trkpt><trkpt lat="45.50564835034611" lon="9.056666930461201"><ele>144.0</ele><time>2026-04-19T07:57:50.998Z</time></trkpt><trkpt lat="45.50558142140076" lon="9.056705831192367"><ele>144.0</ele><time>2026-04-19T07:57:56.998Z</time></trkpt><trkpt lat="45.505508619261015" lon="9.056669684754908"><ele>144.0</ele><time>2026-04-19T07:57:57.998Z</time></trkpt><trkpt lat="45.50544676684461" lon="9.05658934881338"><ele>144.0</ele><time>2026-04-19T07:58:01Z</time></trkpt><trkpt lat="45.50542840698693" lon="9.056496796936832"><ele>144.0</ele><time>2026-04-19T07:58:02.999Z</time></trkpt><trkpt lat="45.50542074492465" lon="9.056376833939126"><ele>144.0</ele><time>2026-04-19T07:58:05Z</time></trkpt><trkpt lat="45.50547915776497" lon="9.05629162573768"><ele>144.0</ele><time>2026-04-19T07:58:08.999Z</time></trkpt><trkpt lat="45.50551341875936" lon="9.056173775814731"><ele>144.0</ele><time>2026-04-19T07:58:12.999Z</time></trkpt><trkpt lat="45.50560963034027" lon="9.05613384505994"><ele>144.0</ele><time>2026-04-19T07:58:17.999Z</time></trkpt><trkpt lat="45.50566747910445" lon="9.056051436985383"><ele>144.0</ele><time>2026-04-19T07:58:19.999Z</time></trkpt><trkpt lat="45.505710079904105" lon="9.055955293932284"><ele>144.0</ele><time>2026-04-19T07:58:21.999Z</time></trkpt><trkpt lat="45.50575513807987" lon="9.05584331155035"><ele>144.0</ele><time>2026-04-19T07:58:23.999Z</time></trkpt><trkpt lat="45.50579726052504" lon="9.05577630261325"><ele>144.0</ele><time>2026-04-19T07:58:25.999Z</time></trkpt><trkpt lat="45.505867102106535" lon="9.055681250249272"><ele>143.0</ele><time>2026-04-19T07:58:27.999Z</time></trkpt><trkpt lat="45.50592226982462" lon="9.055604735256207"><ele>142.0</ele><time>2026-04-19T07:58:29.999Z</time></trkpt><trkpt lat="45.50598940334913" lon="9.055489864826635"><ele>141.0</ele><time>2026-04-19T07:58:31.999Z</time></trkpt><trkpt lat="45.50605471504008" lon="9.055397002246472"><ele>140.0</ele><time>2026-04-19T07:58:33.999Z</time></trkpt><trkpt lat="45.506112373042605" lon="9.055319764639554"><ele>139.0</ele><time>2026-04-19T07:58:35.999Z</time></trkpt><trkpt lat="45.506169735727326" lon="9.055210544425803"><ele>138.0</ele><time>2026-04-19T07:58:37.999Z</time></trkpt><trkpt lat="45.50622461664086" lon="9.055114896753636"><ele>139.20000000000002</ele><time>2026-04-19T07:58:39.999Z</time></trkpt><trkpt lat="45.50627022224621" lon="9.055014831708368"><ele>140.4</ele><time>2026-04-19T07:58:41.999Z</time></trkpt><trkpt lat="45.5063467964887" lon="9.05493056263689"><ele>141.60000000000002</ele><time>2026-04-19T07:58:43.999Z</time></trkpt><trkpt lat="45.50639267225379" lon="9.054821361173278"><ele>142.8</ele><time>2026-04-19T07:58:45.999Z</time></trkpt><trkpt lat="45.506451786127904" lon="9.05472806703844"><ele>144.0</ele><time>2026-04-19T07:58:47.999Z</time></trkpt><trkpt lat="45.506500955448274" lon="9.054609421016089"><ele>144.0</ele><time>2026-04-19T07:58:49.999Z</time></trkpt><trkpt lat="45.506577041976584" lon="9.054492569185067"><ele>144.0</ele><time>2026-04-19T07:58:51.999Z</time></trkpt><trkpt lat="45.50662874237712" lon="9.054416188110514"><ele>144.0</ele><time>2026-04-19T07:58:53.999Z</time></trkpt><trkpt lat="45.506669356955086" lon="9.054315977151028"><ele>144.0</ele><time>2026-04-19T07:58:55.999Z</time></trkpt><trkpt lat="45.50668403662956" lon="9.054192006248174"><ele>144.0</ele><time>2026-04-19T07:58:57.999Z</time></trkpt><trkpt lat="45.50668352102643" lon="9.054064035839199"><ele>144.0</ele><time>2026-04-19T07:58:59.999Z</time></trkpt><trkpt lat="45.506677635606444" lon="9.05394173263585"><ele>144.4</ele><time>2026-04-19T07:59:01.999Z</time></trkpt><trkpt lat="45.50669135339913" lon="9.053798798774446"><ele>144.8</ele><time>2026-04-19T07:59:03.999Z</time></trkpt><trkpt lat="45.50668305089908" lon="9.053662278761001"><ele>145.2</ele><time>2026-04-19T07:59:05.999Z</time></trkpt><trkpt lat="45.5066788482836" lon="9.053545415546553"><ele>145.6</ele><time>2026-04-19T07:59:07.999Z</time></trkpt><trkpt lat="45.506661130534" lon="9.053425283813983"><ele>146.0</ele><time>2026-04-19T07:59:09.998Z</time></trkpt><trkpt lat="45.50669546881009" lon="9.053293586655181"><ele>145.6</ele><time>2026-04-19T07:59:11.998Z</time></trkpt><trkpt lat="45.50672245947701" lon="9.053189321612608"><ele>145.2</ele><time>2026-04-19T07:59:13.998Z</time></trkpt><trkpt lat="45.506780538934464" lon="9.053057605839179"><ele>144.8</ele><time>2026-04-19T07:59:16.998Z</time></trkpt><trkpt lat="45.50683442441295" lon="9.052963564597624"><ele>144.4</ele><time>2026-04-19T07:59:18.998Z</time></trkpt><trkpt lat="45.50691388191541" lon="9.052919679455371"><ele>144.0</ele><time>2026-04-19T07:59:20.998Z</time></trkpt><trkpt lat="45.50700401974232" lon="9.05284917471841"><ele>144.6</ele><time>2026-04-19T07:59:22.998Z</time></trkpt><trkpt lat="45.50708975323624" lon="9.052790602997753"><ele>145.2</ele><time>2026-04-19T07:59:24.998Z</time></trkpt><trkpt lat="45.507175419691706" lon="9.052738154686406"><ele>145.79999999999998</ele><time>2026-04-19T07:59:26.998Z</time></trkpt><trkpt lat="45.507282601624276" lon="9.052699999074692"><ele>146.4</ele><time>2026-04-19T07:59:28.998Z</time></trkpt><trkpt lat="45.50735834757166" lon="9.052658153227995"><ele>147.0</ele><time>2026-04-19T07:59:30.998Z</time></trkpt><trkpt lat="45.50745372829954" lon="9.052608638207813"><ele>147.0</ele><time>2026-04-19T07:59:32.998Z</time></trkpt><trkpt lat="45.50750591419107" lon="9.052504975724549"><ele>147.0</ele><time>2026-04-19T07:59:35.998Z</time></trkpt><trkpt lat="45.5074919944806" lon="9.05239959856498"><ele>147.0</ele><time>2026-04-19T07:59:37.998Z</time></trkpt><trkpt lat="45.50745643434616" lon="9.052283581561587"><ele>147.0</ele><time>2026-04-19T07:59:39.998Z</time></trkpt><trkpt lat="45.50742629612197" lon="9.052181885158467"><ele>147.0</ele><time>2026-04-19T07:59:41.998Z</time></trkpt><trkpt lat="45.50740479633811" lon="9.052095961223928"><ele>147.0</ele><time>2026-04-19T07:59:43.998Z</time></trkpt><trkpt lat="45.50736779979445" lon="9.051982943628802"><ele>146.5</ele><time>2026-04-19T07:59:45.998Z</time></trkpt><trkpt lat="45.50734418387878" lon="9.051891184254545"><ele>146.0</ele><time>2026-04-19T07:59:47.998Z</time></trkpt><trkpt lat="45.50731922064877" lon="9.051784928366523"><ele>145.5</ele><time>2026-04-19T07:59:49.998Z</time></trkpt><trkpt lat="45.5073002316769" lon="9.051647010533786"><ele>145.0</ele><time>2026-04-19T07:59:51.998Z</time></trkpt><trkpt lat="45.50726472488506" lon="9.05154082362346"><ele>144.5</ele><time>2026-04-19T07:59:53.998Z</time></trkpt><trkpt lat="45.50723827063643" lon="9.051421685989"><ele>144.0</ele><time>2026-04-19T07:59:55.998Z</time></trkpt><trkpt lat="45.5071969673662" lon="9.051336050601288"><ele>143.6</ele><time>2026-04-19T07:59:57.998Z</time></trkpt><trkpt lat="45.507175852917804" lon="9.051199252962196"><ele>143.2</ele><time>2026-04-19T07:59:59.998Z</time></trkpt><trkpt lat="45.50714796653885" lon="9.051077550229515"><ele>142.79999999999998</ele><time>2026-04-19T08:00:01.998Z</time></trkpt><trkpt lat="45.507128574668656" lon="9.050922449266796"><ele>142.4</ele><time>2026-04-19T08:00:03.998Z</time></trkpt><trkpt lat="45.50710146300936" lon="9.050832359747758"><ele>142.0</ele><time>2026-04-19T08:00:05.999Z</time></trkpt><trkpt lat="45.50706137479751" lon="9.050726094209042"><ele>142.33333333333334</ele><time>2026-04-19T08:00:07.999Z</time></trkpt><trkpt lat="45.5070626695684" lon="9.050622930215651"><ele>142.66666666666669</ele><time>2026-04-19T08:00:10Z</time></trkpt><trkpt lat="45.507070440341856" lon="9.05050217855094"><ele>143.0</ele><time>2026-04-19T08:00:10.999Z</time></trkpt><trkpt lat="45.50714804524445" lon="9.050439255412982"><ele>143.33333333333334</ele><time>2026-04-19T08:00:15Z</time></trkpt><trkpt lat="45.50723581416986" lon="9.05041564162708"><ele>143.66666666666666</ele><time>2026-04-19T08:00:17.999Z</time></trkpt><trkpt lat="45.50732313524529" lon="9.050394958424214"><ele>144.0</ele><time>2026-04-19T08:00:19.999Z</time></trkpt><trkpt lat="45.507417420233814" lon="9.050375700159124"><ele>144.00000000000003</ele><time>2026-04-19T08:00:22.999Z</time></trkpt><trkpt lat="45.50748845063749" lon="9.050367547768346"><ele>144.0</ele><time>2026-04-19T08:00:24.999Z</time></trkpt><trkpt lat="45.50755470276861" lon="9.050344556622441"><ele>144.0</ele><time>2026-04-19T08:00:26.999Z</time></trkpt><trkpt lat="45.50762526471161" lon="9.050308838793605"><ele>144.0</ele><time>2026-04-19T08:00:28.999Z</time></trkpt><trkpt lat="45.507685959249784" lon="9.050271724626006"><ele>144.0</ele><time>2026-04-19T08:00:30.999Z</time></trkpt><trkpt lat="45.50777087111152" lon="9.050247853757194"><ele>144.00000000000003</ele><time>2026-04-19T08:00:33.999Z</time></trkpt><trkpt lat="45.50783682696377" lon="9.050205170453717"><ele>144.0</ele><time>2026-04-19T08:00:36.999Z</time></trkpt><trkpt lat="45.507916530510265" lon="9.050157216402265"><ele>144.0</ele><time>2026-04-19T08:00:39.999Z</time></trkpt><trkpt lat="45.50799831086374" lon="9.050148534418108"><ele>144.0</ele><time>2026-04-19T08:00:42.999Z</time></trkpt><trkpt lat="45.50807680394055" lon="9.05016672678397"><ele>144.0</ele><time>2026-04-19T08:00:44.999Z</time></trkpt><trkpt lat="45.50816535777338" lon="9.05019513677129"><ele>144.0</ele><time>2026-04-19T08:00:47.999Z</time></trkpt><trkpt lat="45.508232614574545" lon="9.050205231148782"><ele>144.0</ele><time>2026-04-19T08:00:49.999Z</time></trkpt><trkpt lat="45.508298377843936" lon="9.050175632828362"><ele>144.0</ele><time>2026-04-19T08:00:53.999Z</time></trkpt><trkpt lat="45.50834587946692" lon="9.05008993279485"><ele>144.0</ele><time>2026-04-19T08:00:57.999Z</time></trkpt><trkpt lat="45.508376375704465" lon="9.050000758572974"><ele>144.0</ele><time>2026-04-19T08:01:01.999Z</time></trkpt><trkpt lat="45.50844036862626" lon="9.049934514368216"><ele>144.0</ele><time>2026-04-19T08:01:05.999Z</time></trkpt><trkpt lat="45.50851232005087" lon="9.049961734800414"><ele>144.0</ele><time>2026-04-19T08:01:08.999Z</time></trkpt><trkpt lat="45.508588625205135" lon="9.049983184368559"><ele>144.0</ele><time>2026-04-19T08:01:10.999Z</time></trkpt><trkpt lat="45.50867664604248" lon="9.049995945786357"><ele>144.0</ele><time>2026-04-19T08:01:12.999Z</time></trkpt><trkpt lat="45.508763862252216" lon="9.049961515837351"><ele>144.16666666666666</ele><time>2026-04-19T08:01:14.999Z</time></trkpt><trkpt lat="45.508821462427115" lon="9.049905990999775"><ele>144.33333333333334</ele><time>2026-04-19T08:01:16.999Z</time></trkpt><trkpt lat="45.50890276122368" lon="9.049845095116831"><ele>144.5</ele><time>2026-04-19T08:01:18.999Z</time></trkpt><trkpt lat="45.508955580052806" lon="9.049795374463699"><ele>144.66666666666669</ele><time>2026-04-19T08:01:20.999Z</time></trkpt><trkpt lat="45.50902123653953" lon="9.049745487003834"><ele>144.83333333333334</ele><time>2026-04-19T08:01:22.999Z</time></trkpt><trkpt lat="45.50906462163634" lon="9.04967158418467"><ele>145.0</ele><time>2026-04-19T08:01:25.999Z</time></trkpt><trkpt lat="45.50914599658107" lon="9.049603492179713"><ele>145.0</ele><time>2026-04-19T08:01:27.999Z</time></trkpt><trkpt lat="45.50921646908913" lon="9.04953590119923"><ele>145.0</ele><time>2026-04-19T08:01:30.999Z</time></trkpt><trkpt lat="45.509279263634404" lon="9.049484948890168"><ele>145.0</ele><time>2026-04-19T08:01:32.999Z</time></trkpt><trkpt lat="45.50937209660859" lon="9.049435716663723"><ele>145.0</ele><time>2026-04-19T08:01:34.999Z</time></trkpt><trkpt lat="45.50946406141092" lon="9.049393059207018"><ele>145.0</ele><time>2026-04-19T08:01:36.999Z</time></trkpt><trkpt lat="45.50953252116592" lon="9.049348748876213"><ele>145.0</ele><time>2026-04-19T08:01:38.999Z</time></trkpt><trkpt lat="45.509621601406884" lon="9.049305654994459"><ele>145.33333333333334</ele><time>2026-04-19T08:01:41.999Z</time></trkpt><trkpt lat="45.509701542402006" lon="9.049233530854336"><ele>145.66666666666669</ele><time>2026-04-19T08:01:44.999Z</time></trkpt><trkpt lat="45.5097847725101" lon="9.049185365870985"><ele>146.0</ele><time>2026-04-19T08:01:46.999Z</time></trkpt><trkpt lat="45.50987556072071" lon="9.04911143167956"><ele>146.33333333333334</ele><time>2026-04-19T08:01:48.999Z</time></trkpt><trkpt lat="45.509943094362825" lon="9.049029533862345"><ele>146.66666666666666</ele><time>2026-04-19T08:01:51.999Z</time></trkpt><trkpt lat="45.50999833413053" lon="9.048979905946878"><ele>147.0</ele><time>2026-04-19T08:01:53.999Z</time></trkpt><trkpt lat="45.51005119538999" lon="9.048916386250662"><ele>147.0</ele><time>2026-04-19T08:01:55.999Z</time></trkpt><trkpt lat="45.510103272900665" lon="9.048852766576116"><ele>147.0</ele><time>2026-04-19T08:01:57.999Z</time></trkpt><trkpt lat="45.51018492863078" lon="9.04878151587449"><ele>147.0</ele><time>2026-04-19T08:02:00.999Z</time></trkpt><trkpt lat="45.51024720898297" lon="9.048709899047378"><ele>147.0</ele><time>2026-04-19T08:02:03.999Z</time></trkpt><trkpt lat="45.51031861545358" lon="9.048654371682295"><ele>147.0</ele><time>2026-04-19T08:02:06.999Z</time></trkpt><trkpt lat="45.51039453224766" lon="9.048601659611466"><ele>147.0</ele><time>2026-04-19T08:02:09.999Z</time></trkpt><trkpt lat="45.51045319741246" lon="9.048560795152966"><ele>146.85714285714286</ele><time>2026-04-19T08:02:13Z</time></trkpt><trkpt lat="45.51052337500356" lon="9.048532148870326"><ele>146.71428571428572</ele><time>2026-04-19T08:02:15.999Z</time></trkpt><trkpt lat="45.510602670598274" lon="9.048513163520251"><ele>146.57142857142856</ele><time>2026-04-19T08:02:19Z</time></trkpt><trkpt lat="45.51067368859952" lon="9.048477534702188"><ele>146.42857142857144</ele><time>2026-04-19T08:02:21.999Z</time></trkpt><trkpt lat="45.510738781276295" lon="9.048469197347831"><ele>146.28571428571428</ele><time>2026-04-19T08:02:26Z</time></trkpt><trkpt lat="45.510810409799845" lon="9.048435989450706"><ele>146.14285714285714</ele><time>2026-04-19T08:02:30Z</time></trkpt><trkpt lat="45.51088792459315" lon="9.048433316661994"><ele>146.0</ele><time>2026-04-19T08:02:32.999Z</time></trkpt><trkpt lat="45.51095013258946" lon="9.048419454039006"><ele>146.0</ele><time>2026-04-19T08:02:37.999Z</time></trkpt><trkpt lat="45.51102694107922" lon="9.048400758746064"><ele>146.0</ele><time>2026-04-19T08:02:40.999Z</time></trkpt><trkpt lat="45.51109685908737" lon="9.048389699436358"><ele>146.0</ele><time>2026-04-19T08:02:43.999Z</time></trkpt><trkpt lat="45.511166135573994" lon="9.048402840469869"><ele>146.0</ele><time>2026-04-19T08:02:45.999Z</time></trkpt><trkpt lat="45.5112283902805" lon="9.048422847113699"><ele>146.0</ele><time>2026-04-19T08:02:46.999Z</time></trkpt><trkpt lat="45.51128471458845" lon="9.048470133389268"><ele>146.0</ele><time>2026-04-19T08:02:47.999Z</time></trkpt><trkpt lat="45.51132005703307" lon="9.0485659716148"><ele>146.0</ele><time>2026-04-19T08:02:49.999Z</time></trkpt><trkpt lat="45.51135075042518" lon="9.048653678629176"><ele>146.0</ele><time>2026-04-19T08:02:50.999Z</time></trkpt><trkpt lat="45.511380782193676" lon="9.048750203655855"><ele>146.0</ele><time>2026-04-19T08:02:51.999Z</time></trkpt><trkpt lat="45.51142412002358" lon="9.048843514157387"><ele>146.0</ele><time>2026-04-19T08:02:52.999Z</time></trkpt><trkpt lat="45.51148676511501" lon="9.048946593648287"><ele>146.0</ele><time>2026-04-19T08:02:53.999Z</time></trkpt><trkpt lat="45.51152053809239" lon="9.04903843452527"><ele>146.0</ele><time>2026-04-19T08:02:54.999Z</time></trkpt><trkpt lat="45.51155855836077" lon="9.049140793846268"><ele>146.0</ele><time>2026-04-19T08:02:55.999Z</time></trkpt><trkpt lat="45.51159789460244" lon="9.04922696356479"><ele>145.83333333333331</ele><time>2026-04-19T08:02:56.999Z</time></trkpt><trkpt lat="45.511636761173065" lon="9.049310456035748"><ele>145.66666666666666</ele><time>2026-04-19T08:02:57.999Z</time></trkpt><trkpt lat="45.51167322260088" lon="9.049387920043204"><ele>145.5</ele><time>2026-04-19T08:02:58.999Z</time></trkpt><trkpt lat="45.511734997142895" lon="9.049527274714618"><ele>145.33333333333334</ele><time>2026-04-19T08:03:00.999Z</time></trkpt><trkpt lat="45.511781237667" lon="9.049621506215557"><ele>145.16666666666669</ele><time>2026-04-19T08:03:02.999Z</time></trkpt><trkpt lat="45.5118187932205" lon="9.049763522633448"><ele>145.0</ele><time>2026-04-19T08:03:04.999Z</time></trkpt><trkpt lat="45.511837690751776" lon="9.049903479994642"><ele>145.0</ele><time>2026-04-19T08:03:07.999Z</time></trkpt><trkpt lat="45.51188500403693" lon="9.050042105537"><ele>145.0</ele><time>2026-04-19T08:03:09.999Z</time></trkpt><trkpt lat="45.51194437099735" lon="9.050161652846166"><ele>145.0</ele><time>2026-04-19T08:03:11.999Z</time></trkpt><trkpt lat="45.51197612660724" lon="9.050383001831404"><ele>145.0</ele><time>2026-04-19T08:03:16.999Z</time></trkpt><trkpt lat="45.51194643954909" lon="9.050479758906674"><ele>145.0</ele><time>2026-04-19T08:03:18.999Z</time></trkpt><trkpt lat="45.511899311853426" lon="9.050608824451002"><ele>145.0</ele><time>2026-04-19T08:03:21.999Z</time></trkpt><trkpt lat="45.511889767680216" lon="9.050732767856099"><ele>145.0</ele><time>2026-04-19T08:03:23.999Z</time></trkpt><trkpt lat="45.51187257479555" lon="9.050837401792478"><ele>145.0</ele><time>2026-04-19T08:03:25.999Z</time></trkpt><trkpt lat="45.511876945795564" lon="9.05094513031535"><ele>145.0</ele><time>2026-04-19T08:03:27.999Z</time></trkpt><trkpt lat="45.511894035471045" lon="9.051068228200355"><ele>145.0</ele><time>2026-04-19T08:03:29.999Z</time></trkpt><trkpt lat="45.511940752510114" lon="9.051161894193548"><ele>145.0</ele><time>2026-04-19T08:03:31.999Z</time></trkpt><trkpt lat="45.51200486183863" lon="9.05126517032185"><ele>145.0</ele><time>2026-04-19T08:03:33.999Z</time></trkpt><trkpt lat="45.51206875643223" lon="9.051309957533286"><ele>145.0</ele><time>2026-04-19T08:03:35.999Z</time></trkpt><trkpt lat="45.51214445722012" lon="9.051331714305789"><ele>145.0</ele><time>2026-04-19T08:03:37.999Z</time></trkpt><trkpt lat="45.51222404948915" lon="9.05134179606254"><ele>145.0</ele><time>2026-04-19T08:03:39.999Z</time></trkpt><trkpt lat="45.51228967962287" lon="9.051319586408859"><ele>145.0</ele><time>2026-04-19T08:03:41.999Z</time></trkpt><trkpt lat="45.51236311878014" lon="9.051285885346077"><ele>145.0</ele><time>2026-04-19T08:03:44.999Z</time></trkpt><trkpt lat="45.51240735419155" lon="9.051205325629631"><ele>145.0</ele><time>2026-04-19T08:03:49.999Z</time></trkpt><trkpt lat="45.51233794729617" lon="9.051190541774016"><ele>145.0</ele><time>2026-04-19T08:03:54.999Z</time></trkpt><trkpt lat="45.512283872043724" lon="9.051343247291108"><ele>145.0</ele><time>2026-04-19T08:04:03.999Z</time></trkpt><trkpt lat="45.5121971749111" lon="9.05137162040408"><ele>145.0</ele><time>2026-04-19T08:04:05.999Z</time></trkpt><trkpt lat="45.51209606834586" lon="9.051340205700265"><ele>145.0</ele><time>2026-04-19T08:04:07.999Z</time></trkpt><trkpt lat="45.51200480875733" lon="9.051284930870285"><ele>145.0</ele><time>2026-04-19T08:04:09.999Z</time></trkpt><trkpt lat="45.5119320644476" lon="9.051187446693872"><ele>145.0</ele><time>2026-04-19T08:04:11.999Z</time></trkpt><trkpt lat="45.511918427726" lon="9.05104921182324"><ele>145.0</ele><time>2026-04-19T08:04:13.999Z</time></trkpt><trkpt lat="45.511925277027565" lon="9.05093051834555"><ele>145.0</ele><time>2026-04-19T08:04:14.999Z</time></trkpt><trkpt lat="45.51193705543739" lon="9.050815939132383"><ele>145.0</ele><time>2026-04-19T08:04:15.999Z</time></trkpt><trkpt lat="45.511966601879095" lon="9.050658972941903"><ele>145.0</ele><time>2026-04-19T08:04:18Z</time></trkpt><trkpt lat="45.511993736423484" lon="9.05053790648211"><ele>145.0</ele><time>2026-04-19T08:04:19.999Z</time></trkpt><trkpt lat="45.51192958203528" lon="9.050566568731393"><ele>145.0</ele><time>2026-04-19T08:04:28.999Z</time></trkpt><trkpt lat="45.51189855736372" lon="9.050644846902575"><ele>145.0</ele><time>2026-04-19T08:04:30.999Z</time></trkpt><trkpt lat="45.51189203658407" lon="9.050747893469605"><ele>145.0</ele><time>2026-04-19T08:04:34.999Z</time></trkpt><trkpt lat="45.511867580647" lon="9.050875404652066"><ele>145.0</ele><time>2026-04-19T08:04:36.999Z</time></trkpt><trkpt lat="45.51187269506804" lon="9.051019398106822"><ele>145.0</ele><time>2026-04-19T08:04:38.999Z</time></trkpt><trkpt lat="45.5118640356904" lon="9.051152224347769"><ele>145.0</ele><time>2026-04-19T08:04:40.999Z</time></trkpt><trkpt lat="45.51189655011724" lon="9.05125804303703"><ele>145.0</ele><time>2026-04-19T08:04:43.999Z</time></trkpt><trkpt lat="45.511938946664564" lon="9.051354371480533"><ele>145.0</ele><time>2026-04-19T08:04:45.999Z</time></trkpt><trkpt lat="45.51201084377097" lon="9.051445082569149"><ele>145.0</ele><time>2026-04-19T08:04:47.999Z</time></trkpt><trkpt lat="45.51209466541273" lon="9.051507044688444"><ele>145.0</ele><time>2026-04-19T08:04:49.999Z</time></trkpt><trkpt lat="45.512182988753565" lon="9.051571262270652"><ele>145.16666666666669</ele><time>2026-04-19T08:04:51.999Z</time></trkpt><trkpt lat="45.512263569828775" lon="9.051628383476594"><ele>145.33333333333334</ele><time>2026-04-19T08:04:53.999Z</time></trkpt><trkpt lat="45.5123393475947" lon="9.05169022599438"><ele>145.5</ele><time>2026-04-19T08:04:55.999Z</time></trkpt><trkpt lat="45.51240027652399" lon="9.05175418100347"><ele>145.66666666666666</ele><time>2026-04-19T08:04:57.999Z</time></trkpt><trkpt lat="45.51247984917308" lon="9.05180516313771"><ele>145.83333333333331</ele><time>2026-04-19T08:05:00.999Z</time></trkpt><trkpt lat="45.51256271596567" lon="9.051849661559046"><ele>146.0</ele><time>2026-04-19T08:05:03.999Z</time></trkpt><trkpt lat="45.51264291295178" lon="9.051913846680554"><ele>146.0</ele><time>2026-04-19T08:05:06.999Z</time></trkpt><trkpt lat="45.512731773622015" lon="9.051965736104888"><ele>146.0</ele><time>2026-04-19T08:05:09.999Z</time></trkpt><trkpt lat="45.51282268791451" lon="9.05202571333546"><ele>146.0</ele><time>2026-04-19T08:05:11.999Z</time></trkpt><trkpt lat="45.512904553242535" lon="9.052084906903865"><ele>146.0</ele><time>2026-04-19T08:05:13.999Z</time></trkpt><trkpt lat="45.5129851764856" lon="9.052140307320988"><ele>146.0</ele><time>2026-04-19T08:05:15.999Z</time></trkpt><trkpt lat="45.51306050673386" lon="9.052185320741197"><ele>146.16666666666666</ele><time>2026-04-19T08:05:17.999Z</time></trkpt><trkpt lat="45.513155442609744" lon="9.0522215689478"><ele>146.33333333333331</ele><time>2026-04-19T08:05:20.999Z</time></trkpt><trkpt lat="45.513236648665305" lon="9.052254020590857"><ele>146.5</ele><time>2026-04-19T08:05:23.999Z</time></trkpt><trkpt lat="45.51331050811958" lon="9.052275548856421"><ele>146.66666666666666</ele><time>2026-04-19T08:05:26.999Z</time></trkpt><trkpt lat="45.51336396262711" lon="9.052329141470468"><ele>146.83333333333334</ele><time>2026-04-19T08:05:29.999Z</time></trkpt><trkpt lat="45.51342695423044" lon="9.052379779488726"><ele>147.0</ele><time>2026-04-19T08:05:32.999Z</time></trkpt><trkpt lat="45.51336020052895" lon="9.052441395001456"><ele>147.0</ele><time>2026-04-19T08:05:34.999Z</time></trkpt><trkpt lat="45.51329170815969" lon="9.052425829605886"><ele>147.0</ele><time>2026-04-19T08:05:36.999Z</time></trkpt><trkpt lat="45.51322973731775" lon="9.052487360653856"><ele>147.0</ele><time>2026-04-19T08:05:41.999Z</time></trkpt><trkpt lat="45.51319485307456" lon="9.05256949333112"><ele>147.0</ele><time>2026-04-19T08:05:43.999Z</time></trkpt><trkpt lat="45.51319597209025" lon="9.052708920287019"><ele>147.0</ele><time>2026-04-19T08:05:45.999Z</time></trkpt><trkpt lat="45.51319413455493" lon="9.052864078838414"><ele>147.0</ele><time>2026-04-19T08:05:47.999Z</time></trkpt><trkpt lat="45.51319213815981" lon="9.052990870302787"><ele>147.0</ele><time>2026-04-19T08:05:49.999Z</time></trkpt><trkpt lat="45.51321084922337" lon="9.053088127289717"><ele>147.0</ele><time>2026-04-19T08:05:51.999Z</time></trkpt><trkpt lat="45.513209678756596" lon="9.053179798347001"><ele>147.0</ele><time>2026-04-19T08:05:53.999Z</time></trkpt><trkpt lat="45.5131545975468" lon="9.05312887250535"><ele>147.0</ele><time>2026-04-19T08:06:02.999Z</time></trkpt><trkpt lat="45.513185521638384" lon="9.053018841589079"><ele>147.0</ele><time>2026-04-19T08:06:05.999Z</time></trkpt><trkpt lat="45.513312894532675" lon="9.052968527100623"><ele>147.0</ele><time>2026-04-19T08:06:13.999Z</time></trkpt><trkpt lat="45.51337744906439" lon="9.052978901332425"><ele>147.0</ele><time>2026-04-19T08:06:15.999Z</time></trkpt><trkpt lat="45.513468145198175" lon="9.053012344470703"><ele>147.0</ele><time>2026-04-19T08:06:17.999Z</time></trkpt><trkpt lat="45.51354313796023" lon="9.05305371606231"><ele>147.0</ele><time>2026-04-19T08:06:19.999Z</time></trkpt><trkpt lat="45.51361426984435" lon="9.053097593989785"><ele>147.0</ele><time>2026-04-19T08:06:21.999Z</time></trkpt><trkpt lat="45.513680247452164" lon="9.053170476327292"><ele>147.0</ele><time>2026-04-19T08:06:23.999Z</time></trkpt><trkpt lat="45.51374168988738" lon="9.053250115574771"><ele>147.0</ele><time>2026-04-19T08:06:26Z</time></trkpt><trkpt lat="45.513810322775" lon="9.05332405169158"><ele>147.33333333333334</ele><time>2026-04-19T08:06:28Z</time></trkpt><trkpt lat="45.51389586482787" lon="9.053312473459485"><ele>147.66666666666666</ele><time>2026-04-19T08:06:30.999Z</time></trkpt><trkpt lat="45.51397129142482" lon="9.053320168509531"><ele>148.0</ele><time>2026-04-19T08:06:32.999Z</time></trkpt><trkpt lat="45.51405370901797" lon="9.053310887837132"><ele>148.33333333333331</ele><time>2026-04-19T08:06:35Z</time></trkpt><trkpt lat="45.51412129000963" lon="9.053296053588234"><ele>148.66666666666666</ele><time>2026-04-19T08:06:37Z</time></trkpt><trkpt lat="45.51419109584256" lon="9.053343526948714"><ele>149.0</ele><time>2026-04-19T08:06:39Z</time></trkpt><trkpt lat="45.51427924041428" lon="9.053384662276155"><ele>149.0</ele><time>2026-04-19T08:06:41Z</time></trkpt><trkpt lat="45.51434768323164" lon="9.053415521985823"><ele>149.0</ele><time>2026-04-19T08:06:43Z</time></trkpt><trkpt lat="45.51442381222186" lon="9.053468427757993"><ele>149.0</ele><time>2026-04-19T08:06:45Z</time></trkpt><trkpt lat="45.51449108129734" lon="9.053482959283091"><ele>149.0</ele><time>2026-04-19T08:06:47Z</time></trkpt><trkpt lat="45.514559661437204" lon="9.053488749781522"><ele>149.0</ele><time>2026-04-19T08:06:49Z</time></trkpt><trkpt lat="45.51463319648962" lon="9.053531967885574"><ele>149.0</ele><time>2026-04-19T08:06:50.999Z</time></trkpt><trkpt lat="45.51470226415292" lon="9.053565407145802"><ele>149.0</ele><time>2026-04-19T08:06:52.999Z</time></trkpt><trkpt lat="45.51478141221471" lon="9.053608359861608"><ele>148.16666666666666</ele><time>2026-04-19T08:06:54.999Z</time></trkpt><trkpt lat="45.51486312527438" lon="9.053673563546417"><ele>147.33333333333331</ele><time>2026-04-19T08:06:56.999Z</time></trkpt><trkpt lat="45.5149527342299" lon="9.053717181342595"><ele>146.5</ele><time>2026-04-19T08:06:59.999Z</time></trkpt><trkpt lat="45.515012669721536" lon="9.053747570185019"><ele>145.66666666666666</ele><time>2026-04-19T08:07:01.999Z</time></trkpt><trkpt lat="45.515082502364926" lon="9.053793502215948"><ele>144.83333333333334</ele><time>2026-04-19T08:07:03.999Z</time></trkpt><trkpt lat="45.51515235576722" lon="9.053825958801308"><ele>144.0</ele><time>2026-04-19T08:07:05.999Z</time></trkpt><trkpt lat="45.515219868299404" lon="9.053866500294578"><ele>144.0</ele><time>2026-04-19T08:07:07.999Z</time></trkpt><trkpt lat="45.51527994753329" lon="9.053922932414405"><ele>144.0</ele><time>2026-04-19T08:07:09.999Z</time></trkpt><trkpt lat="45.515355936519704" lon="9.053954844028958"><ele>144.0</ele><time>2026-04-19T08:07:11.999Z</time></trkpt><trkpt lat="45.515425999625904" lon="9.054002060922587"><ele>144.0</ele><time>2026-04-19T08:07:13.999Z</time></trkpt><trkpt lat="45.51551372999615" lon="9.054035388418484"><ele>144.0</ele><time>2026-04-19T08:07:16.999Z</time></trkpt><trkpt lat="45.515581757122966" lon="9.054074806757312"><ele>144.0</ele><time>2026-04-19T08:07:18.999Z</time></trkpt><trkpt lat="45.515644797960476" lon="9.05410332625244"><ele>144.33333333333334</ele><time>2026-04-19T08:07:20.999Z</time></trkpt><trkpt lat="45.51571854305797" lon="9.05414643730268"><ele>144.66666666666666</ele><time>2026-04-19T08:07:22.999Z</time></trkpt><trkpt lat="45.5158083078126" lon="9.054188408533465"><ele>145.0</ele><time>2026-04-19T08:07:25.999Z</time></trkpt><trkpt lat="45.51589346692352" lon="9.054233574513102"><ele>145.33333333333331</ele><time>2026-04-19T08:07:28.999Z</time></trkpt><trkpt lat="45.515951512891334" lon="9.054278278135708"><ele>145.66666666666666</ele><time>2026-04-19T08:07:31.999Z</time></trkpt><trkpt lat="45.51601740847849" lon="9.054289008698804"><ele>146.0</ele><time>2026-04-19T08:07:34.999Z</time></trkpt><trkpt lat="45.51609280303545" lon="9.05431591539387"><ele>146.0</ele><time>2026-04-19T08:07:46.999Z</time></trkpt><trkpt lat="45.516160218348226" lon="9.054284619739823"><ele>146.0</ele><time>2026-04-19T08:07:49.999Z</time></trkpt><trkpt lat="45.51621453005578" lon="9.054237531886304"><ele>146.0</ele><time>2026-04-19T08:07:52.999Z</time></trkpt><trkpt lat="45.51627685629859" lon="9.054214320378017"><ele>146.0</ele><time>2026-04-19T08:07:55.999Z</time></trkpt><trkpt lat="45.5163518463238" lon="9.054175018502596"><ele>146.0</ele><time>2026-04-19T08:07:57.999Z</time></trkpt><trkpt lat="45.5164247511921" lon="9.054141643919113"><ele>146.0</ele><time>2026-04-19T08:07:59.999Z</time></trkpt><trkpt lat="45.51649567528961" lon="9.054175460474147"><ele>146.0</ele><time>2026-04-19T08:08:02.999Z</time></trkpt><trkpt lat="45.51653129567209" lon="9.054270673039177"><ele>146.4</ele><time>2026-04-19T08:08:06.999Z</time></trkpt><trkpt lat="45.51648455532839" lon="9.054388806489301"><ele>146.8</ele><time>2026-04-19T08:08:12.999Z</time></trkpt><trkpt lat="45.51644573918286" lon="9.054521867683425"><ele>147.20000000000002</ele><time>2026-04-19T08:08:15.999Z</time></trkpt><trkpt lat="45.516427584817194" lon="9.054622838699174"><ele>147.6</ele><time>2026-04-19T08:08:17.999Z</time></trkpt><trkpt lat="45.51640453777458" lon="9.054745307688732"><ele>148.0</ele><time>2026-04-19T08:08:19.999Z</time></trkpt><trkpt lat="45.516364814625256" lon="9.05488035667676"><ele>148.0</ele><time>2026-04-19T08:08:21.999Z</time></trkpt><trkpt lat="45.51632282611936" lon="9.05500474732604"><ele>148.0</ele><time>2026-04-19T08:08:23.999Z</time></trkpt><trkpt lat="45.51628511607744" lon="9.055132675852013"><ele>148.0</ele><time>2026-04-19T08:08:25.999Z</time></trkpt><trkpt lat="45.516247929920006" lon="9.05527023586517"><ele>148.0</ele><time>2026-04-19T08:08:27.999Z</time></trkpt><trkpt lat="45.51622057556471" lon="9.055396299034568"><ele>148.0</ele><time>2026-04-19T08:08:29.999Z</time></trkpt><trkpt lat="45.516194577213575" lon="9.055534763571536"><ele>148.0</ele><time>2026-04-19T08:08:31.999Z</time></trkpt><trkpt lat="45.51616802458235" lon="9.055643243538487"><ele>148.0</ele><time>2026-04-19T08:08:33.999Z</time></trkpt><trkpt lat="45.516195949629974" lon="9.055756415189213"><ele>148.0</ele><time>2026-04-19T08:08:36Z</time></trkpt><trkpt lat="45.51626721021278" lon="9.055829598881573"><ele>148.0</ele><time>2026-04-19T08:08:38Z</time></trkpt><trkpt lat="45.51635074428681" lon="9.055941865988002"><ele>148.0</ele><time>2026-04-19T08:08:40Z</time></trkpt><trkpt lat="45.516422143238124" lon="9.056028771597347"><ele>148.4</ele><time>2026-04-19T08:08:42Z</time></trkpt><trkpt lat="45.51650103681349" lon="9.056115559337158"><ele>148.8</ele><time>2026-04-19T08:08:44Z</time></trkpt><trkpt lat="45.51657884707552" lon="9.05620689822539"><ele>149.2</ele><time>2026-04-19T08:08:46Z</time></trkpt><trkpt lat="45.5166604999973" lon="9.056286161866371"><ele>149.6</ele><time>2026-04-19T08:08:48Z</time></trkpt><trkpt lat="45.51674090761684" lon="9.056353537003138"><ele>150.0</ele><time>2026-04-19T08:08:50Z</time></trkpt><trkpt lat="45.5168098476937" lon="9.05640352558961"><ele>150.0</ele><time>2026-04-19T08:08:51.999Z</time></trkpt><trkpt lat="45.516891553746184" lon="9.056491096265551"><ele>150.0</ele><time>2026-04-19T08:08:53.999Z</time></trkpt><trkpt lat="45.51696503632568" lon="9.056532565322497"><ele>150.0</ele><time>2026-04-19T08:08:55.999Z</time></trkpt><trkpt lat="45.51705032474275" lon="9.056611800398727"><ele>150.0</ele><time>2026-04-19T08:08:57.999Z</time></trkpt><trkpt lat="45.517121616894336" lon="9.056684335517193"><ele>150.0</ele><time>2026-04-19T08:08:59.999Z</time></trkpt><trkpt lat="45.51719447762608" lon="9.056743376444345"><ele>148.66666666666666</ele><time>2026-04-19T08:09:01.999Z</time></trkpt><trkpt lat="45.517252961095046" lon="9.056782602850161"><ele>147.33333333333334</ele><time>2026-04-19T08:09:03.999Z</time></trkpt><trkpt lat="45.51733146031731" lon="9.056841482612322"><ele>146.0</ele><time>2026-04-19T08:09:05.999Z</time></trkpt><trkpt lat="45.517399403916585" lon="9.056887605865635"><ele>144.66666666666669</ele><time>2026-04-19T08:09:07.999Z</time></trkpt><trkpt lat="45.517478427676636" lon="9.056928248904299"><ele>143.33333333333334</ele><time>2026-04-19T08:09:09.999Z</time></trkpt><trkpt lat="45.51755185794209" lon="9.057013004614058"><ele>142.0</ele><time>2026-04-19T08:09:11.999Z</time></trkpt><trkpt lat="45.51761046680131" lon="9.057084619829753"><ele>142.0</ele><time>2026-04-19T08:09:13.999Z</time></trkpt><trkpt lat="45.51760273135656" lon="9.057189977433172"><ele>142.0</ele><time>2026-04-19T08:09:16.999Z</time></trkpt><trkpt lat="45.51757531558732" lon="9.057320906513702"><ele>142.0</ele><time>2026-04-19T08:09:20.999Z</time></trkpt><trkpt lat="45.51755769649682" lon="9.05743243385566"><ele>142.0</ele><time>2026-04-19T08:09:21.999Z</time></trkpt><trkpt lat="45.517572622066496" lon="9.057530021447842"><ele>142.0</ele><time>2026-04-19T08:09:24.999Z</time></trkpt><trkpt lat="45.51757013005227" lon="9.057641991287614"><ele>142.0</ele><time>2026-04-19T08:09:26.999Z</time></trkpt><trkpt lat="45.517562941238495" lon="9.05776677428851"><ele>142.33333333333334</ele><time>2026-04-19T08:09:28.999Z</time></trkpt><trkpt lat="45.51754299541677" lon="9.057889416240128"><ele>142.66666666666669</ele><time>2026-04-19T08:09:30.999Z</time></trkpt><trkpt lat="45.517524788319356" lon="9.057998677376906"><ele>143.0</ele><time>2026-04-19T08:09:32.999Z</time></trkpt><trkpt lat="45.51748839626519" lon="9.058136164681883"><ele>143.33333333333334</ele><time>2026-04-19T08:09:35.999Z</time></trkpt><trkpt lat="45.51746658797576" lon="9.058225788688416"><ele>143.66666666666666</ele><time>2026-04-19T08:09:36.999Z</time></trkpt><trkpt lat="45.51744250965472" lon="9.05834592821107"><ele>144.0</ele><time>2026-04-19T08:09:37.999Z</time></trkpt><trkpt lat="45.51737939770676" lon="9.058486136328153"><ele>144.2857142857143</ele><time>2026-04-19T08:09:39.999Z</time></trkpt><trkpt lat="45.51733691836238" lon="9.058571580313968"><ele>144.57142857142858</ele><time>2026-04-19T08:09:40.999Z</time></trkpt><trkpt lat="45.51730006413801" lon="9.058666490823846"><ele>144.85714285714286</ele><time>2026-04-19T08:09:41.998Z</time></trkpt><trkpt lat="45.517292697787795" lon="9.058755903857525"><ele>145.14285714285717</ele><time>2026-04-19T08:09:42.998Z</time></trkpt><trkpt lat="45.51729484883585" lon="9.058857833281701"><ele>145.42857142857144</ele><time>2026-04-19T08:09:43.998Z</time></trkpt><trkpt lat="45.5172995051349" lon="9.058955338243118"><ele>145.71428571428572</ele><time>2026-04-19T08:09:44.998Z</time></trkpt><trkpt lat="45.517312272394584" lon="9.059057761506427"><ele>146.0</ele><time>2026-04-19T08:09:45.997Z</time></trkpt><trkpt lat="45.517323365617024" lon="9.059155960266557"><ele>146.0</ele><time>2026-04-19T08:09:46.997Z</time></trkpt><trkpt lat="45.51733962641845" lon="9.059266854895949"><ele>146.0</ele><time>2026-04-19T08:09:47.997Z</time></trkpt><trkpt lat="45.51736005648862" lon="9.059359165318448"><ele>146.0</ele><time>2026-04-19T08:09:48.997Z</time></trkpt><trkpt lat="45.517377735955804" lon="9.059468449601821"><ele>146.0</ele><time>2026-04-19T08:09:49.997Z</time></trkpt><trkpt lat="45.517391571815395" lon="9.059573078202188"><ele>146.0</ele><time>2026-04-19T08:09:50.996Z</time></trkpt><trkpt lat="45.51740715077637" lon="9.059691214341013"><ele>146.0</ele><time>2026-04-19T08:09:51.996Z</time></trkpt><trkpt lat="45.517419773302926" lon="9.059796087625722"><ele>146.0</ele><time>2026-04-19T08:09:52.996Z</time></trkpt><trkpt lat="45.51745688389449" lon="9.059948258643063"><ele>146.0</ele><time>2026-04-19T08:09:54.996Z</time></trkpt><trkpt lat="45.51747221708719" lon="9.060107155261802"><ele>146.0</ele><time>2026-04-19T08:09:56.996Z</time></trkpt><trkpt lat="45.517484614741136" lon="9.060216731586381"><ele>146.0</ele><time>2026-04-19T08:09:57.995Z</time></trkpt><trkpt lat="45.51751002187976" lon="9.060392365380377"><ele>146.0</ele><time>2026-04-19T08:09:59.995Z</time></trkpt><trkpt lat="45.51752229809763" lon="9.060481958629458"><ele>146.75</ele><time>2026-04-19T08:10:00.995Z</time></trkpt><trkpt lat="45.51753497115406" lon="9.060587099780808"><ele>147.5</ele><time>2026-04-19T08:10:02.139Z</time></trkpt><trkpt lat="45.517543907038345" lon="9.06036094659184"><ele>148.25</ele><time>2026-04-19T08:10:03.995Z</time></trkpt><trkpt lat="45.51755815483806" lon="9.060257775637902"><ele>149.0</ele><time>2026-04-19T08:10:04.995Z</time></trkpt><trkpt lat="45.517730551194404" lon="9.060251308279959"><ele>149.0</ele><time>2026-04-19T08:10:10.994Z</time></trkpt><trkpt lat="45.51781408562983" lon="9.060198791802431"><ele>149.0</ele><time>2026-04-19T08:10:12.994Z</time></trkpt><trkpt lat="45.51792982140806" lon="9.06014585068547"><ele>149.0</ele><time>2026-04-19T08:10:15.994Z</time></trkpt><trkpt lat="45.51801859431575" lon="9.060117120858116"><ele>149.0</ele><time>2026-04-19T08:10:18.994Z</time></trkpt><trkpt lat="45.51809449582159" lon="9.060054407546806"><ele>149.0</ele><time>2026-04-19T08:10:21.994Z</time></trkpt><trkpt lat="45.51815711001956" lon="9.060039955336707"><ele>148.66666666666666</ele><time>2026-04-19T08:10:23.994Z</time></trkpt><trkpt lat="45.51823664679313" lon="9.060005932578699"><ele>148.33333333333331</ele><time>2026-04-19T08:10:26.994Z</time></trkpt><trkpt lat="45.51830121127138" lon="9.059975983080985"><ele>148.0</ele><time>2026-04-19T08:10:28.994Z</time></trkpt><trkpt lat="45.51836311190675" lon="9.059953741470567"><ele>147.66666666666666</ele><time>2026-04-19T08:10:30.994Z</time></trkpt><trkpt lat="45.51843209453447" lon="9.05991127988475"><ele>147.33333333333334</ele><time>2026-04-19T08:10:33.994Z</time></trkpt><trkpt lat="45.51852378835034" lon="9.059872582615283"><ele>147.0</ele><time>2026-04-19T08:10:36.994Z</time></trkpt><trkpt lat="45.518597733472035" lon="9.059852199838506"><ele>146.85714285714286</ele><time>2026-04-19T08:10:38.994Z</time></trkpt><trkpt lat="45.51868156345445" lon="9.059815937225386"><ele>146.71428571428572</ele><time>2026-04-19T08:10:41.994Z</time></trkpt><trkpt lat="45.51874874103359" lon="9.05977124009754"><ele>146.57142857142856</ele><time>2026-04-19T08:10:44.994Z</time></trkpt><trkpt lat="45.51881661401156" lon="9.059751285404666"><ele>146.42857142857144</ele><time>2026-04-19T08:10:48.994Z</time></trkpt><trkpt lat="45.51888267494503" lon="9.059702715233799"><ele>146.28571428571428</ele><time>2026-04-19T08:10:51.994Z</time></trkpt><trkpt lat="45.518944223092625" lon="9.0596622139121"><ele>146.14285714285714</ele><time>2026-04-19T08:10:53.994Z</time></trkpt><trkpt lat="45.51901264468314" lon="9.059633730735632"><ele>146.0</ele><time>2026-04-19T08:10:55.994Z</time></trkpt><trkpt lat="45.51908886083203" lon="9.059592401653525"><ele>146.5</ele><time>2026-04-19T08:10:57.994Z</time></trkpt><trkpt lat="45.51917138313522" lon="9.059559173251653"><ele>147.0</ele><time>2026-04-19T08:10:59.994Z</time></trkpt><trkpt lat="45.519382078891" lon="9.059554959589583"><ele>147.5</ele><time>2026-04-19T08:11:03.994Z</time></trkpt><trkpt lat="45.5194793483289" lon="9.059549973230872"><ele>148.0</ele><time>2026-04-19T08:11:05.994Z</time></trkpt><trkpt lat="45.51958042495622" lon="9.059554866594858"><ele>148.4</ele><time>2026-04-19T08:11:07.994Z</time></trkpt><trkpt lat="45.519684414908774" lon="9.059553509846953"><ele>148.8</ele><time>2026-04-19T08:11:09.994Z</time></trkpt><trkpt lat="45.51978195198896" lon="9.059572247543468"><ele>149.2</ele><time>2026-04-19T08:11:11.993Z</time></trkpt><trkpt lat="45.51988061623585" lon="9.059589447810296"><ele>149.6</ele><time>2026-04-19T08:11:13.993Z</time></trkpt><trkpt lat="45.51998189847122" lon="9.059641450947208"><ele>150.0</ele><time>2026-04-19T08:11:15.993Z</time></trkpt><trkpt lat="45.52007599800934" lon="9.059701213294685"><ele>150.0</ele><time>2026-04-19T08:11:17.993Z</time></trkpt><trkpt lat="45.52016104824851" lon="9.059770087746069"><ele>150.0</ele><time>2026-04-19T08:11:19.993Z</time></trkpt><trkpt lat="45.520228206187376" lon="9.059857114779524"><ele>150.0</ele><time>2026-04-19T08:11:21.993Z</time></trkpt><trkpt lat="45.52026364838065" lon="9.059977583269715"><ele>150.0</ele><time>2026-04-19T08:11:23.993Z</time></trkpt><trkpt lat="45.52027499362285" lon="9.06011344791917"><ele>150.0</ele><time>2026-04-19T08:11:25.993Z</time></trkpt><trkpt lat="45.520297100619636" lon="9.06024509568502"><ele>149.4</ele><time>2026-04-19T08:11:27.993Z</time></trkpt><trkpt lat="45.520306763974304" lon="9.060388243314154"><ele>148.8</ele><time>2026-04-19T08:11:29.993Z</time></trkpt><trkpt lat="45.52031417010537" lon="9.060507403857596"><ele>148.2</ele><time>2026-04-19T08:11:31.993Z</time></trkpt><trkpt lat="45.5203364570776" lon="9.060651464186662"><ele>147.6</ele><time>2026-04-19T08:11:33.993Z</time></trkpt><trkpt lat="45.520377448114836" lon="9.060752842298367"><ele>147.0</ele><time>2026-04-19T08:11:35.993Z</time></trkpt><trkpt lat="45.52043949118183" lon="9.060861205162794"><ele>147.0</ele><time>2026-04-19T08:11:37.993Z</time></trkpt><trkpt lat="45.520510012871924" lon="9.060922625024507"><ele>147.0</ele><time>2026-04-19T08:11:39.993Z</time></trkpt><trkpt lat="45.52057650566207" lon="9.060978419979335"><ele>147.0</ele><time>2026-04-19T08:11:41.993Z</time></trkpt><trkpt lat="45.52064341859417" lon="9.061047021319068"><ele>147.0</ele><time>2026-04-19T08:11:43.993Z</time></trkpt><trkpt lat="45.520714020138094" lon="9.061110429472265"><ele>147.0</ele><time>2026-04-19T08:11:45.993Z</time></trkpt><trkpt lat="45.520785836071944" lon="9.061161575439812"><ele>147.0</ele><time>2026-04-19T08:11:47.993Z</time></trkpt><trkpt lat="45.52086081912906" lon="9.061230523593997"><ele>147.0</ele><time>2026-04-19T08:11:49.993Z</time></trkpt><trkpt lat="45.520911770924116" lon="9.061316221076236"><ele>147.0</ele><time>2026-04-19T08:11:51.993Z</time></trkpt><trkpt lat="45.520951049118786" lon="9.061420012829425"><ele>147.0</ele><time>2026-04-19T08:11:53.993Z</time></trkpt><trkpt lat="45.52096757352458" lon="9.061526956162055"><ele>147.0</ele><time>2026-04-19T08:11:55.993Z</time></trkpt><trkpt lat="45.52096282633563" lon="9.061640747530078"><ele>147.0</ele><time>2026-04-19T08:11:57.993Z</time></trkpt><trkpt lat="45.52096948041504" lon="9.061755879301742"><ele>147.0</ele><time>2026-04-19T08:11:59.993Z</time></trkpt><trkpt lat="45.52101447045084" lon="9.061851241073606"><ele>147.0</ele><time>2026-04-19T08:12:01.993Z</time></trkpt><trkpt lat="45.52108401295443" lon="9.061919351423672"><ele>147.0</ele><time>2026-04-19T08:12:03.993Z</time></trkpt><trkpt lat="45.521169201788005" lon="9.0619953407595"><ele>147.0</ele><time>2026-04-19T08:12:05.993Z</time></trkpt><trkpt lat="45.52125007885684" lon="9.062008989691005"><ele>147.0</ele><time>2026-04-19T08:12:07.993Z</time></trkpt><trkpt lat="45.52132965119328" lon="9.062012214335198"><ele>147.0</ele><time>2026-04-19T08:12:09.993Z</time></trkpt><trkpt lat="45.52140570977343" lon="9.062028555389594"><ele>147.0</ele><time>2026-04-19T08:12:11.993Z</time></trkpt><trkpt lat="45.521502981503026" lon="9.062029029907132"><ele>147.16666666666666</ele><time>2026-04-19T08:12:13.993Z</time></trkpt><trkpt lat="45.521577175466135" lon="9.06208743127182"><ele>147.33333333333334</ele><time>2026-04-19T08:12:15.993Z</time></trkpt><trkpt lat="45.521621778749264" lon="9.062169078172312"><ele>147.5</ele><time>2026-04-19T08:12:17.993Z</time></trkpt><trkpt lat="45.52165105073163" lon="9.062261434240765"><ele>147.66666666666669</ele><time>2026-04-19T08:12:19.993Z</time></trkpt><trkpt lat="45.52165908848881" lon="9.06238995704622"><ele>147.83333333333334</ele><time>2026-04-19T08:12:21.993Z</time></trkpt><trkpt lat="45.521631992040774" lon="9.06247608201998"><ele>148.0</ele><time>2026-04-19T08:12:23.993Z</time></trkpt><trkpt lat="45.521574885797655" lon="9.062571439757573"><ele>148.0</ele><time>2026-04-19T08:12:25.993Z</time></trkpt><trkpt lat="45.52151780344502" lon="9.062677799114986"><ele>148.0</ele><time>2026-04-19T08:12:27.993Z</time></trkpt><trkpt lat="45.521462975807204" lon="9.062773623562926"><ele>148.0</ele><time>2026-04-19T08:12:29.993Z</time></trkpt><trkpt lat="45.52139955953359" lon="9.062878459127509"><ele>148.0</ele><time>2026-04-19T08:12:31.993Z</time></trkpt><trkpt lat="45.52135562781154" lon="9.063003661075246"><ele>148.0</ele><time>2026-04-19T08:12:33.993Z</time></trkpt><trkpt lat="45.521325408432304" lon="9.063142367003229"><ele>148.0</ele><time>2026-04-19T08:12:35.993Z</time></trkpt><trkpt lat="45.52131381761028" lon="9.06327071530368"><ele>148.0</ele><time>2026-04-19T08:12:37.993Z</time></trkpt><trkpt lat="45.52131524509648" lon="9.063405746072673"><ele>148.0</ele><time>2026-04-19T08:12:39.993Z</time></trkpt><trkpt lat="45.52131156097624" lon="9.063548582714485"><ele>148.0</ele><time>2026-04-19T08:12:41.994Z</time></trkpt><trkpt lat="45.521280430544856" lon="9.063655842880486"><ele>148.0</ele><time>2026-04-19T08:12:43.994Z</time></trkpt><trkpt lat="45.52121790495188" lon="9.06374949763767"><ele>147.6</ele><time>2026-04-19T08:12:45.994Z</time></trkpt><trkpt lat="45.52113505499777" lon="9.06381810053511"><ele>147.20000000000002</ele><time>2026-04-19T08:12:47.994Z</time></trkpt><trkpt lat="45.52105887749037" lon="9.063895808980817"><ele>146.8</ele><time>2026-04-19T08:12:49.994Z</time></trkpt><trkpt lat="45.520973769692425" lon="9.063944016278507"><ele>146.4</ele><time>2026-04-19T08:12:51.994Z</time></trkpt><trkpt lat="45.52087289200582" lon="9.06399740272457"><ele>146.0</ele><time>2026-04-19T08:12:53.994Z</time></trkpt><trkpt lat="45.520789714626915" lon="9.064062060567087"><ele>145.83333333333331</ele><time>2026-04-19T08:12:55.994Z</time></trkpt><trkpt lat="45.520723816514234" lon="9.064135762334999"><ele>145.66666666666666</ele><time>2026-04-19T08:12:57.994Z</time></trkpt><trkpt lat="45.52069615371656" lon="9.064258255925482"><ele>145.5</ele><time>2026-04-19T08:13:00.994Z</time></trkpt><trkpt lat="45.520647475243194" lon="9.064367882854508"><ele>145.33333333333334</ele><time>2026-04-19T08:13:02.994Z</time></trkpt><trkpt lat="45.52061629294089" lon="9.064475729517657"><ele>145.16666666666669</ele><time>2026-04-19T08:13:04.994Z</time></trkpt><trkpt lat="45.52058592453313" lon="9.064599353700771"><ele>145.0</ele><time>2026-04-19T08:13:06.994Z</time></trkpt><trkpt lat="45.52053869016106" lon="9.064727015038027"><ele>145.0</ele><time>2026-04-19T08:13:08.994Z</time></trkpt><trkpt lat="45.52049881286947" lon="9.064841396148013"><ele>145.0</ele><time>2026-04-19T08:13:10.994Z</time></trkpt><trkpt lat="45.52045463341805" lon="9.064911798739455"><ele>145.0</ele><time>2026-04-19T08:13:12.994Z</time></trkpt><trkpt lat="45.52043810292166" lon="9.065007607592712"><ele>145.0</ele><time>2026-04-19T08:13:14.994Z</time></trkpt><trkpt lat="45.520378707295976" lon="9.065120848810466"><ele>145.0</ele><time>2026-04-19T08:13:16.994Z</time></trkpt><trkpt lat="45.520320353367175" lon="9.06523296239624"><ele>145.0</ele><time>2026-04-19T08:13:18.994Z</time></trkpt><trkpt lat="45.52027378753192" lon="9.06536857265429"><ele>145.33333333333334</ele><time>2026-04-19T08:13:20.994Z</time></trkpt><trkpt lat="45.520214510208845" lon="9.065432010233312"><ele>145.66666666666669</ele><time>2026-04-19T08:13:22.994Z</time></trkpt><trkpt lat="45.520148283827666" lon="9.065510573762717"><ele>146.0</ele><time>2026-04-19T08:13:24.994Z</time></trkpt><trkpt lat="45.52011472236987" lon="9.0656123977109"><ele>146.33333333333334</ele><time>2026-04-19T08:13:26.994Z</time></trkpt><trkpt lat="45.520145248753536" lon="9.065695522807795"><ele>146.66666666666666</ele><time>2026-04-19T08:13:28.993Z</time></trkpt><trkpt lat="45.52016806524438" lon="9.065826102452434"><ele>147.0</ele><time>2026-04-19T08:13:31.993Z</time></trkpt><trkpt lat="45.52020973735337" lon="9.065916694137803"><ele>147.0</ele><time>2026-04-19T08:13:33.993Z</time></trkpt><trkpt lat="45.52027093641712" lon="9.066010325455412"><ele>147.0</ele><time>2026-04-19T08:13:35.993Z</time></trkpt><trkpt lat="45.52034189600305" lon="9.066106232399791"><ele>147.0</ele><time>2026-04-19T08:13:38.993Z</time></trkpt><trkpt lat="45.52038188763106" lon="9.066196776404595"><ele>147.0</ele><time>2026-04-19T08:13:41.993Z</time></trkpt><trkpt lat="45.52040038200741" lon="9.06629434318902"><ele>147.0</ele><time>2026-04-19T08:13:43.993Z</time></trkpt><trkpt lat="45.520462839365486" lon="9.066363407502624"><ele>147.0</ele><time>2026-04-19T08:13:45.993Z</time></trkpt><trkpt lat="45.52052804742115" lon="9.06642800014734"><ele>147.16666666666666</ele><time>2026-04-19T08:13:47.993Z</time></trkpt><trkpt lat="45.52057610079882" lon="9.066509852598612"><ele>147.33333333333334</ele><time>2026-04-19T08:13:49.993Z</time></trkpt><trkpt lat="45.52064669253066" lon="9.066588057439457"><ele>147.5</ele><time>2026-04-19T08:13:51.993Z</time></trkpt><trkpt lat="45.52070171439665" lon="9.066670570165957"><ele>147.66666666666669</ele><time>2026-04-19T08:13:53.993Z</time></trkpt><trkpt lat="45.520754695765774" lon="9.06673697192716"><ele>147.83333333333334</ele><time>2026-04-19T08:13:56.993Z</time></trkpt><trkpt lat="45.5207835708809" lon="9.06682849990526"><ele>148.0</ele><time>2026-04-19T08:13:59.993Z</time></trkpt><trkpt lat="45.520777457016926" lon="9.066929235882387"><ele>148.0</ele><time>2026-04-19T08:14:04.993Z</time></trkpt><trkpt lat="45.520758204351644" lon="9.067021532139727"><ele>148.0</ele><time>2026-04-19T08:14:07.993Z</time></trkpt><trkpt lat="45.5207528904275" lon="9.067147580219485"><ele>148.0</ele><time>2026-04-19T08:14:10.993Z</time></trkpt><trkpt lat="45.520737883153416" lon="9.067258335028882"><ele>148.0</ele><time>2026-04-19T08:14:12.993Z</time></trkpt><trkpt lat="45.52067732748248" lon="9.06737037811112"><ele>148.0</ele><time>2026-04-19T08:14:15.993Z</time></trkpt><trkpt lat="45.52061844116666" lon="9.067473866630385"><ele>148.0</ele><time>2026-04-19T08:14:17.993Z</time></trkpt><trkpt lat="45.520554337386734" lon="9.067587113954204"><ele>147.8</ele><time>2026-04-19T08:14:19.993Z</time></trkpt><trkpt lat="45.52050018387232" lon="9.067698466502698"><ele>147.60000000000002</ele><time>2026-04-19T08:14:21.993Z</time></trkpt><trkpt lat="45.52048175597344" lon="9.067790852809152"><ele>147.39999999999998</ele><time>2026-04-19T08:14:23.993Z</time></trkpt><trkpt lat="45.52042242650857" lon="9.067894640678348"><ele>147.2</ele><time>2026-04-19T08:14:25.993Z</time></trkpt><trkpt lat="45.52036280035354" lon="9.068019776460915"><ele>147.0</ele><time>2026-04-19T08:14:27.993Z</time></trkpt><trkpt lat="45.52031062675023" lon="9.06812263964135"><ele>147.0</ele><time>2026-04-19T08:14:29.993Z</time></trkpt><trkpt lat="45.520260503162035" lon="9.068223091293989"><ele>147.0</ele><time>2026-04-19T08:14:31.993Z</time></trkpt><trkpt lat="45.52020580192153" lon="9.068319140380972"><ele>147.0</ele><time>2026-04-19T08:14:33.993Z</time></trkpt><trkpt lat="45.52013942200888" lon="9.068369749252417"><ele>147.0</ele><time>2026-04-19T08:14:38.993Z</time></trkpt><trkpt lat="45.520064656057826" lon="9.068345456357205"><ele>147.0</ele><time>2026-04-19T08:14:43.993Z</time></trkpt><trkpt lat="45.52002674171086" lon="9.068266338481342"><ele>147.0</ele><time>2026-04-19T08:14:46.993Z</time></trkpt><trkpt lat="45.519954787265135" lon="9.06829064628934"><ele>146.66666666666666</ele><time>2026-04-19T08:14:50.993Z</time></trkpt><trkpt lat="45.51991550210941" lon="9.068377964522746"><ele>146.33333333333334</ele><time>2026-04-19T08:14:52.993Z</time></trkpt><trkpt lat="45.519861098402586" lon="9.068448584018727"><ele>146.0</ele><time>2026-04-19T08:14:54.993Z</time></trkpt><trkpt lat="45.5198024498626" lon="9.068517843157116"><ele>145.66666666666669</ele><time>2026-04-19T08:14:56.993Z</time></trkpt><trkpt lat="45.519743245617775" lon="9.068623898545539"><ele>145.33333333333334</ele><time>2026-04-19T08:14:58.994Z</time></trkpt><trkpt lat="45.5197031239799" lon="9.068698078685259"><ele>145.0</ele><time>2026-04-19T08:15:00.993Z</time></trkpt><trkpt lat="45.51963686060819" lon="9.068784047647757"><ele>145.0</ele><time>2026-04-19T08:15:02.993Z</time></trkpt><trkpt lat="45.519583616123185" lon="9.068859124134066"><ele>145.0</ele><time>2026-04-19T08:15:04.993Z</time></trkpt><trkpt lat="45.51952813455566" lon="9.068966210773791"><ele>145.0</ele><time>2026-04-19T08:15:07.993Z</time></trkpt><trkpt lat="45.51945071919055" lon="9.0690432350221"><ele>145.0</ele><time>2026-04-19T08:15:09.993Z</time></trkpt><trkpt lat="45.5193864338327" lon="9.069111607211378"><ele>145.0</ele><time>2026-04-19T08:15:11.993Z</time></trkpt><trkpt lat="45.51932710395579" lon="9.069231628129351"><ele>145.0</ele><time>2026-04-19T08:15:13.993Z</time></trkpt><trkpt lat="45.51927700250088" lon="9.069316468796742"><ele>145.5</ele><time>2026-04-19T08:15:15.993Z</time></trkpt><trkpt lat="45.519211991024285" lon="9.069411187087658"><ele>146.0</ele><time>2026-04-19T08:15:17.993Z</time></trkpt><trkpt lat="45.51916354679799" lon="9.069486563624803"><ele>146.5</ele><time>2026-04-19T08:15:19.992Z</time></trkpt><trkpt lat="45.51911172091878" lon="9.069558814662914"><ele>147.0</ele><time>2026-04-19T08:15:21.992Z</time></trkpt><trkpt lat="45.51907482327599" lon="9.069650257243621"><ele>147.5</ele><time>2026-04-19T08:15:23.992Z</time></trkpt><trkpt lat="45.519023201623604" lon="9.069714425249474"><ele>148.0</ele><time>2026-04-19T08:15:25.992Z</time></trkpt><trkpt lat="45.51896999499753" lon="9.069792253165687"><ele>148.0</ele><time>2026-04-19T08:15:27.992Z</time></trkpt><trkpt lat="45.51893876741206" lon="9.069900822615812"><ele>148.0</ele><time>2026-04-19T08:15:29.992Z</time></trkpt><trkpt lat="45.51889279751945" lon="9.069967029673927"><ele>148.0</ele><time>2026-04-19T08:15:31.992Z</time></trkpt><trkpt lat="45.5188326324383" lon="9.070024316821574"><ele>148.0</ele><time>2026-04-19T08:15:34.992Z</time></trkpt><trkpt lat="45.51876479268748" lon="9.070090415455292"><ele>148.0</ele><time>2026-04-19T08:15:37.992Z</time></trkpt><trkpt lat="45.518728593683015" lon="9.070165727489432"><ele>148.0</ele><time>2026-04-19T08:15:40.992Z</time></trkpt><trkpt lat="45.51868426966922" lon="9.070238968133667"><ele>148.0</ele><time>2026-04-19T08:15:44.992Z</time></trkpt><trkpt lat="45.51863200336926" lon="9.070312111094319"><ele>147.66666666666669</ele><time>2026-04-19T08:15:46.992Z</time></trkpt><trkpt lat="45.51857077728161" lon="9.070410524316038"><ele>147.33333333333334</ele><time>2026-04-19T08:15:48.992Z</time></trkpt><trkpt lat="45.518529131849945" lon="9.070491973562294"><ele>147.0</ele><time>2026-04-19T08:15:50.992Z</time></trkpt><trkpt lat="45.51848289847993" lon="9.070593644113762"><ele>146.66666666666666</ele><time>2026-04-19T08:15:53.992Z</time></trkpt><trkpt lat="45.518424061454226" lon="9.070642477791086"><ele>146.33333333333331</ele><time>2026-04-19T08:15:56.992Z</time></trkpt><trkpt lat="45.51835180446552" lon="9.07069545005707"><ele>146.0</ele><time>2026-04-19T08:16:00.992Z</time></trkpt><trkpt lat="45.5182670813427" lon="9.070723346258433"><ele>146.0</ele><time>2026-04-19T08:16:03.992Z</time></trkpt><trkpt lat="45.51819652302757" lon="9.070704387696495"><ele>146.0</ele><time>2026-04-19T08:16:07.992Z</time></trkpt><trkpt lat="45.51814805064221" lon="9.070595350170626"><ele>146.0</ele><time>2026-04-19T08:16:10.992Z</time></trkpt><trkpt lat="45.51815039316953" lon="9.07047798439572"><ele>146.0</ele><time>2026-04-19T08:16:12.992Z</time></trkpt><trkpt lat="45.518136034201554" lon="9.070373883039101"><ele>146.0</ele><time>2026-04-19T08:16:14.992Z</time></trkpt><trkpt lat="45.51814344073388" lon="9.070274062095612"><ele>146.0</ele><time>2026-04-19T08:16:16.992Z</time></trkpt><trkpt lat="45.51814643801051" lon="9.070176004434417"><ele>146.0</ele><time>2026-04-19T08:16:18.992Z</time></trkpt><trkpt lat="45.51816163322426" lon="9.070054515225083"><ele>146.0</ele><time>2026-04-19T08:16:20.992Z</time></trkpt><trkpt lat="45.518171028747815" lon="9.06992699296186"><ele>146.0</ele><time>2026-04-19T08:16:22.992Z</time></trkpt><trkpt lat="45.51818126649906" lon="9.069826988452062"><ele>146.0</ele><time>2026-04-19T08:16:24.992Z</time></trkpt><trkpt lat="45.518194494485726" lon="9.069721385136667"><ele>146.0</ele><time>2026-04-19T08:16:26.992Z</time></trkpt><trkpt lat="45.51820023301074" lon="9.06960323829419"><ele>146.0</ele><time>2026-04-19T08:16:28.992Z</time></trkpt><trkpt lat="45.51821934902294" lon="9.069495416847909"><ele>146.0</ele><time>2026-04-19T08:16:30.992Z</time></trkpt><trkpt lat="45.518234227196714" lon="9.069386121262262"><ele>146.0</ele><time>2026-04-19T08:16:32.992Z</time></trkpt><trkpt lat="45.51826030040415" lon="9.06926747488452"><ele>146.0</ele><time>2026-04-19T08:16:34.992Z</time></trkpt><trkpt lat="45.518276062931726" lon="9.069133251794604"><ele>146.0</ele><time>2026-04-19T08:16:36.992Z</time></trkpt><trkpt lat="45.51829534431541" lon="9.069017007278651"><ele>146.0</ele><time>2026-04-19T08:16:38.992Z</time></trkpt><trkpt lat="45.518305865860285" lon="9.06890306720241"><ele>146.0</ele><time>2026-04-19T08:16:40.992Z</time></trkpt><trkpt lat="45.518333684032015" lon="9.068781940544271"><ele>146.0</ele><time>2026-04-19T08:16:42.992Z</time></trkpt><trkpt lat="45.51835256956103" lon="9.06864830785995"><ele>146.0</ele><time>2026-04-19T08:16:44.992Z</time></trkpt><trkpt lat="45.51837806320907" lon="9.068517855664497"><ele>146.0</ele><time>2026-04-19T08:16:46.992Z</time></trkpt><trkpt lat="45.5183955164604" lon="9.068395520516585"><ele>146.0</ele><time>2026-04-19T08:16:48.992Z</time></trkpt><trkpt lat="45.51839110450676" lon="9.068283865834852"><ele>146.0</ele><time>2026-04-19T08:16:50.992Z</time></trkpt><trkpt lat="45.518410595490366" lon="9.068142033527403"><ele>145.8</ele><time>2026-04-19T08:16:52.992Z</time></trkpt><trkpt lat="45.51844790553533" lon="9.068010368662934"><ele>145.6</ele><time>2026-04-19T08:16:54.993Z</time></trkpt><trkpt lat="45.51847234162974" lon="9.067860629255502"><ele>145.4</ele><time>2026-04-19T08:16:56.993Z</time></trkpt><trkpt lat="45.51848996600073" lon="9.067733480345856"><ele>145.2</ele><time>2026-04-19T08:16:58.992Z</time></trkpt><trkpt lat="45.51851584107115" lon="9.067634040910063"><ele>145.0</ele><time>2026-04-19T08:17:00.993Z</time></trkpt><trkpt lat="45.51853733585983" lon="9.067527048132725"><ele>145.33333333333334</ele><time>2026-04-19T08:17:02.993Z</time></trkpt><trkpt lat="45.51855183098548" lon="9.06739083982955"><ele>145.66666666666669</ele><time>2026-04-19T08:17:05.993Z</time></trkpt><trkpt lat="45.518551078540575" lon="9.06729477966162"><ele>146.0</ele><time>2026-04-19T08:17:07.993Z</time></trkpt><trkpt lat="45.518519181013545" lon="9.067189260255494"><ele>146.33333333333334</ele><time>2026-04-19T08:17:10.993Z</time></trkpt><trkpt lat="45.51846380377163" lon="9.067142961625173"><ele>146.66666666666666</ele><time>2026-04-19T08:17:13.993Z</time></trkpt><trkpt lat="45.518405539680565" lon="9.067067092411436"><ele>147.0</ele><time>2026-04-19T08:17:15.993Z</time></trkpt><trkpt lat="45.51836572644719" lon="9.066939973388074"><ele>147.0</ele><time>2026-04-19T08:17:17.993Z</time></trkpt><trkpt lat="45.51832753349848" lon="9.066834001709614"><ele>147.0</ele><time>2026-04-19T08:17:19.993Z</time></trkpt><trkpt lat="45.518285671028785" lon="9.066737178620484"><ele>147.0</ele><time>2026-04-19T08:17:21.992Z</time></trkpt><trkpt lat="45.51825415073624" lon="9.066636403774867"><ele>147.0</ele><time>2026-04-19T08:17:23.992Z</time></trkpt><trkpt lat="45.51821826659016" lon="9.066526014755025"><ele>147.0</ele><time>2026-04-19T08:17:25.992Z</time></trkpt><trkpt lat="45.518179846682095" lon="9.066440019048514"><ele>147.0</ele><time>2026-04-19T08:17:27.992Z</time></trkpt><trkpt lat="45.51811541820825" lon="9.066344939116105"><ele>147.0</ele><time>2026-04-19T08:17:30.992Z</time></trkpt><trkpt lat="45.51811914459131" lon="9.066234829721889"><ele>147.0</ele><time>2026-04-19T08:17:33.992Z</time></trkpt><trkpt lat="45.5180831849619" lon="9.066153490831871"><ele>147.0</ele><time>2026-04-19T08:17:36.992Z</time></trkpt><trkpt lat="45.51803674744732" lon="9.066056787523644"><ele>147.0</ele><time>2026-04-19T08:17:40.992Z</time></trkpt><trkpt lat="45.5179889510131" lon="9.065967157470551"><ele>147.0</ele><time>2026-04-19T08:17:44.992Z</time></trkpt><trkpt lat="45.51763296247296" lon="9.066397172822045"><ele>147.0</ele><time>2026-04-19T08:17:59.992Z</time></trkpt><trkpt lat="45.51756438626669" lon="9.066527063618517"><ele>147.0</ele><time>2026-04-19T08:18:01.992Z</time></trkpt><trkpt lat="45.51749165236129" lon="9.066648939315028"><ele>147.0</ele><time>2026-04-19T08:18:03.992Z</time></trkpt><trkpt lat="45.517422818324974" lon="9.06677744540596"><ele>147.0</ele><time>2026-04-19T08:18:05.992Z</time></trkpt><trkpt lat="45.51735635909736" lon="9.066901606154"><ele>147.0</ele><time>2026-04-19T08:18:07.992Z</time></trkpt><trkpt lat="45.51729217563204" lon="9.067026419950915"><ele>147.0</ele><time>2026-04-19T08:18:10.992Z</time></trkpt><trkpt lat="45.51723482707702" lon="9.067156720131965"><ele>147.0</ele><time>2026-04-19T08:18:12.992Z</time></trkpt><trkpt lat="45.517177008577114" lon="9.067267768466852"><ele>147.0</ele><time>2026-04-19T08:18:14.992Z</time></trkpt><trkpt lat="45.51712105709122" lon="9.067381624854425"><ele>147.0</ele><time>2026-04-19T08:18:16.992Z</time></trkpt><trkpt lat="45.517059641035395" lon="9.067474374386975"><ele>147.0</ele><time>2026-04-19T08:18:18.992Z</time></trkpt><trkpt lat="45.51700930540614" lon="9.067573806854828"><ele>147.16666666666666</ele><time>2026-04-19T08:18:20.992Z</time></trkpt><trkpt lat="45.516958167798265" lon="9.067692081351282"><ele>147.33333333333334</ele><time>2026-04-19T08:18:22.992Z</time></trkpt><trkpt lat="45.516913374188306" lon="9.067807985538657"><ele>147.5</ele><time>2026-04-19T08:18:24.992Z</time></trkpt><trkpt lat="45.51686368426936" lon="9.067911828056351"><ele>147.66666666666669</ele><time>2026-04-19T08:18:26.992Z</time></trkpt><trkpt lat="45.51681441004129" lon="9.067973652658152"><ele>147.83333333333334</ele><time>2026-04-19T08:18:28.992Z</time></trkpt><trkpt lat="45.51674443842835" lon="9.068043955076957"><ele>148.0</ele><time>2026-04-19T08:18:31.992Z</time></trkpt><trkpt lat="45.516700408638265" lon="9.068170051597564"><ele>147.83333333333334</ele><time>2026-04-19T08:18:34.992Z</time></trkpt><trkpt lat="45.51667230012806" lon="9.068283500433116"><ele>147.66666666666669</ele><time>2026-04-19T08:18:38.992Z</time></trkpt><trkpt lat="45.51665015995012" lon="9.068376505134347"><ele>147.5</ele><time>2026-04-19T08:18:42.992Z</time></trkpt><trkpt lat="45.51659533860349" lon="9.068481979157724"><ele>147.33333333333334</ele><time>2026-04-19T08:18:44.992Z</time></trkpt><trkpt lat="45.51654184674668" lon="9.068588421153565"><ele>147.16666666666666</ele><time>2026-04-19T08:18:47.992Z</time></trkpt><trkpt lat="45.516503996743424" lon="9.06869650340105"><ele>147.0</ele><time>2026-04-19T08:18:50.992Z</time></trkpt><trkpt lat="45.516569830013616" lon="9.068746274227575"><ele>147.0</ele><time>2026-04-19T08:18:57.992Z</time></trkpt><trkpt lat="45.51664942754014" lon="9.068808492072542"><ele>147.0</ele><time>2026-04-19T08:19:00.992Z</time></trkpt><trkpt lat="45.51671301161663" lon="9.068851445078478"><ele>147.0</ele><time>2026-04-19T08:19:02.992Z</time></trkpt><trkpt lat="45.516789774558795" lon="9.0688905000759"><ele>147.0</ele><time>2026-04-19T08:19:04.992Z</time></trkpt><trkpt lat="45.51686595682345" lon="9.068920612996575"><ele>147.0</ele><time>2026-04-19T08:19:06.992Z</time></trkpt><trkpt lat="45.51692830527433" lon="9.068939445836225"><ele>147.0</ele><time>2026-04-19T08:19:08.992Z</time></trkpt><trkpt lat="45.51699168820902" lon="9.068987315965934"><ele>147.0</ele><time>2026-04-19T08:19:10.992Z</time></trkpt><trkpt lat="45.51697537408497" lon="9.069096364908043"><ele>147.0</ele><time>2026-04-19T08:19:14.992Z</time></trkpt><trkpt lat="45.51696349208395" lon="9.069185201449999"><ele>147.0</ele><time>2026-04-19T08:19:16.992Z</time></trkpt><trkpt lat="45.51693947460854" lon="9.069298253439179"><ele>147.0</ele><time>2026-04-19T08:19:19.992Z</time></trkpt><trkpt lat="45.51692336500285" lon="9.0694354421679"><ele>147.0</ele><time>2026-04-19T08:19:22.992Z</time></trkpt><trkpt lat="45.51689876419683" lon="9.06955998762598"><ele>147.0</ele><time>2026-04-19T08:19:25.992Z</time></trkpt><trkpt lat="45.51688240210577" lon="9.069655519905703"><ele>147.0</ele><time>2026-04-19T08:19:27.992Z</time></trkpt><trkpt lat="45.516875875062" lon="9.06975861743368"><ele>147.0</ele><time>2026-04-19T08:19:29.991Z</time></trkpt><trkpt lat="45.51683538568615" lon="9.069870948548376"><ele>147.0</ele><time>2026-04-19T08:19:31.991Z</time></trkpt><trkpt lat="45.51681085285604" lon="9.070004420349798"><ele>147.0</ele><time>2026-04-19T08:19:33.991Z</time></trkpt><trkpt lat="45.51679478649956" lon="9.070110379967735"><ele>147.0</ele><time>2026-04-19T08:19:35.991Z</time></trkpt><trkpt lat="45.516822394027805" lon="9.070193416305974"><ele>147.0</ele><time>2026-04-19T08:19:37.991Z</time></trkpt><trkpt lat="45.51691392517738" lon="9.070241448395644"><ele>147.0</ele><time>2026-04-19T08:19:40.991Z</time></trkpt><trkpt lat="45.51697152286647" lon="9.070294017445548"><ele>147.0</ele><time>2026-04-19T08:19:42.991Z</time></trkpt><trkpt lat="45.51703618113438" lon="9.07033247372712"><ele>147.0</ele><time>2026-04-19T08:19:45.991Z</time></trkpt><trkpt lat="45.51712562053041" lon="9.070373493459531"><ele>147.0</ele><time>2026-04-19T08:19:48.991Z</time></trkpt><trkpt lat="45.517221514258964" lon="9.07040966387693"><ele>147.0</ele><time>2026-04-19T08:19:51.991Z</time></trkpt><trkpt lat="45.517314643924905" lon="9.070473022235856"><ele>147.0</ele><time>2026-04-19T08:19:53.991Z</time></trkpt><trkpt lat="45.517385183712605" lon="9.070497496397827"><ele>147.0</ele><time>2026-04-19T08:19:55.991Z</time></trkpt><trkpt lat="45.51746106166129" lon="9.07054295764991"><ele>147.0</ele><time>2026-04-19T08:19:57.991Z</time></trkpt><trkpt lat="45.51753989762842" lon="9.070565573584098"><ele>147.0</ele><time>2026-04-19T08:19:59.991Z</time></trkpt><trkpt lat="45.51761569225459" lon="9.070587357944659"><ele>147.0</ele><time>2026-04-19T08:20:01.991Z</time></trkpt><trkpt lat="45.517680692167175" lon="9.070627198839322"><ele>147.0</ele><time>2026-04-19T08:20:03.991Z</time></trkpt><trkpt lat="45.51777425321453" lon="9.070652539259633"><ele>147.0</ele><time>2026-04-19T08:20:06.991Z</time></trkpt><trkpt lat="45.51786196901226" lon="9.070693264124488"><ele>146.83333333333334</ele><time>2026-04-19T08:20:08.991Z</time></trkpt><trkpt lat="45.51793578204757" lon="9.070747034273932"><ele>146.66666666666666</ele><time>2026-04-19T08:20:10.991Z</time></trkpt><trkpt lat="45.51799621405715" lon="9.07077627646837"><ele>146.5</ele><time>2026-04-19T08:20:12.991Z</time></trkpt><trkpt lat="45.51807892164627" lon="9.070826416942287"><ele>146.33333333333331</ele><time>2026-04-19T08:20:14.991Z</time></trkpt><trkpt lat="45.51815745831283" lon="9.070874170275582"><ele>146.16666666666666</ele><time>2026-04-19T08:20:17.991Z</time></trkpt><trkpt lat="45.51821657652079" lon="9.07094942336935"><ele>146.0</ele><time>2026-04-19T08:20:20.991Z</time></trkpt><trkpt lat="45.518234501422874" lon="9.071041273916713"><ele>146.0</ele><time>2026-04-19T08:20:23.991Z</time></trkpt><trkpt lat="45.51820212091606" lon="9.071152865256268"><ele>146.0</ele><time>2026-04-19T08:20:26.991Z</time></trkpt><trkpt lat="45.518154994321065" lon="9.071288935376502"><ele>146.0</ele><time>2026-04-19T08:20:29.991Z</time></trkpt><trkpt lat="45.51810571424369" lon="9.071383954566686"><ele>146.0</ele><time>2026-04-19T08:20:31.991Z</time></trkpt><trkpt lat="45.51805492661348" lon="9.071486019752792"><ele>146.0</ele><time>2026-04-19T08:20:33.991Z</time></trkpt><trkpt lat="45.5180336373364" lon="9.071577600811164"><ele>146.0</ele><time>2026-04-19T08:20:36.991Z</time></trkpt><trkpt lat="45.517987997081406" lon="9.071671150392497"><ele>146.0</ele><time>2026-04-19T08:20:39.991Z</time></trkpt><trkpt lat="45.51792934233336" lon="9.071753579514947"><ele>146.0</ele><time>2026-04-19T08:20:43.991Z</time></trkpt><trkpt lat="45.51788841116813" lon="9.071851041027552"><ele>146.0</ele><time>2026-04-19T08:20:45.991Z</time></trkpt><trkpt lat="45.517835919764494" lon="9.071967439546428"><ele>146.0</ele><time>2026-04-19T08:20:47.991Z</time></trkpt><trkpt lat="45.5177927566211" lon="9.07207748342254"><ele>146.0</ele><time>2026-04-19T08:20:49.991Z</time></trkpt><trkpt lat="45.51775924204448" lon="9.072169393745117"><ele>146.0</ele><time>2026-04-19T08:20:51.991Z</time></trkpt><trkpt lat="45.517739146818876" lon="9.072276155095034"><ele>146.0</ele><time>2026-04-19T08:20:53.991Z</time></trkpt><trkpt lat="45.51769324054994" lon="9.072396615489101"><ele>146.0</ele><time>2026-04-19T08:20:56.991Z</time></trkpt><trkpt lat="45.517665211096656" lon="9.072479591446097"><ele>146.0</ele><time>2026-04-19T08:20:58.991Z</time></trkpt><trkpt lat="45.51760801765143" lon="9.072594498586085"><ele>146.0</ele><time>2026-04-19T08:21:01.991Z</time></trkpt><trkpt lat="45.517552008945444" lon="9.072673961365776"><ele>146.0</ele><time>2026-04-19T08:21:03.991Z</time></trkpt><trkpt lat="45.51749213924222" lon="9.072754080883799"><ele>146.0</ele><time>2026-04-19T08:21:05.992Z</time></trkpt><trkpt lat="45.517453510932135" lon="9.072862992935777"><ele>146.0</ele><time>2026-04-19T08:21:07.991Z</time></trkpt><trkpt lat="45.51740455740434" lon="9.072946028991481"><ele>146.0</ele><time>2026-04-19T08:21:09.992Z</time></trkpt><trkpt lat="45.517367661781236" lon="9.07305533049515"><ele>146.0</ele><time>2026-04-19T08:21:11.992Z</time></trkpt><trkpt lat="45.5173169872538" lon="9.073128009962817"><ele>146.0</ele><time>2026-04-19T08:21:13.992Z</time></trkpt><trkpt lat="45.517254387915" lon="9.073201069665693"><ele>146.0</ele><time>2026-04-19T08:21:15.992Z</time></trkpt><trkpt lat="45.5172008237441" lon="9.073308647368375"><ele>146.0</ele><time>2026-04-19T08:21:17.992Z</time></trkpt><trkpt lat="45.51713692014418" lon="9.073387765726189"><ele>145.66666666666666</ele><time>2026-04-19T08:21:19.992Z</time></trkpt><trkpt lat="45.51708189477856" lon="9.073484021465118"><ele>145.33333333333331</ele><time>2026-04-19T08:21:21.992Z</time></trkpt><trkpt lat="45.517022354868516" lon="9.07357584927286"><ele>145.0</ele><time>2026-04-19T08:21:23.992Z</time></trkpt><trkpt lat="45.5169720349929" lon="9.073667801396672"><ele>144.66666666666666</ele><time>2026-04-19T08:21:25.992Z</time></trkpt><trkpt lat="45.516930270175365" lon="9.073771824833"><ele>144.33333333333334</ele><time>2026-04-19T08:21:27.992Z</time></trkpt><trkpt lat="45.51687727956381" lon="9.073873080238911"><ele>144.0</ele><time>2026-04-19T08:21:29.992Z</time></trkpt><trkpt lat="45.51682377419822" lon="9.073943924306976"><ele>144.0</ele><time>2026-04-19T08:21:31.991Z</time></trkpt><trkpt lat="45.51677869710025" lon="9.074076483755496"><ele>144.0</ele><time>2026-04-19T08:21:33.991Z</time></trkpt><trkpt lat="45.51673207023099" lon="9.074165956501288"><ele>144.0</ele><time>2026-04-19T08:21:35.991Z</time></trkpt><trkpt lat="45.51668055242833" lon="9.074294801551757"><ele>144.0</ele><time>2026-04-19T08:21:38.991Z</time></trkpt><trkpt lat="45.51664248701262" lon="9.074411178484075"><ele>144.0</ele><time>2026-04-19T08:21:40.991Z</time></trkpt><trkpt lat="45.51659161908284" lon="9.074510535820234"><ele>144.0</ele><time>2026-04-19T08:21:42.991Z</time></trkpt><trkpt lat="45.51654313459408" lon="9.074615975906012"><ele>144.0</ele><time>2026-04-19T08:21:44.991Z</time></trkpt><trkpt lat="45.51649231680379" lon="9.074677831998146"><ele>144.0</ele><time>2026-04-19T08:21:46.991Z</time></trkpt><trkpt lat="45.51645989664209" lon="9.074770512965475"><ele>144.0</ele><time>2026-04-19T08:21:48.991Z</time></trkpt><trkpt lat="45.51641539052725" lon="9.074875223314406"><ele>144.0</ele><time>2026-04-19T08:21:50.991Z</time></trkpt><trkpt lat="45.51637009130726" lon="9.075003216021154"><ele>144.0</ele><time>2026-04-19T08:21:52.991Z</time></trkpt><trkpt lat="45.516351209260456" lon="9.07509340242909"><ele>144.2</ele><time>2026-04-19T08:21:54.991Z</time></trkpt><trkpt lat="45.51630885795009" lon="9.075229822877688"><ele>144.4</ele><time>2026-04-19T08:21:56.991Z</time></trkpt><trkpt lat="45.51625796691959" lon="9.07534288622695"><ele>144.6</ele><time>2026-04-19T08:21:58.991Z</time></trkpt><trkpt lat="45.51621648949464" lon="9.075426842325191"><ele>144.8</ele><time>2026-04-19T08:22:00.991Z</time></trkpt><trkpt lat="45.51617048262976" lon="9.075553165821981"><ele>145.0</ele><time>2026-04-19T08:22:02.991Z</time></trkpt><trkpt lat="45.51613132611704" lon="9.07567316217751"><ele>145.0</ele><time>2026-04-19T08:22:04.991Z</time></trkpt><trkpt lat="45.51609080674403" lon="9.075782692450298"><ele>145.0</ele><time>2026-04-19T08:22:06.991Z</time></trkpt><trkpt lat="45.51606302658087" lon="9.075904697171008"><ele>145.0</ele><time>2026-04-19T08:22:08.991Z</time></trkpt><trkpt lat="45.51603083938211" lon="9.076014240976788"><ele>145.0</ele><time>2026-04-19T08:22:10.991Z</time></trkpt><trkpt lat="45.51599450102622" lon="9.076120198529138"><ele>145.0</ele><time>2026-04-19T08:22:12.991Z</time></trkpt><trkpt lat="45.515904509839395" lon="9.07612815159287"><ele>145.0</ele><time>2026-04-19T08:22:13.991Z</time></trkpt><trkpt lat="45.515935609137635" lon="9.076285237109209"><ele>145.0</ele><time>2026-04-19T08:22:15.991Z</time></trkpt><trkpt lat="45.51590358219565" lon="9.076388750248203"><ele>145.0</ele><time>2026-04-19T08:22:17.991Z</time></trkpt><trkpt lat="45.51586927741425" lon="9.076478623341952"><ele>145.0</ele><time>2026-04-19T08:22:19.991Z</time></trkpt><trkpt lat="45.515925258635825" lon="9.076541913653415"><ele>145.0</ele><time>2026-04-19T08:22:23.991Z</time></trkpt><trkpt lat="45.516001522071676" lon="9.076579111739157"><ele>145.0</ele><time>2026-04-19T08:22:25.991Z</time></trkpt><trkpt lat="45.51605786122588" lon="9.076660135720774"><ele>145.0</ele><time>2026-04-19T08:22:27.991Z</time></trkpt><trkpt lat="45.516134298503765" lon="9.076665278862032"><ele>145.5</ele><time>2026-04-19T08:22:30.991Z</time></trkpt><trkpt lat="45.516118807782604" lon="9.076754879868432"><ele>146.0</ele><time>2026-04-19T08:22:37.991Z</time></trkpt><trkpt lat="45.517014435591214" lon="9.077359185997306"><ele>146.16666666666666</ele><time>2026-04-19T08:23:00.991Z</time></trkpt><trkpt lat="45.51708261599646" lon="9.077413987442931"><ele>146.33333333333331</ele><time>2026-04-19T08:23:02.991Z</time></trkpt><trkpt lat="45.517096479583905" lon="9.077533437514475"><ele>146.5</ele><time>2026-04-19T08:23:09.991Z</time></trkpt><trkpt lat="45.51710993882178" lon="9.077622776549585"><ele>146.66666666666666</ele><time>2026-04-19T08:23:10.992Z</time></trkpt><trkpt lat="45.517137753494275" lon="9.077715417425864"><ele>146.83333333333334</ele><time>2026-04-19T08:23:12.991Z</time></trkpt><trkpt lat="45.51708016894781" lon="9.077782395432763"><ele>147.0</ele><time>2026-04-19T08:23:18.991Z</time></trkpt><trkpt lat="45.51705376345425" lon="9.077892230719621"><ele>147.0</ele><time>2026-04-19T08:23:20.991Z</time></trkpt><trkpt lat="45.51705057753197" lon="9.078034075395482"><ele>147.0</ele><time>2026-04-19T08:23:23.991Z</time></trkpt><trkpt lat="45.517041199652674" lon="9.07813892801374"><ele>147.0</ele><time>2026-04-19T08:23:25.991Z</time></trkpt><trkpt lat="45.517005713523815" lon="9.078282156722073"><ele>147.0</ele><time>2026-04-19T08:23:27.991Z</time></trkpt><trkpt lat="45.51697005914804" lon="9.078410007616277"><ele>147.0</ele><time>2026-04-19T08:23:29.991Z</time></trkpt><trkpt lat="45.516959403660024" lon="9.078506918398242"><ele>147.0</ele><time>2026-04-19T08:23:32.991Z</time></trkpt><trkpt lat="45.51693142878223" lon="9.078588158042182"><ele>147.0</ele><time>2026-04-19T08:23:36.991Z</time></trkpt><trkpt lat="45.516986513253414" lon="9.078529648211148"><ele>147.0</ele><time>2026-04-19T08:23:40.991Z</time></trkpt><trkpt lat="45.51701815121793" lon="9.078451705102042"><ele>147.0</ele><time>2026-04-19T08:23:42.991Z</time></trkpt><trkpt lat="45.51704312300834" lon="9.07836279498218"><ele>147.0</ele><time>2026-04-19T08:23:44.991Z</time></trkpt><trkpt lat="45.51707749493375" lon="9.07826287534317"><ele>147.0</ele><time>2026-04-19T08:23:46.991Z</time></trkpt><trkpt lat="45.51711511785622" lon="9.078167327338964"><ele>147.0</ele><time>2026-04-19T08:23:48.991Z</time></trkpt><trkpt lat="45.51715975118267" lon="9.07805998889759"><ele>147.0</ele><time>2026-04-19T08:23:53.991Z</time></trkpt><trkpt lat="45.517191741365664" lon="9.077972174754876"><ele>147.0</ele><time>2026-04-19T08:23:55.991Z</time></trkpt><trkpt lat="45.51720871971313" lon="9.077862817041703"><ele>147.0</ele><time>2026-04-19T08:23:57.991Z</time></trkpt><trkpt lat="45.51718969594406" lon="9.077771153114918"><ele>147.0</ele><time>2026-04-19T08:23:59.991Z</time></trkpt><trkpt lat="45.517176290681306" lon="9.077658814273029"><ele>147.0</ele><time>2026-04-19T08:24:01.991Z</time></trkpt><trkpt lat="45.517131541065645" lon="9.077577100837019"><ele>147.0</ele><time>2026-04-19T08:24:04.991Z</time></trkpt><trkpt lat="45.517072487884214" lon="9.07751617961021"><ele>147.0</ele><time>2026-04-19T08:24:07.991Z</time></trkpt><trkpt lat="45.51702190558152" lon="9.077443698707375"><ele>147.0</ele><time>2026-04-19T08:24:09.991Z</time></trkpt><trkpt lat="45.516955135848825" lon="9.077377536557346"><ele>147.2</ele><time>2026-04-19T08:24:11.991Z</time></trkpt><trkpt lat="45.51688547849709" lon="9.077317781322575"><ele>147.39999999999998</ele><time>2026-04-19T08:24:13.991Z</time></trkpt><trkpt lat="45.51683347432392" lon="9.07721167432615"><ele>147.60000000000002</ele><time>2026-04-19T08:24:15.991Z</time></trkpt><trkpt lat="45.51673759401045" lon="9.077123929123411"><ele>147.8</ele><time>2026-04-19T08:24:17.991Z</time></trkpt><trkpt lat="45.51665541306159" lon="9.077091892859103"><ele>148.0</ele><time>2026-04-19T08:24:19.991Z</time></trkpt><trkpt lat="45.51656283161536" lon="9.077038813077339"><ele>148.0</ele><time>2026-04-19T08:24:21.991Z</time></trkpt><trkpt lat="45.51648601756467" lon="9.076960469705483"><ele>148.0</ele><time>2026-04-19T08:24:23.991Z</time></trkpt><trkpt lat="45.51641506283353" lon="9.076954160965926"><ele>148.0</ele><time>2026-04-19T08:24:25.991Z</time></trkpt><trkpt lat="45.516325068647674" lon="9.076845045037317"><ele>148.0</ele><time>2026-04-19T08:24:27.991Z</time></trkpt><trkpt lat="45.51625753172635" lon="9.076729550152146"><ele>148.0</ele><time>2026-04-19T08:24:29.991Z</time></trkpt><trkpt lat="45.51618403825527" lon="9.076661203938666"><ele>147.66666666666669</ele><time>2026-04-19T08:24:31.991Z</time></trkpt><trkpt lat="45.516116530831404" lon="9.076628664303502"><ele>147.33333333333334</ele><time>2026-04-19T08:24:33.991Z</time></trkpt><trkpt lat="45.5160290755348" lon="9.076634334603545"><ele>147.0</ele><time>2026-04-19T08:24:35.991Z</time></trkpt><trkpt lat="45.51595938379543" lon="9.076671059128165"><ele>146.66666666666666</ele><time>2026-04-19T08:24:37.991Z</time></trkpt><trkpt lat="45.51589795509209" lon="9.076698888561934"><ele>146.33333333333331</ele><time>2026-04-19T08:24:40.991Z</time></trkpt><trkpt lat="45.515837759738695" lon="9.076732472884956"><ele>146.0</ele><time>2026-04-19T08:24:43.991Z</time></trkpt><trkpt lat="45.51572010656083" lon="9.076827010634764"><ele>146.0</ele><time>2026-04-19T08:24:46.991Z</time></trkpt><trkpt lat="45.51564797437379" lon="9.076876314022599"><ele>146.0</ele><time>2026-04-19T08:24:47.991Z</time></trkpt><trkpt lat="45.51560481300544" lon="9.076975176367636"><ele>146.0</ele><time>2026-04-19T08:24:49.991Z</time></trkpt><trkpt lat="45.51555719497442" lon="9.077073090846273"><ele>146.0</ele><time>2026-04-19T08:24:51.991Z</time></trkpt><trkpt lat="45.51551941449627" lon="9.07719116086563"><ele>146.0</ele><time>2026-04-19T08:24:53.991Z</time></trkpt><trkpt lat="45.51546363022996" lon="9.077310112394716"><ele>146.0</ele><time>2026-04-19T08:24:55.991Z</time></trkpt><trkpt lat="45.51542512862123" lon="9.077417855789863"><ele>145.8</ele><time>2026-04-19T08:24:57.991Z</time></trkpt><trkpt lat="45.515399345107326" lon="9.077526591981325"><ele>145.6</ele><time>2026-04-19T08:24:59.991Z</time></trkpt><trkpt lat="45.51533842161335" lon="9.077614034622535"><ele>145.4</ele><time>2026-04-19T08:25:01.991Z</time></trkpt><trkpt lat="45.515284042066114" lon="9.077717117078363"><ele>145.2</ele><time>2026-04-19T08:25:03.991Z</time></trkpt><trkpt lat="45.515215053561775" lon="9.077834750884485"><ele>145.0</ele><time>2026-04-19T08:25:05.99Z</time></trkpt><trkpt lat="45.51517227025309" lon="9.077949473348198"><ele>145.0</ele><time>2026-04-19T08:25:07.99Z</time></trkpt><trkpt lat="45.515118354091555" lon="9.078060923662836"><ele>145.0</ele><time>2026-04-19T08:25:09.99Z</time></trkpt><trkpt lat="45.51507266060883" lon="9.078178100235759"><ele>145.0</ele><time>2026-04-19T08:25:11.99Z</time></trkpt><trkpt lat="45.51502769001032" lon="9.07829167953738"><ele>145.0</ele><time>2026-04-19T08:25:13.99Z</time></trkpt><trkpt lat="45.51497203139827" lon="9.078385419168253"><ele>145.0</ele><time>2026-04-19T08:25:15.99Z</time></trkpt><trkpt lat="45.514921187415744" lon="9.07850313904923"><ele>144.8</ele><time>2026-04-19T08:25:17.991Z</time></trkpt><trkpt lat="45.514874075468114" lon="9.07861072818024"><ele>144.6</ele><time>2026-04-19T08:25:19.99Z</time></trkpt><trkpt lat="45.51481596088307" lon="9.07873322126766"><ele>144.4</ele><time>2026-04-19T08:25:21.99Z</time></trkpt><trkpt lat="45.51476757613439" lon="9.078835976700658"><ele>144.2</ele><time>2026-04-19T08:25:23.991Z</time></trkpt><trkpt lat="45.51471781954998" lon="9.078943139350603"><ele>144.0</ele><time>2026-04-19T08:25:25.991Z</time></trkpt><trkpt lat="45.5146577472898" lon="9.079044240503952"><ele>144.16666666666666</ele><time>2026-04-19T08:25:27.991Z</time></trkpt><trkpt lat="45.5145876843735" lon="9.07914358161266"><ele>144.33333333333334</ele><time>2026-04-19T08:25:29.99Z</time></trkpt><trkpt lat="45.51454508892921" lon="9.079250191915172"><ele>144.5</ele><time>2026-04-19T08:25:31.99Z</time></trkpt><trkpt lat="45.51450074502941" lon="9.079359614954823"><ele>144.66666666666669</ele><time>2026-04-19T08:25:33.99Z</time></trkpt><trkpt lat="45.51445991155078" lon="9.079451848330171"><ele>144.83333333333334</ele><time>2026-04-19T08:25:35.99Z</time></trkpt><trkpt lat="45.51441230105299" lon="9.079557079380805"><ele>145.0</ele><time>2026-04-19T08:25:37.99Z</time></trkpt><trkpt lat="45.514373277929636" lon="9.079630071417998"><ele>145.16666666666669</ele><time>2026-04-19T08:25:39.99Z</time></trkpt><trkpt lat="45.51431479730981" lon="9.079710380058202"><ele>145.33333333333334</ele><time>2026-04-19T08:25:41.99Z</time></trkpt><trkpt lat="45.51426060172727" lon="9.079795512725614"><ele>145.5</ele><time>2026-04-19T08:25:43.99Z</time></trkpt><trkpt lat="45.51421455012852" lon="9.079908675874115"><ele>145.66666666666666</ele><time>2026-04-19T08:25:45.99Z</time></trkpt><trkpt lat="45.51418053155765" lon="9.080016004592354"><ele>145.83333333333331</ele><time>2026-04-19T08:25:47.99Z</time></trkpt><trkpt lat="45.514118547076016" lon="9.080112129101204"><ele>146.0</ele><time>2026-04-19T08:25:49.99Z</time></trkpt><trkpt lat="45.51406426342531" lon="9.08018606166878"><ele>145.6</ele><time>2026-04-19T08:25:51.99Z</time></trkpt><trkpt lat="45.51399531743571" lon="9.080297622302"><ele>145.2</ele><time>2026-04-19T08:25:53.99Z</time></trkpt><trkpt lat="45.51392787593535" lon="9.080392830537232"><ele>144.8</ele><time>2026-04-19T08:25:55.99Z</time></trkpt><trkpt lat="45.513862190100035" lon="9.080487221105722"><ele>144.4</ele><time>2026-04-19T08:25:57.99Z</time></trkpt><trkpt lat="45.513794045533004" lon="9.080583601901466"><ele>144.0</ele><time>2026-04-19T08:25:59.99Z</time></trkpt><trkpt lat="45.513886088738616" lon="9.080499908838481"><ele>144.0</ele><time>2026-04-19T08:26:02.133Z</time></trkpt><trkpt lat="45.513811830457534" lon="9.080547893746266"><ele>144.0</ele><time>2026-04-19T08:26:07.99Z</time></trkpt><trkpt lat="45.51374227982372" lon="9.08067439636762"><ele>144.0</ele><time>2026-04-19T08:26:08.99Z</time></trkpt><trkpt lat="45.51364009505917" lon="9.080880003347223"><ele>144.0</ele><time>2026-04-19T08:26:10.99Z</time></trkpt><trkpt lat="45.51358268748713" lon="9.080975448461293"><ele>143.8</ele><time>2026-04-19T08:26:11.99Z</time></trkpt><trkpt lat="45.513535168112135" lon="9.08107016752368"><ele>143.60000000000002</ele><time>2026-04-19T08:26:12.99Z</time></trkpt><trkpt lat="45.51348589643003" lon="9.081183427027932"><ele>143.4</ele><time>2026-04-19T08:26:14.99Z</time></trkpt><trkpt lat="45.513507450634485" lon="9.081341239244486"><ele>143.20000000000002</ele><time>2026-04-19T08:26:16.99Z</time></trkpt><trkpt lat="45.51350843512208" lon="9.081448061896692"><ele>143.0</ele><time>2026-04-19T08:26:18.99Z</time></trkpt><trkpt lat="45.51350996087247" lon="9.081581205327875"><ele>142.83333333333331</ele><time>2026-04-19T08:26:20.99Z</time></trkpt><trkpt lat="45.5134816429992" lon="9.081680671908343"><ele>142.66666666666666</ele><time>2026-04-19T08:26:22.99Z</time></trkpt><trkpt lat="45.513412152628966" lon="9.081667722775627"><ele>142.5</ele><time>2026-04-19T08:26:26.99Z</time></trkpt><trkpt lat="45.51334336768575" lon="9.081679998247576"><ele>142.33333333333334</ele><time>2026-04-19T08:26:27.99Z</time></trkpt><trkpt lat="45.51323795751666" lon="9.081772125381635"><ele>142.16666666666669</ele><time>2026-04-19T08:26:30.99Z</time></trkpt><trkpt lat="45.51319423068468" lon="9.081846857516137"><ele>142.0</ele><time>2026-04-19T08:26:31.99Z</time></trkpt><trkpt lat="45.51310488332039" lon="9.081934923346015"><ele>142.0</ele><time>2026-04-19T08:26:33.99Z</time></trkpt><trkpt lat="45.51303563573056" lon="9.08202376538279"><ele>142.0</ele><time>2026-04-19T08:26:35.99Z</time></trkpt><trkpt lat="45.51297283898028" lon="9.08215549960415"><ele>142.0</ele><time>2026-04-19T08:26:37.99Z</time></trkpt><trkpt lat="45.512911620571224" lon="9.082293614032098"><ele>142.0</ele><time>2026-04-19T08:26:39.99Z</time></trkpt><trkpt lat="45.512869267353885" lon="9.08236330633656"><ele>142.0</ele><time>2026-04-19T08:26:40.99Z</time></trkpt><trkpt lat="45.5128153630273" lon="9.082475102745008"><ele>142.0</ele><time>2026-04-19T08:26:42.99Z</time></trkpt><trkpt lat="45.512765958639015" lon="9.082586516901175"><ele>142.0</ele><time>2026-04-19T08:26:44.99Z</time></trkpt><trkpt lat="45.51272167211594" lon="9.082703168188587"><ele>142.0</ele><time>2026-04-19T08:26:46.99Z</time></trkpt><trkpt lat="45.51266253887907" lon="9.08274463785082"><ele>142.0</ele><time>2026-04-19T08:26:50.989Z</time></trkpt><trkpt lat="45.51269212283561" lon="9.082867610544982"><ele>142.0</ele><time>2026-04-19T08:26:54.989Z</time></trkpt><trkpt lat="45.51264697602856" lon="9.082984994579517"><ele>142.0</ele><time>2026-04-19T08:26:58.989Z</time></trkpt><trkpt lat="45.512617844036754" lon="9.083086561749276"><ele>142.0</ele><time>2026-04-19T08:27:00.989Z</time></trkpt><trkpt lat="45.512592273550034" lon="9.08317488679195"><ele>142.0</ele><time>2026-04-19T08:27:01.989Z</time></trkpt><trkpt lat="45.5125163751419" lon="9.083225899223951"><ele>142.0</ele><time>2026-04-19T08:27:03.989Z</time></trkpt><trkpt lat="45.51241828474461" lon="9.083261715349693"><ele>142.0</ele><time>2026-04-19T08:27:05.989Z</time></trkpt><trkpt lat="45.51236542183422" lon="9.083357355421438"><ele>142.0</ele><time>2026-04-19T08:27:07.989Z</time></trkpt><trkpt lat="45.51231920963554" lon="9.083466774033475"><ele>142.0</ele><time>2026-04-19T08:27:09.989Z</time></trkpt><trkpt lat="45.512273617771264" lon="9.083571345356765"><ele>142.0</ele><time>2026-04-19T08:27:11.989Z</time></trkpt><trkpt lat="45.51222317030253" lon="9.083664853801833"><ele>142.0</ele><time>2026-04-19T08:27:13.989Z</time></trkpt><trkpt lat="45.51217126994175" lon="9.083765630543772"><ele>142.0</ele><time>2026-04-19T08:27:15.989Z</time></trkpt><trkpt lat="45.51211385146723" lon="9.083802911579923"><ele>142.0</ele><time>2026-04-19T08:27:18.989Z</time></trkpt><trkpt lat="45.51208910502067" lon="9.083896094151674"><ele>142.0</ele><time>2026-04-19T08:27:20.989Z</time></trkpt><trkpt lat="45.51205967130512" lon="9.084000307896645"><ele>142.0</ele><time>2026-04-19T08:27:22.99Z</time></trkpt><trkpt lat="45.511995749097295" lon="9.084107060983248"><ele>142.16666666666669</ele><time>2026-04-19T08:27:25.99Z</time></trkpt><trkpt lat="45.51196263968721" lon="9.084202395003059"><ele>142.33333333333334</ele><time>2026-04-19T08:27:27.99Z</time></trkpt><trkpt lat="45.5119080818965" lon="9.08429498197177"><ele>142.5</ele><time>2026-04-19T08:27:29.99Z</time></trkpt><trkpt lat="45.511837217954366" lon="9.084355520115446"><ele>142.66666666666666</ele><time>2026-04-19T08:27:31.99Z</time></trkpt><trkpt lat="45.511738245979" lon="9.084419302258496"><ele>142.83333333333331</ele><time>2026-04-19T08:27:34.99Z</time></trkpt><trkpt lat="45.51167572654158" lon="9.084510060060499"><ele>143.0</ele><time>2026-04-19T08:27:36.991Z</time></trkpt><trkpt lat="45.511598634183414" lon="9.084601463764413"><ele>143.0</ele><time>2026-04-19T08:27:38.99Z</time></trkpt><trkpt lat="45.51154328901828" lon="9.08468375719133"><ele>143.0</ele><time>2026-04-19T08:27:41.99Z</time></trkpt><trkpt lat="45.5114667140372" lon="9.08476180417013"><ele>143.0</ele><time>2026-04-19T08:27:44.99Z</time></trkpt><trkpt lat="45.51143135623194" lon="9.084844545638925"><ele>143.0</ele><time>2026-04-19T08:27:46.99Z</time></trkpt><trkpt lat="45.511356012263846" lon="9.084936700933504"><ele>143.0</ele><time>2026-04-19T08:27:48.99Z</time></trkpt><trkpt lat="45.51131025503245" lon="9.08501306172426"><ele>143.0</ele><time>2026-04-19T08:27:50.99Z</time></trkpt><trkpt lat="45.51128112054462" lon="9.085096725011908"><ele>142.83333333333331</ele><time>2026-04-19T08:27:52.99Z</time></trkpt><trkpt lat="45.51125417613481" lon="9.085225755099136"><ele>142.66666666666666</ele><time>2026-04-19T08:27:55.99Z</time></trkpt><trkpt lat="45.511238893504235" lon="9.085316346114427"><ele>142.5</ele><time>2026-04-19T08:27:58.99Z</time></trkpt><trkpt lat="45.51120338603394" lon="9.085399939751811"><ele>142.33333333333334</ele><time>2026-04-19T08:28:00.99Z</time></trkpt><trkpt lat="45.51113789514692" lon="9.085426799335304"><ele>142.16666666666669</ele><time>2026-04-19T08:28:03.99Z</time></trkpt><trkpt lat="45.511085008171094" lon="9.085602953702296"><ele>142.0</ele><time>2026-04-19T08:28:05.99Z</time></trkpt><trkpt lat="45.511067572348026" lon="9.08569001869337"><ele>142.16666666666669</ele><time>2026-04-19T08:28:06.99Z</time></trkpt><trkpt lat="45.51102367995091" lon="9.085788815783781"><ele>142.33333333333334</ele><time>2026-04-19T08:28:08.99Z</time></trkpt><trkpt lat="45.510986995758756" lon="9.085909291442468"><ele>142.5</ele><time>2026-04-19T08:28:10.99Z</time></trkpt><trkpt lat="45.51094864902273" lon="9.08603268797616"><ele>142.66666666666666</ele><time>2026-04-19T08:28:12.99Z</time></trkpt><trkpt lat="45.51092246348246" lon="9.086126146570678"><ele>142.83333333333331</ele><time>2026-04-19T08:28:14.99Z</time></trkpt><trkpt lat="45.510879796432704" lon="9.086221824061436"><ele>143.0</ele><time>2026-04-19T08:28:16.99Z</time></trkpt><trkpt lat="45.5108154509881" lon="9.086329078141867"><ele>143.0</ele><time>2026-04-19T08:28:18.99Z</time></trkpt><trkpt lat="45.510754231613355" lon="9.086386897548437"><ele>143.0</ele><time>2026-04-19T08:28:20.99Z</time></trkpt><trkpt lat="45.510697977805975" lon="9.086445373067663"><ele>143.0</ele><time>2026-04-19T08:28:23.99Z</time></trkpt><trkpt lat="45.51062456499008" lon="9.086556954708719"><ele>143.0</ele><time>2026-04-19T08:28:27.99Z</time></trkpt><trkpt lat="45.510592651162035" lon="9.086650774760479"><ele>143.0</ele><time>2026-04-19T08:28:28.99Z</time></trkpt><trkpt lat="45.510544222344656" lon="9.086709218736733"><ele>143.0</ele><time>2026-04-19T08:28:29.99Z</time></trkpt><trkpt lat="45.51048970388135" lon="9.086802215797332"><ele>143.0</ele><time>2026-04-19T08:28:31.99Z</time></trkpt><trkpt lat="45.5104339586402" lon="9.08689407108657"><ele>143.0</ele><time>2026-04-19T08:28:33.99Z</time></trkpt><trkpt lat="45.510381366072224" lon="9.086984976061064"><ele>143.0</ele><time>2026-04-19T08:28:35.99Z</time></trkpt><trkpt lat="45.510316463390076" lon="9.087077969372597"><ele>143.0</ele><time>2026-04-19T08:28:37.99Z</time></trkpt><trkpt lat="45.510246394726394" lon="9.087113197502235"><ele>143.0</ele><time>2026-04-19T08:28:41.99Z</time></trkpt><trkpt lat="45.51020767794059" lon="9.087188124542385"><ele>143.0</ele><time>2026-04-19T08:28:42.99Z</time></trkpt><trkpt lat="45.51015979752612" lon="9.08727511585242"><ele>143.0</ele><time>2026-04-19T08:28:44.99Z</time></trkpt><trkpt lat="45.51013234280594" lon="9.087374086445195"><ele>143.0</ele><time>2026-04-19T08:28:46.99Z</time></trkpt><trkpt lat="45.51006531549547" lon="9.087490253125642"><ele>143.0</ele><time>2026-04-19T08:28:48.99Z</time></trkpt><trkpt lat="45.5099935778677" lon="9.087642641183741"><ele>143.0</ele><time>2026-04-19T08:28:50.99Z</time></trkpt><trkpt lat="45.50994071457404" lon="9.087776929279148"><ele>143.0</ele><time>2026-04-19T08:28:53.99Z</time></trkpt><trkpt lat="45.50987259096264" lon="9.087902702223541"><ele>142.8</ele><time>2026-04-19T08:28:55.99Z</time></trkpt><trkpt lat="45.50979151428169" lon="9.088049871303566"><ele>142.60000000000002</ele><time>2026-04-19T08:28:57.99Z</time></trkpt><trkpt lat="45.50975335081068" lon="9.088132264892183"><ele>142.39999999999998</ele><time>2026-04-19T08:28:58.99Z</time></trkpt><trkpt lat="45.50973045203122" lon="9.088228286735161"><ele>142.2</ele><time>2026-04-19T08:28:59.99Z</time></trkpt><trkpt lat="45.50968322178212" lon="9.088376630446634"><ele>142.0</ele><time>2026-04-19T08:29:01.99Z</time></trkpt><trkpt lat="45.5096493829147" lon="9.088459235875881"><ele>142.2</ele><time>2026-04-19T08:29:02.99Z</time></trkpt><trkpt lat="45.50959991438518" lon="9.088519697356787"><ele>142.39999999999998</ele><time>2026-04-19T08:29:03.99Z</time></trkpt><trkpt lat="45.50952187211142" lon="9.088615929327865"><ele>142.60000000000002</ele><time>2026-04-19T08:29:05.99Z</time></trkpt><trkpt lat="45.509456465239886" lon="9.088677668100456"><ele>142.8</ele><time>2026-04-19T08:29:07.99Z</time></trkpt><trkpt lat="45.50932910873579" lon="9.088637686584828"><ele>143.0</ele><time>2026-04-19T08:29:15.99Z</time></trkpt><trkpt lat="45.50933303583213" lon="9.088814633935016"><ele>143.0</ele><time>2026-04-19T08:29:17.99Z</time></trkpt><trkpt lat="45.5093125931076" lon="9.088901300787269"><ele>143.0</ele><time>2026-04-19T08:29:18.99Z</time></trkpt><trkpt lat="45.50926510498215" lon="9.08900986824629"><ele>143.0</ele><time>2026-04-19T08:29:22.989Z</time></trkpt><trkpt lat="45.509206147966474" lon="9.089125219206153"><ele>143.0</ele><time>2026-04-19T08:29:24.989Z</time></trkpt><trkpt lat="45.50912363962358" lon="9.089250034868433"><ele>143.0</ele><time>2026-04-19T08:29:27.989Z</time></trkpt><trkpt lat="45.50909173189265" lon="9.089344982597146"><ele>143.0</ele><time>2026-04-19T08:29:28.989Z</time></trkpt><trkpt lat="45.50906136736701" lon="9.089426677790074"><ele>143.0</ele><time>2026-04-19T08:29:29.99Z</time></trkpt><trkpt lat="45.508995813551564" lon="9.089574675519419"><ele>143.0</ele><time>2026-04-19T08:29:31.99Z</time></trkpt><trkpt lat="45.50893186164295" lon="9.08972337693037"><ele>143.0</ele><time>2026-04-19T08:29:33.99Z</time></trkpt><trkpt lat="45.50887377820428" lon="9.0898412029755"><ele>143.0</ele><time>2026-04-19T08:29:35.989Z</time></trkpt><trkpt lat="45.508827823554746" lon="9.089947123298806"><ele>143.0</ele><time>2026-04-19T08:29:37.989Z</time></trkpt><trkpt lat="45.50876002389375" lon="9.090037519322673"><ele>143.0</ele><time>2026-04-19T08:29:39.99Z</time></trkpt><trkpt lat="45.508711127790484" lon="9.090123700678589"><ele>143.0</ele><time>2026-04-19T08:29:41.99Z</time></trkpt><trkpt lat="45.508698848303005" lon="9.090257827377151"><ele>143.0</ele><time>2026-04-19T08:29:43.99Z</time></trkpt><trkpt lat="45.50867378652" lon="9.090386644606035"><ele>143.0</ele><time>2026-04-19T08:29:45.99Z</time></trkpt><trkpt lat="45.508623253973745" lon="9.090455137425058"><ele>143.0</ele><time>2026-04-19T08:29:48.99Z</time></trkpt><trkpt lat="45.508596035880444" lon="9.09056767860531"><ele>143.0</ele><time>2026-04-19T08:29:51.99Z</time></trkpt><trkpt lat="45.50857728813315" lon="9.090667105587698"><ele>142.8</ele><time>2026-04-19T08:29:52.99Z</time></trkpt><trkpt lat="45.50851993403848" lon="9.090790395270377"><ele>142.60000000000002</ele><time>2026-04-19T08:29:54.99Z</time></trkpt><trkpt lat="45.50849890460432" lon="9.090877433881465"><ele>142.39999999999998</ele><time>2026-04-19T08:29:55.99Z</time></trkpt><trkpt lat="45.508481284660576" lon="9.091014756762007"><ele>142.2</ele><time>2026-04-19T08:29:57.99Z</time></trkpt><trkpt lat="45.508448188053364" lon="9.09115832570251"><ele>142.0</ele><time>2026-04-19T08:29:59.99Z</time></trkpt><trkpt lat="45.50842078665605" lon="9.091269688758242"><ele>142.0</ele><time>2026-04-19T08:30:01.99Z</time></trkpt><trkpt lat="45.5083946934096" lon="9.09137299946526"><ele>142.0</ele><time>2026-04-19T08:30:03.99Z</time></trkpt><trkpt lat="45.50836991097824" lon="9.091523878850863"><ele>142.0</ele><time>2026-04-19T08:30:05.99Z</time></trkpt><trkpt lat="45.508364218775846" lon="9.091621528091556"><ele>142.0</ele><time>2026-04-19T08:30:06.99Z</time></trkpt><trkpt lat="45.50833630561655" lon="9.091764326173436"><ele>142.0</ele><time>2026-04-19T08:30:08.99Z</time></trkpt><trkpt lat="45.50829964918131" lon="9.091929933347235"><ele>142.0</ele><time>2026-04-19T08:30:10.99Z</time></trkpt><trkpt lat="45.508279488508045" lon="9.092043048614272"><ele>142.0</ele><time>2026-04-19T08:30:12.989Z</time></trkpt><trkpt lat="45.508239418802" lon="9.092177973597778"><ele>142.0</ele><time>2026-04-19T08:30:14.989Z</time></trkpt><trkpt lat="45.50823547584531" lon="9.09229853250656"><ele>142.0</ele><time>2026-04-19T08:30:16.989Z</time></trkpt><trkpt lat="45.508250525873564" lon="9.092437270474099"><ele>142.0</ele><time>2026-04-19T08:30:19.989Z</time></trkpt><trkpt lat="45.50819944593904" lon="9.092527691713912"><ele>142.0</ele><time>2026-04-19T08:30:21.989Z</time></trkpt><trkpt lat="45.508142257213485" lon="9.092638100317988"><ele>142.16666666666669</ele><time>2026-04-19T08:30:23.989Z</time></trkpt><trkpt lat="45.50807814007932" lon="9.092732235159255"><ele>142.33333333333334</ele><time>2026-04-19T08:30:25.989Z</time></trkpt><trkpt lat="45.50800768593174" lon="9.092828711004229"><ele>142.5</ele><time>2026-04-19T08:30:28.989Z</time></trkpt><trkpt lat="45.50795774109045" lon="9.092884390312573"><ele>142.66666666666666</ele><time>2026-04-19T08:30:30.989Z</time></trkpt><trkpt lat="45.507897993609426" lon="9.092946082722339"><ele>142.83333333333331</ele><time>2026-04-19T08:30:33.989Z</time></trkpt><trkpt lat="45.50785626987537" lon="9.093048400162576"><ele>143.0</ele><time>2026-04-19T08:30:35.989Z</time></trkpt><trkpt lat="45.507826140937446" lon="9.093180539019189"><ele>142.28571428571428</ele><time>2026-04-19T08:30:37.989Z</time></trkpt><trkpt lat="45.507801418052225" lon="9.093263970441164"><ele>141.57142857142856</ele><time>2026-04-19T08:30:39.989Z</time></trkpt><trkpt lat="45.50776549188394" lon="9.093343738081877"><ele>140.85714285714286</ele><time>2026-04-19T08:30:42.989Z</time></trkpt><trkpt lat="45.50776899428318" lon="9.093452081241665"><ele>140.14285714285714</ele><time>2026-04-19T08:30:45.989Z</time></trkpt><trkpt lat="45.50772099212958" lon="9.093556648938149"><ele>139.42857142857144</ele><time>2026-04-19T08:30:47.989Z</time></trkpt><trkpt lat="45.50768965325138" lon="9.09367652967589"><ele>138.71428571428572</ele><time>2026-04-19T08:30:49.989Z</time></trkpt><trkpt lat="45.50767231198233" lon="9.093766429038114"><ele>138.0</ele><time>2026-04-19T08:30:50.989Z</time></trkpt><trkpt lat="45.507659989267204" lon="9.09387160210552"><ele>138.0</ele><time>2026-04-19T08:30:51.989Z</time></trkpt><trkpt lat="45.507640845123234" lon="9.093957715052134"><ele>138.0</ele><time>2026-04-19T08:30:52.989Z</time></trkpt><trkpt lat="45.50762589903819" lon="9.09408809866562"><ele>138.0</ele><time>2026-04-19T08:30:54.989Z</time></trkpt><trkpt lat="45.50761141247102" lon="9.094179564349025"><ele>138.0</ele><time>2026-04-19T08:30:55.989Z</time></trkpt><trkpt lat="45.5075940934511" lon="9.094335072197822"><ele>138.0</ele><time>2026-04-19T08:30:57.989Z</time></trkpt><trkpt lat="45.50756633820763" lon="9.09449715174982"><ele>138.0</ele><time>2026-04-19T08:30:59.989Z</time></trkpt><trkpt lat="45.50754689388138" lon="9.094595305777375"><ele>138.25</ele><time>2026-04-19T08:31:00.989Z</time></trkpt><trkpt lat="45.507522088615055" lon="9.094772610462666"><ele>138.5</ele><time>2026-04-19T08:31:02.989Z</time></trkpt><trkpt lat="45.507501925902396" lon="9.09494009581779"><ele>138.75</ele><time>2026-04-19T08:31:04.989Z</time></trkpt><trkpt lat="45.50748370440123" lon="9.095076754252666"><ele>139.0</ele><time>2026-04-19T08:31:06.989Z</time></trkpt><trkpt lat="45.50743779136898" lon="9.095218131390736"><ele>139.0</ele><time>2026-04-19T08:31:08.989Z</time></trkpt><trkpt lat="45.50739163854034" lon="9.095330098283462"><ele>139.0</ele><time>2026-04-19T08:31:10.989Z</time></trkpt><trkpt lat="45.50737890701756" lon="9.095458256776924"><ele>139.0</ele><time>2026-04-19T08:31:12.989Z</time></trkpt><trkpt lat="45.50735092878239" lon="9.095600366296514"><ele>139.0</ele><time>2026-04-19T08:31:14.989Z</time></trkpt><trkpt lat="45.507338461990045" lon="9.095709911616805"><ele>139.0</ele><time>2026-04-19T08:31:16.989Z</time></trkpt><trkpt lat="45.50729583762426" lon="9.09584564770671"><ele>139.0</ele><time>2026-04-19T08:31:18.989Z</time></trkpt><trkpt lat="45.507266611689836" lon="9.095943973380253"><ele>139.0</ele><time>2026-04-19T08:31:20.989Z</time></trkpt><trkpt lat="45.507236903113366" lon="9.096076598484926"><ele>139.0</ele><time>2026-04-19T08:31:22.989Z</time></trkpt><trkpt lat="45.507211966356415" lon="9.096198413888155"><ele>139.0</ele><time>2026-04-19T08:31:24.989Z</time></trkpt><trkpt lat="45.507179844538136" lon="9.096328515038328"><ele>139.0</ele><time>2026-04-19T08:31:26.989Z</time></trkpt><trkpt lat="45.507146922480004" lon="9.09646270065053"><ele>139.0</ele><time>2026-04-19T08:31:28.989Z</time></trkpt><trkpt lat="45.50712670609669" lon="9.096586479737853"><ele>139.0</ele><time>2026-04-19T08:31:30.989Z</time></trkpt><trkpt lat="45.50710177291294" lon="9.096717262954273"><ele>139.0</ele><time>2026-04-19T08:31:32.989Z</time></trkpt><trkpt lat="45.50708136606067" lon="9.09685147444847"><ele>139.0</ele><time>2026-04-19T08:31:34.99Z</time></trkpt><trkpt lat="45.50705745757786" lon="9.096973071741235"><ele>139.0</ele><time>2026-04-19T08:31:36.989Z</time></trkpt><trkpt lat="45.50703033813292" lon="9.097112051741554"><ele>139.0</ele><time>2026-04-19T08:31:38.989Z</time></trkpt><trkpt lat="45.507004910282475" lon="9.097244726284444"><ele>139.0</ele><time>2026-04-19T08:31:40.99Z</time></trkpt><trkpt lat="45.5069750512154" lon="9.097358670634724"><ele>139.0</ele><time>2026-04-19T08:31:42.989Z</time></trkpt><trkpt lat="45.50696026940851" lon="9.097452610892635"><ele>139.0</ele><time>2026-04-19T08:31:44.99Z</time></trkpt><trkpt lat="45.50695906403906" lon="9.097575665561358"><ele>139.0</ele><time>2026-04-19T08:31:46.989Z</time></trkpt><trkpt lat="45.50697156214229" lon="9.097667488854652"><ele>139.0</ele><time>2026-04-19T08:31:48.989Z</time></trkpt><trkpt lat="45.50706785809093" lon="9.097689783404329"><ele>139.0</ele><time>2026-04-19T08:31:51.989Z</time></trkpt><trkpt lat="45.50715575007342" lon="9.09770861963802"><ele>139.0</ele><time>2026-04-19T08:31:53.989Z</time></trkpt><trkpt lat="45.50723524568541" lon="9.097670827490775"><ele>139.0</ele><time>2026-04-19T08:31:55.989Z</time></trkpt><trkpt lat="45.507297140305354" lon="9.097611257061633"><ele>139.0</ele><time>2026-04-19T08:31:57.989Z</time></trkpt><trkpt lat="45.50741855920049" lon="9.097581492326679"><ele>139.0</ele><time>2026-04-19T08:32:00.989Z</time></trkpt><trkpt lat="45.507488096136456" lon="9.097537939711174"><ele>139.0</ele><time>2026-04-19T08:32:02.989Z</time></trkpt><trkpt lat="45.50755763325509" lon="9.097505070628992"><ele>139.0</ele><time>2026-04-19T08:32:05.989Z</time></trkpt><trkpt lat="45.50764163817234" lon="9.097498359032269"><ele>139.0</ele><time>2026-04-19T08:32:08.989Z</time></trkpt><trkpt lat="45.5077419437768" lon="9.097473603452912"><ele>139.0</ele><time>2026-04-19T08:32:10.989Z</time></trkpt><trkpt lat="45.50781516224557" lon="9.097437071948619"><ele>139.0</ele><time>2026-04-19T08:32:12.989Z</time></trkpt><trkpt lat="45.50788610879604" lon="9.097418426191432"><ele>139.0</ele><time>2026-04-19T08:32:14.989Z</time></trkpt><trkpt lat="45.50798226795546" lon="9.09737064966014"><ele>139.0</ele><time>2026-04-19T08:32:17.988Z</time></trkpt><trkpt lat="45.50807136944049" lon="9.097352296784354"><ele>139.2</ele><time>2026-04-19T08:32:19.988Z</time></trkpt><trkpt lat="45.50816762704074" lon="9.097308023102366"><ele>139.4</ele><time>2026-04-19T08:32:21.988Z</time></trkpt><trkpt lat="45.5082449834068" lon="9.09728389257217"><ele>139.6</ele><time>2026-04-19T08:32:23.988Z</time></trkpt><trkpt lat="45.508335873907946" lon="9.097256686170148"><ele>139.8</ele><time>2026-04-19T08:32:25.988Z</time></trkpt><trkpt lat="45.50840461227002" lon="9.097194539973623"><ele>140.0</ele><time>2026-04-19T08:32:27.988Z</time></trkpt><trkpt lat="45.50850758972448" lon="9.09717156691676"><ele>140.0</ele><time>2026-04-19T08:32:29.988Z</time></trkpt><trkpt lat="45.50857414904423" lon="9.097150024206746"><ele>140.0</ele><time>2026-04-19T08:32:31.988Z</time></trkpt><trkpt lat="45.508631401344" lon="9.097096608370057"><ele>140.0</ele><time>2026-04-19T08:32:33.988Z</time></trkpt><trkpt lat="45.508693478275156" lon="9.097057183392478"><ele>140.0</ele><time>2026-04-19T08:32:35.988Z</time></trkpt><trkpt lat="45.50875859007894" lon="9.097023993088309"><ele>140.0</ele><time>2026-04-19T08:32:37.988Z</time></trkpt><trkpt lat="45.50885108360149" lon="9.096998286854943"><ele>140.0</ele><time>2026-04-19T08:32:40.988Z</time></trkpt><trkpt lat="45.50892683229444" lon="9.096961044993726"><ele>140.0</ele><time>2026-04-19T08:32:42.988Z</time></trkpt><trkpt lat="45.50901596530044" lon="9.09692448461079"><ele>140.6</ele><time>2026-04-19T08:32:44.988Z</time></trkpt><trkpt lat="45.509105162889796" lon="9.096889627224325"><ele>141.2</ele><time>2026-04-19T08:32:46.988Z</time></trkpt><trkpt lat="45.50917296832793" lon="9.09687517848839"><ele>141.8</ele><time>2026-04-19T08:32:48.988Z</time></trkpt><trkpt lat="45.509240599126876" lon="9.096887528045622"><ele>142.4</ele><time>2026-04-19T08:32:50.988Z</time></trkpt><trkpt lat="45.50937639307258" lon="9.09687901040314"><ele>143.0</ele><time>2026-04-19T08:32:54.988Z</time></trkpt><trkpt lat="45.50946188667345" lon="9.096852373643866"><ele>143.0</ele><time>2026-04-19T08:32:57.988Z</time></trkpt><trkpt lat="45.50940185329436" lon="9.09688807315863"><ele>143.0</ele><time>2026-04-19T08:33:10.988Z</time></trkpt><trkpt lat="45.50932362645522" lon="9.096884589663542"><ele>143.0</ele><time>2026-04-19T08:33:13.988Z</time></trkpt><trkpt lat="45.509247295548576" lon="9.096832275259047"><ele>143.0</ele><time>2026-04-19T08:33:15.988Z</time></trkpt><trkpt lat="45.5091409477857" lon="9.096809333279783"><ele>143.0</ele><time>2026-04-19T08:33:17.988Z</time></trkpt><trkpt lat="45.50908276072898" lon="9.096918904836897"><ele>143.0</ele><time>2026-04-19T08:33:20.988Z</time></trkpt><trkpt lat="45.509055630456174" lon="9.097004747757266"><ele>143.0</ele><time>2026-04-19T08:33:22.988Z</time></trkpt><trkpt lat="45.50899580405189" lon="9.097082329505227"><ele>143.0</ele><time>2026-04-19T08:33:25.988Z</time></trkpt><trkpt lat="45.50891987439274" lon="9.09717001941149"><ele>143.0</ele><time>2026-04-19T08:33:29.988Z</time></trkpt><trkpt lat="45.50886644124162" lon="9.097230727060824"><ele>143.0</ele><time>2026-04-19T08:33:31.988Z</time></trkpt><trkpt lat="45.50876129928315" lon="9.097282542450271"><ele>143.0</ele><time>2026-04-19T08:33:33.988Z</time></trkpt><trkpt lat="45.50869410899901" lon="9.097292876937075"><ele>143.0</ele><time>2026-04-19T08:33:34.988Z</time></trkpt><trkpt lat="45.508623519218155" lon="9.097296947337433"><ele>142.6</ele><time>2026-04-19T08:33:35.988Z</time></trkpt><trkpt lat="45.508521093987845" lon="9.09732151130622"><ele>142.20000000000002</ele><time>2026-04-19T08:33:37.988Z</time></trkpt><trkpt lat="45.50840712538911" lon="9.097354410884268"><ele>141.8</ele><time>2026-04-19T08:33:39.988Z</time></trkpt><trkpt lat="45.50829806690598" lon="9.09737845612268"><ele>141.4</ele><time>2026-04-19T08:33:41.989Z</time></trkpt><trkpt lat="45.50818950637518" lon="9.097421742140277"><ele>141.0</ele><time>2026-04-19T08:33:43.989Z</time></trkpt><trkpt lat="45.50808426724258" lon="9.097459543365806"><ele>141.0</ele><time>2026-04-19T08:33:45.988Z</time></trkpt><trkpt lat="45.50798966284831" lon="9.09748863863224"><ele>141.0</ele><time>2026-04-19T08:33:47.989Z</time></trkpt><trkpt lat="45.50789739277811" lon="9.097507764668515"><ele>141.0</ele><time>2026-04-19T08:33:49.989Z</time></trkpt><trkpt lat="45.50779310380898" lon="9.097539673177547"><ele>141.0</ele><time>2026-04-19T08:33:51.989Z</time></trkpt><trkpt lat="45.50772237428857" lon="9.097546385848796"><ele>141.0</ele><time>2026-04-19T08:33:52.988Z</time></trkpt><trkpt lat="45.50765623220121" lon="9.09756372159122"><ele>141.0</ele><time>2026-04-19T08:33:53.989Z</time></trkpt><trkpt lat="45.50755000435492" lon="9.097601382930822"><ele>140.6</ele><time>2026-04-19T08:33:55.989Z</time></trkpt><trkpt lat="45.5074460411568" lon="9.097615280054873"><ele>140.2</ele><time>2026-04-19T08:33:58.989Z</time></trkpt><trkpt lat="45.50737371041611" lon="9.097642299660423"><ele>139.8</ele><time>2026-04-19T08:33:59.989Z</time></trkpt><trkpt lat="45.50730415263493" lon="9.097650203214569"><ele>139.4</ele><time>2026-04-19T08:34:00.989Z</time></trkpt><trkpt lat="45.50717816378319" lon="9.097683458259347"><ele>139.0</ele><time>2026-04-19T08:34:02.989Z</time></trkpt><trkpt lat="45.50708804137263" lon="9.09771598953493"><ele>138.83333333333334</ele><time>2026-04-19T08:34:04.989Z</time></trkpt><trkpt lat="45.50703214762443" lon="9.097759656383575"><ele>138.66666666666669</ele><time>2026-04-19T08:34:11.989Z</time></trkpt><trkpt lat="45.50698176007531" lon="9.097841878155492"><ele>138.5</ele><time>2026-04-19T08:34:13.989Z</time></trkpt><trkpt lat="45.50693831943015" lon="9.097930779355691"><ele>138.33333333333334</ele><time>2026-04-19T08:34:15.989Z</time></trkpt><trkpt lat="45.50686451388139" lon="9.097941089983317"><ele>138.16666666666666</ele><time>2026-04-19T08:34:18.989Z</time></trkpt><trkpt lat="45.50679737517721" lon="9.097995707344156"><ele>138.0</ele><time>2026-04-19T08:34:20.989Z</time></trkpt><trkpt lat="45.50671439751712" lon="9.098106654264134"><ele>138.0</ele><time>2026-04-19T08:34:22.989Z</time></trkpt><trkpt lat="45.506671608609636" lon="9.09823704101884"><ele>138.0</ele><time>2026-04-19T08:34:24.989Z</time></trkpt><trkpt lat="45.506642719949454" lon="9.09835876238963"><ele>138.0</ele><time>2026-04-19T08:34:26.989Z</time></trkpt><trkpt lat="45.506623056986236" lon="9.098483706854728"><ele>138.0</ele><time>2026-04-19T08:34:28.989Z</time></trkpt><trkpt lat="45.506586758259786" lon="9.098621810430037"><ele>138.0</ele><time>2026-04-19T08:34:30.989Z</time></trkpt><trkpt lat="45.50654792271737" lon="9.098749382911285"><ele>138.20000000000002</ele><time>2026-04-19T08:34:32.989Z</time></trkpt><trkpt lat="45.50649364368049" lon="9.098847239422012"><ele>138.4</ele><time>2026-04-19T08:34:34.989Z</time></trkpt><trkpt lat="45.5064681176219" lon="9.098976205541037"><ele>138.60000000000002</ele><time>2026-04-19T08:34:36.989Z</time></trkpt><trkpt lat="45.50641968419846" lon="9.09911132245309"><ele>138.8</ele><time>2026-04-19T08:34:38.989Z</time></trkpt><trkpt lat="45.50639254526549" lon="9.099209069234563"><ele>139.0</ele><time>2026-04-19T08:34:40.989Z</time></trkpt><trkpt lat="45.50635283530538" lon="9.099358787940645"><ele>139.0</ele><time>2026-04-19T08:34:42.989Z</time></trkpt><trkpt lat="45.50631472719529" lon="9.099493344571869"><ele>139.0</ele><time>2026-04-19T08:34:44.988Z</time></trkpt><trkpt lat="45.506278098065266" lon="9.099575965708146"><ele>139.0</ele><time>2026-04-19T08:34:46.988Z</time></trkpt><trkpt lat="45.50626118477544" lon="9.099723083128719"><ele>139.0</ele><time>2026-04-19T08:34:48.988Z</time></trkpt><trkpt lat="45.50623161918521" lon="9.099853372201038"><ele>139.0</ele><time>2026-04-19T08:34:50.988Z</time></trkpt><trkpt lat="45.50620195181453" lon="9.099986789295814"><ele>138.8</ele><time>2026-04-19T08:34:52.988Z</time></trkpt><trkpt lat="45.5061581702376" lon="9.100131786873133"><ele>138.60000000000002</ele><time>2026-04-19T08:34:54.988Z</time></trkpt><trkpt lat="45.506138362054905" lon="9.100268794266876"><ele>138.4</ele><time>2026-04-19T08:34:56.988Z</time></trkpt><trkpt lat="45.506124828635386" lon="9.100405026210817"><ele>138.20000000000002</ele><time>2026-04-19T08:34:58.988Z</time></trkpt><trkpt lat="45.50607520505234" lon="9.100524780066237"><ele>138.0</ele><time>2026-04-19T08:35:00.988Z</time></trkpt><trkpt lat="45.50603321979347" lon="9.100652995789881"><ele>137.83333333333334</ele><time>2026-04-19T08:35:02.988Z</time></trkpt><trkpt lat="45.505980447107916" lon="9.10075188484757"><ele>137.66666666666666</ele><time>2026-04-19T08:35:04.988Z</time></trkpt><trkpt lat="45.50595616804588" lon="9.10087816913445"><ele>137.5</ele><time>2026-04-19T08:35:06.988Z</time></trkpt><trkpt lat="45.50593787236582" lon="9.100983758585242"><ele>137.33333333333331</ele><time>2026-04-19T08:35:09.988Z</time></trkpt><trkpt lat="45.505902184187626" lon="9.10114145610602"><ele>137.16666666666666</ele><time>2026-04-19T08:35:11.988Z</time></trkpt><trkpt lat="45.50587505969623" lon="9.101244242700563"><ele>137.0</ele><time>2026-04-19T08:35:12.988Z</time></trkpt><trkpt lat="45.50584709296653" lon="9.101357960062943"><ele>137.0</ele><time>2026-04-19T08:35:14.988Z</time></trkpt><trkpt lat="45.5058120373924" lon="9.10150016120166"><ele>137.0</ele><time>2026-04-19T08:35:16.988Z</time></trkpt><trkpt lat="45.505784021849315" lon="9.101620838525964"><ele>137.0</ele><time>2026-04-19T08:35:18.988Z</time></trkpt><trkpt lat="45.50575787438124" lon="9.101748412303975"><ele>137.0</ele><time>2026-04-19T08:35:20.988Z</time></trkpt><trkpt lat="45.505708429455616" lon="9.101842881673239"><ele>137.0</ele><time>2026-04-19T08:35:22.988Z</time></trkpt><trkpt lat="45.5056797301379" lon="9.101961855653535"><ele>137.0</ele><time>2026-04-19T08:35:24.988Z</time></trkpt><trkpt lat="45.50565052281196" lon="9.102122287344963"><ele>137.0</ele><time>2026-04-19T08:35:26.988Z</time></trkpt><trkpt lat="45.50561284783879" lon="9.102251863858578"><ele>137.0</ele><time>2026-04-19T08:35:28.988Z</time></trkpt><trkpt lat="45.50557984952523" lon="9.102355776211706"><ele>137.0</ele><time>2026-04-19T08:35:30.988Z</time></trkpt><trkpt lat="45.5055451121872" lon="9.102483898315757"><ele>137.0</ele><time>2026-04-19T08:35:32.988Z</time></trkpt><trkpt lat="45.50550860945624" lon="9.102618035975494"><ele>137.0</ele><time>2026-04-19T08:35:34.988Z</time></trkpt><trkpt lat="45.5054784002491" lon="9.102713142342525"><ele>137.0</ele><time>2026-04-19T08:35:36.988Z</time></trkpt><trkpt lat="45.50546406794132" lon="9.102862458360862"><ele>137.0</ele><time>2026-04-19T08:35:38.988Z</time></trkpt><trkpt lat="45.50544348631912" lon="9.103010564795243"><ele>137.0</ele><time>2026-04-19T08:35:40.988Z</time></trkpt><trkpt lat="45.50540799297643" lon="9.103145337822781"><ele>137.0</ele><time>2026-04-19T08:35:42.988Z</time></trkpt><trkpt lat="45.50540102164872" lon="9.103277933570428"><ele>137.16666666666666</ele><time>2026-04-19T08:35:44.988Z</time></trkpt><trkpt lat="45.505359091312634" lon="9.103411552087302"><ele>137.33333333333331</ele><time>2026-04-19T08:35:46.988Z</time></trkpt><trkpt lat="45.50532600857292" lon="9.103498764630114"><ele>137.5</ele><time>2026-04-19T08:35:48.988Z</time></trkpt><trkpt lat="45.50527209887456" lon="9.103626770657062"><ele>137.66666666666666</ele><time>2026-04-19T08:35:50.989Z</time></trkpt><trkpt lat="45.50526438794272" lon="9.103717801283294"><ele>137.83333333333334</ele><time>2026-04-19T08:35:52.989Z</time></trkpt><trkpt lat="45.505237839601484" lon="9.103833073110136"><ele>138.0</ele><time>2026-04-19T08:35:56.988Z</time></trkpt><trkpt lat="45.50520801034348" lon="9.103961228433441"><ele>137.6</ele><time>2026-04-19T08:35:58.989Z</time></trkpt><trkpt lat="45.5051718503154" lon="9.104102767742704"><ele>137.20000000000002</ele><time>2026-04-19T08:36:00.988Z</time></trkpt><trkpt lat="45.50513374294543" lon="9.104219340551964"><ele>136.8</ele><time>2026-04-19T08:36:02.988Z</time></trkpt><trkpt lat="45.505102532683324" lon="9.104353894379804"><ele>136.4</ele><time>2026-04-19T08:36:04.988Z</time></trkpt><trkpt lat="45.505064265574894" lon="9.104508330424087"><ele>136.0</ele><time>2026-04-19T08:36:06.988Z</time></trkpt><trkpt lat="45.505032554468976" lon="9.104625585059592"><ele>136.0</ele><time>2026-04-19T08:36:08.988Z</time></trkpt><trkpt lat="45.50499913553679" lon="9.104754798461705"><ele>136.0</ele><time>2026-04-19T08:36:10.988Z</time></trkpt><trkpt lat="45.504966368958925" lon="9.10488871423224"><ele>136.0</ele><time>2026-04-19T08:36:12.988Z</time></trkpt><trkpt lat="45.5049104569159" lon="9.105019992929169"><ele>136.0</ele><time>2026-04-19T08:36:14.988Z</time></trkpt><trkpt lat="45.50487551251208" lon="9.105128401759554"><ele>136.0</ele><time>2026-04-19T08:36:16.988Z</time></trkpt><trkpt lat="45.50483622042423" lon="9.105222367429398"><ele>136.0</ele><time>2026-04-19T08:36:18.988Z</time></trkpt><trkpt lat="45.50485972744866" lon="9.105328906494883"><ele>136.0</ele><time>2026-04-19T08:36:20.988Z</time></trkpt><trkpt lat="45.50481661674833" lon="9.105474604436319"><ele>136.0</ele><time>2026-04-19T08:36:22.988Z</time></trkpt><trkpt lat="45.504779374653886" lon="9.105603634287057"><ele>136.0</ele><time>2026-04-19T08:36:24.988Z</time></trkpt><trkpt lat="45.5047555357184" lon="9.105731081028914"><ele>136.0</ele><time>2026-04-19T08:36:26.988Z</time></trkpt><trkpt lat="45.504731889747525" lon="9.105825588654348"><ele>136.0</ele><time>2026-04-19T08:36:27.988Z</time></trkpt><trkpt lat="45.504688654370824" lon="9.105960784751979"><ele>136.0</ele><time>2026-04-19T08:36:29.988Z</time></trkpt><trkpt lat="45.504648972707365" lon="9.106063823384643"><ele>136.0</ele><time>2026-04-19T08:36:31.988Z</time></trkpt><trkpt lat="45.504584005635394" lon="9.106154619062917"><ele>136.0</ele><time>2026-04-19T08:36:33.988Z</time></trkpt><trkpt lat="45.50462210824203" lon="9.106321328200558"><ele>136.0</ele><time>2026-04-19T08:36:35.988Z</time></trkpt><trkpt lat="45.50457394726112" lon="9.106470940960708"><ele>136.2</ele><time>2026-04-19T08:36:37.988Z</time></trkpt><trkpt lat="45.504558324682826" lon="9.106563498702716"><ele>136.39999999999998</ele><time>2026-04-19T08:36:38.988Z</time></trkpt><trkpt lat="45.50453755045802" lon="9.106697152494704"><ele>136.6</ele><time>2026-04-19T08:36:40.988Z</time></trkpt><trkpt lat="45.50452003715225" lon="9.10682998232095"><ele>136.79999999999998</ele><time>2026-04-19T08:36:42.988Z</time></trkpt><trkpt lat="45.504488497568715" lon="9.106959759556759"><ele>137.0</ele><time>2026-04-19T08:36:44.988Z</time></trkpt><trkpt lat="45.50445609359603" lon="9.107093093511994"><ele>137.0</ele><time>2026-04-19T08:36:46.988Z</time></trkpt><trkpt lat="45.50439858208116" lon="9.107210368749142"><ele>137.0</ele><time>2026-04-19T08:36:48.988Z</time></trkpt><trkpt lat="45.50435856526125" lon="9.107322651285482"><ele>137.0</ele><time>2026-04-19T08:36:50.988Z</time></trkpt><trkpt lat="45.50432320097242" lon="9.107458073552769"><ele>137.0</ele><time>2026-04-19T08:36:52.988Z</time></trkpt><trkpt lat="45.50430183426626" lon="9.107614732277186"><ele>137.0</ele><time>2026-04-19T08:36:54.988Z</time></trkpt><trkpt lat="45.50426877874504" lon="9.107742584431946"><ele>136.79999999999998</ele><time>2026-04-19T08:36:56.988Z</time></trkpt><trkpt lat="45.504250185978876" lon="9.107878131317296"><ele>136.6</ele><time>2026-04-19T08:36:58.988Z</time></trkpt><trkpt lat="45.50420543284156" lon="9.108025327512943"><ele>136.39999999999998</ele><time>2026-04-19T08:37:00.988Z</time></trkpt><trkpt lat="45.504169557928996" lon="9.108168767390149"><ele>136.2</ele><time>2026-04-19T08:37:02.988Z</time></trkpt><trkpt lat="45.504139875544666" lon="9.10831235561783"><ele>136.0</ele><time>2026-04-19T08:37:04.988Z</time></trkpt><trkpt lat="45.50411745209456" lon="9.10840983902805"><ele>135.6</ele><time>2026-04-19T08:37:06.988Z</time></trkpt><trkpt lat="45.5040871650179" lon="9.108537657127496"><ele>135.2</ele><time>2026-04-19T08:37:08.988Z</time></trkpt><trkpt lat="45.50405216482413" lon="9.108675019939936"><ele>134.8</ele><time>2026-04-19T08:37:10.988Z</time></trkpt><trkpt lat="45.50403261277451" lon="9.108805284779198"><ele>134.4</ele><time>2026-04-19T08:37:12.988Z</time></trkpt><trkpt lat="45.50399878195481" lon="9.108937457664853"><ele>134.0</ele><time>2026-04-19T08:37:14.988Z</time></trkpt><trkpt lat="45.50396481333423" lon="9.109044373614845"><ele>134.0</ele><time>2026-04-19T08:37:16.988Z</time></trkpt><trkpt lat="45.5039414242689" lon="9.109187852710562"><ele>134.0</ele><time>2026-04-19T08:37:18.988Z</time></trkpt><trkpt lat="45.503903212519695" lon="9.109348128459338"><ele>134.0</ele><time>2026-04-19T08:37:20.988Z</time></trkpt><trkpt lat="45.50384949205305" lon="9.109468619554933"><ele>134.0</ele><time>2026-04-19T08:37:22.988Z</time></trkpt><trkpt lat="45.50380945382819" lon="9.109545919088553"><ele>134.0</ele><time>2026-04-19T08:37:24.988Z</time></trkpt><trkpt lat="45.503758317476425" lon="9.109656235407629"><ele>134.0</ele><time>2026-04-19T08:37:26.988Z</time></trkpt><trkpt lat="45.50374152977203" lon="9.109768548853312"><ele>134.0</ele><time>2026-04-19T08:37:28.987Z</time></trkpt><trkpt lat="45.50373571833017" lon="9.10986392381143"><ele>134.0</ele><time>2026-04-19T08:37:30.987Z</time></trkpt><trkpt lat="45.503707232258456" lon="9.11002608439089"><ele>134.0</ele><time>2026-04-19T08:37:32.987Z</time></trkpt><trkpt lat="45.50368659179057" lon="9.110114348331965"><ele>134.0</ele><time>2026-04-19T08:37:33.987Z</time></trkpt><trkpt lat="45.50365337057626" lon="9.110213959110018"><ele>134.0</ele><time>2026-04-19T08:37:35.987Z</time></trkpt><trkpt lat="45.50361480137092" lon="9.110344214020559"><ele>134.0</ele><time>2026-04-19T08:37:37.987Z</time></trkpt><trkpt lat="45.50358788203956" lon="9.11046226586451"><ele>134.0</ele><time>2026-04-19T08:37:39.987Z</time></trkpt><trkpt lat="45.50356699676912" lon="9.110587505558453"><ele>134.0</ele><time>2026-04-19T08:37:41.987Z</time></trkpt><trkpt lat="45.50354555305101" lon="9.110698782954575"><ele>134.0</ele><time>2026-04-19T08:37:43.987Z</time></trkpt><trkpt lat="45.50351465653463" lon="9.11081561427869"><ele>134.0</ele><time>2026-04-19T08:37:45.987Z</time></trkpt><trkpt lat="45.503483028202496" lon="9.110942783888639"><ele>134.0</ele><time>2026-04-19T08:37:47.987Z</time></trkpt><trkpt lat="45.503482880110326" lon="9.111060139031398"><ele>134.0</ele><time>2026-04-19T08:37:49.987Z</time></trkpt><trkpt lat="45.50347077427403" lon="9.111188698008968"><ele>134.0</ele><time>2026-04-19T08:37:51.987Z</time></trkpt><trkpt lat="45.5034307530579" lon="9.111307815334177"><ele>134.0</ele><time>2026-04-19T08:37:53.988Z</time></trkpt><trkpt lat="45.50337881417707" lon="9.111423417849275"><ele>134.0</ele><time>2026-04-19T08:37:56.988Z</time></trkpt><trkpt lat="45.50335385610631" lon="9.111553453902724"><ele>134.0</ele><time>2026-04-19T08:37:58.987Z</time></trkpt><trkpt lat="45.503335426358746" lon="9.111732807900944"><ele>133.6</ele><time>2026-04-19T08:38:00.987Z</time></trkpt><trkpt lat="45.50329816245455" lon="9.111846428262846"><ele>133.2</ele><time>2026-04-19T08:38:02.988Z</time></trkpt><trkpt lat="45.50326240176086" lon="9.11197233699728"><ele>132.79999999999998</ele><time>2026-04-19T08:38:04.987Z</time></trkpt><trkpt lat="45.50322397140345" lon="9.112110043291246"><ele>132.4</ele><time>2026-04-19T08:38:06.988Z</time></trkpt><trkpt lat="45.50320190472131" lon="9.112210039125882"><ele>132.0</ele><time>2026-04-19T08:38:08.988Z</time></trkpt><trkpt lat="45.50315746645593" lon="9.112335990039693"><ele>132.2</ele><time>2026-04-19T08:38:11.988Z</time></trkpt><trkpt lat="45.503118403911124" lon="9.112478161799677"><ele>132.39999999999998</ele><time>2026-04-19T08:38:13.988Z</time></trkpt><trkpt lat="45.50307287265139" lon="9.112568672149559"><ele>132.60000000000002</ele><time>2026-04-19T08:38:15.988Z</time></trkpt><trkpt lat="45.50302967751248" lon="9.112685355972662"><ele>132.8</ele><time>2026-04-19T08:38:17.988Z</time></trkpt><trkpt lat="45.503003589860846" lon="9.112803945104158"><ele>133.0</ele><time>2026-04-19T08:38:20.988Z</time></trkpt><trkpt lat="45.502899774480284" lon="9.11279570182644"><ele>133.33333333333334</ele><time>2026-04-19T08:38:24.988Z</time></trkpt><trkpt lat="45.502845946444204" lon="9.112876742306598"><ele>133.66666666666669</ele><time>2026-04-19T08:38:26.988Z</time></trkpt><trkpt lat="45.502857565494665" lon="9.113044741126451"><ele>134.0</ele><time>2026-04-19T08:38:28.988Z</time></trkpt><trkpt lat="45.50284325725379" lon="9.113133063580646"><ele>134.33333333333334</ele><time>2026-04-19T08:38:29.988Z</time></trkpt><trkpt lat="45.50281806425071" lon="9.11322563205544"><ele>134.66666666666666</ele><time>2026-04-19T08:38:30.988Z</time></trkpt><trkpt lat="45.502807728509595" lon="9.113322327904122"><ele>135.0</ele><time>2026-04-19T08:38:31.988Z</time></trkpt><trkpt lat="45.50278418724852" lon="9.113411462371989"><ele>135.2</ele><time>2026-04-19T08:38:33.988Z</time></trkpt><trkpt lat="45.502787669898936" lon="9.113516318032918"><ele>135.4</ele><time>2026-04-19T08:38:35.988Z</time></trkpt><trkpt lat="45.5027369503629" lon="9.113674939758132"><ele>135.6</ele><time>2026-04-19T08:38:37.988Z</time></trkpt><trkpt lat="45.50269846780057" lon="9.1138208630012"><ele>135.8</ele><time>2026-04-19T08:38:39.988Z</time></trkpt><trkpt lat="45.50265261770881" lon="9.113960579666307"><ele>136.0</ele><time>2026-04-19T08:38:41.988Z</time></trkpt><trkpt lat="45.50263218101177" lon="9.114097364048309"><ele>135.4</ele><time>2026-04-19T08:38:43.988Z</time></trkpt><trkpt lat="45.502601973606765" lon="9.114220869023363"><ele>134.8</ele><time>2026-04-19T08:38:45.988Z</time></trkpt><trkpt lat="45.50258301458509" lon="9.11437199220423"><ele>134.20000000000002</ele><time>2026-04-19T08:38:47.988Z</time></trkpt><trkpt lat="45.50254921348714" lon="9.114535846364248"><ele>133.6</ele><time>2026-04-19T08:38:49.988Z</time></trkpt><trkpt lat="45.50253000787213" lon="9.114668222315021"><ele>133.0</ele><time>2026-04-19T08:38:51.988Z</time></trkpt><trkpt lat="45.5025095764805" lon="9.11479434190936"><ele>133.4</ele><time>2026-04-19T08:38:53.988Z</time></trkpt><trkpt lat="45.50247770996016" lon="9.114922634388979"><ele>133.8</ele><time>2026-04-19T08:38:55.988Z</time></trkpt><trkpt lat="45.50245358659929" lon="9.115023513268264"><ele>134.2</ele><time>2026-04-19T08:38:56.988Z</time></trkpt><trkpt lat="45.502411681907176" lon="9.115163808032728"><ele>134.6</ele><time>2026-04-19T08:38:58.988Z</time></trkpt><trkpt lat="45.50238980644754" lon="9.115296346145046"><ele>135.0</ele><time>2026-04-19T08:39:00.988Z</time></trkpt><trkpt lat="45.50238597629223" lon="9.115425963765016"><ele>135.0</ele><time>2026-04-19T08:39:02.988Z</time></trkpt><trkpt lat="45.50235870665632" lon="9.11554788793574"><ele>135.0</ele><time>2026-04-19T08:39:04.988Z</time></trkpt><trkpt lat="45.502321417638306" lon="9.115676614420767"><ele>135.0</ele><time>2026-04-19T08:39:06.988Z</time></trkpt><trkpt lat="45.502309448843526" lon="9.115791799438055"><ele>135.0</ele><time>2026-04-19T08:39:08.988Z</time></trkpt><trkpt lat="45.502282150955175" lon="9.11594104372492"><ele>135.0</ele><time>2026-04-19T08:39:10.987Z</time></trkpt><trkpt lat="45.50225162906395" lon="9.116026820599032"><ele>135.0</ele><time>2026-04-19T08:39:12.987Z</time></trkpt><trkpt lat="45.50220913209155" lon="9.116112118948553"><ele>134.8</ele><time>2026-04-19T08:39:15.987Z</time></trkpt><trkpt lat="45.50217940960513" lon="9.116253629089309"><ele>134.6</ele><time>2026-04-19T08:39:17.987Z</time></trkpt><trkpt lat="45.502162519575485" lon="9.116398788853461"><ele>134.4</ele><time>2026-04-19T08:39:19.987Z</time></trkpt><trkpt lat="45.50212884681465" lon="9.116536277105428"><ele>134.2</ele><time>2026-04-19T08:39:21.987Z</time></trkpt><trkpt lat="45.50210015867445" lon="9.11666975674285"><ele>134.0</ele><time>2026-04-19T08:39:23.987Z</time></trkpt><trkpt lat="45.5020818015329" lon="9.116811821299901"><ele>134.0</ele><time>2026-04-19T08:39:25.987Z</time></trkpt><trkpt lat="45.50206111516057" lon="9.116907717303727"><ele>134.0</ele><time>2026-04-19T08:39:26.987Z</time></trkpt><trkpt lat="45.502023737104345" lon="9.117055479057864"><ele>134.0</ele><time>2026-04-19T08:39:28.987Z</time></trkpt><trkpt lat="45.50199466902565" lon="9.117162031847366"><ele>134.0</ele><time>2026-04-19T08:39:30.987Z</time></trkpt><trkpt lat="45.501974070072116" lon="9.117281740077999"><ele>134.0</ele><time>2026-04-19T08:39:32.987Z</time></trkpt><trkpt lat="45.50194369633707" lon="9.117404974833104"><ele>134.0</ele><time>2026-04-19T08:39:34.987Z</time></trkpt><trkpt lat="45.50190497032027" lon="9.117532925872224"><ele>133.6</ele><time>2026-04-19T08:39:36.987Z</time></trkpt><trkpt lat="45.501884769414346" lon="9.117620488493829"><ele>133.2</ele><time>2026-04-19T08:39:37.987Z</time></trkpt><trkpt lat="45.50186158585313" lon="9.117751852587412"><ele>132.79999999999998</ele><time>2026-04-19T08:39:39.987Z</time></trkpt><trkpt lat="45.50183859803525" lon="9.117879551024128"><ele>132.4</ele><time>2026-04-19T08:39:41.987Z</time></trkpt><trkpt lat="45.501796204064526" lon="9.118019082654104"><ele>132.0</ele><time>2026-04-19T08:39:43.987Z</time></trkpt><trkpt lat="45.50176033398758" lon="9.118151002633214"><ele>131.83333333333334</ele><time>2026-04-19T08:39:45.987Z</time></trkpt><trkpt lat="45.5017401635433" lon="9.118271488920243"><ele>131.66666666666666</ele><time>2026-04-19T08:39:47.987Z</time></trkpt><trkpt lat="45.501715742597725" lon="9.118396062514156"><ele>131.5</ele><time>2026-04-19T08:39:49.987Z</time></trkpt><trkpt lat="45.50169985583446" lon="9.118524715410432"><ele>131.33333333333331</ele><time>2026-04-19T08:39:51.987Z</time></trkpt><trkpt lat="45.50168810550832" lon="9.11864989179637"><ele>131.16666666666666</ele><time>2026-04-19T08:39:53.987Z</time></trkpt><trkpt lat="45.50165882596655" lon="9.118740797921044"><ele>131.0</ele><time>2026-04-19T08:39:54.987Z</time></trkpt><trkpt lat="45.50163262495406" lon="9.118827855147286"><ele>131.0</ele><time>2026-04-19T08:39:55.987Z</time></trkpt><trkpt lat="45.5016199548758" lon="9.118916014324967"><ele>131.0</ele><time>2026-04-19T08:39:56.987Z</time></trkpt><trkpt lat="45.501582997813266" lon="9.119009630934361"><ele>131.0</ele><time>2026-04-19T08:39:58.987Z</time></trkpt><trkpt lat="45.5015534307518" lon="9.119147439351716"><ele>131.0</ele><time>2026-04-19T08:40:00.987Z</time></trkpt><trkpt lat="45.50157425692069" lon="9.119251127430791"><ele>131.0</ele><time>2026-04-19T08:40:02.987Z</time></trkpt><trkpt lat="45.50153913939061" lon="9.119350958287184"><ele>131.0</ele><time>2026-04-19T08:40:04.987Z</time></trkpt><trkpt lat="45.50151311695142" lon="9.119459561196226"><ele>131.2</ele><time>2026-04-19T08:40:06.987Z</time></trkpt><trkpt lat="45.50146005197709" lon="9.119616954443503"><ele>131.39999999999998</ele><time>2026-04-19T08:40:09.987Z</time></trkpt><trkpt lat="45.5014337413554" lon="9.119699384589136"><ele>131.6</ele><time>2026-04-19T08:40:10.987Z</time></trkpt><trkpt lat="45.50141515021409" lon="9.119835748477481"><ele>131.79999999999998</ele><time>2026-04-19T08:40:12.987Z</time></trkpt><trkpt lat="45.50136114026555" lon="9.1198867241047"><ele>132.0</ele><time>2026-04-19T08:40:14.987Z</time></trkpt><trkpt lat="45.50126580663161" lon="9.119962295672838"><ele>132.33333333333334</ele><time>2026-04-19T08:40:16.987Z</time></trkpt><trkpt lat="45.501172869476555" lon="9.120012893134907"><ele>132.66666666666666</ele><time>2026-04-19T08:40:18.987Z</time></trkpt><trkpt lat="45.50111202918347" lon="9.120087791741874"><ele>133.0</ele><time>2026-04-19T08:40:21.987Z</time></trkpt><trkpt lat="45.50104319576651" lon="9.12015291067554"><ele>133.33333333333331</ele><time>2026-04-19T08:40:23.987Z</time></trkpt><trkpt lat="45.50098076138311" lon="9.120184439323996"><ele>133.66666666666666</ele><time>2026-04-19T08:40:25.987Z</time></trkpt><trkpt lat="45.50090909121592" lon="9.120246541109074"><ele>134.0</ele><time>2026-04-19T08:40:28.987Z</time></trkpt><trkpt lat="45.5008381531592" lon="9.120275994435445"><ele>134.0</ele><time>2026-04-19T08:40:31.987Z</time></trkpt><trkpt lat="45.50073508178663" lon="9.120285686181003"><ele>134.0</ele><time>2026-04-19T08:40:33.987Z</time></trkpt><trkpt lat="45.50064320349918" lon="9.120323512236263"><ele>134.0</ele><time>2026-04-19T08:40:35.987Z</time></trkpt><trkpt lat="45.50056766599696" lon="9.120353882983078"><ele>134.0</ele><time>2026-04-19T08:40:37.987Z</time></trkpt><trkpt lat="45.50049690283509" lon="9.120388692532662"><ele>134.0</ele><time>2026-04-19T08:40:39.987Z</time></trkpt><trkpt lat="45.500428993725336" lon="9.12040560712853"><ele>134.0</ele><time>2026-04-19T08:40:40.987Z</time></trkpt><trkpt lat="45.500293668578315" lon="9.120432697813854"><ele>133.4</ele><time>2026-04-19T08:40:42.986Z</time></trkpt><trkpt lat="45.50022261297194" lon="9.120434485892055"><ele>132.8</ele><time>2026-04-19T08:40:43.986Z</time></trkpt><trkpt lat="45.500106721906285" lon="9.12046736391095"><ele>132.2</ele><time>2026-04-19T08:40:45.986Z</time></trkpt><trkpt lat="45.4999516159717" lon="9.120519040168416"><ele>131.6</ele><time>2026-04-19T08:40:47.986Z</time></trkpt><trkpt lat="45.49988215535711" lon="9.120532202943902"><ele>131.0</ele><time>2026-04-19T08:40:48.986Z</time></trkpt><trkpt lat="45.49981452489348" lon="9.120533332828321"><ele>131.0</ele><time>2026-04-19T08:40:49.986Z</time></trkpt><trkpt lat="45.49972783549129" lon="9.12056299480222"><ele>131.0</ele><time>2026-04-19T08:40:51.986Z</time></trkpt><trkpt lat="45.49965769564144" lon="9.12063789206441"><ele>131.0</ele><time>2026-04-19T08:40:56.986Z</time></trkpt><trkpt lat="45.4995965107025" lon="9.120660016855867"><ele>131.0</ele><time>2026-04-19T08:40:57.986Z</time></trkpt><trkpt lat="45.49950705255211" lon="9.120703521604169"><ele>131.0</ele><time>2026-04-19T08:40:59.986Z</time></trkpt><trkpt lat="45.49943941852522" lon="9.120713907859987"><ele>131.0</ele><time>2026-04-19T08:41:00.986Z</time></trkpt><trkpt lat="45.4993371474808" lon="9.120728133458288"><ele>131.33333333333331</ele><time>2026-04-19T08:41:02.986Z</time></trkpt><trkpt lat="45.49923217109537" lon="9.120757701284154"><ele>131.66666666666666</ele><time>2026-04-19T08:41:04.986Z</time></trkpt><trkpt lat="45.4991213566922" lon="9.12078741327464"><ele>132.0</ele><time>2026-04-19T08:41:06.986Z</time></trkpt><trkpt lat="45.49905308582651" lon="9.120833133092713"><ele>132.33333333333334</ele><time>2026-04-19T08:41:08.986Z</time></trkpt><trkpt lat="45.49897438398096" lon="9.120891130773204"><ele>132.66666666666669</ele><time>2026-04-19T08:41:10.986Z</time></trkpt><trkpt lat="45.49891520259911" lon="9.120922573825231"><ele>133.0</ele><time>2026-04-19T08:41:11.986Z</time></trkpt><trkpt lat="45.49883087014125" lon="9.12101730065598"><ele>133.0</ele><time>2026-04-19T08:41:13.986Z</time></trkpt><trkpt lat="45.498778791972875" lon="9.12106831458574"><ele>133.0</ele><time>2026-04-19T08:41:14.986Z</time></trkpt><trkpt lat="45.49872821243229" lon="9.121171820694801"><ele>133.0</ele><time>2026-04-19T08:41:16.986Z</time></trkpt><trkpt lat="45.49869596402373" lon="9.121281684601643"><ele>133.0</ele><time>2026-04-19T08:41:18.986Z</time></trkpt><trkpt lat="45.49863019597809" lon="9.12139283456148"><ele>133.0</ele><time>2026-04-19T08:41:20.986Z</time></trkpt><trkpt lat="45.49856082287452" lon="9.12148516691324"><ele>133.0</ele><time>2026-04-19T08:41:22.986Z</time></trkpt><trkpt lat="45.49851392396491" lon="9.121596607133966"><ele>133.16666666666669</ele><time>2026-04-19T08:41:24.986Z</time></trkpt><trkpt lat="45.49847953819173" lon="9.12172194073609"><ele>133.33333333333334</ele><time>2026-04-19T08:41:26.986Z</time></trkpt><trkpt lat="45.49842445142249" lon="9.121819943154051"><ele>133.5</ele><time>2026-04-19T08:41:28.986Z</time></trkpt><trkpt lat="45.49837640555875" lon="9.121896584574545"><ele>133.66666666666666</ele><time>2026-04-19T08:41:30.986Z</time></trkpt><trkpt lat="45.49831548559896" lon="9.121985523121348"><ele>133.83333333333331</ele><time>2026-04-19T08:41:32.986Z</time></trkpt><trkpt lat="45.498264303505564" lon="9.122096194510613"><ele>134.0</ele><time>2026-04-19T08:41:34.986Z</time></trkpt><trkpt lat="45.498223615348266" lon="9.122234578313629"><ele>134.0</ele><time>2026-04-19T08:41:36.986Z</time></trkpt><trkpt lat="45.49817734474897" lon="9.122359541004096"><ele>134.0</ele><time>2026-04-19T08:41:38.986Z</time></trkpt><trkpt lat="45.49813242919346" lon="9.122485091938884"><ele>134.0</ele><time>2026-04-19T08:41:40.986Z</time></trkpt><trkpt lat="45.498087546382884" lon="9.122619471148816"><ele>134.0</ele><time>2026-04-19T08:41:42.986Z</time></trkpt><trkpt lat="45.498023717073394" lon="9.122735586869979"><ele>134.0</ele><time>2026-04-19T08:41:44.983Z</time></trkpt><trkpt lat="45.49798126886296" lon="9.122848681865902"><ele>134.0</ele><time>2026-04-19T08:41:46.977Z</time></trkpt><trkpt lat="45.497944101203174" lon="9.1229721423915"><ele>134.0</ele><time>2026-04-19T08:41:48.972Z</time></trkpt><trkpt lat="45.49789319550627" lon="9.123090421122015"><ele>134.0</ele><time>2026-04-19T08:41:50.968Z</time></trkpt><trkpt lat="45.49785169385385" lon="9.12319600376416"><ele>134.0</ele><time>2026-04-19T08:41:52.964Z</time></trkpt><trkpt lat="45.49781158980403" lon="9.123327234150151"><ele>134.0</ele><time>2026-04-19T08:41:54.96Z</time></trkpt><trkpt lat="45.49775474252609" lon="9.12345063279133"><ele>133.8</ele><time>2026-04-19T08:41:56.957Z</time></trkpt><trkpt lat="45.49769370351737" lon="9.123601268376207"><ele>133.60000000000002</ele><time>2026-04-19T08:41:58.955Z</time></trkpt><trkpt lat="45.49765394428955" lon="9.123698436506157"><ele>133.4</ele><time>2026-04-19T08:42:00.952Z</time></trkpt><trkpt lat="45.49761551158311" lon="9.12380553231169"><ele>133.20000000000002</ele><time>2026-04-19T08:42:02.95Z</time></trkpt><trkpt lat="45.49755858361987" lon="9.12390755315093"><ele>133.0</ele><time>2026-04-19T08:42:04.949Z</time></trkpt><trkpt lat="45.49750662975171" lon="9.124015257072168"><ele>133.20000000000002</ele><time>2026-04-19T08:42:06.948Z</time></trkpt><trkpt lat="45.497485069804455" lon="9.124146921470075"><ele>133.4</ele><time>2026-04-19T08:42:08.947Z</time></trkpt><trkpt lat="45.49743748387478" lon="9.124278845010682"><ele>133.60000000000002</ele><time>2026-04-19T08:42:10.946Z</time></trkpt><trkpt lat="45.49739670616521" lon="9.124407776362384"><ele>133.8</ele><time>2026-04-19T08:42:12.944Z</time></trkpt><trkpt lat="45.49736437296097" lon="9.124503261999262"><ele>134.0</ele><time>2026-04-19T08:42:14.943Z</time></trkpt><trkpt lat="45.4973141875847" lon="9.124615864779582"><ele>134.0</ele><time>2026-04-19T08:42:16.943Z</time></trkpt><trkpt lat="45.497271736718034" lon="9.124722422819117"><ele>134.0</ele><time>2026-04-19T08:42:18.942Z</time></trkpt><trkpt lat="45.497232984772864" lon="9.124848069409271"><ele>134.0</ele><time>2026-04-19T08:42:20.941Z</time></trkpt><trkpt lat="45.49718317575916" lon="9.124915311742384"><ele>134.0</ele><time>2026-04-19T08:42:22.941Z</time></trkpt><trkpt lat="45.49714442823891" lon="9.125039624059292"><ele>134.0</ele><time>2026-04-19T08:42:24.94Z</time></trkpt><trkpt lat="45.497086043875825" lon="9.125124775008642"><ele>134.0</ele><time>2026-04-19T08:42:26.94Z</time></trkpt><trkpt lat="45.49704056891557" lon="9.12521216298162"><ele>134.16666666666666</ele><time>2026-04-19T08:42:28.939Z</time></trkpt><trkpt lat="45.497052993546404" lon="9.1253021082392"><ele>134.33333333333331</ele><time>2026-04-19T08:42:29.939Z</time></trkpt><trkpt lat="45.49700037174659" lon="9.125430946433246"><ele>134.5</ele><time>2026-04-19T08:42:31.939Z</time></trkpt><trkpt lat="45.49696993947031" lon="9.125527414841553"><ele>134.66666666666666</ele><time>2026-04-19T08:42:33.938Z</time></trkpt><trkpt lat="45.49691957139758" lon="9.125653118084747"><ele>134.83333333333334</ele><time>2026-04-19T08:42:35.938Z</time></trkpt><trkpt lat="45.49688436094402" lon="9.125777265397574"><ele>135.0</ele><time>2026-04-19T08:42:37.938Z</time></trkpt><trkpt lat="45.496827440282004" lon="9.125880385829692"><ele>135.0</ele><time>2026-04-19T08:42:39.937Z</time></trkpt><trkpt lat="45.49677576228516" lon="9.125967978901958"><ele>135.0</ele><time>2026-04-19T08:42:41.937Z</time></trkpt><trkpt lat="45.49671748510769" lon="9.126078195788153"><ele>135.0</ele><time>2026-04-19T08:42:43.937Z</time></trkpt><trkpt lat="45.496696193590864" lon="9.126218163794306"><ele>135.0</ele><time>2026-04-19T08:42:45.937Z</time></trkpt><trkpt lat="45.496652463266386" lon="9.126349569175138"><ele>135.0</ele><time>2026-04-19T08:42:47.937Z</time></trkpt><trkpt lat="45.49661603643794" lon="9.126451803687676"><ele>134.8</ele><time>2026-04-19T08:42:49.937Z</time></trkpt><trkpt lat="45.49654547898173" lon="9.126566930398749"><ele>134.6</ele><time>2026-04-19T08:42:51.936Z</time></trkpt><trkpt lat="45.496500236181866" lon="9.126691954541984"><ele>134.4</ele><time>2026-04-19T08:42:53.936Z</time></trkpt><trkpt lat="45.49647342018417" lon="9.126794072141449"><ele>134.2</ele><time>2026-04-19T08:42:55.936Z</time></trkpt><trkpt lat="45.496432988186605" lon="9.126902530638898"><ele>134.0</ele><time>2026-04-19T08:42:57.936Z</time></trkpt><trkpt lat="45.49638639389909" lon="9.127016190211581"><ele>134.0</ele><time>2026-04-19T08:42:59.936Z</time></trkpt><trkpt lat="45.49633637054792" lon="9.127121449855684"><ele>134.0</ele><time>2026-04-19T08:43:01.936Z</time></trkpt><trkpt lat="45.496285507378175" lon="9.127220260008395"><ele>134.0</ele><time>2026-04-19T08:43:03.936Z</time></trkpt><trkpt lat="45.496252447645084" lon="9.127309995225772"><ele>134.0</ele><time>2026-04-19T08:43:05.936Z</time></trkpt><trkpt lat="45.496205339661344" lon="9.127409992167713"><ele>134.0</ele><time>2026-04-19T08:43:07.936Z</time></trkpt><trkpt lat="45.496157023661695" lon="9.127539663261926"><ele>134.0</ele><time>2026-04-19T08:43:09.936Z</time></trkpt><trkpt lat="45.49611302576153" lon="9.12766822296988"><ele>133.83333333333331</ele><time>2026-04-19T08:43:11.935Z</time></trkpt><trkpt lat="45.496062116568936" lon="9.127776763500483"><ele>133.66666666666666</ele><time>2026-04-19T08:43:13.935Z</time></trkpt><trkpt lat="45.496006866201405" lon="9.127882292546515"><ele>133.5</ele><time>2026-04-19T08:43:16.935Z</time></trkpt><trkpt lat="45.49595660928521" lon="9.12799344268107"><ele>133.33333333333334</ele><time>2026-04-19T08:43:18.935Z</time></trkpt><trkpt lat="45.495912911494706" lon="9.12809890485985"><ele>133.16666666666669</ele><time>2026-04-19T08:43:21.935Z</time></trkpt><trkpt lat="45.49587422861328" lon="9.12819480542048"><ele>133.0</ele><time>2026-04-19T08:43:24.935Z</time></trkpt><trkpt lat="45.495837190131745" lon="9.128287195355467"><ele>133.0</ele><time>2026-04-19T08:44:05.934Z</time></trkpt><trkpt lat="45.49580685368458" lon="9.128382567637"><ele>133.0</ele><time>2026-04-19T08:44:33.933Z</time></trkpt><trkpt lat="45.49577563836885" lon="9.128466600685671"><ele>133.0</ele><time>2026-04-19T08:44:35.933Z</time></trkpt><trkpt lat="45.49573382196978" lon="9.128563911680798"><ele>133.0</ele><time>2026-04-19T08:44:37.933Z</time></trkpt><trkpt lat="45.495696260363026" lon="9.128656704311515"><ele>133.0</ele><time>2026-04-19T08:44:39.933Z</time></trkpt><trkpt lat="45.49565892776046" lon="9.128747671999824"><ele>133.0</ele><time>2026-04-19T08:44:41.933Z</time></trkpt><trkpt lat="45.49561808731036" lon="9.128863953579762"><ele>133.0</ele><time>2026-04-19T08:44:44.933Z</time></trkpt><trkpt lat="45.4955865245858" lon="9.128956704735755"><ele>133.0</ele><time>2026-04-19T08:44:46.933Z</time></trkpt><trkpt lat="45.495538098510266" lon="9.12904825616414"><ele>133.0</ele><time>2026-04-19T08:44:48.933Z</time></trkpt><trkpt lat="45.49548764091316" lon="9.129159030566539"><ele>133.0</ele><time>2026-04-19T08:44:50.933Z</time></trkpt><trkpt lat="45.495450192375635" lon="9.129290369160648"><ele>133.0</ele><time>2026-04-19T08:44:52.933Z</time></trkpt><trkpt lat="45.49533592298002" lon="9.129385453933335"><ele>132.20000000000002</ele><time>2026-04-19T08:44:54.933Z</time></trkpt><trkpt lat="45.495213255038955" lon="9.12948770121997"><ele>131.4</ele><time>2026-04-19T08:44:59.933Z</time></trkpt><trkpt lat="45.495126651899966" lon="9.129495328668545"><ele>130.60000000000002</ele><time>2026-04-19T08:45:01.933Z</time></trkpt><trkpt lat="45.495019709042246" lon="9.12954186444494"><ele>129.8</ele><time>2026-04-19T08:45:03.933Z</time></trkpt><trkpt lat="45.49494536433003" lon="9.129537761180764"><ele>129.0</ele><time>2026-04-19T08:45:05.932Z</time></trkpt><trkpt lat="45.49484783927657" lon="9.129640332250663"><ele>129.0</ele><time>2026-04-19T08:45:07.932Z</time></trkpt><trkpt lat="45.4947187742588" lon="9.129617766286257"><ele>129.0</ele><time>2026-04-19T08:45:09.932Z</time></trkpt><trkpt lat="45.49458877954224" lon="9.129648625611559"><ele>129.0</ele><time>2026-04-19T08:45:11.932Z</time></trkpt><trkpt lat="45.494483162071646" lon="9.129659624730994"><ele>129.0</ele><time>2026-04-19T08:45:13.932Z</time></trkpt><trkpt lat="45.494389452490864" lon="9.129665057238622"><ele>129.0</ele><time>2026-04-19T08:45:15.932Z</time></trkpt><trkpt lat="45.494295166598675" lon="9.12966599716296"><ele>129.0</ele><time>2026-04-19T08:45:17.932Z</time></trkpt><trkpt lat="45.49420710857488" lon="9.129666131666767"><ele>129.0</ele><time>2026-04-19T08:45:19.932Z</time></trkpt><trkpt lat="45.49412868481212" lon="9.12966224152958"><ele>129.0</ele><time>2026-04-19T08:45:21.932Z</time></trkpt><trkpt lat="45.49403886239019" lon="9.1296484592871"><ele>129.0</ele><time>2026-04-19T08:45:23.932Z</time></trkpt><trkpt lat="45.49396864683513" lon="9.129642254323182"><ele>129.0</ele><time>2026-04-19T08:45:25.932Z</time></trkpt><trkpt lat="45.4938653915453" lon="9.129652822449433"><ele>129.0</ele><time>2026-04-19T08:45:27.932Z</time></trkpt><trkpt lat="45.49376854522262" lon="9.129642295303348"><ele>129.0</ele><time>2026-04-19T08:45:29.932Z</time></trkpt><trkpt lat="45.493682420413656" lon="9.129635188207999"><ele>129.0</ele><time>2026-04-19T08:45:31.932Z</time></trkpt><trkpt lat="45.493594293522314" lon="9.129631732859439"><ele>129.0</ele><time>2026-04-19T08:45:33.932Z</time></trkpt><trkpt lat="45.493504173830004" lon="9.129626421081909"><ele>129.0</ele><time>2026-04-19T08:45:35.932Z</time></trkpt><trkpt lat="45.49342388700363" lon="9.129616147727871"><ele>129.0</ele><time>2026-04-19T08:45:37.932Z</time></trkpt><trkpt lat="45.49334257501916" lon="9.129610016238724"><ele>129.0</ele><time>2026-04-19T08:45:39.932Z</time></trkpt><trkpt lat="45.49326076345547" lon="9.129626866113748"><ele>129.0</ele><time>2026-04-19T08:45:41.932Z</time></trkpt><trkpt lat="45.49317202025814" lon="9.129626866113544"><ele>129.0</ele><time>2026-04-19T08:45:43.931Z</time></trkpt><trkpt lat="45.49308774050481" lon="9.129579138257899"><ele>129.0</ele><time>2026-04-19T08:45:45.931Z</time></trkpt><trkpt lat="45.49300743609778" lon="9.129579425493345"><ele>129.0</ele><time>2026-04-19T08:45:49.931Z</time></trkpt><trkpt lat="45.49294631892823" lon="9.12955596992917"><ele>129.0</ele><time>2026-04-19T08:45:53.931Z</time></trkpt><trkpt lat="45.492853923307315" lon="9.129604788172932"><ele>129.0</ele><time>2026-04-19T08:45:59.931Z</time></trkpt><trkpt lat="45.49278659902325" lon="9.129658596018084"><ele>129.0</ele><time>2026-04-19T08:46:02.931Z</time></trkpt><trkpt lat="45.49274348741379" lon="9.129793203295977"><ele>129.0</ele><time>2026-04-19T08:46:05.931Z</time></trkpt><trkpt lat="45.49276804221625" lon="9.129893444336167"><ele>129.0</ele><time>2026-04-19T08:46:07.931Z</time></trkpt><trkpt lat="45.49276423092783" lon="9.130026122309946"><ele>129.0</ele><time>2026-04-19T08:46:09.931Z</time></trkpt><trkpt lat="45.4927868215626" lon="9.130169524365003"><ele>129.4</ele><time>2026-04-19T08:46:11.931Z</time></trkpt><trkpt lat="45.492801290683104" lon="9.13030134136511"><ele>129.8</ele><time>2026-04-19T08:46:13.931Z</time></trkpt><trkpt lat="45.4928138438433" lon="9.130444096665135"><ele>130.2</ele><time>2026-04-19T08:46:15.931Z</time></trkpt><trkpt lat="45.49283082228993" lon="9.130559532497182"><ele>130.6</ele><time>2026-04-19T08:46:17.932Z</time></trkpt><trkpt lat="45.49284463171107" lon="9.130358214476113"><ele>131.0</ele><time>2026-04-19T08:46:18.932Z</time></trkpt><trkpt lat="45.4928970076378" lon="9.130822886419594"><ele>130.66666666666666</ele><time>2026-04-19T08:46:22.931Z</time></trkpt><trkpt lat="45.49294371642891" lon="9.130949614905829"><ele>130.33333333333331</ele><time>2026-04-19T08:46:25.932Z</time></trkpt><trkpt lat="45.492961212313524" lon="9.13104343229458"><ele>130.0</ele><time>2026-04-19T08:46:27.931Z</time></trkpt><trkpt lat="45.49297655823894" lon="9.131156252962676"><ele>129.66666666666666</ele><time>2026-04-19T08:46:29.931Z</time></trkpt><trkpt lat="45.492984648466866" lon="9.131300086338273"><ele>129.33333333333334</ele><time>2026-04-19T08:46:31.931Z</time></trkpt><trkpt lat="45.49299995943356" lon="9.131415900899269"><ele>129.0</ele><time>2026-04-19T08:46:33.931Z</time></trkpt><trkpt lat="45.49300168918884" lon="9.131530708294957"><ele>129.83333333333334</ele><time>2026-04-19T08:46:36.931Z</time></trkpt><trkpt lat="45.49301446113656" lon="9.13162848651074"><ele>130.66666666666666</ele><time>2026-04-19T08:46:38.931Z</time></trkpt><trkpt lat="45.49305299290105" lon="9.131774777779437"><ele>131.5</ele><time>2026-04-19T08:46:40.931Z</time></trkpt><trkpt lat="45.49308301847964" lon="9.131931705792535"><ele>132.33333333333331</ele><time>2026-04-19T08:46:42.931Z</time></trkpt><trkpt lat="45.493086762363106" lon="9.132026072151572"><ele>133.16666666666666</ele><time>2026-04-19T08:46:45.931Z</time></trkpt><trkpt lat="45.49310200327577" lon="9.13213952817069"><ele>134.0</ele><time>2026-04-19T08:46:48.931Z</time></trkpt><trkpt lat="45.49313031261871" lon="9.13222170222484"><ele>134.0</ele><time>2026-04-19T08:46:50.931Z</time></trkpt><trkpt lat="45.49315230327381" lon="9.132341993450874"><ele>134.0</ele><time>2026-04-19T08:46:52.931Z</time></trkpt><trkpt lat="45.493172099070165" lon="9.132463832661623"><ele>134.0</ele><time>2026-04-19T08:46:54.931Z</time></trkpt><trkpt lat="45.49318850905818" lon="9.132621580724956"><ele>134.0</ele><time>2026-04-19T08:46:56.931Z</time></trkpt><trkpt lat="45.49316976799624" lon="9.132758777166654"><ele>134.0</ele><time>2026-04-19T08:46:58.931Z</time></trkpt><trkpt lat="45.49315089419234" lon="9.132928260810791"><ele>134.16666666666666</ele><time>2026-04-19T08:47:00.931Z</time></trkpt><trkpt lat="45.493132302068766" lon="9.133038753195855"><ele>134.33333333333331</ele><time>2026-04-19T08:47:02.93Z</time></trkpt><trkpt lat="45.49313049870546" lon="9.133136384431994"><ele>134.5</ele><time>2026-04-19T08:47:04.93Z</time></trkpt><trkpt lat="45.49312006816719" lon="9.133261097799283"><ele>134.66666666666666</ele><time>2026-04-19T08:47:07.93Z</time></trkpt><trkpt lat="45.493077750422096" lon="9.13335409744294"><ele>134.83333333333334</ele><time>2026-04-19T08:47:09.93Z</time></trkpt><trkpt lat="45.49298775347095" lon="9.133375007993289"><ele>135.0</ele><time>2026-04-19T08:47:12.93Z</time></trkpt><trkpt lat="45.49289203400945" lon="9.13337963494246"><ele>135.83333333333334</ele><time>2026-04-19T08:47:15.93Z</time></trkpt><trkpt lat="45.49279003969484" lon="9.133382056434751"><ele>136.66666666666666</ele><time>2026-04-19T08:47:18.93Z</time></trkpt><trkpt lat="45.49270410508774" lon="9.13339558075038"><ele>137.5</ele><time>2026-04-19T08:47:21.93Z</time></trkpt><trkpt lat="45.49264402746376" lon="9.133359754222598"><ele>138.33333333333331</ele><time>2026-04-19T08:47:24.93Z</time></trkpt><trkpt lat="45.49257946524412" lon="9.133298581415685"><ele>139.16666666666666</ele><time>2026-04-19T08:47:27.93Z</time></trkpt><trkpt lat="45.49255676863552" lon="9.133202785044187"><ele>140.0</ele><time>2026-04-19T08:47:30.93Z</time></trkpt><trkpt lat="45.492531955603916" lon="9.13309890261768"><ele>140.0</ele><time>2026-04-19T08:47:33.93Z</time></trkpt><trkpt lat="45.49248167665451" lon="9.133004733238966"><ele>140.0</ele><time>2026-04-19T08:47:35.93Z</time></trkpt><trkpt lat="45.49240595396604" lon="9.132868771271802"><ele>140.0</ele><time>2026-04-19T08:47:37.93Z</time></trkpt><trkpt lat="45.49235845232648" lon="9.132803644589107"><ele>140.0</ele><time>2026-04-19T08:47:38.93Z</time></trkpt><trkpt lat="45.49231488183372" lon="9.132715755257518"><ele>140.0</ele><time>2026-04-19T08:47:40.929Z</time></trkpt><trkpt lat="45.49221731028078" lon="9.132635778273968"><ele>140.0</ele><time>2026-04-19T08:47:43.929Z</time></trkpt><trkpt lat="45.49213049176896" lon="9.132629056458503"><ele>140.0</ele><time>2026-04-19T08:47:45.929Z</time></trkpt><trkpt lat="45.49205515123081" lon="9.132606464386065"><ele>140.0</ele><time>2026-04-19T08:47:47.929Z</time></trkpt><trkpt lat="45.49199274742893" lon="9.132584125931436"><ele>140.0</ele><time>2026-04-19T08:47:49.929Z</time></trkpt><trkpt lat="45.491920791270324" lon="9.132532700139654"><ele>140.0</ele><time>2026-04-19T08:47:51.929Z</time></trkpt><trkpt lat="45.49180566129258" lon="9.13250568444747"><ele>140.0</ele><time>2026-04-19T08:47:53.929Z</time></trkpt><trkpt lat="45.49171937462176" lon="9.132486345475414"><ele>140.83333333333331</ele><time>2026-04-19T08:47:55.929Z</time></trkpt><trkpt lat="45.49164528781628" lon="9.13251306576026"><ele>141.66666666666666</ele><time>2026-04-19T08:47:57.929Z</time></trkpt><trkpt lat="45.491567608131" lon="9.132534426958879"><ele>142.5</ele><time>2026-04-19T08:47:59.929Z</time></trkpt><trkpt lat="45.491496858769366" lon="9.13255033729999"><ele>143.33333333333334</ele><time>2026-04-19T08:48:00.929Z</time></trkpt><trkpt lat="45.49142255511635" lon="9.132583555146855"><ele>144.16666666666669</ele><time>2026-04-19T08:48:02.929Z</time></trkpt><trkpt lat="45.491340666458626" lon="9.132595079066373"><ele>145.0</ele><time>2026-04-19T08:48:04.929Z</time></trkpt><trkpt lat="45.491239367319714" lon="9.132621391034267"><ele>145.0</ele><time>2026-04-19T08:48:06.929Z</time></trkpt><trkpt lat="45.49114774962678" lon="9.132694257308959"><ele>145.0</ele><time>2026-04-19T08:48:08.929Z</time></trkpt><trkpt lat="45.49105367360872" lon="9.132755732506888"><ele>145.0</ele><time>2026-04-19T08:48:10.929Z</time></trkpt><trkpt lat="45.49096877644913" lon="9.132801980494614"><ele>145.0</ele><time>2026-04-19T08:48:12.929Z</time></trkpt><trkpt lat="45.490849164117684" lon="9.132873921063684"><ele>145.0</ele><time>2026-04-19T08:48:14.929Z</time></trkpt><trkpt lat="45.49075093687925" lon="9.13292376702635"><ele>145.0</ele><time>2026-04-19T08:48:16.928Z</time></trkpt><trkpt lat="45.49066811681698" lon="9.132976374658556"><ele>145.0</ele><time>2026-04-19T08:48:18.928Z</time></trkpt><trkpt lat="45.49059266718317" lon="9.133019093117706"><ele>145.0</ele><time>2026-04-19T08:48:21.928Z</time></trkpt><trkpt lat="45.490511252031716" lon="9.133069756316834"><ele>145.0</ele><time>2026-04-19T08:48:23.929Z</time></trkpt><trkpt lat="45.4904487606608" lon="9.13313466318488"><ele>145.0</ele><time>2026-04-19T08:48:25.929Z</time></trkpt><trkpt lat="45.490385027298025" lon="9.133177017025316"><ele>145.0</ele><time>2026-04-19T08:48:27.929Z</time></trkpt><trkpt lat="45.490325464036374" lon="9.133254519595349"><ele>145.0</ele><time>2026-04-19T08:48:30.929Z</time></trkpt><trkpt lat="45.49028992302828" lon="9.13333027229094"><ele>145.0</ele><time>2026-04-19T08:48:32.929Z</time></trkpt><trkpt lat="45.49036868115319" lon="9.13335598442307"><ele>145.0</ele><time>2026-04-19T08:48:37.929Z</time></trkpt><trkpt lat="45.49043721889323" lon="9.133313806588683"><ele>145.0</ele><time>2026-04-19T08:48:40.929Z</time></trkpt><trkpt lat="45.49052497253544" lon="9.13329471971322"><ele>145.0</ele><time>2026-04-19T08:48:43.928Z</time></trkpt><trkpt lat="45.49060432805671" lon="9.133254492099933"><ele>145.0</ele><time>2026-04-19T08:48:46.928Z</time></trkpt><trkpt lat="45.49066328483133" lon="9.133212482245685"><ele>145.0</ele><time>2026-04-19T08:48:47.928Z</time></trkpt><trkpt lat="45.49074726617851" lon="9.133130454081837"><ele>145.0</ele><time>2026-04-19T08:48:49.928Z</time></trkpt><trkpt lat="45.49080340345583" lon="9.133079563615524"><ele>145.0</ele><time>2026-04-19T08:48:51.928Z</time></trkpt><trkpt lat="45.49089455112511" lon="9.133041082589003"><ele>145.0</ele><time>2026-04-19T08:48:53.928Z</time></trkpt><trkpt lat="45.490988190431565" lon="9.133038343901346"><ele>145.0</ele><time>2026-04-19T08:48:55.928Z</time></trkpt><trkpt lat="45.49108879995053" lon="9.133007201188232"><ele>145.0</ele><time>2026-04-19T08:48:57.928Z</time></trkpt><trkpt lat="45.49118623650697" lon="9.133016937639713"><ele>145.0</ele><time>2026-04-19T08:48:59.928Z</time></trkpt><trkpt lat="45.4912799251334" lon="9.133010488921256"><ele>145.0</ele><time>2026-04-19T08:49:01.928Z</time></trkpt><trkpt lat="45.49136547799344" lon="9.133039060923752"><ele>145.0</ele><time>2026-04-19T08:49:07.928Z</time></trkpt><trkpt lat="45.491432867866266" lon="9.13307545337883"><ele>145.0</ele><time>2026-04-19T08:49:08.928Z</time></trkpt><trkpt lat="45.491491026113046" lon="9.133138713603667"><ele>145.0</ele><time>2026-04-19T08:49:09.928Z</time></trkpt><trkpt lat="45.49157418920537" lon="9.133227592842303"><ele>146.16666666666669</ele><time>2026-04-19T08:49:11.928Z</time></trkpt><trkpt lat="45.49164544558913" lon="9.133312994113613"><ele>147.33333333333334</ele><time>2026-04-19T08:49:13.928Z</time></trkpt><trkpt lat="45.49169265882285" lon="9.13341710696985"><ele>148.5</ele><time>2026-04-19T08:49:15.928Z</time></trkpt><trkpt lat="45.49173895955856" lon="9.133533986681327"><ele>149.66666666666666</ele><time>2026-04-19T08:49:17.928Z</time></trkpt><trkpt lat="45.49178944959182" lon="9.133599182752093"><ele>150.83333333333331</ele><time>2026-04-19T08:49:18.928Z</time></trkpt><trkpt lat="45.491814092150626" lon="9.133710080114616"><ele>152.0</ele><time>2026-04-19T08:49:20.927Z</time></trkpt><trkpt lat="45.491841491766586" lon="9.13387029341314"><ele>152.0</ele><time>2026-04-19T08:49:22.927Z</time></trkpt><trkpt lat="45.491851722850335" lon="9.133983537412965"><ele>152.0</ele><time>2026-04-19T08:49:24.927Z</time></trkpt><trkpt lat="45.49185838898103" lon="9.134084722605227"><ele>152.0</ele><time>2026-04-19T08:49:25.927Z</time></trkpt><trkpt lat="45.49184511079793" lon="9.134224754017431"><ele>152.0</ele><time>2026-04-19T08:49:27.927Z</time></trkpt><trkpt lat="45.49182282222768" lon="9.134372023085472"><ele>152.0</ele><time>2026-04-19T08:49:29.927Z</time></trkpt><trkpt lat="45.491810075429264" lon="9.134492269076011"><ele>152.0</ele><time>2026-04-19T08:49:31.927Z</time></trkpt><trkpt lat="45.491774870603166" lon="9.134583708757749"><ele>152.4</ele><time>2026-04-19T08:49:33.927Z</time></trkpt><trkpt lat="45.49174474557543" lon="9.134691428842844"><ele>152.79999999999998</ele><time>2026-04-19T08:49:35.927Z</time></trkpt><trkpt lat="45.491707832304186" lon="9.134797284871633"><ele>153.2</ele><time>2026-04-19T08:49:37.927Z</time></trkpt><trkpt lat="45.49161222101023" lon="9.134956681515336"><ele>153.6</ele><time>2026-04-19T08:49:39.927Z</time></trkpt><trkpt lat="45.491580411429986" lon="9.135051819477852"><ele>154.0</ele><time>2026-04-19T08:49:40.927Z</time></trkpt><trkpt lat="45.49150661684528" lon="9.135113210865098"><ele>154.0</ele><time>2026-04-19T08:49:41.927Z</time></trkpt><trkpt lat="45.49144360827752" lon="9.135165147793321"><ele>154.0</ele><time>2026-04-19T08:49:42.927Z</time></trkpt><trkpt lat="45.49134668508026" lon="9.135256813518168"><ele>154.0</ele><time>2026-04-19T08:49:44.927Z</time></trkpt><trkpt lat="45.49123402383737" lon="9.13528160635125"><ele>154.0</ele><time>2026-04-19T08:49:46.927Z</time></trkpt><trkpt lat="45.491171675740375" lon="9.135316689780293"><ele>154.0</ele><time>2026-04-19T08:49:50.927Z</time></trkpt><trkpt lat="45.49110231992382" lon="9.13534209732501"><ele>154.0</ele><time>2026-04-19T08:49:52.927Z</time></trkpt><trkpt lat="45.49101414304551" lon="9.135397593494492"><ele>155.66666666666669</ele><time>2026-04-19T08:49:54.927Z</time></trkpt><trkpt lat="45.49094855094154" lon="9.135393465458137"><ele>157.33333333333334</ele><time>2026-04-19T08:49:55.927Z</time></trkpt><trkpt lat="45.49087389627234" lon="9.135401544945275"><ele>159.0</ele><time>2026-04-19T08:49:57.926Z</time></trkpt><trkpt lat="45.49079885444464" lon="9.135441625293199"><ele>160.66666666666666</ele><time>2026-04-19T08:49:59.926Z</time></trkpt><trkpt lat="45.49072845966478" lon="9.135458351750477"><ele>162.33333333333331</ele><time>2026-04-19T08:50:00.926Z</time></trkpt><trkpt lat="45.49062800810674" lon="9.135458127170148"><ele>164.0</ele><time>2026-04-19T08:50:02.926Z</time></trkpt><trkpt lat="45.490528857067304" lon="9.135425977705738"><ele>164.0</ele><time>2026-04-19T08:50:04.926Z</time></trkpt><trkpt lat="45.49044424784467" lon="9.135416476095921"><ele>164.0</ele><time>2026-04-19T08:50:07.926Z</time></trkpt><trkpt lat="45.490514784276755" lon="9.13533241614474"><ele>164.0</ele><time>2026-04-19T08:50:16.926Z</time></trkpt><trkpt lat="45.49057997341468" lon="9.135241778083026"><ele>164.0</ele><time>2026-04-19T08:50:19.926Z</time></trkpt><trkpt lat="45.490656453186254" lon="9.135162097342475"><ele>164.0</ele><time>2026-04-19T08:50:22.926Z</time></trkpt><trkpt lat="45.490753946372145" lon="9.135110951691862"><ele>164.0</ele><time>2026-04-19T08:50:26.926Z</time></trkpt><trkpt lat="45.49082495285835" lon="9.135081426172428"><ele>164.0</ele><time>2026-04-19T08:50:28.926Z</time></trkpt><trkpt lat="45.490925708280315" lon="9.135031324454319"><ele>164.0</ele><time>2026-04-19T08:50:30.927Z</time></trkpt><trkpt lat="45.491016139481665" lon="9.134942764760744"><ele>164.0</ele><time>2026-04-19T08:50:32.927Z</time></trkpt><trkpt lat="45.49110326397166" lon="9.13487238082772"><ele>164.0</ele><time>2026-04-19T08:50:34.927Z</time></trkpt><trkpt lat="45.4911572084426" lon="9.134797382685052"><ele>163.16666666666666</ele><time>2026-04-19T08:50:36.926Z</time></trkpt><trkpt lat="45.491231481480085" lon="9.134717433530302"><ele>162.33333333333331</ele><time>2026-04-19T08:50:38.926Z</time></trkpt><trkpt lat="45.49125717109423" lon="9.134634299230108"><ele>161.5</ele><time>2026-04-19T08:50:41.926Z</time></trkpt><trkpt lat="45.49125850519752" lon="9.134535021863291"><ele>160.66666666666666</ele><time>2026-04-19T08:50:44.926Z</time></trkpt><trkpt lat="45.49122389404123" lon="9.134457198900062"><ele>159.83333333333334</ele><time>2026-04-19T08:50:47.926Z</time></trkpt><trkpt lat="45.49119554364817" lon="9.134371573328021"><ele>159.0</ele><time>2026-04-19T08:50:49.926Z</time></trkpt><trkpt lat="45.49113022908054" lon="9.134256708700342"><ele>159.0</ele><time>2026-04-19T08:50:52.926Z</time></trkpt><trkpt lat="45.491085968713904" lon="9.134159533547896"><ele>159.0</ele><time>2026-04-19T08:50:55.926Z</time></trkpt><trkpt lat="45.49102886267196" lon="9.134103083019548"><ele>159.0</ele><time>2026-04-19T08:50:57.926Z</time></trkpt><trkpt lat="45.49093018050068" lon="9.134080701920064"><ele>159.0</ele><time>2026-04-19T08:50:59.926Z</time></trkpt><trkpt lat="45.490832345907215" lon="9.134125601447705"><ele>159.0</ele><time>2026-04-19T08:51:01.926Z</time></trkpt><trkpt lat="45.49073412503948" lon="9.134190257499807"><ele>159.0</ele><time>2026-04-19T08:51:03.926Z</time></trkpt><trkpt lat="45.4906315327763" lon="9.13425206110643"><ele>159.0</ele><time>2026-04-19T08:51:05.926Z</time></trkpt><trkpt lat="45.490535801716014" lon="9.134301309445059"><ele>159.0</ele><time>2026-04-19T08:51:07.926Z</time></trkpt><trkpt lat="45.490449796318764" lon="9.134349418203225"><ele>159.0</ele><time>2026-04-19T08:51:09.926Z</time></trkpt><trkpt lat="45.490371649375554" lon="9.13439728848089"><ele>159.0</ele><time>2026-04-19T08:51:11.926Z</time></trkpt><trkpt lat="45.49028770325258" lon="9.134429468505534"><ele>159.0</ele><time>2026-04-19T08:51:14.925Z</time></trkpt><trkpt lat="45.490224174452656" lon="9.134473808127781"><ele>159.0</ele><time>2026-04-19T08:51:16.925Z</time></trkpt><trkpt lat="45.49013621371491" lon="9.13450730946859"><ele>159.0</ele><time>2026-04-19T08:51:19.925Z</time></trkpt><trkpt lat="45.49006594849459" lon="9.134557942611705"><ele>159.0</ele><time>2026-04-19T08:51:23.925Z</time></trkpt><trkpt lat="45.49001397789274" lon="9.134637368511957"><ele>159.0</ele><time>2026-04-19T08:51:25.925Z</time></trkpt><trkpt lat="45.4899848421322" lon="9.134719301297324"><ele>159.0</ele><time>2026-04-19T08:51:27.925Z</time></trkpt><trkpt lat="45.490002464419945" lon="9.134830312567804"><ele>159.0</ele><time>2026-04-19T08:51:30.925Z</time></trkpt><trkpt lat="45.49007565539486" lon="9.13482965513282"><ele>159.0</ele><time>2026-04-19T08:51:34.925Z</time></trkpt><trkpt lat="45.49028413688401" lon="9.134841603267214"><ele>159.0</ele><time>2026-04-19T08:51:43.925Z</time></trkpt><trkpt lat="45.4903561424991" lon="9.134808853233455"><ele>159.0</ele><time>2026-04-19T08:51:46.925Z</time></trkpt><trkpt lat="45.49047887154357" lon="9.134767264096457"><ele>159.0</ele><time>2026-04-19T08:51:51.924Z</time></trkpt><trkpt lat="45.490549262899776" lon="9.134720285967791"><ele>159.0</ele><time>2026-04-19T08:51:54.924Z</time></trkpt><trkpt lat="45.490608872793295" lon="9.13468303943596"><ele>159.0</ele><time>2026-04-19T08:51:56.924Z</time></trkpt><trkpt lat="45.49067646999665" lon="9.134647817137521"><ele>159.0</ele><time>2026-04-19T08:51:59.924Z</time></trkpt><trkpt lat="45.49075313977307" lon="9.134600200093436"><ele>159.0</ele><time>2026-04-19T08:52:02.924Z</time></trkpt><trkpt lat="45.49082027892437" lon="9.134553355591612"><ele>159.0</ele><time>2026-04-19T08:52:05.924Z</time></trkpt><trkpt lat="45.490856911549514" lon="9.134478146646725"><ele>159.0</ele><time>2026-04-19T08:52:10.924Z</time></trkpt><trkpt lat="45.49078853795173" lon="9.134490117141434"><ele>159.0</ele><time>2026-04-19T08:52:21.924Z</time></trkpt><trkpt lat="45.490702250135534" lon="9.1345727434001"><ele>159.0</ele><time>2026-04-19T08:52:23.924Z</time></trkpt><trkpt lat="45.49061365357045" lon="9.134603581687543"><ele>159.0</ele><time>2026-04-19T08:52:25.924Z</time></trkpt><trkpt lat="45.490545416919296" lon="9.134651001597094"><ele>159.0</ele><time>2026-04-19T08:52:26.924Z</time></trkpt><trkpt lat="45.490487516699176" lon="9.134687161718192"><ele>159.0</ele><time>2026-04-19T08:52:27.923Z</time></trkpt><trkpt lat="45.49042782223585" lon="9.134731910410382"><ele>159.0</ele><time>2026-04-19T08:52:28.923Z</time></trkpt><trkpt lat="45.4903364994529" lon="9.134763113818247"><ele>159.0</ele><time>2026-04-19T08:52:30.923Z</time></trkpt><trkpt lat="45.490273944984125" lon="9.134779125728699"><ele>159.0</ele><time>2026-04-19T08:52:31.923Z</time></trkpt><trkpt lat="45.490173421160925" lon="9.134809695964577"><ele>159.0</ele><time>2026-04-19T08:52:33.923Z</time></trkpt><trkpt lat="45.49009719382814" lon="9.134826309089618"><ele>159.0</ele><time>2026-04-19T08:52:35.924Z</time></trkpt><trkpt lat="45.49001690576522" lon="9.134841372174506"><ele>159.0</ele><time>2026-04-19T08:52:38.924Z</time></trkpt><trkpt lat="45.489947837276674" lon="9.134840414978784"><ele>159.0</ele><time>2026-04-19T08:52:40.924Z</time></trkpt><trkpt lat="45.489875336379974" lon="9.134850556689042"><ele>159.0</ele><time>2026-04-19T08:52:42.923Z</time></trkpt><trkpt lat="45.489792388391905" lon="9.134857793483135"><ele>159.0</ele><time>2026-04-19T08:52:45.923Z</time></trkpt><trkpt lat="45.48972008244292" lon="9.134872495361662"><ele>159.0</ele><time>2026-04-19T08:52:47.924Z</time></trkpt><trkpt lat="45.489644610715295" lon="9.134854312382323"><ele>159.0</ele><time>2026-04-19T08:52:50.924Z</time></trkpt><trkpt lat="45.48955198065322" lon="9.134845929706723"><ele>159.0</ele><time>2026-04-19T08:52:52.924Z</time></trkpt><trkpt lat="45.48946454650467" lon="9.13481847490361"><ele>159.0</ele><time>2026-04-19T08:52:54.924Z</time></trkpt><trkpt lat="45.489401788234794" lon="9.134690275976908"><ele>158.66666666666666</ele><time>2026-04-19T08:52:57.924Z</time></trkpt><trkpt lat="45.48937097193598" lon="9.134597184969977"><ele>158.33333333333334</ele><time>2026-04-19T08:52:58.924Z</time></trkpt><trkpt lat="45.489324291319086" lon="9.134533154643888"><ele>158.0</ele><time>2026-04-19T08:52:59.924Z</time></trkpt><trkpt lat="45.48928376875102" lon="9.134461843627214"><ele>157.66666666666669</ele><time>2026-04-19T08:53:00.924Z</time></trkpt><trkpt lat="45.48923308418185" lon="9.134356595070637"><ele>157.33333333333334</ele><time>2026-04-19T08:53:02.923Z</time></trkpt><trkpt lat="45.48921088258735" lon="9.134241005423421"><ele>157.0</ele><time>2026-04-19T08:53:04.923Z</time></trkpt><trkpt lat="45.489174035845366" lon="9.134132581687835"><ele>155.2</ele><time>2026-04-19T08:53:06.923Z</time></trkpt><trkpt lat="45.489088232187214" lon="9.134021387983761"><ele>153.39999999999998</ele><time>2026-04-19T08:53:08.923Z</time></trkpt><trkpt lat="45.48903396852065" lon="9.13393111751221"><ele>151.60000000000002</ele><time>2026-04-19T08:53:09.923Z</time></trkpt><trkpt lat="45.48897862859891" lon="9.133758633782907"><ele>149.8</ele><time>2026-04-19T08:53:11.923Z</time></trkpt><trkpt lat="45.48891259043198" lon="9.133648254414673"><ele>148.0</ele><time>2026-04-19T08:53:13.923Z</time></trkpt><trkpt lat="45.48885706910025" lon="9.13359618508339"><ele>148.0</ele><time>2026-04-19T08:53:14.923Z</time></trkpt><trkpt lat="45.48879666787286" lon="9.13354554254608"><ele>148.0</ele><time>2026-04-19T08:53:15.923Z</time></trkpt><trkpt lat="45.48868806407513" lon="9.133532232198117"><ele>148.0</ele><time>2026-04-19T08:53:17.923Z</time></trkpt><trkpt lat="45.48862992099439" lon="9.133580879853689"><ele>148.0</ele><time>2026-04-19T08:53:19.923Z</time></trkpt><trkpt lat="45.48852078768066" lon="9.133683306694834"><ele>148.0</ele><time>2026-04-19T08:53:21.923Z</time></trkpt><trkpt lat="45.48844248919681" lon="9.133770250022783"><ele>148.0</ele><time>2026-04-19T08:53:23.923Z</time></trkpt><trkpt lat="45.488376417335076" lon="9.133869815295494"><ele>148.0</ele><time>2026-04-19T08:53:25.923Z</time></trkpt><trkpt lat="45.488326334994824" lon="9.13399358436774"><ele>148.0</ele><time>2026-04-19T08:53:27.923Z</time></trkpt><trkpt lat="45.488283231572154" lon="9.134133181503174"><ele>148.0</ele><time>2026-04-19T08:53:29.923Z</time></trkpt><trkpt lat="45.48828615242854" lon="9.134271662364338"><ele>148.0</ele><time>2026-04-19T08:53:31.923Z</time></trkpt><trkpt lat="45.48842872833158" lon="9.134232072851352"><ele>148.0</ele><time>2026-04-19T08:53:33.923Z</time></trkpt><trkpt lat="45.48843598848516" lon="9.134335811284817"><ele>148.0</ele><time>2026-04-19T08:53:35.923Z</time></trkpt><trkpt lat="45.4884877868341" lon="9.13442719008309"><ele>148.0</ele><time>2026-04-19T08:53:38.923Z</time></trkpt><trkpt lat="45.488513599237585" lon="9.134512557721862"><ele>148.0</ele><time>2026-04-19T08:53:40.922Z</time></trkpt><trkpt lat="45.488594817399196" lon="9.134578406104188"><ele>148.0</ele><time>2026-04-19T08:53:43.922Z</time></trkpt><trkpt lat="45.48868143031268" lon="9.134638221868942"><ele>148.0</ele><time>2026-04-19T08:53:45.922Z</time></trkpt><trkpt lat="45.488751678082934" lon="9.134676334855483"><ele>149.0</ele><time>2026-04-19T08:53:47.922Z</time></trkpt><trkpt lat="45.48883679405783" lon="9.134776994866874"><ele>150.0</ele><time>2026-04-19T08:53:49.922Z</time></trkpt><trkpt lat="45.48888877839612" lon="9.134876045732623"><ele>151.0</ele><time>2026-04-19T08:53:51.922Z</time></trkpt><trkpt lat="45.48895766165006" lon="9.134924867456874"><ele>152.0</ele><time>2026-04-19T08:53:53.922Z</time></trkpt><trkpt lat="45.48902244279483" lon="9.135002439290819"><ele>153.0</ele><time>2026-04-19T08:53:55.922Z</time></trkpt><trkpt lat="45.489096570115024" lon="9.135062433695174"><ele>154.0</ele><time>2026-04-19T08:53:57.922Z</time></trkpt><trkpt lat="45.489154460368546" lon="9.135126304961881"><ele>154.0</ele><time>2026-04-19T08:53:59.922Z</time></trkpt><trkpt lat="45.489240758398566" lon="9.135180229911404"><ele>154.0</ele><time>2026-04-19T08:54:03.922Z</time></trkpt><trkpt lat="45.4893327324684" lon="9.135229754232626"><ele>154.0</ele><time>2026-04-19T08:54:05.922Z</time></trkpt><trkpt lat="45.48943534634571" lon="9.135283387185497"><ele>154.0</ele><time>2026-04-19T08:54:07.922Z</time></trkpt><trkpt lat="45.48948703190022" lon="9.135366128669705"><ele>154.0</ele><time>2026-04-19T08:54:08.922Z</time></trkpt><trkpt lat="45.489539259698624" lon="9.135446693539617"><ele>154.0</ele><time>2026-04-19T08:54:10.922Z</time></trkpt><trkpt lat="45.48966923819359" lon="9.135445514281145"><ele>154.0</ele><time>2026-04-19T08:54:38.921Z</time></trkpt><trkpt lat="45.489621632328635" lon="9.135363198985411"><ele>154.0</ele><time>2026-04-19T08:54:51.921Z</time></trkpt><trkpt lat="45.489587986871996" lon="9.13527728826807"><ele>154.0</ele><time>2026-04-19T08:55:14.92Z</time></trkpt><trkpt lat="45.48953901703204" lon="9.135175554220512"><ele>154.0</ele><time>2026-04-19T08:55:17.92Z</time></trkpt><trkpt lat="45.48947709388634" lon="9.135148956789822"><ele>154.0</ele><time>2026-04-19T08:55:19.92Z</time></trkpt><trkpt lat="45.4894121786484" lon="9.13510060538559"><ele>154.0</ele><time>2026-04-19T08:55:22.92Z</time></trkpt><trkpt lat="45.48934331416951" lon="9.135094928623461"><ele>154.0</ele><time>2026-04-19T08:55:26.92Z</time></trkpt><trkpt lat="45.48928237035644" lon="9.135000746181472"><ele>154.0</ele><time>2026-04-19T08:55:30.92Z</time></trkpt><trkpt lat="45.48921619327051" lon="9.13495673589972"><ele>154.0</ele><time>2026-04-19T08:55:32.92Z</time></trkpt><trkpt lat="45.489137942157384" lon="9.13486685273495"><ele>154.0</ele><time>2026-04-19T08:55:36.92Z</time></trkpt><trkpt lat="45.48907198743243" lon="9.134836110242302"><ele>154.0</ele><time>2026-04-19T08:55:39.92Z</time></trkpt><trkpt lat="45.48900871749466" lon="9.134770279640785"><ele>154.6</ele><time>2026-04-19T08:55:42.92Z</time></trkpt><trkpt lat="45.488913597723126" lon="9.134714654585729"><ele>155.2</ele><time>2026-04-19T08:55:45.92Z</time></trkpt><trkpt lat="45.488848306767665" lon="9.134626113777346"><ele>155.79999999999998</ele><time>2026-04-19T08:55:47.92Z</time></trkpt><trkpt lat="45.48877027722581" lon="9.134567088167714"><ele>156.4</ele><time>2026-04-19T08:55:49.919Z</time></trkpt><trkpt lat="45.488696061441104" lon="9.134530533765824"><ele>157.0</ele><time>2026-04-19T08:55:51.919Z</time></trkpt><trkpt lat="45.48861088301774" lon="9.13445806249479"><ele>155.5</ele><time>2026-04-19T08:55:54.919Z</time></trkpt><trkpt lat="45.48856007583091" lon="9.134404079155871"><ele>154.0</ele><time>2026-04-19T08:55:57.919Z</time></trkpt><trkpt lat="45.48852474865953" lon="9.134326830996018"><ele>152.5</ele><time>2026-04-19T08:56:01.919Z</time></trkpt><trkpt lat="45.48848823301828" lon="9.134242640618718"><ele>151.0</ele><time>2026-04-19T08:56:04.919Z</time></trkpt><trkpt lat="45.488453430143565" lon="9.134140958358442"><ele>149.5</ele><time>2026-04-19T08:56:06.919Z</time></trkpt><trkpt lat="45.48844096637478" lon="9.134025571454137"><ele>148.0</ele><time>2026-04-19T08:56:10.919Z</time></trkpt><trkpt lat="45.48853555752286" lon="9.133928505338893"><ele>148.0</ele><time>2026-04-19T08:56:14.919Z</time></trkpt><trkpt lat="45.4885838810066" lon="9.133825168473342"><ele>148.0</ele><time>2026-04-19T08:56:18.919Z</time></trkpt><trkpt lat="45.48861129517003" lon="9.1337386047636"><ele>148.0</ele><time>2026-04-19T08:56:20.919Z</time></trkpt><trkpt lat="45.48864878893503" lon="9.133632009105986"><ele>148.0</ele><time>2026-04-19T08:56:22.919Z</time></trkpt><trkpt lat="45.488713408590044" lon="9.133545187993242"><ele>148.0</ele><time>2026-04-19T08:56:25.919Z</time></trkpt><trkpt lat="45.48879588368057" lon="9.133495977013393"><ele>148.0</ele><time>2026-04-19T08:56:27.918Z</time></trkpt><trkpt lat="45.48886108259497" lon="9.133526078185671"><ele>148.0</ele><time>2026-04-19T08:56:29.918Z</time></trkpt><trkpt lat="45.48894449373953" lon="9.133492921513657"><ele>148.0</ele><time>2026-04-19T08:56:31.918Z</time></trkpt><trkpt lat="45.48901621267766" lon="9.133462311897103"><ele>148.0</ele><time>2026-04-19T08:56:33.918Z</time></trkpt><trkpt lat="45.48910394441591" lon="9.13344136731395"><ele>148.0</ele><time>2026-04-19T08:56:35.918Z</time></trkpt><trkpt lat="45.48917081456373" lon="9.13344433733644"><ele>148.0</ele><time>2026-04-19T08:56:36.918Z</time></trkpt><trkpt lat="45.489320245297655" lon="9.133474068211823"><ele>148.0</ele><time>2026-04-19T08:56:39.918Z</time></trkpt><trkpt lat="45.48940724630402" lon="9.133499582220963"><ele>148.0</ele><time>2026-04-19T08:56:41.918Z</time></trkpt><trkpt lat="45.48962483628744" lon="9.133506548524723"><ele>148.0</ele><time>2026-04-19T08:56:46.919Z</time></trkpt><trkpt lat="45.48968895674701" lon="9.133518236007433"><ele>148.0</ele><time>2026-04-19T08:56:48.919Z</time></trkpt><trkpt lat="45.48976106208558" lon="9.133526484104257"><ele>148.0</ele><time>2026-04-19T08:56:50.919Z</time></trkpt><trkpt lat="45.48982478678312" lon="9.133504979080953"><ele>147.83333333333334</ele><time>2026-04-19T08:56:51.919Z</time></trkpt><trkpt lat="45.489905742364755" lon="9.133483297525144"><ele>147.66666666666669</ele><time>2026-04-19T08:56:52.919Z</time></trkpt><trkpt lat="45.489989522613115" lon="9.133442281889332"><ele>147.5</ele><time>2026-04-19T08:56:54.918Z</time></trkpt><trkpt lat="45.49005355183649" lon="9.133334289292259"><ele>147.33333333333334</ele><time>2026-04-19T08:56:56.919Z</time></trkpt><trkpt lat="45.490104671445685" lon="9.133260347750687"><ele>147.16666666666666</ele><time>2026-04-19T08:56:57.919Z</time></trkpt><trkpt lat="45.490190486207936" lon="9.133173970617586"><ele>147.0</ele><time>2026-04-19T08:56:59.919Z</time></trkpt><trkpt lat="45.49028299709756" lon="9.133105499493517"><ele>146.66666666666666</ele><time>2026-04-19T08:57:01.919Z</time></trkpt><trkpt lat="45.490361210003186" lon="9.133087803655854"><ele>146.33333333333334</ele><time>2026-04-19T08:57:04.919Z</time></trkpt><trkpt lat="45.490431163349434" lon="9.133036304691634"><ele>146.0</ele><time>2026-04-19T08:57:06.918Z</time></trkpt><trkpt lat="45.490524171566754" lon="9.13296789996451"><ele>145.66666666666669</ele><time>2026-04-19T08:57:08.918Z</time></trkpt><trkpt lat="45.49058683032434" lon="9.132935620471365"><ele>145.33333333333334</ele><time>2026-04-19T08:57:09.918Z</time></trkpt><trkpt lat="45.490648701618206" lon="9.132903329412178"><ele>145.0</ele><time>2026-04-19T08:57:10.918Z</time></trkpt><trkpt lat="45.49075031846608" lon="9.132789563351444"><ele>145.0</ele><time>2026-04-19T08:57:12.918Z</time></trkpt><trkpt lat="45.49081888207299" lon="9.132725047459031"><ele>145.0</ele><time>2026-04-19T08:57:14.918Z</time></trkpt><trkpt lat="45.49091477872868" lon="9.132649021866813"><ele>145.0</ele><time>2026-04-19T08:57:16.918Z</time></trkpt><trkpt lat="45.49099305672398" lon="9.132596074732644"><ele>145.0</ele><time>2026-04-19T08:57:18.918Z</time></trkpt><trkpt lat="45.49109926017306" lon="9.132560675561463"><ele>145.0</ele><time>2026-04-19T08:57:21.918Z</time></trkpt><trkpt lat="45.49116185409962" lon="9.13251937509974"><ele>145.0</ele><time>2026-04-19T08:57:22.918Z</time></trkpt><trkpt lat="45.4912277247638" lon="9.132492195669178"><ele>145.0</ele><time>2026-04-19T08:57:23.918Z</time></trkpt><trkpt lat="45.491297744435194" lon="9.13248024426873"><ele>145.0</ele><time>2026-04-19T08:57:24.918Z</time></trkpt><trkpt lat="45.49136196729163" lon="9.13246589662269"><ele>145.0</ele><time>2026-04-19T08:57:25.918Z</time></trkpt><trkpt lat="45.491425009574684" lon="9.132438615537668"><ele>145.0</ele><time>2026-04-19T08:57:27.918Z</time></trkpt><trkpt lat="45.49151119628322" lon="9.132409536096866"><ele>145.0</ele><time>2026-04-19T08:57:29.918Z</time></trkpt><trkpt lat="45.491601878918665" lon="9.132396601714023"><ele>145.33333333333334</ele><time>2026-04-19T08:57:31.918Z</time></trkpt><trkpt lat="45.49166598353276" lon="9.13238541185849"><ele>145.66666666666669</ele><time>2026-04-19T08:57:32.918Z</time></trkpt><trkpt lat="45.49176011664579" lon="9.13235015595141"><ele>146.0</ele><time>2026-04-19T08:57:35.918Z</time></trkpt><trkpt lat="45.49182458398239" lon="9.13235671890484"><ele>146.33333333333334</ele><time>2026-04-19T08:57:36.918Z</time></trkpt><trkpt lat="45.491960066855235" lon="9.132439587255432"><ele>146.66666666666666</ele><time>2026-04-19T08:57:38.918Z</time></trkpt><trkpt lat="45.49202461284425" lon="9.132468584737499"><ele>147.0</ele><time>2026-04-19T08:57:39.918Z</time></trkpt><trkpt lat="45.49217866491399" lon="9.13248992972735"><ele>145.83333333333334</ele><time>2026-04-19T08:57:43.917Z</time></trkpt><trkpt lat="45.49223557600612" lon="9.132581432300787"><ele>144.66666666666666</ele><time>2026-04-19T08:57:45.917Z</time></trkpt><trkpt lat="45.492283966702786" lon="9.1326444740844"><ele>143.5</ele><time>2026-04-19T08:57:46.917Z</time></trkpt><trkpt lat="45.49234803944853" lon="9.132741884954656"><ele>142.33333333333331</ele><time>2026-04-19T08:57:48.917Z</time></trkpt><trkpt lat="45.492404874454174" lon="9.132823858001938"><ele>141.16666666666666</ele><time>2026-04-19T08:57:50.917Z</time></trkpt><trkpt lat="45.49241591954656" lon="9.132940858469748"><ele>140.0</ele><time>2026-04-19T08:57:52.917Z</time></trkpt><trkpt lat="45.49238738396382" lon="9.13302226540517"><ele>140.0</ele><time>2026-04-19T08:57:55.917Z</time></trkpt><trkpt lat="45.49235718198108" lon="9.13311326563431"><ele>140.0</ele><time>2026-04-19T08:57:58.917Z</time></trkpt><trkpt lat="45.49231098457494" lon="9.133186501997805"><ele>140.0</ele><time>2026-04-19T08:58:01.917Z</time></trkpt><trkpt lat="45.49225495766242" lon="9.133234601203377"><ele>140.0</ele><time>2026-04-19T08:58:05.917Z</time></trkpt><trkpt lat="45.49232056756998" lon="9.13320168094175"><ele>140.0</ele><time>2026-04-19T08:58:45.916Z</time></trkpt><trkpt lat="45.49238506461566" lon="9.133163779273438"><ele>140.0</ele><time>2026-04-19T08:58:47.916Z</time></trkpt><trkpt lat="45.49252545399862" lon="9.13313148918318"><ele>140.0</ele><time>2026-04-19T08:58:56.916Z</time></trkpt><trkpt lat="45.49259766622644" lon="9.13309698341443"><ele>140.0</ele><time>2026-04-19T08:58:59.916Z</time></trkpt><trkpt lat="45.49283961516898" lon="9.133066389754811"><ele>140.0</ele><time>2026-04-19T08:59:15.916Z</time></trkpt><trkpt lat="45.492860811387885" lon="9.133186973013089"><ele>140.0</ele><time>2026-04-19T08:59:19.916Z</time></trkpt><trkpt lat="45.49286365229502" lon="9.133300861420723"><ele>141.0</ele><time>2026-04-19T08:59:21.915Z</time></trkpt><trkpt lat="45.492828031544974" lon="9.133391910746274"><ele>142.0</ele><time>2026-04-19T08:59:23.915Z</time></trkpt><trkpt lat="45.492790592292046" lon="9.133505503319826"><ele>143.0</ele><time>2026-04-19T08:59:26.915Z</time></trkpt><trkpt lat="45.49274693007546" lon="9.133626688001572"><ele>144.0</ele><time>2026-04-19T08:59:29.915Z</time></trkpt><trkpt lat="45.4927309801789" lon="9.13375001157585"><ele>145.0</ele><time>2026-04-19T08:59:31.915Z</time></trkpt><trkpt lat="45.49268474074625" lon="9.133885580509464"><ele>145.0</ele><time>2026-04-19T08:59:33.915Z</time></trkpt><trkpt lat="45.49264964124482" lon="9.133960133353606"><ele>145.0</ele><time>2026-04-19T08:59:34.915Z</time></trkpt><trkpt lat="45.49261061925191" lon="9.134046214754026"><ele>145.0</ele><time>2026-04-19T08:59:36.915Z</time></trkpt><trkpt lat="45.49256377849933" lon="9.134109176882445"><ele>145.0</ele><time>2026-04-19T08:59:38.915Z</time></trkpt><trkpt lat="45.49248042318651" lon="9.134218556383559"><ele>145.0</ele><time>2026-04-19T08:59:40.915Z</time></trkpt><trkpt lat="45.49249127520044" lon="9.134346180996985"><ele>145.0</ele><time>2026-04-19T08:59:43.915Z</time></trkpt><trkpt lat="45.492481672180155" lon="9.134438930223695"><ele>144.33333333333334</ele><time>2026-04-19T08:59:45.915Z</time></trkpt><trkpt lat="45.4924710482261" lon="9.134543134569864"><ele>143.66666666666669</ele><time>2026-04-19T08:59:47.915Z</time></trkpt><trkpt lat="45.49248084720071" lon="9.134665098328059"><ele>143.0</ele><time>2026-04-19T08:59:49.915Z</time></trkpt><trkpt lat="45.49247032096852" lon="9.134769246160442"><ele>142.33333333333334</ele><time>2026-04-19T08:59:51.915Z</time></trkpt><trkpt lat="45.49244889281232" lon="9.134885041638402"><ele>141.66666666666666</ele><time>2026-04-19T08:59:53.915Z</time></trkpt><trkpt lat="45.49242091310203" lon="9.134971022235954"><ele>141.0</ele><time>2026-04-19T08:59:54.915Z</time></trkpt><trkpt lat="45.49239821232657" lon="9.135107830691327"><ele>140.6</ele><time>2026-04-19T08:59:57.914Z</time></trkpt><trkpt lat="45.49232656965324" lon="9.13522625253226"><ele>140.2</ele><time>2026-04-19T08:59:59.914Z</time></trkpt><trkpt lat="45.49225454970328" lon="9.135340104095445"><ele>139.8</ele><time>2026-04-19T09:00:01.914Z</time></trkpt><trkpt lat="45.49216955288925" lon="9.135425527808861"><ele>139.4</ele><time>2026-04-19T09:00:03.914Z</time></trkpt><trkpt lat="45.49208907429917" lon="9.135495340882516"><ele>139.0</ele><time>2026-04-19T09:00:05.914Z</time></trkpt><trkpt lat="45.49199903655742" lon="9.135567346884594"><ele>140.2</ele><time>2026-04-19T09:00:08.914Z</time></trkpt><trkpt lat="45.49193402613609" lon="9.135649676310905"><ele>141.4</ele><time>2026-04-19T09:00:10.914Z</time></trkpt><trkpt lat="45.49187018906584" lon="9.135714995996446"><ele>142.6</ele><time>2026-04-19T09:00:11.914Z</time></trkpt><trkpt lat="45.491776522591095" lon="9.135768687813021"><ele>143.8</ele><time>2026-04-19T09:00:13.914Z</time></trkpt><trkpt lat="45.49167767467716" lon="9.135788794018225"><ele>145.0</ele><time>2026-04-19T09:00:15.914Z</time></trkpt><trkpt lat="45.491587855585585" lon="9.135837171496547"><ele>145.0</ele><time>2026-04-19T09:00:18.914Z</time></trkpt><trkpt lat="45.49148851610263" lon="9.135897101955095"><ele>145.0</ele><time>2026-04-19T09:00:20.914Z</time></trkpt><trkpt lat="45.49136555619342" lon="9.135893224994321"><ele>145.0</ele><time>2026-04-19T09:00:22.914Z</time></trkpt><trkpt lat="45.49129971828682" lon="9.135920257931817"><ele>145.0</ele><time>2026-04-19T09:00:23.914Z</time></trkpt><trkpt lat="45.4912346593168" lon="9.135910920273648"><ele>145.0</ele><time>2026-04-19T09:00:24.914Z</time></trkpt><trkpt lat="45.491135375545596" lon="9.135952040329956"><ele>145.83333333333334</ele><time>2026-04-19T09:00:26.914Z</time></trkpt><trkpt lat="45.49105694182194" lon="9.13597035774127"><ele>146.66666666666669</ele><time>2026-04-19T09:00:28.914Z</time></trkpt><trkpt lat="45.49098996566939" lon="9.135967732734187"><ele>147.5</ele><time>2026-04-19T09:00:30.914Z</time></trkpt><trkpt lat="45.49089653330769" lon="9.135998967521225"><ele>148.33333333333334</ele><time>2026-04-19T09:00:32.914Z</time></trkpt><trkpt lat="45.49078993453556" lon="9.13601954785942"><ele>149.16666666666666</ele><time>2026-04-19T09:00:34.914Z</time></trkpt><trkpt lat="45.49070230709118" lon="9.136076238366115"><ele>150.0</ele><time>2026-04-19T09:00:36.913Z</time></trkpt><trkpt lat="45.490613066484066" lon="9.136062048409638"><ele>150.0</ele><time>2026-04-19T09:00:38.913Z</time></trkpt><trkpt lat="45.49049813953466" lon="9.136089724499227"><ele>150.0</ele><time>2026-04-19T09:00:40.913Z</time></trkpt><trkpt lat="45.49041520473055" lon="9.13606658166437"><ele>150.0</ele><time>2026-04-19T09:00:42.913Z</time></trkpt><trkpt lat="45.490342345866665" lon="9.136096223594784"><ele>150.0</ele><time>2026-04-19T09:00:44.913Z</time></trkpt><trkpt lat="45.49027591983517" lon="9.136114397455145"><ele>150.0</ele><time>2026-04-19T09:00:46.913Z</time></trkpt><trkpt lat="45.49021308226484" lon="9.136146757279361"><ele>150.0</ele><time>2026-04-19T09:00:51.913Z</time></trkpt><trkpt lat="45.49014295673701" lon="9.136185585789717"><ele>149.0</ele><time>2026-04-19T09:00:53.913Z</time></trkpt><trkpt lat="45.49006433411286" lon="9.136255716345735"><ele>148.0</ele><time>2026-04-19T09:00:55.913Z</time></trkpt><trkpt lat="45.489970820467136" lon="9.136330505457977"><ele>147.0</ele><time>2026-04-19T09:00:57.913Z</time></trkpt><trkpt lat="45.48989665016964" lon="9.136428091714418"><ele>146.0</ele><time>2026-04-19T09:00:59.913Z</time></trkpt><trkpt lat="45.4898022390765" lon="9.13646739860517"><ele>145.0</ele><time>2026-04-19T09:01:01.913Z</time></trkpt><trkpt lat="45.4897303126776" lon="9.136447680008192"><ele>145.0</ele><time>2026-04-19T09:01:02.913Z</time></trkpt><trkpt lat="45.489628336638994" lon="9.136413750925087"><ele>145.0</ele><time>2026-04-19T09:01:04.913Z</time></trkpt><trkpt lat="45.489540461722775" lon="9.13643873715885"><ele>145.0</ele><time>2026-04-19T09:01:06.914Z</time></trkpt><trkpt lat="45.489445806501664" lon="9.136415558510572"><ele>145.0</ele><time>2026-04-19T09:01:08.914Z</time></trkpt><trkpt lat="45.489341031259976" lon="9.136370592762214"><ele>145.0</ele><time>2026-04-19T09:01:10.913Z</time></trkpt><trkpt lat="45.48921700512191" lon="9.136337720517842"><ele>144.66666666666669</ele><time>2026-04-19T09:01:12.913Z</time></trkpt><trkpt lat="45.48914400769008" lon="9.136357598471042"><ele>144.33333333333334</ele><time>2026-04-19T09:01:13.913Z</time></trkpt><trkpt lat="45.48906702581105" lon="9.136250502424456"><ele>144.0</ele><time>2026-04-19T09:01:15.913Z</time></trkpt><trkpt lat="45.489009567876344" lon="9.136179548191118"><ele>143.66666666666666</ele><time>2026-04-19T09:01:17.913Z</time></trkpt><trkpt lat="45.488914663211844" lon="9.136062997901453"><ele>143.33333333333331</ele><time>2026-04-19T09:01:19.913Z</time></trkpt><trkpt lat="45.48887865143071" lon="9.135986697299812"><ele>143.0</ele><time>2026-04-19T09:01:20.913Z</time></trkpt><trkpt lat="45.48881942345685" lon="9.135931780839865"><ele>143.20000000000002</ele><time>2026-04-19T09:01:21.913Z</time></trkpt><trkpt lat="45.48870548717457" lon="9.135890759459242"><ele>143.4</ele><time>2026-04-19T09:01:23.913Z</time></trkpt><trkpt lat="45.4886393733976" lon="9.135792976174475"><ele>143.60000000000002</ele><time>2026-04-19T09:01:25.913Z</time></trkpt><trkpt lat="45.48856001588688" lon="9.135718703933607"><ele>143.8</ele><time>2026-04-19T09:01:27.913Z</time></trkpt><trkpt lat="45.4884884030842" lon="9.135633217161631"><ele>144.0</ele><time>2026-04-19T09:01:29.913Z</time></trkpt><trkpt lat="45.48843491862741" lon="9.135560853825575"><ele>144.0</ele><time>2026-04-19T09:01:34.912Z</time></trkpt><trkpt lat="45.48836360441196" lon="9.135542971067181"><ele>144.0</ele><time>2026-04-19T09:01:37.912Z</time></trkpt><trkpt lat="45.48828079093514" lon="9.135499005215134"><ele>144.0</ele><time>2026-04-19T09:01:39.912Z</time></trkpt><trkpt lat="45.488241619084604" lon="9.135427252577395"><ele>144.0</ele><time>2026-04-19T09:01:40.912Z</time></trkpt><trkpt lat="45.48815510194715" lon="9.135340197251905"><ele>144.0</ele><time>2026-04-19T09:01:42.912Z</time></trkpt><trkpt lat="45.488052603540126" lon="9.135274857304909"><ele>144.0</ele><time>2026-04-19T09:01:44.912Z</time></trkpt><trkpt lat="45.48799286876943" lon="9.135214396898208"><ele>144.0</ele><time>2026-04-19T09:01:45.912Z</time></trkpt><trkpt lat="45.487930539386795" lon="9.135167721201327"><ele>144.0</ele><time>2026-04-19T09:01:46.912Z</time></trkpt><trkpt lat="45.48782948784562" lon="9.135186973570887"><ele>144.0</ele><time>2026-04-19T09:01:48.912Z</time></trkpt><trkpt lat="45.48773995056244" lon="9.13515125362378"><ele>144.0</ele><time>2026-04-19T09:01:49.912Z</time></trkpt><trkpt lat="45.487675486571575" lon="9.135131322502193"><ele>144.0</ele><time>2026-04-19T09:01:50.912Z</time></trkpt><trkpt lat="45.48759162583087" lon="9.135131339496954"><ele>144.0</ele><time>2026-04-19T09:01:52.912Z</time></trkpt><trkpt lat="45.48752228338132" lon="9.135128742899834"><ele>141.8</ele><time>2026-04-19T09:01:53.912Z</time></trkpt><trkpt lat="45.48745683121005" lon="9.135142788832605"><ele>139.60000000000002</ele><time>2026-04-19T09:01:54.912Z</time></trkpt><trkpt lat="45.4873325216768" lon="9.135115149961987"><ele>137.4</ele><time>2026-04-19T09:01:56.912Z</time></trkpt><trkpt lat="45.487224265254106" lon="9.135139859192405"><ele>135.20000000000002</ele><time>2026-04-19T09:01:58.912Z</time></trkpt><trkpt lat="45.48714292883366" lon="9.135158384392001"><ele>133.0</ele><time>2026-04-19T09:02:01.912Z</time></trkpt><trkpt lat="45.48706019670722" lon="9.135176528998324"><ele>132.33333333333334</ele><time>2026-04-19T09:02:04.912Z</time></trkpt><trkpt lat="45.48699929220924" lon="9.135151826884396"><ele>131.66666666666669</ele><time>2026-04-19T09:02:07.912Z</time></trkpt><trkpt lat="45.48690773736227" lon="9.13513943708603"><ele>131.0</ele><time>2026-04-19T09:02:20.911Z</time></trkpt><trkpt lat="45.48686533083225" lon="9.135033687897641"><ele>130.33333333333334</ele><time>2026-04-19T09:02:26.911Z</time></trkpt><trkpt lat="45.48680774723236" lon="9.134984098221011"><ele>129.66666666666666</ele><time>2026-04-19T09:02:30.911Z</time></trkpt><trkpt lat="45.48674334100224" lon="9.134975461823926"><ele>129.0</ele><time>2026-04-19T09:02:33.911Z</time></trkpt><trkpt lat="45.48666616136948" lon="9.13503217373884"><ele>129.0</ele><time>2026-04-19T09:02:36.911Z</time></trkpt><trkpt lat="45.48663527477628" lon="9.135116477597164"><ele>129.0</ele><time>2026-04-19T09:02:38.911Z</time></trkpt><trkpt lat="45.486575158858884" lon="9.135200751981788"><ele>129.0</ele><time>2026-04-19T09:02:41.911Z</time></trkpt><trkpt lat="45.48651828955288" lon="9.135291627355269"><ele>129.0</ele><time>2026-04-19T09:02:43.911Z</time></trkpt><trkpt lat="45.486494933228514" lon="9.13539237394092"><ele>129.0</ele><time>2026-04-19T09:02:47.91Z</time></trkpt><trkpt lat="45.486437613717904" lon="9.135468274923923"><ele>129.0</ele><time>2026-04-19T09:02:49.91Z</time></trkpt><trkpt lat="45.486384739280716" lon="9.135518220490349"><ele>129.0</ele><time>2026-04-19T09:02:51.91Z</time></trkpt><trkpt lat="45.486330739224556" lon="9.13558845750807"><ele>129.0</ele><time>2026-04-19T09:02:53.91Z</time></trkpt><trkpt lat="45.48627638676503" lon="9.135658342784243"><ele>129.0</ele><time>2026-04-19T09:02:55.91Z</time></trkpt><trkpt lat="45.48619254537967" lon="9.135723248716703"><ele>129.0</ele><time>2026-04-19T09:02:57.91Z</time></trkpt><trkpt lat="45.486117657454336" lon="9.135792619452532"><ele>129.0</ele><time>2026-04-19T09:02:59.91Z</time></trkpt><trkpt lat="45.48603041134857" lon="9.135814011128787"><ele>129.0</ele><time>2026-04-19T09:03:02.91Z</time></trkpt><trkpt lat="45.48592018562844" lon="9.135819013068991"><ele>129.0</ele><time>2026-04-19T09:03:05.911Z</time></trkpt><trkpt lat="45.485854846701166" lon="9.135786918661376"><ele>129.0</ele><time>2026-04-19T09:03:07.911Z</time></trkpt><trkpt lat="45.485785353406165" lon="9.135797018512907"><ele>129.0</ele><time>2026-04-19T09:03:09.911Z</time></trkpt><trkpt lat="45.48570923272785" lon="9.135802055155324"><ele>129.0</ele><time>2026-04-19T09:03:12.911Z</time></trkpt><trkpt lat="45.4856328736551" lon="9.135772689904568"><ele>129.0</ele><time>2026-04-19T09:03:14.911Z</time></trkpt><trkpt lat="45.48551756829892" lon="9.135741702071588"><ele>129.0</ele><time>2026-04-19T09:03:16.91Z</time></trkpt><trkpt lat="45.48542863609656" lon="9.13569568681135"><ele>129.0</ele><time>2026-04-19T09:03:18.911Z</time></trkpt><trkpt lat="45.485365992015495" lon="9.135682974921064"><ele>129.0</ele><time>2026-04-19T09:03:19.911Z</time></trkpt><trkpt lat="45.48528472985625" lon="9.13566046890208"><ele>129.0</ele><time>2026-04-19T09:03:20.911Z</time></trkpt><trkpt lat="45.48517112158771" lon="9.135624416608314"><ele>129.0</ele><time>2026-04-19T09:03:22.911Z</time></trkpt><trkpt lat="45.48510631610598" lon="9.135613348947539"><ele>129.0</ele><time>2026-04-19T09:03:23.911Z</time></trkpt><trkpt lat="45.48504471676851" lon="9.135573863221765"><ele>129.0</ele><time>2026-04-19T09:03:24.911Z</time></trkpt><trkpt lat="45.48495735522757" lon="9.135500771253572"><ele>129.0</ele><time>2026-04-19T09:03:26.911Z</time></trkpt><trkpt lat="45.48485862036795" lon="9.135471840722072"><ele>129.0</ele><time>2026-04-19T09:03:28.911Z</time></trkpt><trkpt lat="45.48471533442012" lon="9.135421933569278"><ele>129.0</ele><time>2026-04-19T09:03:30.911Z</time></trkpt><trkpt lat="45.484650279270774" lon="9.135451748529599"><ele>129.0</ele><time>2026-04-19T09:03:33.911Z</time></trkpt><trkpt lat="45.48459784305853" lon="9.135552959624016"><ele>129.0</ele><time>2026-04-19T09:03:35.911Z</time></trkpt><trkpt lat="45.484549593481965" lon="9.135691047437534"><ele>129.0</ele><time>2026-04-19T09:03:37.91Z</time></trkpt><trkpt lat="45.48448536083328" lon="9.135797025777265"><ele>129.0</ele><time>2026-04-19T09:03:40.91Z</time></trkpt><trkpt lat="45.48443968989958" lon="9.13588353843896"><ele>129.0</ele><time>2026-04-19T09:03:43.91Z</time></trkpt><trkpt lat="45.48440400897866" lon="9.135998735723325"><ele>129.0</ele><time>2026-04-19T09:03:45.91Z</time></trkpt><trkpt lat="45.484379705949095" lon="9.136129841292918"><ele>129.0</ele><time>2026-04-19T09:03:49.91Z</time></trkpt><trkpt lat="45.484362193197704" lon="9.136272473122794"><ele>129.0</ele><time>2026-04-19T09:03:51.91Z</time></trkpt><trkpt lat="45.484341788398204" lon="9.136429980667645"><ele>129.0</ele><time>2026-04-19T09:03:53.91Z</time></trkpt><trkpt lat="45.48430707758979" lon="9.136516338996376"><ele>129.0</ele><time>2026-04-19T09:03:56.91Z</time></trkpt><trkpt lat="45.48427751320552" lon="9.136624427006934"><ele>129.0</ele><time>2026-04-19T09:03:59.91Z</time></trkpt><trkpt lat="45.484251567124474" lon="9.136744995426595"><ele>129.0</ele><time>2026-04-19T09:04:02.91Z</time></trkpt><trkpt lat="45.484204433102704" lon="9.136886830115825"><ele>128.66666666666666</ele><time>2026-04-19T09:04:06.91Z</time></trkpt><trkpt lat="45.484157931182985" lon="9.137021211005482"><ele>128.33333333333334</ele><time>2026-04-19T09:04:08.91Z</time></trkpt><trkpt lat="45.48412279479568" lon="9.137143258154028"><ele>128.0</ele><time>2026-04-19T09:04:10.91Z</time></trkpt><trkpt lat="45.48409268305218" lon="9.137236320420882"><ele>127.66666666666667</ele><time>2026-04-19T09:04:12.91Z</time></trkpt><trkpt lat="45.48405468662485" lon="9.13732581968012"><ele>127.33333333333334</ele><time>2026-04-19T09:04:14.909Z</time></trkpt><trkpt lat="45.48405648154246" lon="9.13741715877737"><ele>127.0</ele><time>2026-04-19T09:04:16.909Z</time></trkpt><trkpt lat="45.4840458028536" lon="9.137511066811063"><ele>127.0</ele><time>2026-04-19T09:04:19.909Z</time></trkpt><trkpt lat="45.484021461443646" lon="9.13764015108203"><ele>126.99999999999999</ele><time>2026-04-19T09:04:22.909Z</time></trkpt><trkpt lat="45.484007176623464" lon="9.137751954879818"><ele>126.99999999999999</ele><time>2026-04-19T09:04:24.909Z</time></trkpt><trkpt lat="45.483980662772964" lon="9.137916178954745"><ele>127.0</ele><time>2026-04-19T09:04:26.909Z</time></trkpt><trkpt lat="45.4839489844545" lon="9.138045358149364"><ele>127.0</ele><time>2026-04-19T09:04:28.908Z</time></trkpt><trkpt lat="45.48391267434661" lon="9.13821151476712"><ele>127.39999999999999</ele><time>2026-04-19T09:04:30.904Z</time></trkpt><trkpt lat="45.483891920397326" lon="9.13834920724395"><ele>127.79999999999998</ele><time>2026-04-19T09:04:32.901Z</time></trkpt><trkpt lat="45.48387977210742" lon="9.138518831368023"><ele>128.2</ele><time>2026-04-19T09:04:34.899Z</time></trkpt><trkpt lat="45.483867233571736" lon="9.138652641504617"><ele>128.6</ele><time>2026-04-19T09:04:36.897Z</time></trkpt><trkpt lat="45.4838127154724" lon="9.138811030065128"><ele>129.0</ele><time>2026-04-19T09:04:38.895Z</time></trkpt><trkpt lat="45.483741748956945" lon="9.138915765875174"><ele>129.4</ele><time>2026-04-19T09:04:40.893Z</time></trkpt><trkpt lat="45.48369194110062" lon="9.138993505948214"><ele>129.8</ele><time>2026-04-19T09:04:43.891Z</time></trkpt><trkpt lat="45.48366216745721" lon="9.139107719729317"><ele>130.2</ele><time>2026-04-19T09:04:45.889Z</time></trkpt><trkpt lat="45.48362189224386" lon="9.139287635752325"><ele>130.6</ele><time>2026-04-19T09:04:47.888Z</time></trkpt><trkpt lat="45.48363290872963" lon="9.139395541075801"><ele>131.0</ele><time>2026-04-19T09:04:48.888Z</time></trkpt><trkpt lat="45.48363215278961" lon="9.13951701865204"><ele>130.83333333333331</ele><time>2026-04-19T09:04:49.887Z</time></trkpt><trkpt lat="45.48362484513877" lon="9.139620295197375"><ele>130.66666666666666</ele><time>2026-04-19T09:04:50.887Z</time></trkpt><trkpt lat="45.483617053600916" lon="9.139728133474419"><ele>130.5</ele><time>2026-04-19T09:04:51.886Z</time></trkpt><trkpt lat="45.48360813430566" lon="9.139881387173698"><ele>130.33333333333334</ele><time>2026-04-19T09:04:53.885Z</time></trkpt><trkpt lat="45.483620940720144" lon="9.1400289882747"><ele>130.16666666666669</ele><time>2026-04-19T09:04:55.885Z</time></trkpt><trkpt lat="45.48361896079339" lon="9.140134397108502"><ele>130.0</ele><time>2026-04-19T09:04:58.884Z</time></trkpt><trkpt lat="45.483625379178065" lon="9.140253159118462"><ele>130.0</ele><time>2026-04-19T09:05:00.883Z</time></trkpt><trkpt lat="45.48362408609309" lon="9.140355321861826"><ele>130.0</ele><time>2026-04-19T09:05:01.883Z</time></trkpt><trkpt lat="45.483624763828246" lon="9.140492623183388"><ele>130.0</ele><time>2026-04-19T09:05:03.883Z</time></trkpt><trkpt lat="45.483624214925996" lon="9.140611933591453"><ele>130.0</ele><time>2026-04-19T09:05:05.882Z</time></trkpt><trkpt lat="45.483621268942194" lon="9.140707830641949"><ele>130.0</ele><time>2026-04-19T09:05:06.882Z</time></trkpt><trkpt lat="45.48361130832374" lon="9.140805317060984"><ele>130.0</ele><time>2026-04-19T09:05:07.882Z</time></trkpt><trkpt lat="45.483585428280016" lon="9.140931253165608"><ele>130.0</ele><time>2026-04-19T09:05:09.881Z</time></trkpt><trkpt lat="45.48361029839484" lon="9.141058841711622"><ele>130.0</ele><time>2026-04-19T09:05:12.881Z</time></trkpt><trkpt lat="45.48362759271397" lon="9.141157888332373"><ele>130.0</ele><time>2026-04-19T09:05:14.882Z</time></trkpt><trkpt lat="45.48366038159672" lon="9.141246742560217"><ele>130.0</ele><time>2026-04-19T09:05:16.881Z</time></trkpt><trkpt lat="45.48365959726566" lon="9.141345809906344"><ele>130.0</ele><time>2026-04-19T09:05:18.881Z</time></trkpt><trkpt lat="45.483636534468076" lon="9.14144830713858"><ele>130.0</ele><time>2026-04-19T09:05:20.881Z</time></trkpt><trkpt lat="45.48360459278607" lon="9.141587533040523"><ele>130.0</ele><time>2026-04-19T09:05:22.88Z</time></trkpt><trkpt lat="45.483567514609014" lon="9.141720688176017"><ele>130.0</ele><time>2026-04-19T09:05:25.88Z</time></trkpt><trkpt lat="45.48353386564689" lon="9.141819628677142"><ele>130.0</ele><time>2026-04-19T09:05:27.88Z</time></trkpt><trkpt lat="45.48348691546277" lon="9.14188065189315"><ele>130.0</ele><time>2026-04-19T09:05:29.879Z</time></trkpt><trkpt lat="45.48338336579672" lon="9.141844484551568"><ele>130.0</ele><time>2026-04-19T09:05:32.879Z</time></trkpt><trkpt lat="45.4832906817013" lon="9.141801929088658"><ele>130.0</ele><time>2026-04-19T09:05:34.879Z</time></trkpt><trkpt lat="45.483226150529674" lon="9.14177997316138"><ele>130.0</ele><time>2026-04-19T09:05:36.879Z</time></trkpt><trkpt lat="45.483157767386636" lon="9.141760992983224"><ele>130.0</ele><time>2026-04-19T09:05:39.879Z</time></trkpt><trkpt lat="45.48305678614271" lon="9.141789159213335"><ele>130.0</ele><time>2026-04-19T09:05:42.879Z</time></trkpt><trkpt lat="45.4830127734614" lon="9.141680528255277"><ele>130.0</ele><time>2026-04-19T09:05:47.878Z</time></trkpt><trkpt lat="45.48297135070548" lon="9.141486768649875"><ele>130.0</ele><time>2026-04-19T09:05:49.878Z</time></trkpt><trkpt lat="45.48300280290589" lon="9.14139202227882"><ele>130.0</ele><time>2026-04-19T09:05:50.878Z</time></trkpt><trkpt lat="45.483024393347016" lon="9.14127698458276"><ele>130.0</ele><time>2026-04-19T09:05:51.878Z</time></trkpt><trkpt lat="45.483062082404466" lon="9.141162358013792"><ele>130.0</ele><time>2026-04-19T09:05:52.878Z</time></trkpt><trkpt lat="45.483055750946356" lon="9.141018201320712"><ele>130.0</ele><time>2026-04-19T09:05:54.878Z</time></trkpt><trkpt lat="45.483039596327586" lon="9.140918123248936"><ele>130.0</ele><time>2026-04-19T09:05:56.878Z</time></trkpt><trkpt lat="45.4830104133629" lon="9.140801052516947"><ele>130.0</ele><time>2026-04-19T09:05:58.878Z</time></trkpt><trkpt lat="45.4830292787538" lon="9.140703372535782"><ele>130.0</ele><time>2026-04-19T09:05:59.878Z</time></trkpt><trkpt lat="45.483044645163766" lon="9.140614047588366"><ele>130.0</ele><time>2026-04-19T09:06:00.878Z</time></trkpt><trkpt lat="45.48306086903609" lon="9.140519871728186"><ele>130.0</ele><time>2026-04-19T09:06:01.878Z</time></trkpt><trkpt lat="45.48308786682856" lon="9.140420751251531"><ele>130.0</ele><time>2026-04-19T09:06:02.878Z</time></trkpt><trkpt lat="45.48311738861572" lon="9.14032110880001"><ele>130.0</ele><time>2026-04-19T09:06:03.878Z</time></trkpt><trkpt lat="45.48315199917853" lon="9.140236696443864"><ele>130.0</ele><time>2026-04-19T09:06:04.878Z</time></trkpt><trkpt lat="45.48316158774289" lon="9.140084075568645"><ele>130.0</ele><time>2026-04-19T09:06:06.878Z</time></trkpt><trkpt lat="45.48317682575285" lon="9.139976813064573"><ele>130.0</ele><time>2026-04-19T09:06:07.878Z</time></trkpt><trkpt lat="45.48318935230141" lon="9.139882492034129"><ele>130.0</ele><time>2026-04-19T09:06:08.878Z</time></trkpt><trkpt lat="45.48319802921359" lon="9.139779737662751"><ele>130.0</ele><time>2026-04-19T09:06:09.878Z</time></trkpt><trkpt lat="45.48322854204066" lon="9.139692797119075"><ele>130.0</ele><time>2026-04-19T09:06:11.878Z</time></trkpt><trkpt lat="45.48328615182502" lon="9.139564112415806"><ele>130.0</ele><time>2026-04-19T09:06:13.877Z</time></trkpt><trkpt lat="45.48328464553332" lon="9.139459479120157"><ele>130.16666666666669</ele><time>2026-04-19T09:06:14.877Z</time></trkpt><trkpt lat="45.48329100568451" lon="9.139356460132529"><ele>130.33333333333334</ele><time>2026-04-19T09:06:15.877Z</time></trkpt><trkpt lat="45.483311608523394" lon="9.139188553385928"><ele>130.5</ele><time>2026-04-19T09:06:17.877Z</time></trkpt><trkpt lat="45.48333750424909" lon="9.139039042217052"><ele>130.66666666666666</ele><time>2026-04-19T09:06:19.877Z</time></trkpt><trkpt lat="45.48335229351687" lon="9.13892773780104"><ele>130.83333333333331</ele><time>2026-04-19T09:06:20.877Z</time></trkpt><trkpt lat="45.48337265545888" lon="9.138838082450228"><ele>131.0</ele><time>2026-04-19T09:06:21.877Z</time></trkpt><trkpt lat="45.48341060792139" lon="9.138717973050854"><ele>131.0</ele><time>2026-04-19T09:06:22.877Z</time></trkpt><trkpt lat="45.48343476681985" lon="9.138630230565226"><ele>131.0</ele><time>2026-04-19T09:06:23.877Z</time></trkpt><trkpt lat="45.483461696409634" lon="9.13851387218028"><ele>131.0</ele><time>2026-04-19T09:06:25.877Z</time></trkpt><trkpt lat="45.48347143940417" lon="9.13838768180953"><ele>131.0</ele><time>2026-04-19T09:06:27.877Z</time></trkpt><trkpt lat="45.483443932395865" lon="9.138187803689656"><ele>131.0</ele><time>2026-04-19T09:06:29.877Z</time></trkpt><trkpt lat="45.48341406410758" lon="9.138108469354897"><ele>131.0</ele><time>2026-04-19T09:06:31.877Z</time></trkpt><trkpt lat="45.48334767650985" lon="9.138064734768617"><ele>130.83333333333331</ele><time>2026-04-19T09:06:33.877Z</time></trkpt><trkpt lat="45.483261060400615" lon="9.138059049527543"><ele>130.66666666666666</ele><time>2026-04-19T09:06:35.877Z</time></trkpt><trkpt lat="45.48318327071928" lon="9.137981438260336"><ele>130.5</ele><time>2026-04-19T09:06:36.877Z</time></trkpt><trkpt lat="45.48312622051524" lon="9.137925323857237"><ele>130.33333333333334</ele><time>2026-04-19T09:06:37.877Z</time></trkpt><trkpt lat="45.48303866806357" lon="9.13786211985585"><ele>130.16666666666669</ele><time>2026-04-19T09:06:39.877Z</time></trkpt><trkpt lat="45.482994793309494" lon="9.137775939390226"><ele>130.0</ele><time>2026-04-19T09:06:42.876Z</time></trkpt><trkpt lat="45.48291313516215" lon="9.137736044644386"><ele>130.0</ele><time>2026-04-19T09:06:44.876Z</time></trkpt><trkpt lat="45.482835594165145" lon="9.137816947005865"><ele>130.0</ele><time>2026-04-19T09:06:47.876Z</time></trkpt><trkpt lat="45.48280888112677" lon="9.137915677234417"><ele>130.0</ele><time>2026-04-19T09:06:49.876Z</time></trkpt><trkpt lat="45.482762488538214" lon="9.138014060693159"><ele>130.0</ele><time>2026-04-19T09:06:53.876Z</time></trkpt><trkpt lat="45.482727195999715" lon="9.138133917782776"><ele>130.0</ele><time>2026-04-19T09:06:56.876Z</time></trkpt><trkpt lat="45.48269953667036" lon="9.1382693257605"><ele>130.0</ele><time>2026-04-19T09:06:59.876Z</time></trkpt><trkpt lat="45.4826438817363" lon="9.138349014156564"><ele>129.6</ele><time>2026-04-19T09:07:03.876Z</time></trkpt><trkpt lat="45.482602991471346" lon="9.138460767338998"><ele>129.2</ele><time>2026-04-19T09:07:06.876Z</time></trkpt><trkpt lat="45.48258662305461" lon="9.13859682189627"><ele>128.8</ele><time>2026-04-19T09:07:08.876Z</time></trkpt><trkpt lat="45.48254025242493" lon="9.138740529613859"><ele>128.4</ele><time>2026-04-19T09:07:11.875Z</time></trkpt><trkpt lat="45.482506242948624" lon="9.138855969309935"><ele>128.0</ele><time>2026-04-19T09:07:13.875Z</time></trkpt><trkpt lat="45.48248565638619" lon="9.138951567416308"><ele>128.0</ele><time>2026-04-19T09:07:14.875Z</time></trkpt><trkpt lat="45.48245512190763" lon="9.139037044664928"><ele>128.0</ele><time>2026-04-19T09:07:15.875Z</time></trkpt><trkpt lat="45.48240312499586" lon="9.139178070291022"><ele>128.0</ele><time>2026-04-19T09:07:17.876Z</time></trkpt><trkpt lat="45.48234262941696" lon="9.139339700867822"><ele>128.0</ele><time>2026-04-19T09:07:19.876Z</time></trkpt><trkpt lat="45.4822783258097" lon="9.139440420065561"><ele>128.0</ele><time>2026-04-19T09:07:20.876Z</time></trkpt><trkpt lat="45.48223899190904" lon="9.139512111396147"><ele>127.49999999999999</ele><time>2026-04-19T09:07:21.876Z</time></trkpt><trkpt lat="45.482206153423775" lon="9.139604390922633"><ele>127.0</ele><time>2026-04-19T09:07:23.876Z</time></trkpt><trkpt lat="45.482130924713545" lon="9.139721033534927"><ele>126.5</ele><time>2026-04-19T09:07:25.876Z</time></trkpt><trkpt lat="45.48208046029148" lon="9.139776691370932"><ele>126.0</ele><time>2026-04-19T09:07:26.876Z</time></trkpt><trkpt lat="45.48200867539023" lon="9.139862206378334"><ele>125.49999999999999</ele><time>2026-04-19T09:07:27.876Z</time></trkpt><trkpt lat="45.481934469880365" lon="9.139929902221384"><ele>125.0</ele><time>2026-04-19T09:07:28.876Z</time></trkpt><trkpt lat="45.48187260875557" lon="9.140006471953555"><ele>124.99999999999999</ele><time>2026-04-19T09:07:29.876Z</time></trkpt><trkpt lat="45.4818070842642" lon="9.140082420443328"><ele>125.0</ele><time>2026-04-19T09:07:31.876Z</time></trkpt><trkpt lat="45.481738580825976" lon="9.140130497779776"><ele>125.0</ele><time>2026-04-19T09:07:32.876Z</time></trkpt><trkpt lat="45.48167552823161" lon="9.140186824576917"><ele>125.0</ele><time>2026-04-19T09:07:33.876Z</time></trkpt><trkpt lat="45.48159167540548" lon="9.140239368803584"><ele>124.99999999999999</ele><time>2026-04-19T09:07:34.876Z</time></trkpt><trkpt lat="45.48148199619541" lon="9.14030017340624"><ele>125.0</ele><time>2026-04-19T09:07:36.876Z</time></trkpt><trkpt lat="45.48139439977778" lon="9.140372433533587"><ele>125.0</ele><time>2026-04-19T09:07:38.876Z</time></trkpt><trkpt lat="45.481272112718216" lon="9.140419928118012"><ele>125.0</ele><time>2026-04-19T09:07:40.876Z</time></trkpt><trkpt lat="45.481184169422825" lon="9.140480432233915"><ele>125.0</ele><time>2026-04-19T09:07:42.876Z</time></trkpt><trkpt lat="45.481090520628854" lon="9.140541986047298"><ele>125.0</ele><time>2026-04-19T09:07:44.875Z</time></trkpt><trkpt lat="45.48101918355238" lon="9.140566281277442"><ele>125.0</ele><time>2026-04-19T09:07:46.875Z</time></trkpt><trkpt lat="45.48091519114393" lon="9.140619155005998"><ele>125.4</ele><time>2026-04-19T09:07:48.875Z</time></trkpt><trkpt lat="45.48078564564861" lon="9.140650814540264"><ele>125.8</ele><time>2026-04-19T09:07:50.875Z</time></trkpt><trkpt lat="45.480712908580436" lon="9.140662370653926"><ele>126.19999999999999</ele><time>2026-04-19T09:07:51.875Z</time></trkpt><trkpt lat="45.480620346775474" lon="9.14069145581844"><ele>126.6</ele><time>2026-04-19T09:07:53.875Z</time></trkpt><trkpt lat="45.480552425976114" lon="9.14072714620074"><ele>127.0</ele><time>2026-04-19T09:07:54.875Z</time></trkpt><trkpt lat="45.4804427007973" lon="9.140827214868287"><ele>126.66666666666667</ele><time>2026-04-19T09:07:56.875Z</time></trkpt><trkpt lat="45.480397983546005" lon="9.140913116885677"><ele>126.33333333333334</ele><time>2026-04-19T09:07:57.875Z</time></trkpt><trkpt lat="45.48035302172552" lon="9.140979282613932"><ele>126.0</ele><time>2026-04-19T09:07:58.875Z</time></trkpt><trkpt lat="45.480295251871084" lon="9.141039560587137"><ele>125.66666666666666</ele><time>2026-04-19T09:08:00.875Z</time></trkpt><trkpt lat="45.48023028083146" lon="9.141164937794132"><ele>125.33333333333333</ele><time>2026-04-19T09:08:02.875Z</time></trkpt><trkpt lat="45.48020454649036" lon="9.14127206631144"><ele>125.0</ele><time>2026-04-19T09:08:04.875Z</time></trkpt><trkpt lat="45.48016958211232" lon="9.141369933053213"><ele>124.99999999999999</ele><time>2026-04-19T09:08:07.875Z</time></trkpt><trkpt lat="45.48005564559865" lon="9.141422125353536"><ele>125.0</ele><time>2026-04-19T09:08:09.875Z</time></trkpt><trkpt lat="45.47997974194157" lon="9.141456497280808"><ele>125.0</ele><time>2026-04-19T09:08:10.875Z</time></trkpt><trkpt lat="45.4799048012409" lon="9.141492081257717"><ele>125.0</ele><time>2026-04-19T09:08:11.875Z</time></trkpt><trkpt lat="45.47984062910733" lon="9.141527300888177"><ele>124.99999999999999</ele><time>2026-04-19T09:08:12.874Z</time></trkpt><trkpt lat="45.479743476209734" lon="9.141572376363976"><ele>125.0</ele><time>2026-04-19T09:08:14.874Z</time></trkpt><trkpt lat="45.47967735997252" lon="9.141644610180668"><ele>125.33333333333333</ele><time>2026-04-19T09:08:16.874Z</time></trkpt><trkpt lat="45.47958885564716" lon="9.141694613331"><ele>125.66666666666666</ele><time>2026-04-19T09:08:19.874Z</time></trkpt><trkpt lat="45.47949416887692" lon="9.141794786635007"><ele>126.0</ele><time>2026-04-19T09:08:21.874Z</time></trkpt><trkpt lat="45.4794398518215" lon="9.14187327998922"><ele>126.33333333333334</ele><time>2026-04-19T09:08:22.874Z</time></trkpt><trkpt lat="45.47940532204362" lon="9.141970114389837"><ele>126.66666666666667</ele><time>2026-04-19T09:08:24.874Z</time></trkpt><trkpt lat="45.4793614548981" lon="9.142035015975056"><ele>127.0</ele><time>2026-04-19T09:08:28.874Z</time></trkpt><trkpt lat="45.479317602209484" lon="9.14212169012358"><ele>127.00000000000001</ele><time>2026-04-19T09:08:30.874Z</time></trkpt><trkpt lat="45.47931305542316" lon="9.142231733007131"><ele>127.0</ele><time>2026-04-19T09:08:32.874Z</time></trkpt><trkpt lat="45.47928096785312" lon="9.142323497931589"><ele>127.0</ele><time>2026-04-19T09:08:34.874Z</time></trkpt><trkpt lat="45.47922608113935" lon="9.14241805246767"><ele>127.0</ele><time>2026-04-19T09:08:36.874Z</time></trkpt><trkpt lat="45.479176338362095" lon="9.142527849381251"><ele>127.00000000000001</ele><time>2026-04-19T09:08:38.874Z</time></trkpt><trkpt lat="45.47918525415079" lon="9.142639091281415"><ele>127.0</ele><time>2026-04-19T09:08:40.874Z</time></trkpt><trkpt lat="45.47918012423992" lon="9.14278790095763"><ele>126.66666666666667</ele><time>2026-04-19T09:08:43.873Z</time></trkpt><trkpt lat="45.4791765657514" lon="9.142888123531273"><ele>126.33333333333334</ele><time>2026-04-19T09:08:45.873Z</time></trkpt><trkpt lat="45.47917804253721" lon="9.142984692096386"><ele>126.0</ele><time>2026-04-19T09:08:47.873Z</time></trkpt><trkpt lat="45.47916639089797" lon="9.143091641367326"><ele>125.66666666666666</ele><time>2026-04-19T09:08:49.873Z</time></trkpt><trkpt lat="45.47914991900591" lon="9.143221761940513"><ele>125.33333333333333</ele><time>2026-04-19T09:08:52.873Z</time></trkpt><trkpt lat="45.479077752945585" lon="9.143358038136778"><ele>125.0</ele><time>2026-04-19T09:08:54.873Z</time></trkpt><trkpt lat="45.47903718459372" lon="9.14344824342939"><ele>124.99999999999999</ele><time>2026-04-19T09:08:55.873Z</time></trkpt><trkpt lat="45.47897831602928" lon="9.143589874407114"><ele>125.0</ele><time>2026-04-19T09:08:57.873Z</time></trkpt><trkpt lat="45.47894199739159" lon="9.143666784429515"><ele>125.0</ele><time>2026-04-19T09:08:58.873Z</time></trkpt><trkpt lat="45.47889930490125" lon="9.143747908368267"><ele>125.0</ele><time>2026-04-19T09:08:59.873Z</time></trkpt><trkpt lat="45.47885904790671" lon="9.143822522921715"><ele>124.99999999999999</ele><time>2026-04-19T09:09:00.873Z</time></trkpt><trkpt lat="45.47879795725204" lon="9.143883580473046"><ele>125.0</ele><time>2026-04-19T09:09:01.873Z</time></trkpt><trkpt lat="45.47873140569928" lon="9.144029659075255"><ele>125.4</ele><time>2026-04-19T09:09:03.873Z</time></trkpt><trkpt lat="45.47871214583795" lon="9.14412164857656"><ele>125.8</ele><time>2026-04-19T09:09:04.873Z</time></trkpt><trkpt lat="45.47866241565339" lon="9.144267882400884"><ele>126.19999999999999</ele><time>2026-04-19T09:09:06.873Z</time></trkpt><trkpt lat="45.47861412772502" lon="9.144397209123882"><ele>126.6</ele><time>2026-04-19T09:09:08.873Z</time></trkpt><trkpt lat="45.478544960800775" lon="9.144523892331375"><ele>127.0</ele><time>2026-04-19T09:09:10.872Z</time></trkpt><trkpt lat="45.47850125513188" lon="9.144650158770423"><ele>127.0</ele><time>2026-04-19T09:09:12.872Z</time></trkpt><trkpt lat="45.47842893604283" lon="9.144760569790249"><ele>126.99999999999999</ele><time>2026-04-19T09:09:14.872Z</time></trkpt><trkpt lat="45.47833448724644" lon="9.144862546717272"><ele>126.99999999999999</ele><time>2026-04-19T09:09:16.872Z</time></trkpt><trkpt lat="45.478254500816" lon="9.144948249806033"><ele>127.0</ele><time>2026-04-19T09:09:18.872Z</time></trkpt><trkpt lat="45.478195782013884" lon="9.145008081765527"><ele>127.0</ele><time>2026-04-19T09:09:19.872Z</time></trkpt><trkpt lat="45.478115689389625" lon="9.145130656725108"><ele>127.19999999999999</ele><time>2026-04-19T09:09:21.872Z</time></trkpt><trkpt lat="45.4780268556934" lon="9.145236738134349"><ele>127.39999999999999</ele><time>2026-04-19T09:09:23.873Z</time></trkpt><trkpt lat="45.477967015917294" lon="9.14531503842608"><ele>127.60000000000001</ele><time>2026-04-19T09:09:25.873Z</time></trkpt><trkpt lat="45.477909174687596" lon="9.145400867779378"><ele>127.80000000000001</ele><time>2026-04-19T09:09:28.873Z</time></trkpt><trkpt lat="45.47784755064074" lon="9.145524976676091"><ele>128.0</ele><time>2026-04-19T09:09:30.872Z</time></trkpt><trkpt lat="45.477770967806535" lon="9.145605682475479"><ele>127.99999999999999</ele><time>2026-04-19T09:09:33.873Z</time></trkpt><trkpt lat="45.477720137973165" lon="9.145680825950715"><ele>128.0</ele><time>2026-04-19T09:09:36.872Z</time></trkpt><trkpt lat="45.477653868820866" lon="9.145770026590847"><ele>128.0</ele><time>2026-04-19T09:09:38.872Z</time></trkpt><trkpt lat="45.477571140937926" lon="9.145871455718025"><ele>128.0</ele><time>2026-04-19T09:09:40.872Z</time></trkpt><trkpt lat="45.477495724033275" lon="9.145971847151047"><ele>127.99999999999999</ele><time>2026-04-19T09:09:42.872Z</time></trkpt><trkpt lat="45.47745917724093" lon="9.146056353168781"><ele>128.0</ele><time>2026-04-19T09:09:45.872Z</time></trkpt><trkpt lat="45.47738798751975" lon="9.14619842723159"><ele>127.4</ele><time>2026-04-19T09:09:47.872Z</time></trkpt><trkpt lat="45.47732375775446" lon="9.146262671530135"><ele>126.80000000000001</ele><time>2026-04-19T09:09:48.872Z</time></trkpt><trkpt lat="45.477253230663955" lon="9.146318895471174"><ele>126.2</ele><time>2026-04-19T09:09:49.872Z</time></trkpt><trkpt lat="45.47720563961783" lon="9.146382542375907"><ele>125.6</ele><time>2026-04-19T09:09:50.872Z</time></trkpt><trkpt lat="45.477110076949984" lon="9.146495542251326"><ele>125.0</ele><time>2026-04-19T09:09:52.872Z</time></trkpt><trkpt lat="45.47701826399989" lon="9.146592242454238"><ele>124.83333333333333</ele><time>2026-04-19T09:09:54.872Z</time></trkpt><trkpt lat="45.47697824058985" lon="9.146675311354917"><ele>124.66666666666666</ele><time>2026-04-19T09:09:55.872Z</time></trkpt><trkpt lat="45.476912773855226" lon="9.146758598900318"><ele>124.5</ele><time>2026-04-19T09:09:56.872Z</time></trkpt><trkpt lat="45.4768652535667" lon="9.146845515142394"><ele>124.33333333333334</ele><time>2026-04-19T09:09:57.871Z</time></trkpt><trkpt lat="45.47681792540635" lon="9.146921051609345"><ele>124.16666666666667</ele><time>2026-04-19T09:09:58.871Z</time></trkpt><trkpt lat="45.47674865839615" lon="9.147041516694316"><ele>124.0</ele><time>2026-04-19T09:10:00.871Z</time></trkpt><trkpt lat="45.47668063024041" lon="9.147167604026016"><ele>124.0</ele><time>2026-04-19T09:10:02.871Z</time></trkpt><trkpt lat="45.476594702657536" lon="9.14721508126766"><ele>124.0</ele><time>2026-04-19T09:10:04.871Z</time></trkpt><trkpt lat="45.476499130452105" lon="9.147284964186502"><ele>124.0</ele><time>2026-04-19T09:10:06.871Z</time></trkpt><trkpt lat="45.47642510612779" lon="9.147333062104522"><ele>124.0</ele><time>2026-04-19T09:10:08.871Z</time></trkpt><trkpt lat="45.47636006092335" lon="9.147394442637331"><ele>124.0</ele><time>2026-04-19T09:10:10.871Z</time></trkpt><trkpt lat="45.47628070599549" lon="9.147488915275925"><ele>124.6</ele><time>2026-04-19T09:10:12.871Z</time></trkpt><trkpt lat="45.47621921860859" lon="9.147535710509175"><ele>125.2</ele><time>2026-04-19T09:10:14.871Z</time></trkpt><trkpt lat="45.47611812544068" lon="9.147619087359386"><ele>125.79999999999998</ele><time>2026-04-19T09:10:17.871Z</time></trkpt><trkpt lat="45.47606412948005" lon="9.147696669335085"><ele>126.39999999999999</ele><time>2026-04-19T09:10:18.871Z</time></trkpt><trkpt lat="45.47600258425412" lon="9.147780996139092"><ele>127.0</ele><time>2026-04-19T09:10:20.871Z</time></trkpt><trkpt lat="45.47595222449043" lon="9.147935082012197"><ele>127.0</ele><time>2026-04-19T09:10:22.871Z</time></trkpt><trkpt lat="45.47587877273101" lon="9.148006264934473"><ele>126.99999999999999</ele><time>2026-04-19T09:10:25.871Z</time></trkpt><trkpt lat="45.4757951672475" lon="9.148115877304274"><ele>126.99999999999999</ele><time>2026-04-19T09:10:27.87Z</time></trkpt><trkpt lat="45.475739314509205" lon="9.148187774257797"><ele>127.0</ele><time>2026-04-19T09:10:28.87Z</time></trkpt><trkpt lat="45.47566864033687" lon="9.148282121674566"><ele>127.0</ele><time>2026-04-19T09:10:30.87Z</time></trkpt><trkpt lat="45.475583174694314" lon="9.148330316004051"><ele>127.19999999999999</ele><time>2026-04-19T09:10:32.87Z</time></trkpt><trkpt lat="45.475522862921196" lon="9.148410020624533"><ele>127.39999999999999</ele><time>2026-04-19T09:10:34.87Z</time></trkpt><trkpt lat="45.47545491954654" lon="9.148497111348853"><ele>127.60000000000001</ele><time>2026-04-19T09:10:37.87Z</time></trkpt><trkpt lat="45.47540219997202" lon="9.148566268759426"><ele>127.80000000000001</ele><time>2026-04-19T09:10:38.87Z</time></trkpt><trkpt lat="45.475350569670866" lon="9.148633997316253"><ele>128.0</ele><time>2026-04-19T09:10:39.87Z</time></trkpt><trkpt lat="45.475267535457554" lon="9.148791396708793"><ele>128.0</ele><time>2026-04-19T09:10:41.87Z</time></trkpt><trkpt lat="45.47519245817758" lon="9.148893546820835"><ele>128.0</ele><time>2026-04-19T09:10:43.87Z</time></trkpt><trkpt lat="45.47512190544623" lon="9.148985563344088"><ele>128.0</ele><time>2026-04-19T09:10:45.87Z</time></trkpt><trkpt lat="45.47502784426547" lon="9.149039854004569"><ele>128.0</ele><time>2026-04-19T09:10:47.87Z</time></trkpt><trkpt lat="45.47497527096104" lon="9.149108818297718"><ele>128.0</ele><time>2026-04-19T09:10:49.87Z</time></trkpt><trkpt lat="45.47490730585685" lon="9.149200326588318"><ele>127.80000000000001</ele><time>2026-04-19T09:10:51.87Z</time></trkpt><trkpt lat="45.47481374948258" lon="9.149323310986492"><ele>127.60000000000001</ele><time>2026-04-19T09:10:52.87Z</time></trkpt><trkpt lat="45.47475287180374" lon="9.149403337802843"><ele>127.39999999999999</ele><time>2026-04-19T09:10:54.87Z</time></trkpt><trkpt lat="45.474720408663806" lon="9.14951787602784"><ele>127.19999999999999</ele><time>2026-04-19T09:10:55.869Z</time></trkpt><trkpt lat="45.47465630652181" lon="9.149600052906449"><ele>127.0</ele><time>2026-04-19T09:10:56.869Z</time></trkpt><trkpt lat="45.47459387948315" lon="9.149682815306958"><ele>127.16666666666667</ele><time>2026-04-19T09:10:58.869Z</time></trkpt><trkpt lat="45.47454075836031" lon="9.149752245692584"><ele>127.33333333333334</ele><time>2026-04-19T09:11:00.869Z</time></trkpt><trkpt lat="45.474447523534806" lon="9.14982783182318"><ele>127.5</ele><time>2026-04-19T09:11:03.869Z</time></trkpt><trkpt lat="45.47437627107637" lon="9.14992213068256"><ele>127.66666666666666</ele><time>2026-04-19T09:11:05.869Z</time></trkpt><trkpt lat="45.47432903210061" lon="9.149984175765507"><ele>127.83333333333333</ele><time>2026-04-19T09:11:07.869Z</time></trkpt><trkpt lat="45.47427786263182" lon="9.150048261265452"><ele>128.0</ele><time>2026-04-19T09:11:09.869Z</time></trkpt><trkpt lat="45.474205976332485" lon="9.150147849622957"><ele>127.99999999999999</ele><time>2026-04-19T09:11:11.869Z</time></trkpt><trkpt lat="45.47416483316612" lon="9.150226949573566"><ele>128.0</ele><time>2026-04-19T09:11:14.869Z</time></trkpt><trkpt lat="45.474171887580695" lon="9.150328332667485"><ele>128.0</ele><time>2026-04-19T09:11:21.869Z</time></trkpt><trkpt lat="45.47411828340106" lon="9.150413946140496"><ele>128.0</ele><time>2026-04-19T09:11:25.868Z</time></trkpt><trkpt lat="45.474066197379386" lon="9.15050792819044"><ele>127.99999999999999</ele><time>2026-04-19T09:11:28.869Z</time></trkpt><trkpt lat="45.474051453284574" lon="9.150638693179566"><ele>128.0</ele><time>2026-04-19T09:11:31.869Z</time></trkpt><trkpt lat="45.474008810195215" lon="9.150734128613534"><ele>127.80000000000001</ele><time>2026-04-19T09:11:34.868Z</time></trkpt><trkpt lat="45.4739233561571" lon="9.150886972752044"><ele>127.60000000000001</ele><time>2026-04-19T09:11:36.869Z</time></trkpt><trkpt lat="45.47386086611746" lon="9.150975065391965"><ele>127.39999999999999</ele><time>2026-04-19T09:11:37.869Z</time></trkpt><trkpt lat="45.47379820480809" lon="9.151038086386922"><ele>127.19999999999999</ele><time>2026-04-19T09:11:38.868Z</time></trkpt><trkpt lat="45.473722761500355" lon="9.15111232614277"><ele>127.0</ele><time>2026-04-19T09:11:39.868Z</time></trkpt><trkpt lat="45.47364148323487" lon="9.151166623112294"><ele>127.0</ele><time>2026-04-19T09:11:40.869Z</time></trkpt><trkpt lat="45.47354680181281" lon="9.151228680106573"><ele>126.99999999999999</ele><time>2026-04-19T09:11:41.868Z</time></trkpt><trkpt lat="45.473476354504605" lon="9.151281108997605"><ele>126.99999999999999</ele><time>2026-04-19T09:11:42.868Z</time></trkpt><trkpt lat="45.47339235883162" lon="9.151336293172808"><ele>127.0</ele><time>2026-04-19T09:11:44.868Z</time></trkpt><trkpt lat="45.47336833669594" lon="9.151431117714928"><ele>127.0</ele><time>2026-04-19T09:11:46.868Z</time></trkpt><trkpt lat="45.47327997419458" lon="9.151577693993282"><ele>126.6</ele><time>2026-04-19T09:11:48.868Z</time></trkpt><trkpt lat="45.47319215749547" lon="9.15171581137287"><ele>126.19999999999999</ele><time>2026-04-19T09:11:50.868Z</time></trkpt><trkpt lat="45.473136515570154" lon="9.151819150006812"><ele>125.8</ele><time>2026-04-19T09:11:51.868Z</time></trkpt><trkpt lat="45.47307691486247" lon="9.15190666979087"><ele>125.4</ele><time>2026-04-19T09:11:52.868Z</time></trkpt><trkpt lat="45.473024091778875" lon="9.151997613505099"><ele>125.0</ele><time>2026-04-19T09:11:54.868Z</time></trkpt><trkpt lat="45.47299119114672" lon="9.152117127324285"><ele>124.99999999999999</ele><time>2026-04-19T09:11:57.868Z</time></trkpt><trkpt lat="45.47295506743042" lon="9.15223907048885"><ele>125.0</ele><time>2026-04-19T09:11:59.868Z</time></trkpt><trkpt lat="45.4728709450245" lon="9.152316851900723"><ele>125.0</ele><time>2026-04-19T09:12:00.868Z</time></trkpt><trkpt lat="45.47280318599994" lon="9.152356620904596"><ele>125.0</ele><time>2026-04-19T09:12:01.867Z</time></trkpt><trkpt lat="45.47271856816306" lon="9.152424387474303"><ele>124.99999999999999</ele><time>2026-04-19T09:12:02.867Z</time></trkpt><trkpt lat="45.47265773628823" lon="9.1525074931353"><ele>125.0</ele><time>2026-04-19T09:12:03.867Z</time></trkpt><trkpt lat="45.4725807503832" lon="9.152607164208627"><ele>125.6</ele><time>2026-04-19T09:12:04.867Z</time></trkpt><trkpt lat="45.47249212894353" lon="9.152708505566366"><ele>126.2</ele><time>2026-04-19T09:12:06.867Z</time></trkpt><trkpt lat="45.472440040559995" lon="9.152802115943928"><ele>126.80000000000001</ele><time>2026-04-19T09:12:08.867Z</time></trkpt><trkpt lat="45.472352862925426" lon="9.152918936778951"><ele>127.4</ele><time>2026-04-19T09:12:10.867Z</time></trkpt><trkpt lat="45.47229295673024" lon="9.15300081399068"><ele>128.0</ele><time>2026-04-19T09:12:12.867Z</time></trkpt><trkpt lat="45.472224307580646" lon="9.153095137434063"><ele>127.99999999999999</ele><time>2026-04-19T09:12:14.867Z</time></trkpt><trkpt lat="45.47213289931045" lon="9.153156619935022"><ele>128.0</ele><time>2026-04-19T09:12:16.867Z</time></trkpt><trkpt lat="45.47205828430248" lon="9.153180891404535"><ele>128.0</ele><time>2026-04-19T09:12:18.867Z</time></trkpt><trkpt lat="45.47198588265625" lon="9.15321974216259"><ele>128.0</ele><time>2026-04-19T09:12:20.867Z</time></trkpt><trkpt lat="45.47191854346679" lon="9.153243590305966"><ele>127.99999999999999</ele><time>2026-04-19T09:12:22.867Z</time></trkpt><trkpt lat="45.47187028834922" lon="9.153324870215103"><ele>128.0</ele><time>2026-04-19T09:12:25.867Z</time></trkpt><trkpt lat="45.4717582302464" lon="9.153460042096809"><ele>127.80000000000001</ele><time>2026-04-19T09:12:27.867Z</time></trkpt><trkpt lat="45.47168606313923" lon="9.153556246733544"><ele>127.60000000000001</ele><time>2026-04-19T09:12:28.867Z</time></trkpt><trkpt lat="45.47160975557706" lon="9.153698852500522"><ele>127.39999999999999</ele><time>2026-04-19T09:12:30.866Z</time></trkpt><trkpt lat="45.471563714911255" lon="9.153786784715004"><ele>127.19999999999999</ele><time>2026-04-19T09:12:31.866Z</time></trkpt><trkpt lat="45.47147674414163" lon="9.153906674922787"><ele>127.0</ele><time>2026-04-19T09:12:33.866Z</time></trkpt><trkpt lat="45.47138647451939" lon="9.154021994570655"><ele>127.6</ele><time>2026-04-19T09:12:35.866Z</time></trkpt><trkpt lat="45.47132089824428" lon="9.154058437603982"><ele>128.2</ele><time>2026-04-19T09:12:36.866Z</time></trkpt><trkpt lat="45.47128392571988" lon="9.154180109134437"><ele>128.8</ele><time>2026-04-19T09:12:38.866Z</time></trkpt><trkpt lat="45.471214140675634" lon="9.15428700223811"><ele>129.4</ele><time>2026-04-19T09:12:40.866Z</time></trkpt><trkpt lat="45.471141001542186" lon="9.154427968357004"><ele>130.0</ele><time>2026-04-19T09:12:42.866Z</time></trkpt><trkpt lat="45.471078433289314" lon="9.154531404789697"><ele>130.0</ele><time>2026-04-19T09:12:44.866Z</time></trkpt><trkpt lat="45.47099108397597" lon="9.154607457468"><ele>130.0</ele><time>2026-04-19T09:12:46.866Z</time></trkpt><trkpt lat="45.47096908443227" lon="9.154708858935578"><ele>130.0</ele><time>2026-04-19T09:12:48.866Z</time></trkpt><trkpt lat="45.47092765281142" lon="9.154806390420516"><ele>130.0</ele><time>2026-04-19T09:12:51.866Z</time></trkpt><trkpt lat="45.47087392823654" lon="9.154916981288846"><ele>130.0</ele><time>2026-04-19T09:12:53.866Z</time></trkpt><trkpt lat="45.470819302236535" lon="9.15499689313424"><ele>130.0</ele><time>2026-04-19T09:12:56.866Z</time></trkpt><trkpt lat="45.470745283454335" lon="9.154985773768017"><ele>129.8</ele><time>2026-04-19T09:12:58.866Z</time></trkpt><trkpt lat="45.470622680818366" lon="9.1550291794385"><ele>129.6</ele><time>2026-04-19T09:13:00.865Z</time></trkpt><trkpt lat="45.47053838125436" lon="9.155062944108028"><ele>129.4</ele><time>2026-04-19T09:13:01.865Z</time></trkpt><trkpt lat="45.47047109937211" lon="9.155089934510585"><ele>129.2</ele><time>2026-04-19T09:13:02.865Z</time></trkpt><trkpt lat="45.47040695436226" lon="9.155129321668236"><ele>129.0</ele><time>2026-04-19T09:13:03.865Z</time></trkpt><trkpt lat="45.47031177112368" lon="9.155211698734195"><ele>128.8</ele><time>2026-04-19T09:13:05.865Z</time></trkpt><trkpt lat="45.470249560644625" lon="9.155250097679124"><ele>128.60000000000002</ele><time>2026-04-19T09:13:10.865Z</time></trkpt><trkpt lat="45.47018606566317" lon="9.155381961769779"><ele>128.4</ele><time>2026-04-19T09:13:14.865Z</time></trkpt><trkpt lat="45.47014794353132" lon="9.155522242164169"><ele>128.20000000000002</ele><time>2026-04-19T09:13:16.865Z</time></trkpt><trkpt lat="45.470164719814846" lon="9.155618882085403"><ele>128.0</ele><time>2026-04-19T09:13:18.865Z</time></trkpt><trkpt lat="45.47007138990324" lon="9.155730973173561"><ele>127.60000000000001</ele><time>2026-04-19T09:13:20.865Z</time></trkpt><trkpt lat="45.47000766289265" lon="9.155822398320359"><ele>127.20000000000002</ele><time>2026-04-19T09:13:22.865Z</time></trkpt><trkpt lat="45.4699581630743" lon="9.155981047006428"><ele>126.8</ele><time>2026-04-19T09:13:24.865Z</time></trkpt><trkpt lat="45.46986878849024" lon="9.15612715406868"><ele>126.4</ele><time>2026-04-19T09:13:26.865Z</time></trkpt><trkpt lat="45.469823877679396" lon="9.156192526771946"><ele>126.0</ele><time>2026-04-19T09:13:27.865Z</time></trkpt><trkpt lat="45.46978318192336" lon="9.156287054434225"><ele>126.0</ele><time>2026-04-19T09:13:29.864Z</time></trkpt><trkpt lat="45.46973642727321" lon="9.15635254320963"><ele>126.0</ele><time>2026-04-19T09:13:30.864Z</time></trkpt><trkpt lat="45.469695167771434" lon="9.15643068446997"><ele>126.0</ele><time>2026-04-19T09:13:31.864Z</time></trkpt><trkpt lat="45.46962192454056" lon="9.15651916536905"><ele>126.0</ele><time>2026-04-19T09:13:33.864Z</time></trkpt><trkpt lat="45.469589466159" lon="9.156628004582535"><ele>126.0</ele><time>2026-04-19T09:13:35.865Z</time></trkpt><trkpt lat="45.46951999603426" lon="9.156709797037333"><ele>126.0</ele><time>2026-04-19T09:13:37.865Z</time></trkpt><trkpt lat="45.469451364247995" lon="9.156735765251305"><ele>126.5</ele><time>2026-04-19T09:13:38.865Z</time></trkpt><trkpt lat="45.469358974201924" lon="9.15677016084066"><ele>127.0</ele><time>2026-04-19T09:13:39.865Z</time></trkpt><trkpt lat="45.46927473264175" lon="9.156801140745287"><ele>127.5</ele><time>2026-04-19T09:13:40.865Z</time></trkpt><trkpt lat="45.469228081602296" lon="9.156874230398019"><ele>128.0</ele><time>2026-04-19T09:13:41.866Z</time></trkpt><trkpt lat="45.46915930698572" lon="9.156952618130706"><ele>128.5</ele><time>2026-04-19T09:13:43.865Z</time></trkpt><trkpt lat="45.469097190136296" lon="9.157046144070375"><ele>129.0</ele><time>2026-04-19T09:13:44.865Z</time></trkpt><trkpt lat="45.46903709275876" lon="9.157124569481974"><ele>129.0</ele><time>2026-04-19T09:13:45.865Z</time></trkpt><trkpt lat="45.468990624954884" lon="9.157237868475669"><ele>129.0</ele><time>2026-04-19T09:13:46.865Z</time></trkpt><trkpt lat="45.46894084588698" lon="9.157345844179368"><ele>129.0</ele><time>2026-04-19T09:13:47.865Z</time></trkpt><trkpt lat="45.46888760610833" lon="9.157452895157341"><ele>129.0</ele><time>2026-04-19T09:13:48.865Z</time></trkpt><trkpt lat="45.468838355426485" lon="9.157552132015578"><ele>129.0</ele><time>2026-04-19T09:13:49.865Z</time></trkpt><trkpt lat="45.4688122118399" lon="9.157654766460512"><ele>129.0</ele><time>2026-04-19T09:13:50.865Z</time></trkpt><trkpt lat="45.468773823097614" lon="9.157742425730014"><ele>128.8</ele><time>2026-04-19T09:13:51.865Z</time></trkpt><trkpt lat="45.468710031432536" lon="9.157882944271332"><ele>128.60000000000002</ele><time>2026-04-19T09:13:53.865Z</time></trkpt><trkpt lat="45.4686365282219" lon="9.157983579022156"><ele>128.4</ele><time>2026-04-19T09:13:55.865Z</time></trkpt><trkpt lat="45.468576038937655" lon="9.158103057947532"><ele>128.20000000000002</ele><time>2026-04-19T09:13:57.865Z</time></trkpt><trkpt lat="45.468569120755134" lon="9.158206316881397"><ele>128.0</ele><time>2026-04-19T09:13:58.865Z</time></trkpt><trkpt lat="45.46853674459089" lon="9.158305838270214"><ele>127.0</ele><time>2026-04-19T09:13:59.865Z</time></trkpt><trkpt lat="45.46848718490022" lon="9.158437170338365"><ele>126.00000000000001</ele><time>2026-04-19T09:14:01.865Z</time></trkpt><trkpt lat="45.468442692732" lon="9.158571969616734"><ele>125.00000000000001</ele><time>2026-04-19T09:14:03.865Z</time></trkpt><trkpt lat="45.46838473052516" lon="9.158686705835796"><ele>124.0</ele><time>2026-04-19T09:14:05.865Z</time></trkpt><trkpt lat="45.46837653606155" lon="9.158785909824166"><ele>123.0</ele><time>2026-04-19T09:14:06.865Z</time></trkpt><trkpt lat="45.46837063409037" lon="9.158933357690183"><ele>122.57142857142858</ele><time>2026-04-19T09:14:07.865Z</time></trkpt><trkpt lat="45.46837579750843" lon="9.159037229200942"><ele>122.14285714285714</ele><time>2026-04-19T09:14:08.865Z</time></trkpt><trkpt lat="45.4683678241109" lon="9.15912803745712"><ele>121.71428571428572</ele><time>2026-04-19T09:14:09.865Z</time></trkpt><trkpt lat="45.468356147598826" lon="9.159238608573729"><ele>121.28571428571429</ele><time>2026-04-19T09:14:10.865Z</time></trkpt><trkpt lat="45.46835668551506" lon="9.159346842588475"><ele>120.85714285714286</ele><time>2026-04-19T09:14:11.865Z</time></trkpt><trkpt lat="45.468350183442176" lon="9.159456166865173"><ele>120.42857142857143</ele><time>2026-04-19T09:14:12.865Z</time></trkpt><trkpt lat="45.46835811529467" lon="9.159567530266358"><ele>120.0</ele><time>2026-04-19T09:14:13.865Z</time></trkpt><trkpt lat="45.4683572636325" lon="9.159660133674926"><ele>120.0</ele><time>2026-04-19T09:14:14.864Z</time></trkpt><trkpt lat="45.46835345953829" lon="9.159809745807959"><ele>120.0</ele><time>2026-04-19T09:14:16.864Z</time></trkpt><trkpt lat="45.46835152873029" lon="9.159910653085443"><ele>120.0</ele><time>2026-04-19T09:14:17.864Z</time></trkpt><trkpt lat="45.468353930259624" lon="9.1600072636559"><ele>120.0</ele><time>2026-04-19T09:14:18.864Z</time></trkpt><trkpt lat="45.46835097764798" lon="9.16014900554296"><ele>120.0</ele><time>2026-04-19T09:14:20.864Z</time></trkpt><trkpt lat="45.46833224912817" lon="9.16024624177356"><ele>120.0</ele><time>2026-04-19T09:14:22.864Z</time></trkpt><trkpt lat="45.468340197916675" lon="9.16035915628261"><ele>120.28571428571429</ele><time>2026-04-19T09:14:47.863Z</time></trkpt><trkpt lat="45.46833279416368" lon="9.160451708526612"><ele>120.57142857142856</ele><time>2026-04-19T09:14:51.863Z</time></trkpt><trkpt lat="45.46826976113159" lon="9.160462213077414"><ele>120.85714285714285</ele><time>2026-04-19T09:14:55.863Z</time></trkpt><trkpt lat="45.46821514384518" lon="9.160530168715729"><ele>121.14285714285714</ele><time>2026-04-19T09:14:58.863Z</time></trkpt><trkpt lat="45.468144428617954" lon="9.160529601111312"><ele>121.42857142857142</ele><time>2026-04-19T09:15:02.863Z</time></trkpt><trkpt lat="45.46807775040492" lon="9.160473414220146"><ele>121.7142857142857</ele><time>2026-04-19T09:15:05.863Z</time></trkpt><trkpt lat="45.4680248844639" lon="9.160418055629375"><ele>121.99999999999999</ele><time>2026-04-19T09:15:07.863Z</time></trkpt><trkpt lat="45.46797164603329" lon="9.160320254563613"><ele>123.39999999999999</ele><time>2026-04-19T09:15:09.863Z</time></trkpt><trkpt lat="45.46787562214158" lon="9.160192607749542"><ele>124.79999999999998</ele><time>2026-04-19T09:15:11.863Z</time></trkpt><trkpt lat="45.46779900439685" lon="9.16010680215635"><ele>126.2</ele><time>2026-04-19T09:15:13.862Z</time></trkpt><trkpt lat="45.46771777504727" lon="9.160005562052094"><ele>127.6</ele><time>2026-04-19T09:15:15.862Z</time></trkpt><trkpt lat="45.46766087063193" lon="9.15992353469869"><ele>129.0</ele><time>2026-04-19T09:15:17.862Z</time></trkpt><trkpt lat="45.46757957730973" lon="9.15986031066803"><ele>129.0</ele><time>2026-04-19T09:15:19.862Z</time></trkpt><trkpt lat="45.4674874150508" lon="9.159838685338762"><ele>129.0</ele><time>2026-04-19T09:15:21.862Z</time></trkpt><trkpt lat="45.46739660816948" lon="9.159842271449426"><ele>129.0</ele><time>2026-04-19T09:15:23.862Z</time></trkpt><trkpt lat="45.46731206172237" lon="9.159807491705255"><ele>129.0</ele><time>2026-04-19T09:15:26.862Z</time></trkpt><trkpt lat="45.46723156835118" lon="9.159745656223853"><ele>129.0</ele><time>2026-04-19T09:15:29.862Z</time></trkpt><trkpt lat="45.46716166435603" lon="9.159707352272472"><ele>129.0</ele><time>2026-04-19T09:15:32.862Z</time></trkpt><trkpt lat="45.46715128029723" lon="9.159607454268228"><ele>129.0</ele><time>2026-04-19T09:15:36.862Z</time></trkpt><trkpt lat="45.46717360888706" lon="9.159750358983006"><ele>129.0</ele><time>2026-04-19T09:16:02.004Z</time></trkpt><trkpt lat="45.467107310301735" lon="9.160090167285045"><ele>129.0</ele><time>2026-04-19T09:16:35.003Z</time></trkpt><trkpt lat="45.46714180372989" lon="9.16038747220292"><ele>130.0</ele><time>2026-04-19T09:16:36.003Z</time></trkpt><trkpt lat="45.46716755729501" lon="9.160501465810144"><ele>130.0</ele><time>2026-04-19T09:17:24.858Z</time></trkpt><trkpt lat="45.46724684762111" lon="9.160532227007325"><ele>130.0</ele><time>2026-04-19T09:17:32.858Z</time></trkpt></trkseg></trk></gpx>